<?xml version="1.0" encoding="UTF-8" standalone="no" ?>
<gpx xmlns="http://www.topografix.com/GPX/1/1" xmlns:xsi="http://www.w3.org/2001/XMLSchema-instance" xsi:schemaLocation="http://www.topografix.com/GPX/1/1 http://www.topografix.com/GPX/1/1/gpx.xsd" version="1.1" creator="VisuGPX - https://www.visugpx.com">
  <metadata>
    <name>Vtt st jean de la blaquiere</name>
    <desc><![CDATA[Ici, il s'agit d'une sortie typée AM qui démarre avec une longue ascension essentiellement sur chemin pour aboutir sur un single qui nous fait profiter des paysages. Arrivés sur la route on se dirige au col du vent pour emprunter un sentier descendant avec épingles larges et un joli passage très pentu. on poursuit sur la draille et on enchaine sur un sentier très ludique. arrivé tout en bas on reprend un chemin montant qui nous conduit au pied du rocher des vierges. de là on reprend le chemin (via Rabieux) et rapidement on enquille sur une belle trace qui nous pose dans les ruffes toujours aussi ludiques que l'on va traverser pour retrouver la route vers st jean. Enjoy !]]></desc>
  </metadata>
  <trk>
    <name><![CDATA[Vtt st jean de la blaquiere_1]]></name>
    <trkseg>
      <trkpt lat="43.7146" lon="3.42321">
        <ele>235</ele>
        <time>2016-11-06T07:10:39Z</time>
      </trkpt>
      <trkpt lat="43.7146" lon="3.42321">
        <ele>235</ele>
        <time>2016-11-06T07:17:59Z</time>
      </trkpt>
      <trkpt lat="43.71457" lon="3.42319">
        <ele>223.9</ele>
        <time>2016-11-06T07:25:00Z</time>
      </trkpt>
      <trkpt lat="43.71455" lon="3.42317">
        <ele>223.7</ele>
        <time>2016-11-06T07:25:09Z</time>
      </trkpt>
      <trkpt lat="43.71453" lon="3.42305">
        <ele>224.3</ele>
        <time>2016-11-06T07:25:19Z</time>
      </trkpt>
      <trkpt lat="43.71449" lon="3.42295">
        <ele>224.4</ele>
        <time>2016-11-06T07:25:23Z</time>
      </trkpt>
      <trkpt lat="43.71447" lon="3.42284">
        <ele>224.6</ele>
        <time>2016-11-06T07:25:28Z</time>
      </trkpt>
      <trkpt lat="43.71445" lon="3.4227">
        <ele>224.3</ele>
        <time>2016-11-06T07:25:32Z</time>
      </trkpt>
      <trkpt lat="43.71444" lon="3.42259">
        <ele>224.4</ele>
        <time>2016-11-06T07:25:37Z</time>
      </trkpt>
      <trkpt lat="43.71444" lon="3.42256">
        <ele>224.6</ele>
        <time>2016-11-06T07:25:44Z</time>
      </trkpt>
      <trkpt lat="43.71443" lon="3.42269">
        <ele>224.8</ele>
        <time>2016-11-06T07:25:58Z</time>
      </trkpt>
      <trkpt lat="43.71442" lon="3.42279">
        <ele>224.6</ele>
        <time>2016-11-06T07:26:03Z</time>
      </trkpt>
      <trkpt lat="43.71442" lon="3.42282">
        <ele>224.1</ele>
        <time>2016-11-06T07:26:10Z</time>
      </trkpt>
      <trkpt lat="43.71441" lon="3.42286">
        <ele>223.3</ele>
        <time>2016-11-06T07:26:19Z</time>
      </trkpt>
      <trkpt lat="43.71439" lon="3.42287">
        <ele>222.8</ele>
        <time>2016-11-06T07:26:26Z</time>
      </trkpt>
      <trkpt lat="43.71435" lon="3.42287">
        <ele>222.7</ele>
        <time>2016-11-06T07:26:36Z</time>
      </trkpt>
      <trkpt lat="43.71434" lon="3.42286">
        <ele>223</ele>
        <time>2016-11-06T07:26:43Z</time>
      </trkpt>
      <trkpt lat="43.71442" lon="3.42282">
        <ele>221.3</ele>
        <time>2016-11-06T07:26:13Z</time>
      </trkpt>
      <trkpt lat="43.71441" lon="3.42286">
        <ele>221.1</ele>
        <time>2016-11-06T07:27:26Z</time>
      </trkpt>
      <trkpt lat="43.7144" lon="3.42286">
        <ele>221.3</ele>
        <time>2016-11-06T07:27:33Z</time>
      </trkpt>
      <trkpt lat="43.71438" lon="3.42283">
        <ele>222.6</ele>
        <time>2016-11-06T07:27:56Z</time>
      </trkpt>
      <trkpt lat="43.71439" lon="3.42279">
        <ele>223.3</ele>
        <time>2016-11-06T07:28:03Z</time>
      </trkpt>
      <trkpt lat="43.71437" lon="3.42282">
        <ele>223.5</ele>
        <time>2016-11-06T07:28:15Z</time>
      </trkpt>
      <trkpt lat="43.71436" lon="3.42284">
        <ele>223</ele>
        <time>2016-11-06T07:28:22Z</time>
      </trkpt>
      <trkpt lat="43.71445" lon="3.42281">
        <ele>222.8</ele>
        <time>2016-11-06T07:27:55Z</time>
      </trkpt>
      <trkpt lat="43.71453" lon="3.42279">
        <ele>222.8</ele>
        <time>2016-11-06T07:29:04Z</time>
      </trkpt>
      <trkpt lat="43.71461" lon="3.42283">
        <ele>222.8</ele>
        <time>2016-11-06T07:29:06Z</time>
      </trkpt>
      <trkpt lat="43.71466" lon="3.42297">
        <ele>222.4</ele>
        <time>2016-11-06T07:29:08Z</time>
      </trkpt>
      <trkpt lat="43.71468" lon="3.4231">
        <ele>223.4</ele>
        <time>2016-11-06T07:29:10Z</time>
      </trkpt>
      <trkpt lat="43.7147" lon="3.42327">
        <ele>222.3</ele>
        <time>2016-11-06T07:29:12Z</time>
      </trkpt>
      <trkpt lat="43.7147" lon="3.42342">
        <ele>220.5</ele>
        <time>2016-11-06T07:29:14Z</time>
      </trkpt>
      <trkpt lat="43.7147" lon="3.42362">
        <ele>220.5</ele>
        <time>2016-11-06T07:29:16Z</time>
      </trkpt>
      <trkpt lat="43.7147" lon="3.42374">
        <ele>220</ele>
        <time>2016-11-06T07:29:17Z</time>
      </trkpt>
      <trkpt lat="43.7147" lon="3.42385">
        <ele>219.5</ele>
        <time>2016-11-06T07:29:18Z</time>
      </trkpt>
      <trkpt lat="43.7147" lon="3.42398">
        <ele>219.7</ele>
        <time>2016-11-06T07:29:19Z</time>
      </trkpt>
      <trkpt lat="43.7147" lon="3.42411">
        <ele>219.2</ele>
        <time>2016-11-06T07:29:20Z</time>
      </trkpt>
      <trkpt lat="43.71471" lon="3.42425">
        <ele>219</ele>
        <time>2016-11-06T07:29:21Z</time>
      </trkpt>
      <trkpt lat="43.71472" lon="3.42439">
        <ele>219</ele>
        <time>2016-11-06T07:29:22Z</time>
      </trkpt>
      <trkpt lat="43.71472" lon="3.42452">
        <ele>218.5</ele>
        <time>2016-11-06T07:29:23Z</time>
      </trkpt>
      <trkpt lat="43.71473" lon="3.42465">
        <ele>217.8</ele>
        <time>2016-11-06T07:29:24Z</time>
      </trkpt>
      <trkpt lat="43.71473" lon="3.42477">
        <ele>217.5</ele>
        <time>2016-11-06T07:29:25Z</time>
      </trkpt>
      <trkpt lat="43.71474" lon="3.42492">
        <ele>217.2</ele>
        <time>2016-11-06T07:29:26Z</time>
      </trkpt>
      <trkpt lat="43.71474" lon="3.42503">
        <ele>216.5</ele>
        <time>2016-11-06T07:29:27Z</time>
      </trkpt>
      <trkpt lat="43.71474" lon="3.42514">
        <ele>215.4</ele>
        <time>2016-11-06T07:29:28Z</time>
      </trkpt>
      <trkpt lat="43.71474" lon="3.42525">
        <ele>214.2</ele>
        <time>2016-11-06T07:29:29Z</time>
      </trkpt>
      <trkpt lat="43.71475" lon="3.42537">
        <ele>212.8</ele>
        <time>2016-11-06T07:29:30Z</time>
      </trkpt>
      <trkpt lat="43.71475" lon="3.42547">
        <ele>211.8</ele>
        <time>2016-11-06T07:29:31Z</time>
      </trkpt>
      <trkpt lat="43.71474" lon="3.42558">
        <ele>210.7</ele>
        <time>2016-11-06T07:29:32Z</time>
      </trkpt>
      <trkpt lat="43.71472" lon="3.42576">
        <ele>209.1</ele>
        <time>2016-11-06T07:29:34Z</time>
      </trkpt>
      <trkpt lat="43.71469" lon="3.4259">
        <ele>208.2</ele>
        <time>2016-11-06T07:29:36Z</time>
      </trkpt>
      <trkpt lat="43.7146" lon="3.426">
        <ele>206.8</ele>
        <time>2016-11-06T07:29:38Z</time>
      </trkpt>
      <trkpt lat="43.71449" lon="3.42605">
        <ele>205.9</ele>
        <time>2016-11-06T07:29:40Z</time>
      </trkpt>
      <trkpt lat="43.71439" lon="3.4261">
        <ele>206.3</ele>
        <time>2016-11-06T07:29:42Z</time>
      </trkpt>
      <trkpt lat="43.71433" lon="3.42619">
        <ele>207</ele>
        <time>2016-11-06T07:29:44Z</time>
      </trkpt>
      <trkpt lat="43.71426" lon="3.42628">
        <ele>207.3</ele>
        <time>2016-11-06T07:29:46Z</time>
      </trkpt>
      <trkpt lat="43.7142" lon="3.42639">
        <ele>208</ele>
        <time>2016-11-06T07:29:48Z</time>
      </trkpt>
      <trkpt lat="43.71414" lon="3.4265">
        <ele>207.9</ele>
        <time>2016-11-06T07:29:50Z</time>
      </trkpt>
      <trkpt lat="43.71411" lon="3.42662">
        <ele>207.3</ele>
        <time>2016-11-06T07:29:52Z</time>
      </trkpt>
      <trkpt lat="43.71408" lon="3.42677">
        <ele>206.7</ele>
        <time>2016-11-06T07:29:54Z</time>
      </trkpt>
      <trkpt lat="43.71405" lon="3.42692">
        <ele>206.2</ele>
        <time>2016-11-06T07:29:56Z</time>
      </trkpt>
      <trkpt lat="43.71402" lon="3.42708">
        <ele>205.7</ele>
        <time>2016-11-06T07:29:58Z</time>
      </trkpt>
      <trkpt lat="43.71399" lon="3.42724">
        <ele>205.6</ele>
        <time>2016-11-06T07:30:00Z</time>
      </trkpt>
      <trkpt lat="43.71397" lon="3.42737">
        <ele>206.3</ele>
        <time>2016-11-06T07:30:02Z</time>
      </trkpt>
      <trkpt lat="43.71394" lon="3.42748">
        <ele>207.8</ele>
        <time>2016-11-06T07:30:04Z</time>
      </trkpt>
      <trkpt lat="43.71392" lon="3.42759">
        <ele>208.9</ele>
        <time>2016-11-06T07:30:06Z</time>
      </trkpt>
      <trkpt lat="43.71389" lon="3.42771">
        <ele>209.1</ele>
        <time>2016-11-06T07:30:08Z</time>
      </trkpt>
      <trkpt lat="43.71387" lon="3.42784">
        <ele>209.1</ele>
        <time>2016-11-06T07:30:10Z</time>
      </trkpt>
      <trkpt lat="43.71385" lon="3.42797">
        <ele>209.2</ele>
        <time>2016-11-06T07:30:13Z</time>
      </trkpt>
      <trkpt lat="43.71384" lon="3.42808">
        <ele>209.3</ele>
        <time>2016-11-06T07:30:17Z</time>
      </trkpt>
      <trkpt lat="43.7138" lon="3.4282">
        <ele>209.6</ele>
        <time>2016-11-06T07:30:21Z</time>
      </trkpt>
      <trkpt lat="43.71377" lon="3.42832">
        <ele>209.8</ele>
        <time>2016-11-06T07:30:24Z</time>
      </trkpt>
      <trkpt lat="43.71375" lon="3.42842">
        <ele>210.2</ele>
        <time>2016-11-06T07:30:27Z</time>
      </trkpt>
      <trkpt lat="43.71374" lon="3.42853">
        <ele>210.8</ele>
        <time>2016-11-06T07:30:31Z</time>
      </trkpt>
      <trkpt lat="43.71375" lon="3.42863">
        <ele>211.3</ele>
        <time>2016-11-06T07:30:35Z</time>
      </trkpt>
      <trkpt lat="43.71377" lon="3.42875">
        <ele>211.5</ele>
        <time>2016-11-06T07:30:39Z</time>
      </trkpt>
      <trkpt lat="43.7138" lon="3.42884">
        <ele>211.4</ele>
        <time>2016-11-06T07:30:42Z</time>
      </trkpt>
      <trkpt lat="43.71384" lon="3.42895">
        <ele>211.6</ele>
        <time>2016-11-06T07:30:46Z</time>
      </trkpt>
      <trkpt lat="43.71388" lon="3.42904">
        <ele>211.9</ele>
        <time>2016-11-06T07:30:49Z</time>
      </trkpt>
      <trkpt lat="43.71394" lon="3.42915">
        <ele>212.1</ele>
        <time>2016-11-06T07:30:52Z</time>
      </trkpt>
      <trkpt lat="43.71397" lon="3.42924">
        <ele>212.2</ele>
        <time>2016-11-06T07:30:55Z</time>
      </trkpt>
      <trkpt lat="43.71401" lon="3.42934">
        <ele>212</ele>
        <time>2016-11-06T07:30:59Z</time>
      </trkpt>
      <trkpt lat="43.71404" lon="3.42945">
        <ele>211.9</ele>
        <time>2016-11-06T07:31:02Z</time>
      </trkpt>
      <trkpt lat="43.71408" lon="3.42957">
        <ele>211.9</ele>
        <time>2016-11-06T07:31:05Z</time>
      </trkpt>
      <trkpt lat="43.71412" lon="3.42968">
        <ele>212.1</ele>
        <time>2016-11-06T07:31:09Z</time>
      </trkpt>
      <trkpt lat="43.71415" lon="3.42981">
        <ele>212.5</ele>
        <time>2016-11-06T07:31:12Z</time>
      </trkpt>
      <trkpt lat="43.71418" lon="3.42994">
        <ele>212.8</ele>
        <time>2016-11-06T07:31:15Z</time>
      </trkpt>
      <trkpt lat="43.7142" lon="3.43007">
        <ele>213.1</ele>
        <time>2016-11-06T07:31:18Z</time>
      </trkpt>
      <trkpt lat="43.71422" lon="3.43019">
        <ele>213.5</ele>
        <time>2016-11-06T07:31:21Z</time>
      </trkpt>
      <trkpt lat="43.71423" lon="3.43031">
        <ele>213.9</ele>
        <time>2016-11-06T07:31:24Z</time>
      </trkpt>
      <trkpt lat="43.71422" lon="3.43042">
        <ele>214.4</ele>
        <time>2016-11-06T07:31:27Z</time>
      </trkpt>
      <trkpt lat="43.71419" lon="3.43054">
        <ele>214.7</ele>
        <time>2016-11-06T07:31:30Z</time>
      </trkpt>
      <trkpt lat="43.71417" lon="3.43067">
        <ele>215.4</ele>
        <time>2016-11-06T07:31:34Z</time>
      </trkpt>
      <trkpt lat="43.71414" lon="3.43078">
        <ele>215.7</ele>
        <time>2016-11-06T07:31:37Z</time>
      </trkpt>
      <trkpt lat="43.71411" lon="3.4309">
        <ele>216.1</ele>
        <time>2016-11-06T07:31:40Z</time>
      </trkpt>
      <trkpt lat="43.71409" lon="3.43102">
        <ele>216.5</ele>
        <time>2016-11-06T07:31:43Z</time>
      </trkpt>
      <trkpt lat="43.71407" lon="3.43112">
        <ele>218.5</ele>
        <time>2016-11-06T07:31:46Z</time>
      </trkpt>
      <trkpt lat="43.71405" lon="3.43125">
        <ele>218.8</ele>
        <time>2016-11-06T07:31:49Z</time>
      </trkpt>
      <trkpt lat="43.71403" lon="3.43138">
        <ele>219.1</ele>
        <time>2016-11-06T07:31:52Z</time>
      </trkpt>
      <trkpt lat="43.71401" lon="3.4315">
        <ele>219.3</ele>
        <time>2016-11-06T07:31:55Z</time>
      </trkpt>
      <trkpt lat="43.71399" lon="3.4316">
        <ele>219.4</ele>
        <time>2016-11-06T07:31:58Z</time>
      </trkpt>
      <trkpt lat="43.71397" lon="3.43171">
        <ele>219.6</ele>
        <time>2016-11-06T07:32:01Z</time>
      </trkpt>
      <trkpt lat="43.71396" lon="3.43182">
        <ele>220.1</ele>
        <time>2016-11-06T07:32:04Z</time>
      </trkpt>
      <trkpt lat="43.71394" lon="3.43193">
        <ele>220.7</ele>
        <time>2016-11-06T07:32:07Z</time>
      </trkpt>
      <trkpt lat="43.71392" lon="3.43206">
        <ele>221.1</ele>
        <time>2016-11-06T07:32:10Z</time>
      </trkpt>
      <trkpt lat="43.71392" lon="3.4322">
        <ele>221.3</ele>
        <time>2016-11-06T07:32:13Z</time>
      </trkpt>
      <trkpt lat="43.71391" lon="3.4323">
        <ele>221.6</ele>
        <time>2016-11-06T07:32:16Z</time>
      </trkpt>
      <trkpt lat="43.71392" lon="3.43241">
        <ele>222.2</ele>
        <time>2016-11-06T07:32:19Z</time>
      </trkpt>
      <trkpt lat="43.71392" lon="3.43251">
        <ele>222.7</ele>
        <time>2016-11-06T07:32:22Z</time>
      </trkpt>
      <trkpt lat="43.71392" lon="3.43263">
        <ele>223.2</ele>
        <time>2016-11-06T07:32:25Z</time>
      </trkpt>
      <trkpt lat="43.71391" lon="3.43274">
        <ele>223.7</ele>
        <time>2016-11-06T07:32:28Z</time>
      </trkpt>
      <trkpt lat="43.7139" lon="3.43286">
        <ele>224.5</ele>
        <time>2016-11-06T07:32:31Z</time>
      </trkpt>
      <trkpt lat="43.71388" lon="3.43298">
        <ele>225.2</ele>
        <time>2016-11-06T07:32:34Z</time>
      </trkpt>
      <trkpt lat="43.71385" lon="3.4331">
        <ele>225.9</ele>
        <time>2016-11-06T07:32:37Z</time>
      </trkpt>
      <trkpt lat="43.71381" lon="3.43323">
        <ele>226.8</ele>
        <time>2016-11-06T07:32:41Z</time>
      </trkpt>
      <trkpt lat="43.71376" lon="3.43335">
        <ele>227.3</ele>
        <time>2016-11-06T07:32:44Z</time>
      </trkpt>
      <trkpt lat="43.71373" lon="3.43345">
        <ele>227.9</ele>
        <time>2016-11-06T07:32:47Z</time>
      </trkpt>
      <trkpt lat="43.71368" lon="3.43355">
        <ele>228.4</ele>
        <time>2016-11-06T07:32:50Z</time>
      </trkpt>
      <trkpt lat="43.71363" lon="3.43367">
        <ele>229</ele>
        <time>2016-11-06T07:32:54Z</time>
      </trkpt>
      <trkpt lat="43.71359" lon="3.43378">
        <ele>229.3</ele>
        <time>2016-11-06T07:32:57Z</time>
      </trkpt>
      <trkpt lat="43.71354" lon="3.43389">
        <ele>229.5</ele>
        <time>2016-11-06T07:33:00Z</time>
      </trkpt>
      <trkpt lat="43.71349" lon="3.43399">
        <ele>229.6</ele>
        <time>2016-11-06T07:33:03Z</time>
      </trkpt>
      <trkpt lat="43.71346" lon="3.43409">
        <ele>229.6</ele>
        <time>2016-11-06T07:33:06Z</time>
      </trkpt>
      <trkpt lat="43.71343" lon="3.43417">
        <ele>229.7</ele>
        <time>2016-11-06T07:33:09Z</time>
      </trkpt>
      <trkpt lat="43.71337" lon="3.43429">
        <ele>230</ele>
        <time>2016-11-06T07:33:13Z</time>
      </trkpt>
      <trkpt lat="43.71333" lon="3.43439">
        <ele>230.2</ele>
        <time>2016-11-06T07:33:16Z</time>
      </trkpt>
      <trkpt lat="43.71329" lon="3.43451">
        <ele>230.5</ele>
        <time>2016-11-06T07:33:19Z</time>
      </trkpt>
      <trkpt lat="43.71325" lon="3.43459">
        <ele>230.8</ele>
        <time>2016-11-06T07:33:22Z</time>
      </trkpt>
      <trkpt lat="43.71321" lon="3.43468">
        <ele>230.9</ele>
        <time>2016-11-06T07:33:25Z</time>
      </trkpt>
      <trkpt lat="43.71316" lon="3.43478">
        <ele>231</ele>
        <time>2016-11-06T07:33:28Z</time>
      </trkpt>
      <trkpt lat="43.71313" lon="3.43488">
        <ele>231.5</ele>
        <time>2016-11-06T07:33:31Z</time>
      </trkpt>
      <trkpt lat="43.71309" lon="3.435">
        <ele>231.9</ele>
        <time>2016-11-06T07:33:35Z</time>
      </trkpt>
      <trkpt lat="43.71309" lon="3.43512">
        <ele>232.3</ele>
        <time>2016-11-06T07:33:38Z</time>
      </trkpt>
      <trkpt lat="43.71311" lon="3.43523">
        <ele>232.5</ele>
        <time>2016-11-06T07:33:40Z</time>
      </trkpt>
      <trkpt lat="43.71313" lon="3.43532">
        <ele>233.1</ele>
        <time>2016-11-06T07:33:43Z</time>
      </trkpt>
      <trkpt lat="43.71315" lon="3.43543">
        <ele>233.5</ele>
        <time>2016-11-06T07:33:46Z</time>
      </trkpt>
      <trkpt lat="43.71316" lon="3.43554">
        <ele>233.8</ele>
        <time>2016-11-06T07:33:49Z</time>
      </trkpt>
      <trkpt lat="43.71316" lon="3.43566">
        <ele>234</ele>
        <time>2016-11-06T07:33:52Z</time>
      </trkpt>
      <trkpt lat="43.71317" lon="3.43578">
        <ele>234.3</ele>
        <time>2016-11-06T07:33:55Z</time>
      </trkpt>
      <trkpt lat="43.71318" lon="3.43591">
        <ele>236</ele>
        <time>2016-11-06T07:33:58Z</time>
      </trkpt>
      <trkpt lat="43.71321" lon="3.43602">
        <ele>238.9</ele>
        <time>2016-11-06T07:34:00Z</time>
      </trkpt>
      <trkpt lat="43.71323" lon="3.43616">
        <ele>240.9</ele>
        <time>2016-11-06T07:34:02Z</time>
      </trkpt>
      <trkpt lat="43.71325" lon="3.43628">
        <ele>241.8</ele>
        <time>2016-11-06T07:34:04Z</time>
      </trkpt>
      <trkpt lat="43.71328" lon="3.43637">
        <ele>241.4</ele>
        <time>2016-11-06T07:34:06Z</time>
      </trkpt>
      <trkpt lat="43.7133" lon="3.4365">
        <ele>241.4</ele>
        <time>2016-11-06T07:34:09Z</time>
      </trkpt>
      <trkpt lat="43.71332" lon="3.43662">
        <ele>241.4</ele>
        <time>2016-11-06T07:34:12Z</time>
      </trkpt>
      <trkpt lat="43.71333" lon="3.43672">
        <ele>241.4</ele>
        <time>2016-11-06T07:34:15Z</time>
      </trkpt>
      <trkpt lat="43.71336" lon="3.43684">
        <ele>241.5</ele>
        <time>2016-11-06T07:34:19Z</time>
      </trkpt>
      <trkpt lat="43.7134" lon="3.43693">
        <ele>241.4</ele>
        <time>2016-11-06T07:34:23Z</time>
      </trkpt>
      <trkpt lat="43.71346" lon="3.43701">
        <ele>241.8</ele>
        <time>2016-11-06T07:34:27Z</time>
      </trkpt>
      <trkpt lat="43.71352" lon="3.43707">
        <ele>242.2</ele>
        <time>2016-11-06T07:34:31Z</time>
      </trkpt>
      <trkpt lat="43.71359" lon="3.43716">
        <ele>242.5</ele>
        <time>2016-11-06T07:34:35Z</time>
      </trkpt>
      <trkpt lat="43.71366" lon="3.43724">
        <ele>242.7</ele>
        <time>2016-11-06T07:34:39Z</time>
      </trkpt>
      <trkpt lat="43.71372" lon="3.43731">
        <ele>243.2</ele>
        <time>2016-11-06T07:34:42Z</time>
      </trkpt>
      <trkpt lat="43.71379" lon="3.43736">
        <ele>243.7</ele>
        <time>2016-11-06T07:34:47Z</time>
      </trkpt>
      <trkpt lat="43.71386" lon="3.43741">
        <ele>244.3</ele>
        <time>2016-11-06T07:34:51Z</time>
      </trkpt>
      <trkpt lat="43.71394" lon="3.43747">
        <ele>245</ele>
        <time>2016-11-06T07:34:55Z</time>
      </trkpt>
      <trkpt lat="43.71403" lon="3.43752">
        <ele>245.6</ele>
        <time>2016-11-06T07:34:59Z</time>
      </trkpt>
      <trkpt lat="43.71411" lon="3.43757">
        <ele>246.2</ele>
        <time>2016-11-06T07:35:03Z</time>
      </trkpt>
      <trkpt lat="43.71419" lon="3.43764">
        <ele>246.6</ele>
        <time>2016-11-06T07:35:07Z</time>
      </trkpt>
      <trkpt lat="43.71426" lon="3.43771">
        <ele>247.2</ele>
        <time>2016-11-06T07:35:11Z</time>
      </trkpt>
      <trkpt lat="43.71432" lon="3.43776">
        <ele>247.6</ele>
        <time>2016-11-06T07:35:15Z</time>
      </trkpt>
      <trkpt lat="43.71439" lon="3.43781">
        <ele>248</ele>
        <time>2016-11-06T07:35:18Z</time>
      </trkpt>
      <trkpt lat="43.71448" lon="3.43788">
        <ele>248.3</ele>
        <time>2016-11-06T07:35:21Z</time>
      </trkpt>
      <trkpt lat="43.71453" lon="3.43794">
        <ele>248.6</ele>
        <time>2016-11-06T07:35:24Z</time>
      </trkpt>
      <trkpt lat="43.71461" lon="3.43798">
        <ele>249.1</ele>
        <time>2016-11-06T07:35:28Z</time>
      </trkpt>
      <trkpt lat="43.7147" lon="3.43802">
        <ele>249.7</ele>
        <time>2016-11-06T07:35:33Z</time>
      </trkpt>
      <trkpt lat="43.71477" lon="3.43804">
        <ele>250.1</ele>
        <time>2016-11-06T07:35:36Z</time>
      </trkpt>
      <trkpt lat="43.71484" lon="3.43808">
        <ele>250.7</ele>
        <time>2016-11-06T07:35:40Z</time>
      </trkpt>
      <trkpt lat="43.71491" lon="3.43812">
        <ele>251.3</ele>
        <time>2016-11-06T07:35:44Z</time>
      </trkpt>
      <trkpt lat="43.71499" lon="3.43818">
        <ele>252.1</ele>
        <time>2016-11-06T07:35:48Z</time>
      </trkpt>
      <trkpt lat="43.71506" lon="3.43821">
        <ele>252.8</ele>
        <time>2016-11-06T07:35:52Z</time>
      </trkpt>
      <trkpt lat="43.71513" lon="3.43824">
        <ele>253.5</ele>
        <time>2016-11-06T07:35:56Z</time>
      </trkpt>
      <trkpt lat="43.71521" lon="3.43829">
        <ele>254.2</ele>
        <time>2016-11-06T07:36:00Z</time>
      </trkpt>
      <trkpt lat="43.71527" lon="3.43837">
        <ele>254.9</ele>
        <time>2016-11-06T07:36:04Z</time>
      </trkpt>
      <trkpt lat="43.71533" lon="3.43845">
        <ele>255.3</ele>
        <time>2016-11-06T07:36:07Z</time>
      </trkpt>
      <trkpt lat="43.7154" lon="3.43853">
        <ele>255.9</ele>
        <time>2016-11-06T07:36:10Z</time>
      </trkpt>
      <trkpt lat="43.71546" lon="3.43863">
        <ele>256.7</ele>
        <time>2016-11-06T07:36:14Z</time>
      </trkpt>
      <trkpt lat="43.71551" lon="3.43873">
        <ele>257.5</ele>
        <time>2016-11-06T07:36:18Z</time>
      </trkpt>
      <trkpt lat="43.71557" lon="3.43881">
        <ele>258.2</ele>
        <time>2016-11-06T07:36:22Z</time>
      </trkpt>
      <trkpt lat="43.71563" lon="3.43888">
        <ele>258.6</ele>
        <time>2016-11-06T07:36:25Z</time>
      </trkpt>
      <trkpt lat="43.71571" lon="3.43893">
        <ele>259.1</ele>
        <time>2016-11-06T07:36:29Z</time>
      </trkpt>
      <trkpt lat="43.71578" lon="3.43898">
        <ele>259.6</ele>
        <time>2016-11-06T07:36:33Z</time>
      </trkpt>
      <trkpt lat="43.71585" lon="3.43905">
        <ele>260.4</ele>
        <time>2016-11-06T07:36:37Z</time>
      </trkpt>
      <trkpt lat="43.71591" lon="3.43911">
        <ele>261.4</ele>
        <time>2016-11-06T07:36:41Z</time>
      </trkpt>
      <trkpt lat="43.71598" lon="3.43914">
        <ele>262.6</ele>
        <time>2016-11-06T07:36:46Z</time>
      </trkpt>
      <trkpt lat="43.71607" lon="3.43915">
        <ele>263.3</ele>
        <time>2016-11-06T07:36:50Z</time>
      </trkpt>
      <trkpt lat="43.71616" lon="3.43916">
        <ele>264.1</ele>
        <time>2016-11-06T07:36:54Z</time>
      </trkpt>
      <trkpt lat="43.71622" lon="3.4392">
        <ele>265</ele>
        <time>2016-11-06T07:36:58Z</time>
      </trkpt>
      <trkpt lat="43.71631" lon="3.43927">
        <ele>265.7</ele>
        <time>2016-11-06T07:37:02Z</time>
      </trkpt>
      <trkpt lat="43.71637" lon="3.43934">
        <ele>266.5</ele>
        <time>2016-11-06T07:37:06Z</time>
      </trkpt>
      <trkpt lat="43.71643" lon="3.43939">
        <ele>267.5</ele>
        <time>2016-11-06T07:37:10Z</time>
      </trkpt>
      <trkpt lat="43.7165" lon="3.43945">
        <ele>268.4</ele>
        <time>2016-11-06T07:37:14Z</time>
      </trkpt>
      <trkpt lat="43.71656" lon="3.43953">
        <ele>269.3</ele>
        <time>2016-11-06T07:37:18Z</time>
      </trkpt>
      <trkpt lat="43.71663" lon="3.43959">
        <ele>269.9</ele>
        <time>2016-11-06T07:37:22Z</time>
      </trkpt>
      <trkpt lat="43.71669" lon="3.43965">
        <ele>270.2</ele>
        <time>2016-11-06T07:37:25Z</time>
      </trkpt>
      <trkpt lat="43.71676" lon="3.43972">
        <ele>271</ele>
        <time>2016-11-06T07:37:29Z</time>
      </trkpt>
      <trkpt lat="43.71683" lon="3.43977">
        <ele>271.8</ele>
        <time>2016-11-06T07:37:34Z</time>
      </trkpt>
      <trkpt lat="43.7169" lon="3.43981">
        <ele>272.2</ele>
        <time>2016-11-06T07:37:38Z</time>
      </trkpt>
      <trkpt lat="43.71696" lon="3.43985">
        <ele>272.5</ele>
        <time>2016-11-06T07:37:41Z</time>
      </trkpt>
      <trkpt lat="43.71703" lon="3.4399">
        <ele>273.2</ele>
        <time>2016-11-06T07:37:46Z</time>
      </trkpt>
      <trkpt lat="43.7171" lon="3.43995">
        <ele>273.9</ele>
        <time>2016-11-06T07:37:50Z</time>
      </trkpt>
      <trkpt lat="43.71716" lon="3.44001">
        <ele>274.7</ele>
        <time>2016-11-06T07:37:54Z</time>
      </trkpt>
      <trkpt lat="43.71724" lon="3.44008">
        <ele>275.4</ele>
        <time>2016-11-06T07:37:59Z</time>
      </trkpt>
      <trkpt lat="43.71731" lon="3.44016">
        <ele>275.8</ele>
        <time>2016-11-06T07:38:03Z</time>
      </trkpt>
      <trkpt lat="43.71737" lon="3.44024">
        <ele>276.6</ele>
        <time>2016-11-06T07:38:08Z</time>
      </trkpt>
      <trkpt lat="43.71742" lon="3.44032">
        <ele>277.2</ele>
        <time>2016-11-06T07:38:12Z</time>
      </trkpt>
      <trkpt lat="43.71748" lon="3.4404">
        <ele>277.9</ele>
        <time>2016-11-06T07:38:16Z</time>
      </trkpt>
      <trkpt lat="43.71754" lon="3.44046">
        <ele>278.4</ele>
        <time>2016-11-06T07:38:20Z</time>
      </trkpt>
      <trkpt lat="43.71762" lon="3.44052">
        <ele>278.6</ele>
        <time>2016-11-06T07:38:25Z</time>
      </trkpt>
      <trkpt lat="43.7177" lon="3.44054">
        <ele>279.2</ele>
        <time>2016-11-06T07:38:29Z</time>
      </trkpt>
      <trkpt lat="43.71777" lon="3.44055">
        <ele>279.5</ele>
        <time>2016-11-06T07:38:33Z</time>
      </trkpt>
      <trkpt lat="43.71785" lon="3.44057">
        <ele>280.1</ele>
        <time>2016-11-06T07:38:37Z</time>
      </trkpt>
      <trkpt lat="43.7179" lon="3.44063">
        <ele>280.5</ele>
        <time>2016-11-06T07:38:41Z</time>
      </trkpt>
      <trkpt lat="43.71787" lon="3.44073">
        <ele>281.4</ele>
        <time>2016-11-06T07:38:46Z</time>
      </trkpt>
      <trkpt lat="43.71781" lon="3.44078">
        <ele>282.4</ele>
        <time>2016-11-06T07:38:50Z</time>
      </trkpt>
      <trkpt lat="43.71772" lon="3.44081">
        <ele>283.5</ele>
        <time>2016-11-06T07:38:54Z</time>
      </trkpt>
      <trkpt lat="43.71765" lon="3.44082">
        <ele>284.3</ele>
        <time>2016-11-06T07:38:58Z</time>
      </trkpt>
      <trkpt lat="43.71757" lon="3.44085">
        <ele>285.1</ele>
        <time>2016-11-06T07:39:02Z</time>
      </trkpt>
      <trkpt lat="43.71748" lon="3.44088">
        <ele>286.1</ele>
        <time>2016-11-06T07:39:07Z</time>
      </trkpt>
      <trkpt lat="43.71741" lon="3.44092">
        <ele>286.9</ele>
        <time>2016-11-06T07:39:11Z</time>
      </trkpt>
      <trkpt lat="43.71734" lon="3.44096">
        <ele>287.6</ele>
        <time>2016-11-06T07:39:14Z</time>
      </trkpt>
      <trkpt lat="43.71726" lon="3.44101">
        <ele>288.8</ele>
        <time>2016-11-06T07:39:19Z</time>
      </trkpt>
      <trkpt lat="43.71718" lon="3.44106">
        <ele>289.7</ele>
        <time>2016-11-06T07:39:23Z</time>
      </trkpt>
      <trkpt lat="43.71711" lon="3.44108">
        <ele>290.4</ele>
        <time>2016-11-06T07:39:26Z</time>
      </trkpt>
      <trkpt lat="43.71703" lon="3.4411">
        <ele>291.3</ele>
        <time>2016-11-06T07:39:30Z</time>
      </trkpt>
      <trkpt lat="43.71695" lon="3.44114">
        <ele>292.3</ele>
        <time>2016-11-06T07:39:34Z</time>
      </trkpt>
      <trkpt lat="43.71687" lon="3.44118">
        <ele>293.1</ele>
        <time>2016-11-06T07:39:38Z</time>
      </trkpt>
      <trkpt lat="43.71679" lon="3.44124">
        <ele>293.8</ele>
        <time>2016-11-06T07:39:42Z</time>
      </trkpt>
      <trkpt lat="43.71673" lon="3.4413">
        <ele>294.5</ele>
        <time>2016-11-06T07:39:46Z</time>
      </trkpt>
      <trkpt lat="43.71665" lon="3.44134">
        <ele>295.3</ele>
        <time>2016-11-06T07:39:50Z</time>
      </trkpt>
      <trkpt lat="43.71658" lon="3.44135">
        <ele>296.1</ele>
        <time>2016-11-06T07:39:54Z</time>
      </trkpt>
      <trkpt lat="43.7165" lon="3.44139">
        <ele>297.1</ele>
        <time>2016-11-06T07:39:58Z</time>
      </trkpt>
      <trkpt lat="43.71653" lon="3.44148">
        <ele>298.3</ele>
        <time>2016-11-06T07:40:05Z</time>
      </trkpt>
      <trkpt lat="43.71662" lon="3.44148">
        <ele>298.6</ele>
        <time>2016-11-06T07:40:09Z</time>
      </trkpt>
      <trkpt lat="43.71672" lon="3.44148">
        <ele>299.2</ele>
        <time>2016-11-06T07:40:13Z</time>
      </trkpt>
      <trkpt lat="43.71679" lon="3.44147">
        <ele>299.8</ele>
        <time>2016-11-06T07:40:17Z</time>
      </trkpt>
      <trkpt lat="43.71686" lon="3.44144">
        <ele>300.6</ele>
        <time>2016-11-06T07:40:21Z</time>
      </trkpt>
      <trkpt lat="43.71694" lon="3.44144">
        <ele>301.4</ele>
        <time>2016-11-06T07:40:25Z</time>
      </trkpt>
      <trkpt lat="43.71703" lon="3.44142">
        <ele>302.1</ele>
        <time>2016-11-06T07:40:29Z</time>
      </trkpt>
      <trkpt lat="43.71712" lon="3.44143">
        <ele>302.5</ele>
        <time>2016-11-06T07:40:33Z</time>
      </trkpt>
      <trkpt lat="43.71719" lon="3.44144">
        <ele>302.8</ele>
        <time>2016-11-06T07:40:36Z</time>
      </trkpt>
      <trkpt lat="43.71729" lon="3.44144">
        <ele>303</ele>
        <time>2016-11-06T07:40:40Z</time>
      </trkpt>
      <trkpt lat="43.71738" lon="3.44144">
        <ele>303.8</ele>
        <time>2016-11-06T07:40:45Z</time>
      </trkpt>
      <trkpt lat="43.71745" lon="3.44144">
        <ele>304.2</ele>
        <time>2016-11-06T07:40:48Z</time>
      </trkpt>
      <trkpt lat="43.71754" lon="3.44147">
        <ele>304.7</ele>
        <time>2016-11-06T07:40:52Z</time>
      </trkpt>
      <trkpt lat="43.71763" lon="3.44149">
        <ele>305.4</ele>
        <time>2016-11-06T07:40:57Z</time>
      </trkpt>
      <trkpt lat="43.71771" lon="3.44154">
        <ele>305.6</ele>
        <time>2016-11-06T07:41:01Z</time>
      </trkpt>
      <trkpt lat="43.71779" lon="3.4416">
        <ele>305.9</ele>
        <time>2016-11-06T07:41:05Z</time>
      </trkpt>
      <trkpt lat="43.71786" lon="3.44167">
        <ele>306.4</ele>
        <time>2016-11-06T07:41:09Z</time>
      </trkpt>
      <trkpt lat="43.71792" lon="3.44178">
        <ele>306.9</ele>
        <time>2016-11-06T07:41:13Z</time>
      </trkpt>
      <trkpt lat="43.71794" lon="3.44188">
        <ele>307.4</ele>
        <time>2016-11-06T07:41:16Z</time>
      </trkpt>
      <trkpt lat="43.71797" lon="3.44198">
        <ele>308.1</ele>
        <time>2016-11-06T07:41:19Z</time>
      </trkpt>
      <trkpt lat="43.718" lon="3.44208">
        <ele>309.2</ele>
        <time>2016-11-06T07:41:23Z</time>
      </trkpt>
      <trkpt lat="43.71808" lon="3.44209">
        <ele>309.9</ele>
        <time>2016-11-06T07:41:28Z</time>
      </trkpt>
      <trkpt lat="43.71815" lon="3.44203">
        <ele>310.7</ele>
        <time>2016-11-06T07:41:32Z</time>
      </trkpt>
      <trkpt lat="43.7182" lon="3.44195">
        <ele>311.4</ele>
        <time>2016-11-06T07:41:35Z</time>
      </trkpt>
      <trkpt lat="43.71824" lon="3.44186">
        <ele>312.3</ele>
        <time>2016-11-06T07:41:39Z</time>
      </trkpt>
      <trkpt lat="43.71828" lon="3.44176">
        <ele>313.4</ele>
        <time>2016-11-06T07:41:44Z</time>
      </trkpt>
      <trkpt lat="43.71834" lon="3.44167">
        <ele>314.3</ele>
        <time>2016-11-06T07:41:48Z</time>
      </trkpt>
      <trkpt lat="43.7184" lon="3.44161">
        <ele>315.1</ele>
        <time>2016-11-06T07:41:51Z</time>
      </trkpt>
      <trkpt lat="43.71848" lon="3.44154">
        <ele>315.9</ele>
        <time>2016-11-06T07:41:55Z</time>
      </trkpt>
      <trkpt lat="43.71855" lon="3.44149">
        <ele>317.1</ele>
        <time>2016-11-06T07:42:00Z</time>
      </trkpt>
      <trkpt lat="43.71862" lon="3.44148">
        <ele>318</ele>
        <time>2016-11-06T07:42:04Z</time>
      </trkpt>
      <trkpt lat="43.71871" lon="3.44146">
        <ele>318.5</ele>
        <time>2016-11-06T07:42:07Z</time>
      </trkpt>
      <trkpt lat="43.71878" lon="3.44144">
        <ele>319.2</ele>
        <time>2016-11-06T07:42:11Z</time>
      </trkpt>
      <trkpt lat="43.71887" lon="3.44142">
        <ele>319.8</ele>
        <time>2016-11-06T07:42:15Z</time>
      </trkpt>
      <trkpt lat="43.71895" lon="3.44141">
        <ele>320.3</ele>
        <time>2016-11-06T07:42:19Z</time>
      </trkpt>
      <trkpt lat="43.71902" lon="3.44141">
        <ele>320.7</ele>
        <time>2016-11-06T07:42:22Z</time>
      </trkpt>
      <trkpt lat="43.71909" lon="3.44148">
        <ele>321.3</ele>
        <time>2016-11-06T07:42:26Z</time>
      </trkpt>
      <trkpt lat="43.71905" lon="3.44157">
        <ele>321.8</ele>
        <time>2016-11-06T07:42:30Z</time>
      </trkpt>
      <trkpt lat="43.71897" lon="3.4416">
        <ele>322.5</ele>
        <time>2016-11-06T07:42:34Z</time>
      </trkpt>
      <trkpt lat="43.71888" lon="3.44164">
        <ele>323.2</ele>
        <time>2016-11-06T07:42:38Z</time>
      </trkpt>
      <trkpt lat="43.7188" lon="3.4417">
        <ele>324.2</ele>
        <time>2016-11-06T07:42:42Z</time>
      </trkpt>
      <trkpt lat="43.71873" lon="3.44178">
        <ele>325</ele>
        <time>2016-11-06T07:42:46Z</time>
      </trkpt>
      <trkpt lat="43.71867" lon="3.44186">
        <ele>325.5</ele>
        <time>2016-11-06T07:42:50Z</time>
      </trkpt>
      <trkpt lat="43.7186" lon="3.44195">
        <ele>325.8</ele>
        <time>2016-11-06T07:42:54Z</time>
      </trkpt>
      <trkpt lat="43.71855" lon="3.44201">
        <ele>326.2</ele>
        <time>2016-11-06T07:42:58Z</time>
      </trkpt>
      <trkpt lat="43.7185" lon="3.4421">
        <ele>326.9</ele>
        <time>2016-11-06T07:43:02Z</time>
      </trkpt>
      <trkpt lat="43.71847" lon="3.4422">
        <ele>327.3</ele>
        <time>2016-11-06T07:43:05Z</time>
      </trkpt>
      <trkpt lat="43.71842" lon="3.44232">
        <ele>327.6</ele>
        <time>2016-11-06T07:43:09Z</time>
      </trkpt>
      <trkpt lat="43.71839" lon="3.44241">
        <ele>328.2</ele>
        <time>2016-11-06T07:43:13Z</time>
      </trkpt>
      <trkpt lat="43.71833" lon="3.44252">
        <ele>328.7</ele>
        <time>2016-11-06T07:43:17Z</time>
      </trkpt>
      <trkpt lat="43.71827" lon="3.4426">
        <ele>329</ele>
        <time>2016-11-06T07:43:21Z</time>
      </trkpt>
      <trkpt lat="43.71821" lon="3.44268">
        <ele>329.5</ele>
        <time>2016-11-06T07:43:25Z</time>
      </trkpt>
      <trkpt lat="43.71812" lon="3.44274">
        <ele>329.9</ele>
        <time>2016-11-06T07:43:29Z</time>
      </trkpt>
      <trkpt lat="43.71804" lon="3.44276">
        <ele>330.2</ele>
        <time>2016-11-06T07:43:32Z</time>
      </trkpt>
      <trkpt lat="43.71797" lon="3.44276">
        <ele>330.7</ele>
        <time>2016-11-06T07:43:35Z</time>
      </trkpt>
      <trkpt lat="43.71788" lon="3.44277">
        <ele>331.3</ele>
        <time>2016-11-06T07:43:38Z</time>
      </trkpt>
      <trkpt lat="43.71781" lon="3.44277">
        <ele>332.1</ele>
        <time>2016-11-06T07:43:42Z</time>
      </trkpt>
      <trkpt lat="43.71774" lon="3.44276">
        <ele>332.6</ele>
        <time>2016-11-06T07:43:46Z</time>
      </trkpt>
      <trkpt lat="43.71766" lon="3.44275">
        <ele>333</ele>
        <time>2016-11-06T07:43:49Z</time>
      </trkpt>
      <trkpt lat="43.71757" lon="3.44274">
        <ele>333.6</ele>
        <time>2016-11-06T07:43:53Z</time>
      </trkpt>
      <trkpt lat="43.71749" lon="3.44278">
        <ele>334.1</ele>
        <time>2016-11-06T07:43:57Z</time>
      </trkpt>
      <trkpt lat="43.71743" lon="3.44286">
        <ele>334.5</ele>
        <time>2016-11-06T07:44:00Z</time>
      </trkpt>
      <trkpt lat="43.71739" lon="3.44295">
        <ele>334.9</ele>
        <time>2016-11-06T07:44:03Z</time>
      </trkpt>
      <trkpt lat="43.71733" lon="3.44305">
        <ele>335</ele>
        <time>2016-11-06T07:44:07Z</time>
      </trkpt>
      <trkpt lat="43.71731" lon="3.44317">
        <ele>335.4</ele>
        <time>2016-11-06T07:44:11Z</time>
      </trkpt>
      <trkpt lat="43.71727" lon="3.44326">
        <ele>335.7</ele>
        <time>2016-11-06T07:44:14Z</time>
      </trkpt>
      <trkpt lat="43.71722" lon="3.44337">
        <ele>336.3</ele>
        <time>2016-11-06T07:44:18Z</time>
      </trkpt>
      <trkpt lat="43.71717" lon="3.44344">
        <ele>336.7</ele>
        <time>2016-11-06T07:44:21Z</time>
      </trkpt>
      <trkpt lat="43.71712" lon="3.44356">
        <ele>337.3</ele>
        <time>2016-11-06T07:44:25Z</time>
      </trkpt>
      <trkpt lat="43.7171" lon="3.44368">
        <ele>337.8</ele>
        <time>2016-11-06T07:44:29Z</time>
      </trkpt>
      <trkpt lat="43.71709" lon="3.4438">
        <ele>338.5</ele>
        <time>2016-11-06T07:44:33Z</time>
      </trkpt>
      <trkpt lat="43.71707" lon="3.44391">
        <ele>339.5</ele>
        <time>2016-11-06T07:44:37Z</time>
      </trkpt>
      <trkpt lat="43.717" lon="3.44401">
        <ele>339.9</ele>
        <time>2016-11-06T07:44:41Z</time>
      </trkpt>
      <trkpt lat="43.71694" lon="3.44408">
        <ele>340.2</ele>
        <time>2016-11-06T07:44:44Z</time>
      </trkpt>
      <trkpt lat="43.71688" lon="3.44413">
        <ele>340.8</ele>
        <time>2016-11-06T07:44:47Z</time>
      </trkpt>
      <trkpt lat="43.71685" lon="3.44422">
        <ele>341.6</ele>
        <time>2016-11-06T07:44:51Z</time>
      </trkpt>
      <trkpt lat="43.71693" lon="3.44424">
        <ele>342.3</ele>
        <time>2016-11-06T07:44:55Z</time>
      </trkpt>
      <trkpt lat="43.717" lon="3.44419">
        <ele>343.1</ele>
        <time>2016-11-06T07:44:59Z</time>
      </trkpt>
      <trkpt lat="43.71706" lon="3.44413">
        <ele>343.6</ele>
        <time>2016-11-06T07:45:02Z</time>
      </trkpt>
      <trkpt lat="43.71712" lon="3.44408">
        <ele>344.2</ele>
        <time>2016-11-06T07:45:05Z</time>
      </trkpt>
      <trkpt lat="43.71719" lon="3.444">
        <ele>344.8</ele>
        <time>2016-11-06T07:45:09Z</time>
      </trkpt>
      <trkpt lat="43.71726" lon="3.44392">
        <ele>345.4</ele>
        <time>2016-11-06T07:45:13Z</time>
      </trkpt>
      <trkpt lat="43.71733" lon="3.44386">
        <ele>346</ele>
        <time>2016-11-06T07:45:17Z</time>
      </trkpt>
      <trkpt lat="43.71741" lon="3.44379">
        <ele>346.6</ele>
        <time>2016-11-06T07:45:21Z</time>
      </trkpt>
      <trkpt lat="43.71749" lon="3.44377">
        <ele>347.3</ele>
        <time>2016-11-06T07:45:25Z</time>
      </trkpt>
      <trkpt lat="43.71757" lon="3.44375">
        <ele>347.7</ele>
        <time>2016-11-06T07:45:28Z</time>
      </trkpt>
      <trkpt lat="43.71765" lon="3.44368">
        <ele>348.3</ele>
        <time>2016-11-06T07:45:32Z</time>
      </trkpt>
      <trkpt lat="43.71773" lon="3.44366">
        <ele>348.9</ele>
        <time>2016-11-06T07:45:36Z</time>
      </trkpt>
      <trkpt lat="43.71781" lon="3.44363">
        <ele>349.6</ele>
        <time>2016-11-06T07:45:40Z</time>
      </trkpt>
      <trkpt lat="43.71788" lon="3.4436">
        <ele>350.5</ele>
        <time>2016-11-06T07:45:44Z</time>
      </trkpt>
      <trkpt lat="43.71797" lon="3.44357">
        <ele>351.4</ele>
        <time>2016-11-06T07:45:48Z</time>
      </trkpt>
      <trkpt lat="43.71805" lon="3.44352">
        <ele>352.1</ele>
        <time>2016-11-06T07:45:52Z</time>
      </trkpt>
      <trkpt lat="43.71812" lon="3.44349">
        <ele>352.7</ele>
        <time>2016-11-06T07:45:55Z</time>
      </trkpt>
      <trkpt lat="43.7182" lon="3.44348">
        <ele>353.3</ele>
        <time>2016-11-06T07:45:58Z</time>
      </trkpt>
      <trkpt lat="43.71828" lon="3.4435">
        <ele>353.9</ele>
        <time>2016-11-06T07:46:02Z</time>
      </trkpt>
      <trkpt lat="43.71836" lon="3.44349">
        <ele>354.3</ele>
        <time>2016-11-06T07:46:05Z</time>
      </trkpt>
      <trkpt lat="43.71844" lon="3.44347">
        <ele>354.7</ele>
        <time>2016-11-06T07:46:09Z</time>
      </trkpt>
      <trkpt lat="43.71852" lon="3.44341">
        <ele>355</ele>
        <time>2016-11-06T07:46:13Z</time>
      </trkpt>
      <trkpt lat="43.71859" lon="3.44333">
        <ele>355.4</ele>
        <time>2016-11-06T07:46:17Z</time>
      </trkpt>
      <trkpt lat="43.71867" lon="3.44328">
        <ele>355.9</ele>
        <time>2016-11-06T07:46:21Z</time>
      </trkpt>
      <trkpt lat="43.71874" lon="3.44324">
        <ele>356.3</ele>
        <time>2016-11-06T07:46:25Z</time>
      </trkpt>
      <trkpt lat="43.71882" lon="3.44321">
        <ele>356.8</ele>
        <time>2016-11-06T07:46:29Z</time>
      </trkpt>
      <trkpt lat="43.7189" lon="3.44317">
        <ele>357.5</ele>
        <time>2016-11-06T07:46:33Z</time>
      </trkpt>
      <trkpt lat="43.71898" lon="3.44314">
        <ele>358.2</ele>
        <time>2016-11-06T07:46:38Z</time>
      </trkpt>
      <trkpt lat="43.71907" lon="3.44314">
        <ele>358.5</ele>
        <time>2016-11-06T07:46:42Z</time>
      </trkpt>
      <trkpt lat="43.71915" lon="3.44314">
        <ele>359.2</ele>
        <time>2016-11-06T07:46:46Z</time>
      </trkpt>
      <trkpt lat="43.71923" lon="3.44314">
        <ele>359.6</ele>
        <time>2016-11-06T07:46:50Z</time>
      </trkpt>
      <trkpt lat="43.71931" lon="3.44313">
        <ele>360.1</ele>
        <time>2016-11-06T07:46:54Z</time>
      </trkpt>
      <trkpt lat="43.7194" lon="3.44313">
        <ele>360.6</ele>
        <time>2016-11-06T07:46:58Z</time>
      </trkpt>
      <trkpt lat="43.71947" lon="3.44313">
        <ele>361.2</ele>
        <time>2016-11-06T07:47:02Z</time>
      </trkpt>
      <trkpt lat="43.71955" lon="3.44314">
        <ele>361.4</ele>
        <time>2016-11-06T07:47:06Z</time>
      </trkpt>
      <trkpt lat="43.71963" lon="3.4432">
        <ele>361.7</ele>
        <time>2016-11-06T07:47:10Z</time>
      </trkpt>
      <trkpt lat="43.7197" lon="3.44323">
        <ele>362.4</ele>
        <time>2016-11-06T07:47:14Z</time>
      </trkpt>
      <trkpt lat="43.71978" lon="3.44325">
        <ele>362.8</ele>
        <time>2016-11-06T07:47:18Z</time>
      </trkpt>
      <trkpt lat="43.71987" lon="3.44328">
        <ele>362.9</ele>
        <time>2016-11-06T07:47:22Z</time>
      </trkpt>
      <trkpt lat="43.71995" lon="3.44329">
        <ele>363.3</ele>
        <time>2016-11-06T07:47:25Z</time>
      </trkpt>
      <trkpt lat="43.72004" lon="3.44325">
        <ele>363.8</ele>
        <time>2016-11-06T07:47:29Z</time>
      </trkpt>
      <trkpt lat="43.72011" lon="3.4432">
        <ele>364.2</ele>
        <time>2016-11-06T07:47:33Z</time>
      </trkpt>
      <trkpt lat="43.72018" lon="3.44313">
        <ele>364.9</ele>
        <time>2016-11-06T07:47:37Z</time>
      </trkpt>
      <trkpt lat="43.72024" lon="3.44306">
        <ele>365.8</ele>
        <time>2016-11-06T07:47:41Z</time>
      </trkpt>
      <trkpt lat="43.72032" lon="3.44302">
        <ele>366.7</ele>
        <time>2016-11-06T07:47:46Z</time>
      </trkpt>
      <trkpt lat="43.7204" lon="3.443">
        <ele>367.4</ele>
        <time>2016-11-06T07:47:50Z</time>
      </trkpt>
      <trkpt lat="43.72048" lon="3.44297">
        <ele>368.1</ele>
        <time>2016-11-06T07:47:54Z</time>
      </trkpt>
      <trkpt lat="43.72056" lon="3.44293">
        <ele>369.1</ele>
        <time>2016-11-06T07:47:59Z</time>
      </trkpt>
      <trkpt lat="43.72063" lon="3.44289">
        <ele>369.7</ele>
        <time>2016-11-06T07:48:03Z</time>
      </trkpt>
      <trkpt lat="43.7207" lon="3.44284">
        <ele>370.3</ele>
        <time>2016-11-06T07:48:06Z</time>
      </trkpt>
      <trkpt lat="43.72077" lon="3.44278">
        <ele>370.8</ele>
        <time>2016-11-06T07:48:10Z</time>
      </trkpt>
      <trkpt lat="43.72084" lon="3.44271">
        <ele>371.4</ele>
        <time>2016-11-06T07:48:14Z</time>
      </trkpt>
      <trkpt lat="43.72093" lon="3.44265">
        <ele>371.9</ele>
        <time>2016-11-06T07:48:18Z</time>
      </trkpt>
      <trkpt lat="43.72099" lon="3.44259">
        <ele>372.7</ele>
        <time>2016-11-06T07:48:22Z</time>
      </trkpt>
      <trkpt lat="43.72106" lon="3.44252">
        <ele>373.6</ele>
        <time>2016-11-06T07:48:26Z</time>
      </trkpt>
      <trkpt lat="43.72113" lon="3.44243">
        <ele>374.3</ele>
        <time>2016-11-06T07:48:30Z</time>
      </trkpt>
      <trkpt lat="43.7212" lon="3.44235">
        <ele>374.8</ele>
        <time>2016-11-06T07:48:34Z</time>
      </trkpt>
      <trkpt lat="43.72126" lon="3.44229">
        <ele>375.2</ele>
        <time>2016-11-06T07:48:38Z</time>
      </trkpt>
      <trkpt lat="43.72131" lon="3.44221">
        <ele>375.6</ele>
        <time>2016-11-06T07:48:42Z</time>
      </trkpt>
      <trkpt lat="43.72136" lon="3.44213">
        <ele>376.2</ele>
        <time>2016-11-06T07:48:46Z</time>
      </trkpt>
      <trkpt lat="43.72143" lon="3.44204">
        <ele>376.9</ele>
        <time>2016-11-06T07:48:51Z</time>
      </trkpt>
      <trkpt lat="43.7215" lon="3.44196">
        <ele>377.6</ele>
        <time>2016-11-06T07:48:55Z</time>
      </trkpt>
      <trkpt lat="43.72156" lon="3.44189">
        <ele>378.2</ele>
        <time>2016-11-06T07:48:58Z</time>
      </trkpt>
      <trkpt lat="43.72163" lon="3.44184">
        <ele>379.1</ele>
        <time>2016-11-06T07:49:02Z</time>
      </trkpt>
      <trkpt lat="43.7217" lon="3.4418">
        <ele>379.7</ele>
        <time>2016-11-06T07:49:06Z</time>
      </trkpt>
      <trkpt lat="43.72178" lon="3.44178">
        <ele>380.3</ele>
        <time>2016-11-06T07:49:10Z</time>
      </trkpt>
      <trkpt lat="43.72186" lon="3.44175">
        <ele>380.5</ele>
        <time>2016-11-06T07:49:14Z</time>
      </trkpt>
      <trkpt lat="43.72194" lon="3.4417">
        <ele>380.7</ele>
        <time>2016-11-06T07:49:18Z</time>
      </trkpt>
      <trkpt lat="43.72201" lon="3.44166">
        <ele>381</ele>
        <time>2016-11-06T07:49:22Z</time>
      </trkpt>
      <trkpt lat="43.72209" lon="3.44163">
        <ele>381.6</ele>
        <time>2016-11-06T07:49:26Z</time>
      </trkpt>
      <trkpt lat="43.72214" lon="3.44171">
        <ele>382.1</ele>
        <time>2016-11-06T07:49:30Z</time>
      </trkpt>
      <trkpt lat="43.72215" lon="3.44183">
        <ele>382.6</ele>
        <time>2016-11-06T07:49:34Z</time>
      </trkpt>
      <trkpt lat="43.7221" lon="3.44192">
        <ele>383.2</ele>
        <time>2016-11-06T07:49:38Z</time>
      </trkpt>
      <trkpt lat="43.72205" lon="3.442">
        <ele>384.1</ele>
        <time>2016-11-06T07:49:42Z</time>
      </trkpt>
      <trkpt lat="43.722" lon="3.44209">
        <ele>385.1</ele>
        <time>2016-11-06T07:49:47Z</time>
      </trkpt>
      <trkpt lat="43.72195" lon="3.44217">
        <ele>385.8</ele>
        <time>2016-11-06T07:49:51Z</time>
      </trkpt>
      <trkpt lat="43.72189" lon="3.44225">
        <ele>386.8</ele>
        <time>2016-11-06T07:49:55Z</time>
      </trkpt>
      <trkpt lat="43.72182" lon="3.44231">
        <ele>387.6</ele>
        <time>2016-11-06T07:49:59Z</time>
      </trkpt>
      <trkpt lat="43.72175" lon="3.44237">
        <ele>388.4</ele>
        <time>2016-11-06T07:50:03Z</time>
      </trkpt>
      <trkpt lat="43.72168" lon="3.44246">
        <ele>389.1</ele>
        <time>2016-11-06T07:50:07Z</time>
      </trkpt>
      <trkpt lat="43.72164" lon="3.44255">
        <ele>389.4</ele>
        <time>2016-11-06T07:50:11Z</time>
      </trkpt>
      <trkpt lat="43.72161" lon="3.44265">
        <ele>389.9</ele>
        <time>2016-11-06T07:50:16Z</time>
      </trkpt>
      <trkpt lat="43.72157" lon="3.44274">
        <ele>390.4</ele>
        <time>2016-11-06T07:50:20Z</time>
      </trkpt>
      <trkpt lat="43.72152" lon="3.44283">
        <ele>391</ele>
        <time>2016-11-06T07:50:24Z</time>
      </trkpt>
      <trkpt lat="43.72148" lon="3.44292">
        <ele>391.9</ele>
        <time>2016-11-06T07:50:28Z</time>
      </trkpt>
      <trkpt lat="43.72143" lon="3.44302">
        <ele>392.7</ele>
        <time>2016-11-06T07:50:32Z</time>
      </trkpt>
      <trkpt lat="43.72139" lon="3.4431">
        <ele>393.5</ele>
        <time>2016-11-06T07:50:36Z</time>
      </trkpt>
      <trkpt lat="43.72135" lon="3.44321">
        <ele>394.3</ele>
        <time>2016-11-06T07:50:41Z</time>
      </trkpt>
      <trkpt lat="43.72133" lon="3.44332">
        <ele>394.7</ele>
        <time>2016-11-06T07:50:45Z</time>
      </trkpt>
      <trkpt lat="43.7213" lon="3.44343">
        <ele>395.2</ele>
        <time>2016-11-06T07:50:49Z</time>
      </trkpt>
      <trkpt lat="43.72126" lon="3.44351">
        <ele>395.7</ele>
        <time>2016-11-06T07:50:53Z</time>
      </trkpt>
      <trkpt lat="43.72121" lon="3.44359">
        <ele>396.5</ele>
        <time>2016-11-06T07:50:57Z</time>
      </trkpt>
      <trkpt lat="43.72117" lon="3.4437">
        <ele>397</ele>
        <time>2016-11-06T07:51:00Z</time>
      </trkpt>
      <trkpt lat="43.72113" lon="3.4438">
        <ele>397.7</ele>
        <time>2016-11-06T07:51:04Z</time>
      </trkpt>
      <trkpt lat="43.72108" lon="3.44389">
        <ele>398.3</ele>
        <time>2016-11-06T07:51:08Z</time>
      </trkpt>
      <trkpt lat="43.72103" lon="3.44397">
        <ele>399.2</ele>
        <time>2016-11-06T07:51:12Z</time>
      </trkpt>
      <trkpt lat="43.72097" lon="3.44405">
        <ele>399.8</ele>
        <time>2016-11-06T07:51:16Z</time>
      </trkpt>
      <trkpt lat="43.72091" lon="3.44413">
        <ele>400.3</ele>
        <time>2016-11-06T07:51:19Z</time>
      </trkpt>
      <trkpt lat="43.72085" lon="3.44422">
        <ele>401</ele>
        <time>2016-11-06T07:51:23Z</time>
      </trkpt>
      <trkpt lat="43.72079" lon="3.44429">
        <ele>401.5</ele>
        <time>2016-11-06T07:51:26Z</time>
      </trkpt>
      <trkpt lat="43.72074" lon="3.44437">
        <ele>401.8</ele>
        <time>2016-11-06T07:51:29Z</time>
      </trkpt>
      <trkpt lat="43.72068" lon="3.44445">
        <ele>402.5</ele>
        <time>2016-11-06T07:51:33Z</time>
      </trkpt>
      <trkpt lat="43.72063" lon="3.44451">
        <ele>403</ele>
        <time>2016-11-06T07:51:36Z</time>
      </trkpt>
      <trkpt lat="43.72057" lon="3.44459">
        <ele>404.1</ele>
        <time>2016-11-06T07:51:41Z</time>
      </trkpt>
      <trkpt lat="43.72049" lon="3.44466">
        <ele>404.8</ele>
        <time>2016-11-06T07:51:45Z</time>
      </trkpt>
      <trkpt lat="43.72043" lon="3.44471">
        <ele>405.4</ele>
        <time>2016-11-06T07:51:48Z</time>
      </trkpt>
      <trkpt lat="43.72036" lon="3.44477">
        <ele>406.2</ele>
        <time>2016-11-06T07:51:52Z</time>
      </trkpt>
      <trkpt lat="43.72029" lon="3.44482">
        <ele>406.8</ele>
        <time>2016-11-06T07:51:56Z</time>
      </trkpt>
      <trkpt lat="43.72021" lon="3.44483">
        <ele>407.4</ele>
        <time>2016-11-06T07:51:59Z</time>
      </trkpt>
      <trkpt lat="43.72014" lon="3.44485">
        <ele>408.6</ele>
        <time>2016-11-06T07:52:03Z</time>
      </trkpt>
      <trkpt lat="43.72005" lon="3.44485">
        <ele>409.8</ele>
        <time>2016-11-06T07:52:07Z</time>
      </trkpt>
      <trkpt lat="43.71996" lon="3.44485">
        <ele>410.8</ele>
        <time>2016-11-06T07:52:11Z</time>
      </trkpt>
      <trkpt lat="43.71988" lon="3.44483">
        <ele>411.7</ele>
        <time>2016-11-06T07:52:16Z</time>
      </trkpt>
      <trkpt lat="43.7198" lon="3.44478">
        <ele>412.4</ele>
        <time>2016-11-06T07:52:20Z</time>
      </trkpt>
      <trkpt lat="43.71971" lon="3.44473">
        <ele>412.9</ele>
        <time>2016-11-06T07:52:24Z</time>
      </trkpt>
      <trkpt lat="43.71965" lon="3.4447">
        <ele>413.2</ele>
        <time>2016-11-06T07:52:27Z</time>
      </trkpt>
      <trkpt lat="43.71956" lon="3.44467">
        <ele>413.4</ele>
        <time>2016-11-06T07:52:31Z</time>
      </trkpt>
      <trkpt lat="43.71947" lon="3.44463">
        <ele>413.8</ele>
        <time>2016-11-06T07:52:35Z</time>
      </trkpt>
      <trkpt lat="43.71938" lon="3.44464">
        <ele>414.2</ele>
        <time>2016-11-06T07:52:39Z</time>
      </trkpt>
      <trkpt lat="43.71932" lon="3.44468">
        <ele>414.7</ele>
        <time>2016-11-06T07:52:42Z</time>
      </trkpt>
      <trkpt lat="43.71926" lon="3.44476">
        <ele>415.1</ele>
        <time>2016-11-06T07:52:45Z</time>
      </trkpt>
      <trkpt lat="43.7192" lon="3.44484">
        <ele>415.3</ele>
        <time>2016-11-06T07:52:48Z</time>
      </trkpt>
      <trkpt lat="43.71913" lon="3.44492">
        <ele>415.7</ele>
        <time>2016-11-06T07:52:52Z</time>
      </trkpt>
      <trkpt lat="43.71906" lon="3.44497">
        <ele>415.9</ele>
        <time>2016-11-06T07:52:55Z</time>
      </trkpt>
      <trkpt lat="43.71898" lon="3.445">
        <ele>416.3</ele>
        <time>2016-11-06T07:52:58Z</time>
      </trkpt>
      <trkpt lat="43.71889" lon="3.44503">
        <ele>416.8</ele>
        <time>2016-11-06T07:53:02Z</time>
      </trkpt>
      <trkpt lat="43.71881" lon="3.44506">
        <ele>417.2</ele>
        <time>2016-11-06T07:53:05Z</time>
      </trkpt>
      <trkpt lat="43.71874" lon="3.4451">
        <ele>417.5</ele>
        <time>2016-11-06T07:53:08Z</time>
      </trkpt>
      <trkpt lat="43.71866" lon="3.44516">
        <ele>417.8</ele>
        <time>2016-11-06T07:53:12Z</time>
      </trkpt>
      <trkpt lat="43.7186" lon="3.44524">
        <ele>418.1</ele>
        <time>2016-11-06T07:53:15Z</time>
      </trkpt>
      <trkpt lat="43.71855" lon="3.44532">
        <ele>418.4</ele>
        <time>2016-11-06T07:53:18Z</time>
      </trkpt>
      <trkpt lat="43.71849" lon="3.44541">
        <ele>418.7</ele>
        <time>2016-11-06T07:53:22Z</time>
      </trkpt>
      <trkpt lat="43.71844" lon="3.4455">
        <ele>418.9</ele>
        <time>2016-11-06T07:53:25Z</time>
      </trkpt>
      <trkpt lat="43.71839" lon="3.44562">
        <ele>419.4</ele>
        <time>2016-11-06T07:53:29Z</time>
      </trkpt>
      <trkpt lat="43.71833" lon="3.44572">
        <ele>419.7</ele>
        <time>2016-11-06T07:53:32Z</time>
      </trkpt>
      <trkpt lat="43.7183" lon="3.44582">
        <ele>419.8</ele>
        <time>2016-11-06T07:53:36Z</time>
      </trkpt>
      <trkpt lat="43.71826" lon="3.44592">
        <ele>419.8</ele>
        <time>2016-11-06T07:53:39Z</time>
      </trkpt>
      <trkpt lat="43.71833" lon="3.44598">
        <ele>420.2</ele>
        <time>2016-11-06T07:53:43Z</time>
      </trkpt>
      <trkpt lat="43.71838" lon="3.4459">
        <ele>420.3</ele>
        <time>2016-11-06T07:53:46Z</time>
      </trkpt>
      <trkpt lat="43.71842" lon="3.4458">
        <ele>420.4</ele>
        <time>2016-11-06T07:53:50Z</time>
      </trkpt>
      <trkpt lat="43.71849" lon="3.44568">
        <ele>420.9</ele>
        <time>2016-11-06T07:53:55Z</time>
      </trkpt>
      <trkpt lat="43.71855" lon="3.44561">
        <ele>421.4</ele>
        <time>2016-11-06T07:53:59Z</time>
      </trkpt>
      <trkpt lat="43.71862" lon="3.44556">
        <ele>421.9</ele>
        <time>2016-11-06T07:54:03Z</time>
      </trkpt>
      <trkpt lat="43.7187" lon="3.44549">
        <ele>422.5</ele>
        <time>2016-11-06T07:54:07Z</time>
      </trkpt>
      <trkpt lat="43.71877" lon="3.44543">
        <ele>423.1</ele>
        <time>2016-11-06T07:54:11Z</time>
      </trkpt>
      <trkpt lat="43.71885" lon="3.44538">
        <ele>423.7</ele>
        <time>2016-11-06T07:54:15Z</time>
      </trkpt>
      <trkpt lat="43.71893" lon="3.44534">
        <ele>424.4</ele>
        <time>2016-11-06T07:54:19Z</time>
      </trkpt>
      <trkpt lat="43.71901" lon="3.4453">
        <ele>425.2</ele>
        <time>2016-11-06T07:54:24Z</time>
      </trkpt>
      <trkpt lat="43.71909" lon="3.4453">
        <ele>425.7</ele>
        <time>2016-11-06T07:54:27Z</time>
      </trkpt>
      <trkpt lat="43.71918" lon="3.44529">
        <ele>426</ele>
        <time>2016-11-06T07:54:30Z</time>
      </trkpt>
      <trkpt lat="43.71928" lon="3.44529">
        <ele>426.3</ele>
        <time>2016-11-06T07:54:33Z</time>
      </trkpt>
      <trkpt lat="43.71936" lon="3.44529">
        <ele>426.5</ele>
        <time>2016-11-06T07:54:36Z</time>
      </trkpt>
      <trkpt lat="43.71944" lon="3.44529">
        <ele>426.8</ele>
        <time>2016-11-06T07:54:39Z</time>
      </trkpt>
      <trkpt lat="43.71952" lon="3.44533">
        <ele>427.1</ele>
        <time>2016-11-06T07:54:42Z</time>
      </trkpt>
      <trkpt lat="43.7196" lon="3.44538">
        <ele>427.3</ele>
        <time>2016-11-06T07:54:45Z</time>
      </trkpt>
      <trkpt lat="43.71967" lon="3.44543">
        <ele>427.4</ele>
        <time>2016-11-06T07:54:48Z</time>
      </trkpt>
      <trkpt lat="43.71976" lon="3.44546">
        <ele>427.6</ele>
        <time>2016-11-06T07:54:52Z</time>
      </trkpt>
      <trkpt lat="43.71985" lon="3.44551">
        <ele>427.9</ele>
        <time>2016-11-06T07:54:55Z</time>
      </trkpt>
      <trkpt lat="43.71992" lon="3.44554">
        <ele>428.2</ele>
        <time>2016-11-06T07:54:58Z</time>
      </trkpt>
      <trkpt lat="43.71999" lon="3.44557">
        <ele>428.4</ele>
        <time>2016-11-06T07:55:01Z</time>
      </trkpt>
      <trkpt lat="43.72007" lon="3.44559">
        <ele>428.8</ele>
        <time>2016-11-06T07:55:05Z</time>
      </trkpt>
      <trkpt lat="43.72016" lon="3.44562">
        <ele>429.1</ele>
        <time>2016-11-06T07:55:09Z</time>
      </trkpt>
      <trkpt lat="43.72025" lon="3.44563">
        <ele>429.5</ele>
        <time>2016-11-06T07:55:13Z</time>
      </trkpt>
      <trkpt lat="43.72035" lon="3.44562">
        <ele>430.2</ele>
        <time>2016-11-06T07:55:17Z</time>
      </trkpt>
      <trkpt lat="43.72043" lon="3.4456">
        <ele>430.8</ele>
        <time>2016-11-06T07:55:21Z</time>
      </trkpt>
      <trkpt lat="43.72051" lon="3.44559">
        <ele>431.4</ele>
        <time>2016-11-06T07:55:25Z</time>
      </trkpt>
      <trkpt lat="43.72059" lon="3.44559">
        <ele>432</ele>
        <time>2016-11-06T07:55:30Z</time>
      </trkpt>
      <trkpt lat="43.72066" lon="3.44557">
        <ele>432.5</ele>
        <time>2016-11-06T07:55:33Z</time>
      </trkpt>
      <trkpt lat="43.72074" lon="3.44555">
        <ele>433.3</ele>
        <time>2016-11-06T07:55:37Z</time>
      </trkpt>
      <trkpt lat="43.72082" lon="3.4455">
        <ele>434</ele>
        <time>2016-11-06T07:55:41Z</time>
      </trkpt>
      <trkpt lat="43.72088" lon="3.44545">
        <ele>434.6</ele>
        <time>2016-11-06T07:55:45Z</time>
      </trkpt>
      <trkpt lat="43.72095" lon="3.44538">
        <ele>435.7</ele>
        <time>2016-11-06T07:55:49Z</time>
      </trkpt>
      <trkpt lat="43.72102" lon="3.44532">
        <ele>436.8</ele>
        <time>2016-11-06T07:55:53Z</time>
      </trkpt>
      <trkpt lat="43.7211" lon="3.44525">
        <ele>437.9</ele>
        <time>2016-11-06T07:55:57Z</time>
      </trkpt>
      <trkpt lat="43.72115" lon="3.44518">
        <ele>438.9</ele>
        <time>2016-11-06T07:56:01Z</time>
      </trkpt>
      <trkpt lat="43.72121" lon="3.44512">
        <ele>439.6</ele>
        <time>2016-11-06T07:56:04Z</time>
      </trkpt>
      <trkpt lat="43.72129" lon="3.44503">
        <ele>440.6</ele>
        <time>2016-11-06T07:56:08Z</time>
      </trkpt>
      <trkpt lat="43.72134" lon="3.44497">
        <ele>441.2</ele>
        <time>2016-11-06T07:56:11Z</time>
      </trkpt>
      <trkpt lat="43.72139" lon="3.44489">
        <ele>441.7</ele>
        <time>2016-11-06T07:56:14Z</time>
      </trkpt>
      <trkpt lat="43.72144" lon="3.4448">
        <ele>442.1</ele>
        <time>2016-11-06T07:56:17Z</time>
      </trkpt>
      <trkpt lat="43.72149" lon="3.44471">
        <ele>442.6</ele>
        <time>2016-11-06T07:56:20Z</time>
      </trkpt>
      <trkpt lat="43.72153" lon="3.44462">
        <ele>443</ele>
        <time>2016-11-06T07:56:23Z</time>
      </trkpt>
      <trkpt lat="43.72157" lon="3.44452">
        <ele>443.3</ele>
        <time>2016-11-06T07:56:26Z</time>
      </trkpt>
      <trkpt lat="43.72158" lon="3.44441">
        <ele>443.4</ele>
        <time>2016-11-06T07:56:29Z</time>
      </trkpt>
      <trkpt lat="43.7216" lon="3.44429">
        <ele>443.2</ele>
        <time>2016-11-06T07:56:31Z</time>
      </trkpt>
      <trkpt lat="43.72163" lon="3.44414">
        <ele>443.3</ele>
        <time>2016-11-06T07:56:33Z</time>
      </trkpt>
      <trkpt lat="43.72165" lon="3.44403">
        <ele>443.1</ele>
        <time>2016-11-06T07:56:35Z</time>
      </trkpt>
      <trkpt lat="43.72171" lon="3.4439">
        <ele>443.1</ele>
        <time>2016-11-06T07:56:37Z</time>
      </trkpt>
      <trkpt lat="43.7218" lon="3.44377">
        <ele>443.1</ele>
        <time>2016-11-06T07:56:39Z</time>
      </trkpt>
      <trkpt lat="43.72188" lon="3.4437">
        <ele>442.8</ele>
        <time>2016-11-06T07:56:41Z</time>
      </trkpt>
      <trkpt lat="43.72196" lon="3.44365">
        <ele>442.5</ele>
        <time>2016-11-06T07:56:43Z</time>
      </trkpt>
      <trkpt lat="43.72205" lon="3.44362">
        <ele>442.7</ele>
        <time>2016-11-06T07:56:45Z</time>
      </trkpt>
      <trkpt lat="43.72215" lon="3.44359">
        <ele>442.6</ele>
        <time>2016-11-06T07:56:48Z</time>
      </trkpt>
      <trkpt lat="43.72224" lon="3.44357">
        <ele>442.5</ele>
        <time>2016-11-06T07:56:51Z</time>
      </trkpt>
      <trkpt lat="43.72231" lon="3.44355">
        <ele>442.4</ele>
        <time>2016-11-06T07:56:53Z</time>
      </trkpt>
      <trkpt lat="43.72241" lon="3.44353">
        <ele>441.8</ele>
        <time>2016-11-06T07:56:55Z</time>
      </trkpt>
      <trkpt lat="43.72249" lon="3.44348">
        <ele>441</ele>
        <time>2016-11-06T07:56:57Z</time>
      </trkpt>
      <trkpt lat="43.72258" lon="3.44343">
        <ele>441.1</ele>
        <time>2016-11-06T07:57:00Z</time>
      </trkpt>
      <trkpt lat="43.72267" lon="3.44335">
        <ele>441.1</ele>
        <time>2016-11-06T07:57:03Z</time>
      </trkpt>
      <trkpt lat="43.72275" lon="3.44327">
        <ele>441.4</ele>
        <time>2016-11-06T07:57:06Z</time>
      </trkpt>
      <trkpt lat="43.72282" lon="3.4432">
        <ele>441.6</ele>
        <time>2016-11-06T07:57:08Z</time>
      </trkpt>
      <trkpt lat="43.7229" lon="3.44313">
        <ele>442</ele>
        <time>2016-11-06T07:57:11Z</time>
      </trkpt>
      <trkpt lat="43.72296" lon="3.44304">
        <ele>442.4</ele>
        <time>2016-11-06T07:57:14Z</time>
      </trkpt>
      <trkpt lat="43.72303" lon="3.44295">
        <ele>442.5</ele>
        <time>2016-11-06T07:57:17Z</time>
      </trkpt>
      <trkpt lat="43.72309" lon="3.44286">
        <ele>442.6</ele>
        <time>2016-11-06T07:57:20Z</time>
      </trkpt>
      <trkpt lat="43.72316" lon="3.44275">
        <ele>442.6</ele>
        <time>2016-11-06T07:57:23Z</time>
      </trkpt>
      <trkpt lat="43.72322" lon="3.44267">
        <ele>442.7</ele>
        <time>2016-11-06T07:57:26Z</time>
      </trkpt>
      <trkpt lat="43.72329" lon="3.44258">
        <ele>442.8</ele>
        <time>2016-11-06T07:57:29Z</time>
      </trkpt>
      <trkpt lat="43.72339" lon="3.44252">
        <ele>442.9</ele>
        <time>2016-11-06T07:57:32Z</time>
      </trkpt>
      <trkpt lat="43.72346" lon="3.44252">
        <ele>442.9</ele>
        <time>2016-11-06T07:57:34Z</time>
      </trkpt>
      <trkpt lat="43.72355" lon="3.44255">
        <ele>442.7</ele>
        <time>2016-11-06T07:57:37Z</time>
      </trkpt>
      <trkpt lat="43.72361" lon="3.4426">
        <ele>442.5</ele>
        <time>2016-11-06T07:57:39Z</time>
      </trkpt>
      <trkpt lat="43.72368" lon="3.44267">
        <ele>442.3</ele>
        <time>2016-11-06T07:57:41Z</time>
      </trkpt>
      <trkpt lat="43.72374" lon="3.44273">
        <ele>442.3</ele>
        <time>2016-11-06T07:57:43Z</time>
      </trkpt>
      <trkpt lat="43.72379" lon="3.44284">
        <ele>441.4</ele>
        <time>2016-11-06T07:57:46Z</time>
      </trkpt>
      <trkpt lat="43.72384" lon="3.44291">
        <ele>441.3</ele>
        <time>2016-11-06T07:57:48Z</time>
      </trkpt>
      <trkpt lat="43.72392" lon="3.44297">
        <ele>440.7</ele>
        <time>2016-11-06T07:57:50Z</time>
      </trkpt>
      <trkpt lat="43.724" lon="3.44305">
        <ele>439.6</ele>
        <time>2016-11-06T07:57:52Z</time>
      </trkpt>
      <trkpt lat="43.7241" lon="3.44313">
        <ele>438.1</ele>
        <time>2016-11-06T07:57:55Z</time>
      </trkpt>
      <trkpt lat="43.72419" lon="3.44322">
        <ele>436.7</ele>
        <time>2016-11-06T07:57:57Z</time>
      </trkpt>
      <trkpt lat="43.72426" lon="3.4433">
        <ele>436.1</ele>
        <time>2016-11-06T07:57:59Z</time>
      </trkpt>
      <trkpt lat="43.72434" lon="3.44339">
        <ele>436</ele>
        <time>2016-11-06T07:58:01Z</time>
      </trkpt>
      <trkpt lat="43.72442" lon="3.4435">
        <ele>436.5</ele>
        <time>2016-11-06T07:58:03Z</time>
      </trkpt>
      <trkpt lat="43.72448" lon="3.44361">
        <ele>436.9</ele>
        <time>2016-11-06T07:58:05Z</time>
      </trkpt>
      <trkpt lat="43.72455" lon="3.44372">
        <ele>436.5</ele>
        <time>2016-11-06T07:58:07Z</time>
      </trkpt>
      <trkpt lat="43.72461" lon="3.44378">
        <ele>436.8</ele>
        <time>2016-11-06T07:58:09Z</time>
      </trkpt>
      <trkpt lat="43.72468" lon="3.44386">
        <ele>436.9</ele>
        <time>2016-11-06T07:58:11Z</time>
      </trkpt>
      <trkpt lat="43.72474" lon="3.44391">
        <ele>437</ele>
        <time>2016-11-06T07:58:13Z</time>
      </trkpt>
      <trkpt lat="43.72484" lon="3.44391">
        <ele>437.1</ele>
        <time>2016-11-06T07:58:17Z</time>
      </trkpt>
      <trkpt lat="43.72493" lon="3.44389">
        <ele>437.2</ele>
        <time>2016-11-06T07:58:19Z</time>
      </trkpt>
      <trkpt lat="43.72502" lon="3.44386">
        <ele>437.2</ele>
        <time>2016-11-06T07:58:22Z</time>
      </trkpt>
      <trkpt lat="43.72511" lon="3.44382">
        <ele>437.2</ele>
        <time>2016-11-06T07:58:25Z</time>
      </trkpt>
      <trkpt lat="43.72521" lon="3.4438">
        <ele>437.3</ele>
        <time>2016-11-06T07:58:28Z</time>
      </trkpt>
      <trkpt lat="43.72529" lon="3.4438">
        <ele>437.2</ele>
        <time>2016-11-06T07:58:31Z</time>
      </trkpt>
      <trkpt lat="43.72538" lon="3.4438">
        <ele>437.1</ele>
        <time>2016-11-06T07:58:34Z</time>
      </trkpt>
      <trkpt lat="43.72547" lon="3.44381">
        <ele>437</ele>
        <time>2016-11-06T07:58:37Z</time>
      </trkpt>
      <trkpt lat="43.72556" lon="3.44382">
        <ele>436.8</ele>
        <time>2016-11-06T07:58:40Z</time>
      </trkpt>
      <trkpt lat="43.72565" lon="3.44386">
        <ele>436.7</ele>
        <time>2016-11-06T07:58:43Z</time>
      </trkpt>
      <trkpt lat="43.72575" lon="3.44393">
        <ele>436.7</ele>
        <time>2016-11-06T07:58:46Z</time>
      </trkpt>
      <trkpt lat="43.72583" lon="3.44398">
        <ele>436.6</ele>
        <time>2016-11-06T07:58:49Z</time>
      </trkpt>
      <trkpt lat="43.72593" lon="3.44407">
        <ele>436.6</ele>
        <time>2016-11-06T07:58:52Z</time>
      </trkpt>
      <trkpt lat="43.726" lon="3.44411">
        <ele>436.7</ele>
        <time>2016-11-06T07:58:54Z</time>
      </trkpt>
      <trkpt lat="43.72607" lon="3.44414">
        <ele>436.7</ele>
        <time>2016-11-06T07:58:56Z</time>
      </trkpt>
      <trkpt lat="43.72618" lon="3.44418">
        <ele>436.5</ele>
        <time>2016-11-06T07:58:58Z</time>
      </trkpt>
      <trkpt lat="43.72628" lon="3.44418">
        <ele>434.8</ele>
        <time>2016-11-06T07:59:00Z</time>
      </trkpt>
      <trkpt lat="43.72643" lon="3.44417">
        <ele>434.2</ele>
        <time>2016-11-06T07:59:02Z</time>
      </trkpt>
      <trkpt lat="43.7265" lon="3.44418">
        <ele>433.7</ele>
        <time>2016-11-06T07:59:03Z</time>
      </trkpt>
      <trkpt lat="43.72665" lon="3.44424">
        <ele>432.4</ele>
        <time>2016-11-06T07:59:05Z</time>
      </trkpt>
      <trkpt lat="43.72672" lon="3.44428">
        <ele>432.1</ele>
        <time>2016-11-06T07:59:06Z</time>
      </trkpt>
      <trkpt lat="43.72679" lon="3.44432">
        <ele>431.5</ele>
        <time>2016-11-06T07:59:07Z</time>
      </trkpt>
      <trkpt lat="43.72686" lon="3.44438">
        <ele>431</ele>
        <time>2016-11-06T07:59:08Z</time>
      </trkpt>
      <trkpt lat="43.72692" lon="3.44443">
        <ele>430.7</ele>
        <time>2016-11-06T07:59:09Z</time>
      </trkpt>
      <trkpt lat="43.72703" lon="3.44453">
        <ele>429.8</ele>
        <time>2016-11-06T07:59:11Z</time>
      </trkpt>
      <trkpt lat="43.72711" lon="3.44459">
        <ele>430.7</ele>
        <time>2016-11-06T07:59:13Z</time>
      </trkpt>
      <trkpt lat="43.72719" lon="3.44462">
        <ele>430.7</ele>
        <time>2016-11-06T07:59:15Z</time>
      </trkpt>
      <trkpt lat="43.72732" lon="3.44465">
        <ele>430.5</ele>
        <time>2016-11-06T07:59:18Z</time>
      </trkpt>
      <trkpt lat="43.7274" lon="3.44467">
        <ele>430.2</ele>
        <time>2016-11-06T07:59:20Z</time>
      </trkpt>
      <trkpt lat="43.72749" lon="3.44466">
        <ele>430</ele>
        <time>2016-11-06T07:59:22Z</time>
      </trkpt>
      <trkpt lat="43.72757" lon="3.44462">
        <ele>428.9</ele>
        <time>2016-11-06T07:59:24Z</time>
      </trkpt>
      <trkpt lat="43.72767" lon="3.44454">
        <ele>427.8</ele>
        <time>2016-11-06T07:59:26Z</time>
      </trkpt>
      <trkpt lat="43.72775" lon="3.44449">
        <ele>427.4</ele>
        <time>2016-11-06T07:59:28Z</time>
      </trkpt>
      <trkpt lat="43.72783" lon="3.44444">
        <ele>426.9</ele>
        <time>2016-11-06T07:59:30Z</time>
      </trkpt>
      <trkpt lat="43.72791" lon="3.4444">
        <ele>426.9</ele>
        <time>2016-11-06T07:59:33Z</time>
      </trkpt>
      <trkpt lat="43.728" lon="3.44436">
        <ele>427</ele>
        <time>2016-11-06T07:59:36Z</time>
      </trkpt>
      <trkpt lat="43.72807" lon="3.4443">
        <ele>427.3</ele>
        <time>2016-11-06T07:59:39Z</time>
      </trkpt>
      <trkpt lat="43.72816" lon="3.44425">
        <ele>427.6</ele>
        <time>2016-11-06T07:59:42Z</time>
      </trkpt>
      <trkpt lat="43.72825" lon="3.44421">
        <ele>428</ele>
        <time>2016-11-06T07:59:45Z</time>
      </trkpt>
      <trkpt lat="43.72834" lon="3.44413">
        <ele>428.5</ele>
        <time>2016-11-06T07:59:49Z</time>
      </trkpt>
      <trkpt lat="43.72842" lon="3.44404">
        <ele>428.9</ele>
        <time>2016-11-06T07:59:52Z</time>
      </trkpt>
      <trkpt lat="43.72851" lon="3.44398">
        <ele>429.3</ele>
        <time>2016-11-06T07:59:55Z</time>
      </trkpt>
      <trkpt lat="43.72858" lon="3.4439">
        <ele>429.8</ele>
        <time>2016-11-06T07:59:58Z</time>
      </trkpt>
      <trkpt lat="43.72865" lon="3.44383">
        <ele>430.5</ele>
        <time>2016-11-06T08:00:02Z</time>
      </trkpt>
      <trkpt lat="43.72874" lon="3.44377">
        <ele>431</ele>
        <time>2016-11-06T08:00:05Z</time>
      </trkpt>
      <trkpt lat="43.72881" lon="3.44373">
        <ele>431.2</ele>
        <time>2016-11-06T08:00:07Z</time>
      </trkpt>
      <trkpt lat="43.72889" lon="3.44367">
        <ele>431.5</ele>
        <time>2016-11-06T08:00:10Z</time>
      </trkpt>
      <trkpt lat="43.72897" lon="3.44359">
        <ele>431.7</ele>
        <time>2016-11-06T08:00:13Z</time>
      </trkpt>
      <trkpt lat="43.72905" lon="3.44352">
        <ele>431.8</ele>
        <time>2016-11-06T08:00:16Z</time>
      </trkpt>
      <trkpt lat="43.72913" lon="3.44343">
        <ele>432.1</ele>
        <time>2016-11-06T08:00:19Z</time>
      </trkpt>
      <trkpt lat="43.7292" lon="3.44333">
        <ele>432.7</ele>
        <time>2016-11-06T08:00:22Z</time>
      </trkpt>
      <trkpt lat="43.72927" lon="3.44324">
        <ele>433.1</ele>
        <time>2016-11-06T08:00:25Z</time>
      </trkpt>
      <trkpt lat="43.72932" lon="3.44314">
        <ele>433.3</ele>
        <time>2016-11-06T08:00:28Z</time>
      </trkpt>
      <trkpt lat="43.72938" lon="3.44305">
        <ele>433.3</ele>
        <time>2016-11-06T08:00:31Z</time>
      </trkpt>
      <trkpt lat="43.72944" lon="3.44292">
        <ele>434.2</ele>
        <time>2016-11-06T08:00:34Z</time>
      </trkpt>
      <trkpt lat="43.72948" lon="3.44282">
        <ele>434.1</ele>
        <time>2016-11-06T08:00:36Z</time>
      </trkpt>
      <trkpt lat="43.72954" lon="3.4427">
        <ele>435</ele>
        <time>2016-11-06T08:00:38Z</time>
      </trkpt>
      <trkpt lat="43.72963" lon="3.44259">
        <ele>435.7</ele>
        <time>2016-11-06T08:00:40Z</time>
      </trkpt>
      <trkpt lat="43.72969" lon="3.44249">
        <ele>435.6</ele>
        <time>2016-11-06T08:00:42Z</time>
      </trkpt>
      <trkpt lat="43.72975" lon="3.44238">
        <ele>435.5</ele>
        <time>2016-11-06T08:00:45Z</time>
      </trkpt>
      <trkpt lat="43.72981" lon="3.4423">
        <ele>435.2</ele>
        <time>2016-11-06T08:00:48Z</time>
      </trkpt>
      <trkpt lat="43.72987" lon="3.44225">
        <ele>435</ele>
        <time>2016-11-06T08:00:50Z</time>
      </trkpt>
      <trkpt lat="43.72996" lon="3.44219">
        <ele>434.8</ele>
        <time>2016-11-06T08:00:53Z</time>
      </trkpt>
      <trkpt lat="43.73005" lon="3.44214">
        <ele>434.6</ele>
        <time>2016-11-06T08:00:56Z</time>
      </trkpt>
      <trkpt lat="43.73015" lon="3.44214">
        <ele>434.4</ele>
        <time>2016-11-06T08:00:59Z</time>
      </trkpt>
      <trkpt lat="43.73022" lon="3.44215">
        <ele>434.1</ele>
        <time>2016-11-06T08:01:01Z</time>
      </trkpt>
      <trkpt lat="43.73029" lon="3.44216">
        <ele>433.9</ele>
        <time>2016-11-06T08:01:03Z</time>
      </trkpt>
      <trkpt lat="43.7304" lon="3.4422">
        <ele>433.6</ele>
        <time>2016-11-06T08:01:06Z</time>
      </trkpt>
      <trkpt lat="43.73049" lon="3.44223">
        <ele>433.4</ele>
        <time>2016-11-06T08:01:09Z</time>
      </trkpt>
      <trkpt lat="43.73057" lon="3.44226">
        <ele>433.1</ele>
        <time>2016-11-06T08:01:12Z</time>
      </trkpt>
      <trkpt lat="43.73066" lon="3.4423">
        <ele>432.8</ele>
        <time>2016-11-06T08:01:15Z</time>
      </trkpt>
      <trkpt lat="43.73075" lon="3.44234">
        <ele>432.7</ele>
        <time>2016-11-06T08:01:18Z</time>
      </trkpt>
      <trkpt lat="43.73082" lon="3.4424">
        <ele>432.4</ele>
        <time>2016-11-06T08:01:21Z</time>
      </trkpt>
      <trkpt lat="43.73091" lon="3.44246">
        <ele>432.3</ele>
        <time>2016-11-06T08:01:25Z</time>
      </trkpt>
      <trkpt lat="43.73098" lon="3.44253">
        <ele>432.2</ele>
        <time>2016-11-06T08:01:28Z</time>
      </trkpt>
      <trkpt lat="43.73104" lon="3.44261">
        <ele>432.2</ele>
        <time>2016-11-06T08:01:31Z</time>
      </trkpt>
      <trkpt lat="43.73112" lon="3.4427">
        <ele>432.1</ele>
        <time>2016-11-06T08:01:34Z</time>
      </trkpt>
      <trkpt lat="43.73118" lon="3.44277">
        <ele>432</ele>
        <time>2016-11-06T08:01:37Z</time>
      </trkpt>
      <trkpt lat="43.73124" lon="3.44284">
        <ele>432</ele>
        <time>2016-11-06T08:01:40Z</time>
      </trkpt>
      <trkpt lat="43.73129" lon="3.44291">
        <ele>432.1</ele>
        <time>2016-11-06T08:01:43Z</time>
      </trkpt>
      <trkpt lat="43.73136" lon="3.44298">
        <ele>432.3</ele>
        <time>2016-11-06T08:01:46Z</time>
      </trkpt>
      <trkpt lat="43.73143" lon="3.44307">
        <ele>432.5</ele>
        <time>2016-11-06T08:01:49Z</time>
      </trkpt>
      <trkpt lat="43.73149" lon="3.44316">
        <ele>432.6</ele>
        <time>2016-11-06T08:01:52Z</time>
      </trkpt>
      <trkpt lat="43.73155" lon="3.44327">
        <ele>432.8</ele>
        <time>2016-11-06T08:01:56Z</time>
      </trkpt>
      <trkpt lat="43.73159" lon="3.44335">
        <ele>432.9</ele>
        <time>2016-11-06T08:01:58Z</time>
      </trkpt>
      <trkpt lat="43.73167" lon="3.44344">
        <ele>433</ele>
        <time>2016-11-06T08:02:01Z</time>
      </trkpt>
      <trkpt lat="43.73173" lon="3.44351">
        <ele>433.1</ele>
        <time>2016-11-06T08:02:03Z</time>
      </trkpt>
      <trkpt lat="43.73181" lon="3.44359">
        <ele>433.3</ele>
        <time>2016-11-06T08:02:06Z</time>
      </trkpt>
      <trkpt lat="43.73187" lon="3.44365">
        <ele>433.5</ele>
        <time>2016-11-06T08:02:08Z</time>
      </trkpt>
      <trkpt lat="43.73193" lon="3.44371">
        <ele>433.6</ele>
        <time>2016-11-06T08:02:10Z</time>
      </trkpt>
      <trkpt lat="43.73202" lon="3.44378">
        <ele>433.6</ele>
        <time>2016-11-06T08:02:13Z</time>
      </trkpt>
      <trkpt lat="43.7321" lon="3.44385">
        <ele>433.6</ele>
        <time>2016-11-06T08:02:16Z</time>
      </trkpt>
      <trkpt lat="43.73216" lon="3.44391">
        <ele>433.7</ele>
        <time>2016-11-06T08:02:18Z</time>
      </trkpt>
      <trkpt lat="43.73224" lon="3.44399">
        <ele>433.8</ele>
        <time>2016-11-06T08:02:20Z</time>
      </trkpt>
      <trkpt lat="43.73231" lon="3.44408">
        <ele>433.9</ele>
        <time>2016-11-06T08:02:22Z</time>
      </trkpt>
      <trkpt lat="43.73236" lon="3.44418">
        <ele>434</ele>
        <time>2016-11-06T08:02:24Z</time>
      </trkpt>
      <trkpt lat="43.73243" lon="3.4443">
        <ele>434.1</ele>
        <time>2016-11-06T08:02:26Z</time>
      </trkpt>
      <trkpt lat="43.73249" lon="3.4444">
        <ele>434.7</ele>
        <time>2016-11-06T08:02:28Z</time>
      </trkpt>
      <trkpt lat="43.73255" lon="3.44451">
        <ele>434</ele>
        <time>2016-11-06T08:02:30Z</time>
      </trkpt>
      <trkpt lat="43.73262" lon="3.44463">
        <ele>432.8</ele>
        <time>2016-11-06T08:02:32Z</time>
      </trkpt>
      <trkpt lat="43.7327" lon="3.44473">
        <ele>431.5</ele>
        <time>2016-11-06T08:02:34Z</time>
      </trkpt>
      <trkpt lat="43.73277" lon="3.44484">
        <ele>430.6</ele>
        <time>2016-11-06T08:02:36Z</time>
      </trkpt>
      <trkpt lat="43.73287" lon="3.44495">
        <ele>430.6</ele>
        <time>2016-11-06T08:02:38Z</time>
      </trkpt>
      <trkpt lat="43.73297" lon="3.44507">
        <ele>431.2</ele>
        <time>2016-11-06T08:02:40Z</time>
      </trkpt>
      <trkpt lat="43.73303" lon="3.44514">
        <ele>431.6</ele>
        <time>2016-11-06T08:02:41Z</time>
      </trkpt>
      <trkpt lat="43.73309" lon="3.44521">
        <ele>431.4</ele>
        <time>2016-11-06T08:02:42Z</time>
      </trkpt>
      <trkpt lat="43.73315" lon="3.44528">
        <ele>431</ele>
        <time>2016-11-06T08:02:43Z</time>
      </trkpt>
      <trkpt lat="43.73322" lon="3.44536">
        <ele>430.4</ele>
        <time>2016-11-06T08:02:44Z</time>
      </trkpt>
      <trkpt lat="43.73328" lon="3.44543">
        <ele>429.5</ele>
        <time>2016-11-06T08:02:45Z</time>
      </trkpt>
      <trkpt lat="43.73335" lon="3.44549">
        <ele>428.4</ele>
        <time>2016-11-06T08:02:46Z</time>
      </trkpt>
      <trkpt lat="43.73347" lon="3.44556">
        <ele>426.9</ele>
        <time>2016-11-06T08:02:48Z</time>
      </trkpt>
      <trkpt lat="43.73355" lon="3.44558">
        <ele>426</ele>
        <time>2016-11-06T08:02:49Z</time>
      </trkpt>
      <trkpt lat="43.73369" lon="3.4456">
        <ele>425.3</ele>
        <time>2016-11-06T08:02:51Z</time>
      </trkpt>
      <trkpt lat="43.73381" lon="3.44558">
        <ele>425</ele>
        <time>2016-11-06T08:02:53Z</time>
      </trkpt>
      <trkpt lat="43.73391" lon="3.44557">
        <ele>426.6</ele>
        <time>2016-11-06T08:02:55Z</time>
      </trkpt>
      <trkpt lat="43.73398" lon="3.44554">
        <ele>427.3</ele>
        <time>2016-11-06T08:02:57Z</time>
      </trkpt>
      <trkpt lat="43.73406" lon="3.44552">
        <ele>427.3</ele>
        <time>2016-11-06T08:02:59Z</time>
      </trkpt>
      <trkpt lat="43.73415" lon="3.44552">
        <ele>427.4</ele>
        <time>2016-11-06T08:03:02Z</time>
      </trkpt>
      <trkpt lat="43.73422" lon="3.44559">
        <ele>427.5</ele>
        <time>2016-11-06T08:03:05Z</time>
      </trkpt>
      <trkpt lat="43.73426" lon="3.44569">
        <ele>427.8</ele>
        <time>2016-11-06T08:03:08Z</time>
      </trkpt>
      <trkpt lat="43.73427" lon="3.44579">
        <ele>428.2</ele>
        <time>2016-11-06T08:03:10Z</time>
      </trkpt>
      <trkpt lat="43.73426" lon="3.44592">
        <ele>428.8</ele>
        <time>2016-11-06T08:03:13Z</time>
      </trkpt>
      <trkpt lat="43.73425" lon="3.44602">
        <ele>429.2</ele>
        <time>2016-11-06T08:03:16Z</time>
      </trkpt>
      <trkpt lat="43.73426" lon="3.44613">
        <ele>429.4</ele>
        <time>2016-11-06T08:03:19Z</time>
      </trkpt>
      <trkpt lat="43.73427" lon="3.44625">
        <ele>429.8</ele>
        <time>2016-11-06T08:03:22Z</time>
      </trkpt>
      <trkpt lat="43.73428" lon="3.44636">
        <ele>430.3</ele>
        <time>2016-11-06T08:03:25Z</time>
      </trkpt>
      <trkpt lat="43.73431" lon="3.44649">
        <ele>431.2</ele>
        <time>2016-11-06T08:03:29Z</time>
      </trkpt>
      <trkpt lat="43.73436" lon="3.44659">
        <ele>432</ele>
        <time>2016-11-06T08:03:32Z</time>
      </trkpt>
      <trkpt lat="43.73443" lon="3.44663">
        <ele>432.5</ele>
        <time>2016-11-06T08:03:35Z</time>
      </trkpt>
      <trkpt lat="43.73453" lon="3.44668">
        <ele>433.2</ele>
        <time>2016-11-06T08:03:38Z</time>
      </trkpt>
      <trkpt lat="43.73461" lon="3.44671">
        <ele>435.8</ele>
        <time>2016-11-06T08:03:40Z</time>
      </trkpt>
      <trkpt lat="43.73471" lon="3.44675">
        <ele>436.9</ele>
        <time>2016-11-06T08:03:43Z</time>
      </trkpt>
      <trkpt lat="43.73481" lon="3.44673">
        <ele>437.3</ele>
        <time>2016-11-06T08:03:46Z</time>
      </trkpt>
      <trkpt lat="43.7349" lon="3.44663">
        <ele>437.8</ele>
        <time>2016-11-06T08:03:49Z</time>
      </trkpt>
      <trkpt lat="43.73495" lon="3.44656">
        <ele>438.2</ele>
        <time>2016-11-06T08:03:51Z</time>
      </trkpt>
      <trkpt lat="43.73504" lon="3.44648">
        <ele>438.7</ele>
        <time>2016-11-06T08:03:54Z</time>
      </trkpt>
      <trkpt lat="43.73511" lon="3.44644">
        <ele>438.9</ele>
        <time>2016-11-06T08:03:56Z</time>
      </trkpt>
      <trkpt lat="43.73519" lon="3.44639">
        <ele>439.1</ele>
        <time>2016-11-06T08:03:59Z</time>
      </trkpt>
      <trkpt lat="43.73529" lon="3.44636">
        <ele>439.1</ele>
        <time>2016-11-06T08:04:02Z</time>
      </trkpt>
      <trkpt lat="43.73539" lon="3.44634">
        <ele>438.9</ele>
        <time>2016-11-06T08:04:05Z</time>
      </trkpt>
      <trkpt lat="43.73547" lon="3.44633">
        <ele>438.7</ele>
        <time>2016-11-06T08:04:08Z</time>
      </trkpt>
      <trkpt lat="43.73557" lon="3.44632">
        <ele>438.6</ele>
        <time>2016-11-06T08:04:11Z</time>
      </trkpt>
      <trkpt lat="43.73566" lon="3.44631">
        <ele>438.4</ele>
        <time>2016-11-06T08:04:14Z</time>
      </trkpt>
      <trkpt lat="43.73575" lon="3.4463">
        <ele>438.4</ele>
        <time>2016-11-06T08:04:17Z</time>
      </trkpt>
      <trkpt lat="43.73584" lon="3.44626">
        <ele>438.4</ele>
        <time>2016-11-06T08:04:20Z</time>
      </trkpt>
      <trkpt lat="43.73592" lon="3.44618">
        <ele>438.6</ele>
        <time>2016-11-06T08:04:23Z</time>
      </trkpt>
      <trkpt lat="43.736" lon="3.44614">
        <ele>438.7</ele>
        <time>2016-11-06T08:04:25Z</time>
      </trkpt>
      <trkpt lat="43.73608" lon="3.44611">
        <ele>438.9</ele>
        <time>2016-11-06T08:04:28Z</time>
      </trkpt>
      <trkpt lat="43.73618" lon="3.44611">
        <ele>439</ele>
        <time>2016-11-06T08:04:31Z</time>
      </trkpt>
      <trkpt lat="43.73626" lon="3.44613">
        <ele>439.2</ele>
        <time>2016-11-06T08:04:34Z</time>
      </trkpt>
      <trkpt lat="43.73635" lon="3.44617">
        <ele>439.3</ele>
        <time>2016-11-06T08:04:37Z</time>
      </trkpt>
      <trkpt lat="43.73643" lon="3.44622">
        <ele>439.4</ele>
        <time>2016-11-06T08:04:40Z</time>
      </trkpt>
      <trkpt lat="43.73653" lon="3.44622">
        <ele>439.6</ele>
        <time>2016-11-06T08:04:44Z</time>
      </trkpt>
      <trkpt lat="43.73661" lon="3.44622">
        <ele>439.7</ele>
        <time>2016-11-06T08:04:47Z</time>
      </trkpt>
      <trkpt lat="43.73669" lon="3.44619">
        <ele>439.7</ele>
        <time>2016-11-06T08:04:50Z</time>
      </trkpt>
      <trkpt lat="43.73676" lon="3.44616">
        <ele>440</ele>
        <time>2016-11-06T08:04:53Z</time>
      </trkpt>
      <trkpt lat="43.73684" lon="3.44611">
        <ele>440.3</ele>
        <time>2016-11-06T08:04:56Z</time>
      </trkpt>
      <trkpt lat="43.73693" lon="3.44608">
        <ele>440.7</ele>
        <time>2016-11-06T08:05:00Z</time>
      </trkpt>
      <trkpt lat="43.73703" lon="3.44605">
        <ele>440.7</ele>
        <time>2016-11-06T08:05:03Z</time>
      </trkpt>
      <trkpt lat="43.73711" lon="3.44605">
        <ele>440.7</ele>
        <time>2016-11-06T08:05:06Z</time>
      </trkpt>
      <trkpt lat="43.7372" lon="3.44607">
        <ele>440.9</ele>
        <time>2016-11-06T08:05:09Z</time>
      </trkpt>
      <trkpt lat="43.73729" lon="3.44609">
        <ele>441.1</ele>
        <time>2016-11-06T08:05:12Z</time>
      </trkpt>
      <trkpt lat="43.73739" lon="3.44611">
        <ele>441.4</ele>
        <time>2016-11-06T08:05:16Z</time>
      </trkpt>
      <trkpt lat="43.73747" lon="3.44611">
        <ele>441.5</ele>
        <time>2016-11-06T08:05:19Z</time>
      </trkpt>
      <trkpt lat="43.73754" lon="3.44609">
        <ele>441.8</ele>
        <time>2016-11-06T08:05:22Z</time>
      </trkpt>
      <trkpt lat="43.73762" lon="3.44603">
        <ele>442.4</ele>
        <time>2016-11-06T08:05:26Z</time>
      </trkpt>
      <trkpt lat="43.73769" lon="3.446">
        <ele>442.8</ele>
        <time>2016-11-06T08:05:29Z</time>
      </trkpt>
      <trkpt lat="43.73778" lon="3.44597">
        <ele>443.3</ele>
        <time>2016-11-06T08:05:33Z</time>
      </trkpt>
      <trkpt lat="43.73786" lon="3.44595">
        <ele>443.4</ele>
        <time>2016-11-06T08:05:36Z</time>
      </trkpt>
      <trkpt lat="43.73794" lon="3.44594">
        <ele>443.6</ele>
        <time>2016-11-06T08:05:39Z</time>
      </trkpt>
      <trkpt lat="43.73803" lon="3.44595">
        <ele>443.9</ele>
        <time>2016-11-06T08:05:43Z</time>
      </trkpt>
      <trkpt lat="43.73814" lon="3.44594">
        <ele>443.9</ele>
        <time>2016-11-06T08:05:46Z</time>
      </trkpt>
      <trkpt lat="43.73824" lon="3.44592">
        <ele>443.8</ele>
        <time>2016-11-06T08:05:49Z</time>
      </trkpt>
      <trkpt lat="43.73831" lon="3.44591">
        <ele>443.3</ele>
        <time>2016-11-06T08:05:51Z</time>
      </trkpt>
      <trkpt lat="43.7384" lon="3.4459">
        <ele>443</ele>
        <time>2016-11-06T08:05:53Z</time>
      </trkpt>
      <trkpt lat="43.7385" lon="3.4459">
        <ele>442</ele>
        <time>2016-11-06T08:05:55Z</time>
      </trkpt>
      <trkpt lat="43.73861" lon="3.44592">
        <ele>441.3</ele>
        <time>2016-11-06T08:05:57Z</time>
      </trkpt>
      <trkpt lat="43.73872" lon="3.44594">
        <ele>441.2</ele>
        <time>2016-11-06T08:05:59Z</time>
      </trkpt>
      <trkpt lat="43.73883" lon="3.44597">
        <ele>440.8</ele>
        <time>2016-11-06T08:06:01Z</time>
      </trkpt>
      <trkpt lat="43.73894" lon="3.44601">
        <ele>440.6</ele>
        <time>2016-11-06T08:06:03Z</time>
      </trkpt>
      <trkpt lat="43.73905" lon="3.44604">
        <ele>440.2</ele>
        <time>2016-11-06T08:06:05Z</time>
      </trkpt>
      <trkpt lat="43.73915" lon="3.44608">
        <ele>439.8</ele>
        <time>2016-11-06T08:06:07Z</time>
      </trkpt>
      <trkpt lat="43.73923" lon="3.4461">
        <ele>439.3</ele>
        <time>2016-11-06T08:06:09Z</time>
      </trkpt>
      <trkpt lat="43.73931" lon="3.44613">
        <ele>439.2</ele>
        <time>2016-11-06T08:06:11Z</time>
      </trkpt>
      <trkpt lat="43.73939" lon="3.44615">
        <ele>439.4</ele>
        <time>2016-11-06T08:06:13Z</time>
      </trkpt>
      <trkpt lat="43.73948" lon="3.44617">
        <ele>439.4</ele>
        <time>2016-11-06T08:06:15Z</time>
      </trkpt>
      <trkpt lat="43.73955" lon="3.44619">
        <ele>438.8</ele>
        <time>2016-11-06T08:06:17Z</time>
      </trkpt>
      <trkpt lat="43.73965" lon="3.44621">
        <ele>438.7</ele>
        <time>2016-11-06T08:06:19Z</time>
      </trkpt>
      <trkpt lat="43.73974" lon="3.44624">
        <ele>438.9</ele>
        <time>2016-11-06T08:06:21Z</time>
      </trkpt>
      <trkpt lat="43.73983" lon="3.44626">
        <ele>438.6</ele>
        <time>2016-11-06T08:06:23Z</time>
      </trkpt>
      <trkpt lat="43.73992" lon="3.44628">
        <ele>438.3</ele>
        <time>2016-11-06T08:06:25Z</time>
      </trkpt>
      <trkpt lat="43.74" lon="3.4463">
        <ele>438</ele>
        <time>2016-11-06T08:06:27Z</time>
      </trkpt>
      <trkpt lat="43.74009" lon="3.44632">
        <ele>437.3</ele>
        <time>2016-11-06T08:06:29Z</time>
      </trkpt>
      <trkpt lat="43.74019" lon="3.44633">
        <ele>437.6</ele>
        <time>2016-11-06T08:06:31Z</time>
      </trkpt>
      <trkpt lat="43.74028" lon="3.44636">
        <ele>438.4</ele>
        <time>2016-11-06T08:06:33Z</time>
      </trkpt>
      <trkpt lat="43.7404" lon="3.44642">
        <ele>438.5</ele>
        <time>2016-11-06T08:06:35Z</time>
      </trkpt>
      <trkpt lat="43.74052" lon="3.44652">
        <ele>436.3</ele>
        <time>2016-11-06T08:06:37Z</time>
      </trkpt>
      <trkpt lat="43.74065" lon="3.44661">
        <ele>434.3</ele>
        <time>2016-11-06T08:06:39Z</time>
      </trkpt>
      <trkpt lat="43.74072" lon="3.44664">
        <ele>433.2</ele>
        <time>2016-11-06T08:06:40Z</time>
      </trkpt>
      <trkpt lat="43.74087" lon="3.44664">
        <ele>431.5</ele>
        <time>2016-11-06T08:06:42Z</time>
      </trkpt>
      <trkpt lat="43.74095" lon="3.44662">
        <ele>430.6</ele>
        <time>2016-11-06T08:06:43Z</time>
      </trkpt>
      <trkpt lat="43.74102" lon="3.4466">
        <ele>430.1</ele>
        <time>2016-11-06T08:06:44Z</time>
      </trkpt>
      <trkpt lat="43.7411" lon="3.44659">
        <ele>429.8</ele>
        <time>2016-11-06T08:06:45Z</time>
      </trkpt>
      <trkpt lat="43.74118" lon="3.44659">
        <ele>429.5</ele>
        <time>2016-11-06T08:06:46Z</time>
      </trkpt>
      <trkpt lat="43.74126" lon="3.44659">
        <ele>429.3</ele>
        <time>2016-11-06T08:06:47Z</time>
      </trkpt>
      <trkpt lat="43.74136" lon="3.4466">
        <ele>429</ele>
        <time>2016-11-06T08:06:48Z</time>
      </trkpt>
      <trkpt lat="43.74143" lon="3.44664">
        <ele>429</ele>
        <time>2016-11-06T08:06:49Z</time>
      </trkpt>
      <trkpt lat="43.74151" lon="3.44668">
        <ele>428.8</ele>
        <time>2016-11-06T08:06:50Z</time>
      </trkpt>
      <trkpt lat="43.74162" lon="3.44675">
        <ele>429.2</ele>
        <time>2016-11-06T08:06:52Z</time>
      </trkpt>
      <trkpt lat="43.74171" lon="3.44683">
        <ele>428.4</ele>
        <time>2016-11-06T08:06:54Z</time>
      </trkpt>
      <trkpt lat="43.74176" lon="3.44691">
        <ele>428.2</ele>
        <time>2016-11-06T08:06:56Z</time>
      </trkpt>
      <trkpt lat="43.7418" lon="3.44702">
        <ele>428.2</ele>
        <time>2016-11-06T08:07:00Z</time>
      </trkpt>
      <trkpt lat="43.74185" lon="3.4471">
        <ele>428.1</ele>
        <time>2016-11-06T08:07:03Z</time>
      </trkpt>
      <trkpt lat="43.74187" lon="3.44721">
        <ele>428.3</ele>
        <time>2016-11-06T08:07:07Z</time>
      </trkpt>
      <trkpt lat="43.7419" lon="3.44731">
        <ele>428.7</ele>
        <time>2016-11-06T08:07:11Z</time>
      </trkpt>
      <trkpt lat="43.74199" lon="3.44731">
        <ele>429.5</ele>
        <time>2016-11-06T08:07:17Z</time>
      </trkpt>
      <trkpt lat="43.74208" lon="3.44733">
        <ele>430.4</ele>
        <time>2016-11-06T08:07:22Z</time>
      </trkpt>
      <trkpt lat="43.74216" lon="3.44735">
        <ele>431.5</ele>
        <time>2016-11-06T08:07:26Z</time>
      </trkpt>
      <trkpt lat="43.74224" lon="3.44736">
        <ele>432.8</ele>
        <time>2016-11-06T08:07:31Z</time>
      </trkpt>
      <trkpt lat="43.7423" lon="3.4474">
        <ele>434.3</ele>
        <time>2016-11-06T08:07:36Z</time>
      </trkpt>
      <trkpt lat="43.74238" lon="3.44744">
        <ele>435.7</ele>
        <time>2016-11-06T08:07:42Z</time>
      </trkpt>
      <trkpt lat="43.74246" lon="3.44748">
        <ele>436.9</ele>
        <time>2016-11-06T08:07:48Z</time>
      </trkpt>
      <trkpt lat="43.74253" lon="3.44753">
        <ele>438.4</ele>
        <time>2016-11-06T08:07:53Z</time>
      </trkpt>
      <trkpt lat="43.7426" lon="3.44761">
        <ele>440.6</ele>
        <time>2016-11-06T08:08:00Z</time>
      </trkpt>
      <trkpt lat="43.74266" lon="3.44767">
        <ele>443</ele>
        <time>2016-11-06T08:08:07Z</time>
      </trkpt>
      <trkpt lat="43.74271" lon="3.44773">
        <ele>444.1</ele>
        <time>2016-11-06T08:08:10Z</time>
      </trkpt>
      <trkpt lat="43.74277" lon="3.44783">
        <ele>445.1</ele>
        <time>2016-11-06T08:08:13Z</time>
      </trkpt>
      <trkpt lat="43.74283" lon="3.44792">
        <ele>446.5</ele>
        <time>2016-11-06T08:08:17Z</time>
      </trkpt>
      <trkpt lat="43.74287" lon="3.448">
        <ele>448</ele>
        <time>2016-11-06T08:08:22Z</time>
      </trkpt>
      <trkpt lat="43.7429" lon="3.44807">
        <ele>450</ele>
        <time>2016-11-06T08:08:29Z</time>
      </trkpt>
      <trkpt lat="43.74295" lon="3.44814">
        <ele>450.9</ele>
        <time>2016-11-06T08:08:33Z</time>
      </trkpt>
      <trkpt lat="43.74304" lon="3.44822">
        <ele>452.2</ele>
        <time>2016-11-06T08:08:39Z</time>
      </trkpt>
      <trkpt lat="43.74309" lon="3.44832">
        <ele>453.3</ele>
        <time>2016-11-06T08:08:43Z</time>
      </trkpt>
      <trkpt lat="43.74311" lon="3.44835">
        <ele>455.1</ele>
        <time>2016-11-06T08:08:50Z</time>
      </trkpt>
      <trkpt lat="43.74318" lon="3.4485">
        <ele>455.6</ele>
        <time>2016-11-06T08:08:55Z</time>
      </trkpt>
      <trkpt lat="43.74308" lon="3.44853">
        <ele>457.6</ele>
        <time>2016-11-06T08:09:13Z</time>
      </trkpt>
      <trkpt lat="43.74307" lon="3.4487">
        <ele>459.1</ele>
        <time>2016-11-06T08:09:27Z</time>
      </trkpt>
      <trkpt lat="43.7431" lon="3.44879">
        <ele>458.9</ele>
        <time>2016-11-06T08:09:33Z</time>
      </trkpt>
      <trkpt lat="43.74315" lon="3.44887">
        <ele>459.1</ele>
        <time>2016-11-06T08:09:38Z</time>
      </trkpt>
      <trkpt lat="43.74319" lon="3.44896">
        <ele>459.7</ele>
        <time>2016-11-06T08:09:42Z</time>
      </trkpt>
      <trkpt lat="43.74324" lon="3.44904">
        <ele>460.2</ele>
        <time>2016-11-06T08:09:48Z</time>
      </trkpt>
      <trkpt lat="43.74325" lon="3.4491">
        <ele>461.6</ele>
        <time>2016-11-06T08:09:55Z</time>
      </trkpt>
      <trkpt lat="43.74333" lon="3.44919">
        <ele>462.7</ele>
        <time>2016-11-06T08:09:59Z</time>
      </trkpt>
      <trkpt lat="43.7434" lon="3.44927">
        <ele>463.8</ele>
        <time>2016-11-06T08:10:04Z</time>
      </trkpt>
      <trkpt lat="43.74344" lon="3.44932">
        <ele>464.5</ele>
        <time>2016-11-06T08:10:11Z</time>
      </trkpt>
      <trkpt lat="43.74349" lon="3.44939">
        <ele>464.6</ele>
        <time>2016-11-06T08:10:12Z</time>
      </trkpt>
      <trkpt lat="43.74352" lon="3.44949">
        <ele>465.5</ele>
        <time>2016-11-06T08:10:19Z</time>
      </trkpt>
      <trkpt lat="43.74342" lon="3.44946">
        <ele>466.3</ele>
        <time>2016-11-06T08:10:26Z</time>
      </trkpt>
      <trkpt lat="43.74336" lon="3.44938">
        <ele>466.4</ele>
        <time>2016-11-06T08:10:30Z</time>
      </trkpt>
      <trkpt lat="43.74326" lon="3.44933">
        <ele>466.5</ele>
        <time>2016-11-06T08:10:34Z</time>
      </trkpt>
      <trkpt lat="43.74319" lon="3.4493">
        <ele>466.7</ele>
        <time>2016-11-06T08:10:37Z</time>
      </trkpt>
      <trkpt lat="43.74311" lon="3.44924">
        <ele>467.2</ele>
        <time>2016-11-06T08:10:41Z</time>
      </trkpt>
      <trkpt lat="43.74306" lon="3.44915">
        <ele>468</ele>
        <time>2016-11-06T08:10:45Z</time>
      </trkpt>
      <trkpt lat="43.743" lon="3.4491">
        <ele>469.2</ele>
        <time>2016-11-06T08:10:50Z</time>
      </trkpt>
      <trkpt lat="43.74293" lon="3.44905">
        <ele>469.6</ele>
        <time>2016-11-06T08:10:54Z</time>
      </trkpt>
      <trkpt lat="43.74285" lon="3.449">
        <ele>470.5</ele>
        <time>2016-11-06T08:10:59Z</time>
      </trkpt>
      <trkpt lat="43.74277" lon="3.44902">
        <ele>471.3</ele>
        <time>2016-11-06T08:11:04Z</time>
      </trkpt>
      <trkpt lat="43.74275" lon="3.44903">
        <ele>472.2</ele>
        <time>2016-11-06T08:11:11Z</time>
      </trkpt>
      <trkpt lat="43.74279" lon="3.44914">
        <ele>473</ele>
        <time>2016-11-06T08:11:18Z</time>
      </trkpt>
      <trkpt lat="43.74287" lon="3.4492">
        <ele>474.2</ele>
        <time>2016-11-06T08:11:23Z</time>
      </trkpt>
      <trkpt lat="43.74295" lon="3.44926">
        <ele>475.9</ele>
        <time>2016-11-06T08:11:29Z</time>
      </trkpt>
      <trkpt lat="43.74301" lon="3.44933">
        <ele>476.8</ele>
        <time>2016-11-06T08:11:34Z</time>
      </trkpt>
      <trkpt lat="43.74308" lon="3.44941">
        <ele>478.7</ele>
        <time>2016-11-06T08:11:40Z</time>
      </trkpt>
      <trkpt lat="43.74314" lon="3.44947">
        <ele>480</ele>
        <time>2016-11-06T08:11:44Z</time>
      </trkpt>
      <trkpt lat="43.74319" lon="3.44954">
        <ele>480.7</ele>
        <time>2016-11-06T08:11:47Z</time>
      </trkpt>
      <trkpt lat="43.74325" lon="3.44961">
        <ele>482.4</ele>
        <time>2016-11-06T08:11:53Z</time>
      </trkpt>
      <trkpt lat="43.74331" lon="3.44969">
        <ele>483.9</ele>
        <time>2016-11-06T08:11:58Z</time>
      </trkpt>
      <trkpt lat="43.74336" lon="3.44978">
        <ele>485.2</ele>
        <time>2016-11-06T08:12:03Z</time>
      </trkpt>
      <trkpt lat="43.7434" lon="3.44987">
        <ele>485.7</ele>
        <time>2016-11-06T08:12:07Z</time>
      </trkpt>
      <trkpt lat="43.74344" lon="3.44995">
        <ele>486</ele>
        <time>2016-11-06T08:12:11Z</time>
      </trkpt>
      <trkpt lat="43.74346" lon="3.45005">
        <ele>486.7</ele>
        <time>2016-11-06T08:12:17Z</time>
      </trkpt>
      <trkpt lat="43.74349" lon="3.45013">
        <ele>487.9</ele>
        <time>2016-11-06T08:12:24Z</time>
      </trkpt>
      <trkpt lat="43.74351" lon="3.45023">
        <ele>488.8</ele>
        <time>2016-11-06T08:12:28Z</time>
      </trkpt>
      <trkpt lat="43.74357" lon="3.45032">
        <ele>489.2</ele>
        <time>2016-11-06T08:12:32Z</time>
      </trkpt>
      <trkpt lat="43.74363" lon="3.45039">
        <ele>490.2</ele>
        <time>2016-11-06T08:12:37Z</time>
      </trkpt>
      <trkpt lat="43.7437" lon="3.45047">
        <ele>490.8</ele>
        <time>2016-11-06T08:12:41Z</time>
      </trkpt>
      <trkpt lat="43.74376" lon="3.45055">
        <ele>492.1</ele>
        <time>2016-11-06T08:12:48Z</time>
      </trkpt>
      <trkpt lat="43.74381" lon="3.45062">
        <ele>492.9</ele>
        <time>2016-11-06T08:12:52Z</time>
      </trkpt>
      <trkpt lat="43.74388" lon="3.45069">
        <ele>493.7</ele>
        <time>2016-11-06T08:12:56Z</time>
      </trkpt>
      <trkpt lat="43.74397" lon="3.45073">
        <ele>494.3</ele>
        <time>2016-11-06T08:13:00Z</time>
      </trkpt>
      <trkpt lat="43.74404" lon="3.45074">
        <ele>495.1</ele>
        <time>2016-11-06T08:13:05Z</time>
      </trkpt>
      <trkpt lat="43.74412" lon="3.45074">
        <ele>495.8</ele>
        <time>2016-11-06T08:13:09Z</time>
      </trkpt>
      <trkpt lat="43.74419" lon="3.45072">
        <ele>496.8</ele>
        <time>2016-11-06T08:13:14Z</time>
      </trkpt>
      <trkpt lat="43.74425" lon="3.45067">
        <ele>497.5</ele>
        <time>2016-11-06T08:13:18Z</time>
      </trkpt>
      <trkpt lat="43.74426" lon="3.45058">
        <ele>498.3</ele>
        <time>2016-11-06T08:13:23Z</time>
      </trkpt>
      <trkpt lat="43.74422" lon="3.45048">
        <ele>498.4</ele>
        <time>2016-11-06T08:13:28Z</time>
      </trkpt>
      <trkpt lat="43.74416" lon="3.4504">
        <ele>498.1</ele>
        <time>2016-11-06T08:13:33Z</time>
      </trkpt>
      <trkpt lat="43.74414" lon="3.45029">
        <ele>498.1</ele>
        <time>2016-11-06T08:13:38Z</time>
      </trkpt>
      <trkpt lat="43.74412" lon="3.45016">
        <ele>498.3</ele>
        <time>2016-11-06T08:13:43Z</time>
      </trkpt>
      <trkpt lat="43.74411" lon="3.45005">
        <ele>498.7</ele>
        <time>2016-11-06T08:13:46Z</time>
      </trkpt>
      <trkpt lat="43.7441" lon="3.44994">
        <ele>499.1</ele>
        <time>2016-11-06T08:13:50Z</time>
      </trkpt>
      <trkpt lat="43.74409" lon="3.44983">
        <ele>499.3</ele>
        <time>2016-11-06T08:13:54Z</time>
      </trkpt>
      <trkpt lat="43.74408" lon="3.44973">
        <ele>499.5</ele>
        <time>2016-11-06T08:13:58Z</time>
      </trkpt>
      <trkpt lat="43.74406" lon="3.44961">
        <ele>499.8</ele>
        <time>2016-11-06T08:14:02Z</time>
      </trkpt>
      <trkpt lat="43.74406" lon="3.44949">
        <ele>500</ele>
        <time>2016-11-06T08:14:06Z</time>
      </trkpt>
      <trkpt lat="43.74406" lon="3.44938">
        <ele>500.4</ele>
        <time>2016-11-06T08:14:10Z</time>
      </trkpt>
      <trkpt lat="43.74407" lon="3.44926">
        <ele>500.6</ele>
        <time>2016-11-06T08:14:14Z</time>
      </trkpt>
      <trkpt lat="43.74406" lon="3.44914">
        <ele>501.1</ele>
        <time>2016-11-06T08:14:18Z</time>
      </trkpt>
      <trkpt lat="43.74406" lon="3.44901">
        <ele>501.6</ele>
        <time>2016-11-06T08:14:22Z</time>
      </trkpt>
      <trkpt lat="43.74406" lon="3.44891">
        <ele>501.9</ele>
        <time>2016-11-06T08:14:26Z</time>
      </trkpt>
      <trkpt lat="43.74406" lon="3.4488">
        <ele>502</ele>
        <time>2016-11-06T08:14:30Z</time>
      </trkpt>
      <trkpt lat="43.74407" lon="3.44867">
        <ele>502.4</ele>
        <time>2016-11-06T08:14:34Z</time>
      </trkpt>
      <trkpt lat="43.74408" lon="3.44855">
        <ele>502.8</ele>
        <time>2016-11-06T08:14:38Z</time>
      </trkpt>
      <trkpt lat="43.74408" lon="3.44846">
        <ele>503</ele>
        <time>2016-11-06T08:14:41Z</time>
      </trkpt>
      <trkpt lat="43.74409" lon="3.44834">
        <ele>503.4</ele>
        <time>2016-11-06T08:14:45Z</time>
      </trkpt>
      <trkpt lat="43.74408" lon="3.44823">
        <ele>504</ele>
        <time>2016-11-06T08:14:50Z</time>
      </trkpt>
      <trkpt lat="43.74408" lon="3.44812">
        <ele>504.4</ele>
        <time>2016-11-06T08:14:54Z</time>
      </trkpt>
      <trkpt lat="43.74406" lon="3.44802">
        <ele>504.7</ele>
        <time>2016-11-06T08:14:58Z</time>
      </trkpt>
      <trkpt lat="43.74408" lon="3.44805">
        <ele>509.1</ele>
        <time>2016-11-06T08:15:19Z</time>
      </trkpt>
      <trkpt lat="43.74406" lon="3.44803">
        <ele>510.4</ele>
        <time>2016-11-06T08:15:29Z</time>
      </trkpt>
      <trkpt lat="43.74403" lon="3.44794">
        <ele>510.5</ele>
        <time>2016-11-06T08:15:35Z</time>
      </trkpt>
      <trkpt lat="43.74401" lon="3.44784">
        <ele>510.6</ele>
        <time>2016-11-06T08:15:39Z</time>
      </trkpt>
      <trkpt lat="43.74398" lon="3.44772">
        <ele>510.8</ele>
        <time>2016-11-06T08:15:43Z</time>
      </trkpt>
      <trkpt lat="43.74397" lon="3.44762">
        <ele>511</ele>
        <time>2016-11-06T08:15:46Z</time>
      </trkpt>
      <trkpt lat="43.74394" lon="3.44748">
        <ele>511.2</ele>
        <time>2016-11-06T08:15:50Z</time>
      </trkpt>
      <trkpt lat="43.74392" lon="3.44737">
        <ele>511.3</ele>
        <time>2016-11-06T08:15:53Z</time>
      </trkpt>
      <trkpt lat="43.7439" lon="3.44726">
        <ele>511.2</ele>
        <time>2016-11-06T08:15:56Z</time>
      </trkpt>
      <trkpt lat="43.74389" lon="3.44715">
        <ele>511</ele>
        <time>2016-11-06T08:15:58Z</time>
      </trkpt>
      <trkpt lat="43.74388" lon="3.44705">
        <ele>511.2</ele>
        <time>2016-11-06T08:16:01Z</time>
      </trkpt>
      <trkpt lat="43.74389" lon="3.44691">
        <ele>511.5</ele>
        <time>2016-11-06T08:16:05Z</time>
      </trkpt>
      <trkpt lat="43.74389" lon="3.4468">
        <ele>511.8</ele>
        <time>2016-11-06T08:16:08Z</time>
      </trkpt>
      <trkpt lat="43.74389" lon="3.44669">
        <ele>512.6</ele>
        <time>2016-11-06T08:16:12Z</time>
      </trkpt>
      <trkpt lat="43.74387" lon="3.44657">
        <ele>513.2</ele>
        <time>2016-11-06T08:16:17Z</time>
      </trkpt>
      <trkpt lat="43.74387" lon="3.44646">
        <ele>513.6</ele>
        <time>2016-11-06T08:16:22Z</time>
      </trkpt>
      <trkpt lat="43.74385" lon="3.44636">
        <ele>514.2</ele>
        <time>2016-11-06T08:16:27Z</time>
      </trkpt>
      <trkpt lat="43.74383" lon="3.44624">
        <ele>514.1</ele>
        <time>2016-11-06T08:16:31Z</time>
      </trkpt>
      <trkpt lat="43.7438" lon="3.44612">
        <ele>514.3</ele>
        <time>2016-11-06T08:16:35Z</time>
      </trkpt>
      <trkpt lat="43.74378" lon="3.44602">
        <ele>514.8</ele>
        <time>2016-11-06T08:16:39Z</time>
      </trkpt>
      <trkpt lat="43.74376" lon="3.44592">
        <ele>515.4</ele>
        <time>2016-11-06T08:16:43Z</time>
      </trkpt>
      <trkpt lat="43.74376" lon="3.44579">
        <ele>516.1</ele>
        <time>2016-11-06T08:16:48Z</time>
      </trkpt>
      <trkpt lat="43.74377" lon="3.44568">
        <ele>516.6</ele>
        <time>2016-11-06T08:16:52Z</time>
      </trkpt>
      <trkpt lat="43.74378" lon="3.44557">
        <ele>517</ele>
        <time>2016-11-06T08:16:55Z</time>
      </trkpt>
      <trkpt lat="43.74378" lon="3.44544">
        <ele>517.4</ele>
        <time>2016-11-06T08:16:59Z</time>
      </trkpt>
      <trkpt lat="43.74378" lon="3.44534">
        <ele>517.7</ele>
        <time>2016-11-06T08:17:02Z</time>
      </trkpt>
      <trkpt lat="43.74378" lon="3.44522">
        <ele>517.9</ele>
        <time>2016-11-06T08:17:06Z</time>
      </trkpt>
      <trkpt lat="43.74377" lon="3.44512">
        <ele>518.3</ele>
        <time>2016-11-06T08:17:10Z</time>
      </trkpt>
      <trkpt lat="43.74376" lon="3.44501">
        <ele>518.8</ele>
        <time>2016-11-06T08:17:14Z</time>
      </trkpt>
      <trkpt lat="43.74376" lon="3.44491">
        <ele>519.4</ele>
        <time>2016-11-06T08:17:18Z</time>
      </trkpt>
      <trkpt lat="43.74382" lon="3.44484">
        <ele>520</ele>
        <time>2016-11-06T08:17:22Z</time>
      </trkpt>
      <trkpt lat="43.74387" lon="3.44492">
        <ele>520.9</ele>
        <time>2016-11-06T08:17:27Z</time>
      </trkpt>
      <trkpt lat="43.7439" lon="3.44502">
        <ele>521.4</ele>
        <time>2016-11-06T08:17:30Z</time>
      </trkpt>
      <trkpt lat="43.74392" lon="3.44514">
        <ele>522</ele>
        <time>2016-11-06T08:17:34Z</time>
      </trkpt>
      <trkpt lat="43.74395" lon="3.44525">
        <ele>522.9</ele>
        <time>2016-11-06T08:17:38Z</time>
      </trkpt>
      <trkpt lat="43.74398" lon="3.44537">
        <ele>523.7</ele>
        <time>2016-11-06T08:17:42Z</time>
      </trkpt>
      <trkpt lat="43.74399" lon="3.44549">
        <ele>524.7</ele>
        <time>2016-11-06T08:17:46Z</time>
      </trkpt>
      <trkpt lat="43.74399" lon="3.44561">
        <ele>525.2</ele>
        <time>2016-11-06T08:17:49Z</time>
      </trkpt>
      <trkpt lat="43.74399" lon="3.44574">
        <ele>525.9</ele>
        <time>2016-11-06T08:17:53Z</time>
      </trkpt>
      <trkpt lat="43.744" lon="3.44584">
        <ele>526.6</ele>
        <time>2016-11-06T08:17:57Z</time>
      </trkpt>
      <trkpt lat="43.74401" lon="3.44598">
        <ele>527.1</ele>
        <time>2016-11-06T08:18:00Z</time>
      </trkpt>
      <trkpt lat="43.74405" lon="3.4461">
        <ele>527.9</ele>
        <time>2016-11-06T08:18:04Z</time>
      </trkpt>
      <trkpt lat="43.74407" lon="3.44621">
        <ele>528.4</ele>
        <time>2016-11-06T08:18:08Z</time>
      </trkpt>
      <trkpt lat="43.74411" lon="3.44629">
        <ele>529.1</ele>
        <time>2016-11-06T08:18:12Z</time>
      </trkpt>
      <trkpt lat="43.74416" lon="3.44637">
        <ele>529.8</ele>
        <time>2016-11-06T08:18:16Z</time>
      </trkpt>
      <trkpt lat="43.74415" lon="3.44628">
        <ele>530.6</ele>
        <time>2016-11-06T08:18:23Z</time>
      </trkpt>
      <trkpt lat="43.74412" lon="3.44617">
        <ele>530.9</ele>
        <time>2016-11-06T08:18:26Z</time>
      </trkpt>
      <trkpt lat="43.74409" lon="3.44607">
        <ele>531.1</ele>
        <time>2016-11-06T08:18:29Z</time>
      </trkpt>
      <trkpt lat="43.74407" lon="3.44595">
        <ele>531.4</ele>
        <time>2016-11-06T08:18:33Z</time>
      </trkpt>
      <trkpt lat="43.74408" lon="3.44583">
        <ele>531.6</ele>
        <time>2016-11-06T08:18:38Z</time>
      </trkpt>
      <trkpt lat="43.74408" lon="3.4457">
        <ele>531.8</ele>
        <time>2016-11-06T08:18:42Z</time>
      </trkpt>
      <trkpt lat="43.7441" lon="3.44557">
        <ele>532.1</ele>
        <time>2016-11-06T08:18:46Z</time>
      </trkpt>
      <trkpt lat="43.74412" lon="3.44547">
        <ele>532.6</ele>
        <time>2016-11-06T08:18:50Z</time>
      </trkpt>
      <trkpt lat="43.74413" lon="3.44535">
        <ele>533.2</ele>
        <time>2016-11-06T08:18:54Z</time>
      </trkpt>
      <trkpt lat="43.74415" lon="3.44526">
        <ele>533.8</ele>
        <time>2016-11-06T08:18:57Z</time>
      </trkpt>
      <trkpt lat="43.74418" lon="3.44514">
        <ele>534.6</ele>
        <time>2016-11-06T08:19:01Z</time>
      </trkpt>
      <trkpt lat="43.74422" lon="3.44505">
        <ele>535.3</ele>
        <time>2016-11-06T08:19:05Z</time>
      </trkpt>
      <trkpt lat="43.74423" lon="3.44493">
        <ele>536.1</ele>
        <time>2016-11-06T08:19:10Z</time>
      </trkpt>
      <trkpt lat="43.74425" lon="3.4448">
        <ele>536.8</ele>
        <time>2016-11-06T08:19:15Z</time>
      </trkpt>
      <trkpt lat="43.74428" lon="3.44471">
        <ele>537.2</ele>
        <time>2016-11-06T08:19:19Z</time>
      </trkpt>
      <trkpt lat="43.7443" lon="3.44459">
        <ele>537.8</ele>
        <time>2016-11-06T08:19:23Z</time>
      </trkpt>
      <trkpt lat="43.74429" lon="3.44448">
        <ele>538.6</ele>
        <time>2016-11-06T08:19:27Z</time>
      </trkpt>
      <trkpt lat="43.74428" lon="3.44438">
        <ele>539</ele>
        <time>2016-11-06T08:19:31Z</time>
      </trkpt>
      <trkpt lat="43.74427" lon="3.44425">
        <ele>539.2</ele>
        <time>2016-11-06T08:19:35Z</time>
      </trkpt>
      <trkpt lat="43.74425" lon="3.44414">
        <ele>539.3</ele>
        <time>2016-11-06T08:19:38Z</time>
      </trkpt>
      <trkpt lat="43.74423" lon="3.44403">
        <ele>539.4</ele>
        <time>2016-11-06T08:19:42Z</time>
      </trkpt>
      <trkpt lat="43.7442" lon="3.44393">
        <ele>539.5</ele>
        <time>2016-11-06T08:19:46Z</time>
      </trkpt>
      <trkpt lat="43.74418" lon="3.44383">
        <ele>539.9</ele>
        <time>2016-11-06T08:19:50Z</time>
      </trkpt>
      <trkpt lat="43.74422" lon="3.44374">
        <ele>540.4</ele>
        <time>2016-11-06T08:19:54Z</time>
      </trkpt>
      <trkpt lat="43.7443" lon="3.44373">
        <ele>541</ele>
        <time>2016-11-06T08:19:58Z</time>
      </trkpt>
      <trkpt lat="43.74437" lon="3.44378">
        <ele>541.5</ele>
        <time>2016-11-06T08:20:02Z</time>
      </trkpt>
      <trkpt lat="43.74443" lon="3.44385">
        <ele>542.3</ele>
        <time>2016-11-06T08:20:06Z</time>
      </trkpt>
      <trkpt lat="43.7445" lon="3.44389">
        <ele>543.3</ele>
        <time>2016-11-06T08:20:11Z</time>
      </trkpt>
      <trkpt lat="43.74456" lon="3.44395">
        <ele>543.9</ele>
        <time>2016-11-06T08:20:14Z</time>
      </trkpt>
      <trkpt lat="43.74463" lon="3.44398">
        <ele>544.8</ele>
        <time>2016-11-06T08:20:19Z</time>
      </trkpt>
      <trkpt lat="43.74471" lon="3.44402">
        <ele>545.3</ele>
        <time>2016-11-06T08:20:23Z</time>
      </trkpt>
      <trkpt lat="43.7448" lon="3.44403">
        <ele>546</ele>
        <time>2016-11-06T08:20:27Z</time>
      </trkpt>
      <trkpt lat="43.74489" lon="3.444">
        <ele>546.7</ele>
        <time>2016-11-06T08:20:31Z</time>
      </trkpt>
      <trkpt lat="43.74497" lon="3.44398">
        <ele>547.3</ele>
        <time>2016-11-06T08:20:35Z</time>
      </trkpt>
      <trkpt lat="43.74504" lon="3.44395">
        <ele>548</ele>
        <time>2016-11-06T08:20:39Z</time>
      </trkpt>
      <trkpt lat="43.74512" lon="3.44391">
        <ele>548.7</ele>
        <time>2016-11-06T08:20:43Z</time>
      </trkpt>
      <trkpt lat="43.74519" lon="3.44387">
        <ele>549.1</ele>
        <time>2016-11-06T08:20:47Z</time>
      </trkpt>
      <trkpt lat="43.74528" lon="3.44385">
        <ele>549.6</ele>
        <time>2016-11-06T08:20:51Z</time>
      </trkpt>
      <trkpt lat="43.74536" lon="3.44385">
        <ele>550.3</ele>
        <time>2016-11-06T08:20:55Z</time>
      </trkpt>
      <trkpt lat="43.74545" lon="3.44384">
        <ele>551.1</ele>
        <time>2016-11-06T08:20:59Z</time>
      </trkpt>
      <trkpt lat="43.74552" lon="3.44382">
        <ele>551.8</ele>
        <time>2016-11-06T08:21:02Z</time>
      </trkpt>
      <trkpt lat="43.7456" lon="3.44381">
        <ele>552.7</ele>
        <time>2016-11-06T08:21:06Z</time>
      </trkpt>
      <trkpt lat="43.7457" lon="3.44378">
        <ele>553.3</ele>
        <time>2016-11-06T08:21:10Z</time>
      </trkpt>
      <trkpt lat="43.74577" lon="3.44374">
        <ele>554</ele>
        <time>2016-11-06T08:21:14Z</time>
      </trkpt>
      <trkpt lat="43.74584" lon="3.44367">
        <ele>554.9</ele>
        <time>2016-11-06T08:21:18Z</time>
      </trkpt>
      <trkpt lat="43.7459" lon="3.44357">
        <ele>555.5</ele>
        <time>2016-11-06T08:21:22Z</time>
      </trkpt>
      <trkpt lat="43.74595" lon="3.44348">
        <ele>556.2</ele>
        <time>2016-11-06T08:21:26Z</time>
      </trkpt>
      <trkpt lat="43.74601" lon="3.44341">
        <ele>556.8</ele>
        <time>2016-11-06T08:21:31Z</time>
      </trkpt>
      <trkpt lat="43.74605" lon="3.44338">
        <ele>557.8</ele>
        <time>2016-11-06T08:21:38Z</time>
      </trkpt>
      <trkpt lat="43.74609" lon="3.44341">
        <ele>559.7</ele>
        <time>2016-11-06T08:21:51Z</time>
      </trkpt>
      <trkpt lat="43.74609" lon="3.4434">
        <ele>560.8</ele>
        <time>2016-11-06T08:22:08Z</time>
      </trkpt>
      <trkpt lat="43.7461" lon="3.44338">
        <ele>561.4</ele>
        <time>2016-11-06T08:22:18Z</time>
      </trkpt>
      <trkpt lat="43.74611" lon="3.44341">
        <ele>563</ele>
        <time>2016-11-06T08:22:28Z</time>
      </trkpt>
      <trkpt lat="43.74609" lon="3.44351">
        <ele>563.3</ele>
        <time>2016-11-06T08:22:32Z</time>
      </trkpt>
      <trkpt lat="43.74611" lon="3.44364">
        <ele>563.6</ele>
        <time>2016-11-06T08:22:37Z</time>
      </trkpt>
      <trkpt lat="43.7461" lon="3.4437">
        <ele>564</ele>
        <time>2016-11-06T08:22:44Z</time>
      </trkpt>
      <trkpt lat="43.74612" lon="3.44377">
        <ele>565</ele>
        <time>2016-11-06T08:22:51Z</time>
      </trkpt>
      <trkpt lat="43.74615" lon="3.44386">
        <ele>566.1</ele>
        <time>2016-11-06T08:22:57Z</time>
      </trkpt>
      <trkpt lat="43.74618" lon="3.44392">
        <ele>568.3</ele>
        <time>2016-11-06T08:23:14Z</time>
      </trkpt>
      <trkpt lat="43.7462" lon="3.44398">
        <ele>569.2</ele>
        <time>2016-11-06T08:23:21Z</time>
      </trkpt>
      <trkpt lat="43.74615" lon="3.44408">
        <ele>569.8</ele>
        <time>2016-11-06T08:23:26Z</time>
      </trkpt>
      <trkpt lat="43.7461" lon="3.44414">
        <ele>570</ele>
        <time>2016-11-06T08:23:30Z</time>
      </trkpt>
      <trkpt lat="43.74604" lon="3.44421">
        <ele>570.1</ele>
        <time>2016-11-06T08:23:33Z</time>
      </trkpt>
      <trkpt lat="43.74598" lon="3.44429">
        <ele>570.2</ele>
        <time>2016-11-06T08:23:37Z</time>
      </trkpt>
      <trkpt lat="43.74594" lon="3.44438">
        <ele>570.4</ele>
        <time>2016-11-06T08:23:42Z</time>
      </trkpt>
      <trkpt lat="43.7459" lon="3.44446">
        <ele>570.5</ele>
        <time>2016-11-06T08:23:46Z</time>
      </trkpt>
      <trkpt lat="43.74584" lon="3.44454">
        <ele>570.4</ele>
        <time>2016-11-06T08:23:50Z</time>
      </trkpt>
      <trkpt lat="43.74578" lon="3.44459">
        <ele>570.3</ele>
        <time>2016-11-06T08:23:54Z</time>
      </trkpt>
      <trkpt lat="43.74571" lon="3.44464">
        <ele>570.4</ele>
        <time>2016-11-06T08:23:58Z</time>
      </trkpt>
      <trkpt lat="43.74563" lon="3.44467">
        <ele>571</ele>
        <time>2016-11-06T08:24:03Z</time>
      </trkpt>
      <trkpt lat="43.74555" lon="3.44472">
        <ele>571.7</ele>
        <time>2016-11-06T08:24:08Z</time>
      </trkpt>
      <trkpt lat="43.74547" lon="3.44476">
        <ele>572.3</ele>
        <time>2016-11-06T08:24:14Z</time>
      </trkpt>
      <trkpt lat="43.7454" lon="3.44481">
        <ele>572.9</ele>
        <time>2016-11-06T08:24:19Z</time>
      </trkpt>
      <trkpt lat="43.74533" lon="3.44485">
        <ele>573.6</ele>
        <time>2016-11-06T08:24:24Z</time>
      </trkpt>
      <trkpt lat="43.74527" lon="3.44492">
        <ele>573.8</ele>
        <time>2016-11-06T08:24:30Z</time>
      </trkpt>
      <trkpt lat="43.74522" lon="3.44499">
        <ele>574.2</ele>
        <time>2016-11-06T08:24:35Z</time>
      </trkpt>
      <trkpt lat="43.74519" lon="3.44502">
        <ele>574.9</ele>
        <time>2016-11-06T08:24:49Z</time>
      </trkpt>
      <trkpt lat="43.74517" lon="3.44505">
        <ele>575.1</ele>
        <time>2016-11-06T08:24:56Z</time>
      </trkpt>
      <trkpt lat="43.74516" lon="3.44506">
        <ele>575.4</ele>
        <time>2016-11-06T08:25:03Z</time>
      </trkpt>
      <trkpt lat="43.74511" lon="3.44517">
        <ele>576.8</ele>
        <time>2016-11-06T08:25:31Z</time>
      </trkpt>
      <trkpt lat="43.74508" lon="3.44529">
        <ele>577.7</ele>
        <time>2016-11-06T08:25:37Z</time>
      </trkpt>
      <trkpt lat="43.74507" lon="3.44539">
        <ele>578.1</ele>
        <time>2016-11-06T08:25:41Z</time>
      </trkpt>
      <trkpt lat="43.74504" lon="3.44551">
        <ele>578.3</ele>
        <time>2016-11-06T08:25:45Z</time>
      </trkpt>
      <trkpt lat="43.74501" lon="3.44561">
        <ele>578.5</ele>
        <time>2016-11-06T08:25:49Z</time>
      </trkpt>
      <trkpt lat="43.74498" lon="3.44571">
        <ele>579.1</ele>
        <time>2016-11-06T08:25:54Z</time>
      </trkpt>
      <trkpt lat="43.74495" lon="3.44581">
        <ele>579.5</ele>
        <time>2016-11-06T08:25:58Z</time>
      </trkpt>
      <trkpt lat="43.74493" lon="3.44592">
        <ele>579.8</ele>
        <time>2016-11-06T08:26:02Z</time>
      </trkpt>
      <trkpt lat="43.74494" lon="3.44603">
        <ele>580.1</ele>
        <time>2016-11-06T08:26:07Z</time>
      </trkpt>
      <trkpt lat="43.74496" lon="3.44613">
        <ele>580.5</ele>
        <time>2016-11-06T08:26:12Z</time>
      </trkpt>
      <trkpt lat="43.74499" lon="3.44624">
        <ele>581.3</ele>
        <time>2016-11-06T08:26:17Z</time>
      </trkpt>
      <trkpt lat="43.74501" lon="3.44634">
        <ele>582.5</ele>
        <time>2016-11-06T08:26:22Z</time>
      </trkpt>
      <trkpt lat="43.74503" lon="3.44644">
        <ele>583.6</ele>
        <time>2016-11-06T08:26:27Z</time>
      </trkpt>
      <trkpt lat="43.74505" lon="3.44655">
        <ele>584.6</ele>
        <time>2016-11-06T08:26:32Z</time>
      </trkpt>
      <trkpt lat="43.74509" lon="3.44665">
        <ele>585.4</ele>
        <time>2016-11-06T08:26:37Z</time>
      </trkpt>
      <trkpt lat="43.74514" lon="3.44676">
        <ele>586.3</ele>
        <time>2016-11-06T08:26:43Z</time>
      </trkpt>
      <trkpt lat="43.74515" lon="3.44685">
        <ele>586.7</ele>
        <time>2016-11-06T08:26:47Z</time>
      </trkpt>
      <trkpt lat="43.74517" lon="3.44695">
        <ele>587.1</ele>
        <time>2016-11-06T08:26:51Z</time>
      </trkpt>
      <trkpt lat="43.74518" lon="3.44704">
        <ele>587.6</ele>
        <time>2016-11-06T08:26:58Z</time>
      </trkpt>
      <trkpt lat="43.7452" lon="3.44714">
        <ele>588.2</ele>
        <time>2016-11-06T08:27:03Z</time>
      </trkpt>
      <trkpt lat="43.74523" lon="3.44724">
        <ele>589.3</ele>
        <time>2016-11-06T08:27:10Z</time>
      </trkpt>
      <trkpt lat="43.74525" lon="3.44736">
        <ele>590.4</ele>
        <time>2016-11-06T08:27:17Z</time>
      </trkpt>
      <trkpt lat="43.74526" lon="3.44745">
        <ele>590.9</ele>
        <time>2016-11-06T08:27:21Z</time>
      </trkpt>
      <trkpt lat="43.74526" lon="3.44757">
        <ele>591.4</ele>
        <time>2016-11-06T08:27:26Z</time>
      </trkpt>
      <trkpt lat="43.74525" lon="3.44768">
        <ele>591.8</ele>
        <time>2016-11-06T08:27:31Z</time>
      </trkpt>
      <trkpt lat="43.74522" lon="3.44778">
        <ele>592.5</ele>
        <time>2016-11-06T08:27:36Z</time>
      </trkpt>
      <trkpt lat="43.74525" lon="3.44789">
        <ele>593.1</ele>
        <time>2016-11-06T08:27:41Z</time>
      </trkpt>
      <trkpt lat="43.74528" lon="3.44798">
        <ele>594.2</ele>
        <time>2016-11-06T08:27:48Z</time>
      </trkpt>
      <trkpt lat="43.7453" lon="3.44798">
        <ele>594.9</ele>
        <time>2016-11-06T08:27:55Z</time>
      </trkpt>
      <trkpt lat="43.74529" lon="3.44809">
        <ele>596.2</ele>
        <time>2016-11-06T08:28:05Z</time>
      </trkpt>
      <trkpt lat="43.74531" lon="3.4482">
        <ele>597</ele>
        <time>2016-11-06T08:28:10Z</time>
      </trkpt>
      <trkpt lat="43.74532" lon="3.4483">
        <ele>597.8</ele>
        <time>2016-11-06T08:28:15Z</time>
      </trkpt>
      <trkpt lat="43.74536" lon="3.4484">
        <ele>598.4</ele>
        <time>2016-11-06T08:28:19Z</time>
      </trkpt>
      <trkpt lat="43.74541" lon="3.44848">
        <ele>599.2</ele>
        <time>2016-11-06T08:28:25Z</time>
      </trkpt>
      <trkpt lat="43.74543" lon="3.44858">
        <ele>600</ele>
        <time>2016-11-06T08:28:31Z</time>
      </trkpt>
      <trkpt lat="43.74545" lon="3.44869">
        <ele>600.4</ele>
        <time>2016-11-06T08:28:36Z</time>
      </trkpt>
      <trkpt lat="43.74547" lon="3.4488">
        <ele>600.9</ele>
        <time>2016-11-06T08:28:41Z</time>
      </trkpt>
      <trkpt lat="43.74548" lon="3.44887">
        <ele>601.7</ele>
        <time>2016-11-06T08:28:48Z</time>
      </trkpt>
      <trkpt lat="43.74556" lon="3.44895">
        <ele>602.5</ele>
        <time>2016-11-06T08:28:54Z</time>
      </trkpt>
      <trkpt lat="43.7456" lon="3.44903">
        <ele>603.1</ele>
        <time>2016-11-06T08:28:59Z</time>
      </trkpt>
      <trkpt lat="43.74566" lon="3.44912">
        <ele>604.3</ele>
        <time>2016-11-06T08:29:05Z</time>
      </trkpt>
      <trkpt lat="43.74568" lon="3.44921">
        <ele>605.3</ele>
        <time>2016-11-06T08:29:09Z</time>
      </trkpt>
      <trkpt lat="43.74575" lon="3.44927">
        <ele>606.4</ele>
        <time>2016-11-06T08:29:14Z</time>
      </trkpt>
      <trkpt lat="43.74581" lon="3.44935">
        <ele>607</ele>
        <time>2016-11-06T08:29:18Z</time>
      </trkpt>
      <trkpt lat="43.74589" lon="3.44939">
        <ele>607.4</ele>
        <time>2016-11-06T08:29:24Z</time>
      </trkpt>
      <trkpt lat="43.74597" lon="3.44937">
        <ele>608</ele>
        <time>2016-11-06T08:29:29Z</time>
      </trkpt>
      <trkpt lat="43.74605" lon="3.44936">
        <ele>608.7</ele>
        <time>2016-11-06T08:29:35Z</time>
      </trkpt>
      <trkpt lat="43.74613" lon="3.44934">
        <ele>609.7</ele>
        <time>2016-11-06T08:29:42Z</time>
      </trkpt>
      <trkpt lat="43.74622" lon="3.44931">
        <ele>611</ele>
        <time>2016-11-06T08:29:49Z</time>
      </trkpt>
      <trkpt lat="43.74629" lon="3.44931">
        <ele>611.8</ele>
        <time>2016-11-06T08:29:54Z</time>
      </trkpt>
      <trkpt lat="43.74638" lon="3.4493">
        <ele>612.7</ele>
        <time>2016-11-06T08:29:58Z</time>
      </trkpt>
      <trkpt lat="43.74646" lon="3.44929">
        <ele>613.7</ele>
        <time>2016-11-06T08:30:04Z</time>
      </trkpt>
      <trkpt lat="43.74654" lon="3.4493">
        <ele>614.5</ele>
        <time>2016-11-06T08:30:10Z</time>
      </trkpt>
      <trkpt lat="43.74661" lon="3.44932">
        <ele>615.4</ele>
        <time>2016-11-06T08:30:16Z</time>
      </trkpt>
      <trkpt lat="43.74669" lon="3.44935">
        <ele>615.9</ele>
        <time>2016-11-06T08:30:21Z</time>
      </trkpt>
      <trkpt lat="43.74676" lon="3.44938">
        <ele>616.3</ele>
        <time>2016-11-06T08:30:25Z</time>
      </trkpt>
      <trkpt lat="43.74685" lon="3.44938">
        <ele>616.9</ele>
        <time>2016-11-06T08:30:32Z</time>
      </trkpt>
      <trkpt lat="43.74693" lon="3.44941">
        <ele>617.7</ele>
        <time>2016-11-06T08:30:38Z</time>
      </trkpt>
      <trkpt lat="43.747" lon="3.44943">
        <ele>618.3</ele>
        <time>2016-11-06T08:30:42Z</time>
      </trkpt>
      <trkpt lat="43.74708" lon="3.44948">
        <ele>618.7</ele>
        <time>2016-11-06T08:30:47Z</time>
      </trkpt>
      <trkpt lat="43.74716" lon="3.44954">
        <ele>619.3</ele>
        <time>2016-11-06T08:30:54Z</time>
      </trkpt>
      <trkpt lat="43.74722" lon="3.44961">
        <ele>619.7</ele>
        <time>2016-11-06T08:31:00Z</time>
      </trkpt>
      <trkpt lat="43.74727" lon="3.44968">
        <ele>620.4</ele>
        <time>2016-11-06T08:31:05Z</time>
      </trkpt>
      <trkpt lat="43.74733" lon="3.44977">
        <ele>621.7</ele>
        <time>2016-11-06T08:31:11Z</time>
      </trkpt>
      <trkpt lat="43.74739" lon="3.44984">
        <ele>622.8</ele>
        <time>2016-11-06T08:31:16Z</time>
      </trkpt>
      <trkpt lat="43.74745" lon="3.4499">
        <ele>624.3</ele>
        <time>2016-11-06T08:31:23Z</time>
      </trkpt>
      <trkpt lat="43.74747" lon="3.44997">
        <ele>626.5</ele>
        <time>2016-11-06T08:31:40Z</time>
      </trkpt>
      <trkpt lat="43.74744" lon="3.44994">
        <ele>628.3</ele>
        <time>2016-11-06T08:31:54Z</time>
      </trkpt>
      <trkpt lat="43.74745" lon="3.44993">
        <ele>628.5</ele>
        <time>2016-11-06T08:32:01Z</time>
      </trkpt>
      <trkpt lat="43.74743" lon="3.44982">
        <ele>628.6</ele>
        <time>2016-11-06T08:32:06Z</time>
      </trkpt>
      <trkpt lat="43.74741" lon="3.44972">
        <ele>629.1</ele>
        <time>2016-11-06T08:32:11Z</time>
      </trkpt>
      <trkpt lat="43.7474" lon="3.44964">
        <ele>629.1</ele>
        <time>2016-11-06T08:32:25Z</time>
      </trkpt>
      <trkpt lat="43.7474" lon="3.44961">
        <ele>629.7</ele>
        <time>2016-11-06T08:32:38Z</time>
      </trkpt>
      <trkpt lat="43.74744" lon="3.44963">
        <ele>631.5</ele>
        <time>2016-11-06T08:32:59Z</time>
      </trkpt>
      <trkpt lat="43.74749" lon="3.44972">
        <ele>632.3</ele>
        <time>2016-11-06T08:33:05Z</time>
      </trkpt>
      <trkpt lat="43.74753" lon="3.44981">
        <ele>632.9</ele>
        <time>2016-11-06T08:33:10Z</time>
      </trkpt>
      <trkpt lat="43.74756" lon="3.44991">
        <ele>633.3</ele>
        <time>2016-11-06T08:33:15Z</time>
      </trkpt>
      <trkpt lat="43.7476" lon="3.45">
        <ele>633.9</ele>
        <time>2016-11-06T08:33:19Z</time>
      </trkpt>
      <trkpt lat="43.74764" lon="3.4501">
        <ele>634.4</ele>
        <time>2016-11-06T08:33:24Z</time>
      </trkpt>
      <trkpt lat="43.74768" lon="3.4502">
        <ele>635.4</ele>
        <time>2016-11-06T08:33:29Z</time>
      </trkpt>
      <trkpt lat="43.7477" lon="3.45028">
        <ele>636.5</ele>
        <time>2016-11-06T08:33:36Z</time>
      </trkpt>
      <trkpt lat="43.74772" lon="3.45032">
        <ele>637.5</ele>
        <time>2016-11-06T08:33:43Z</time>
      </trkpt>
      <trkpt lat="43.74774" lon="3.45038">
        <ele>638.1</ele>
        <time>2016-11-06T08:33:50Z</time>
      </trkpt>
      <trkpt lat="43.74775" lon="3.45042">
        <ele>639</ele>
        <time>2016-11-06T08:33:57Z</time>
      </trkpt>
      <trkpt lat="43.74776" lon="3.45047">
        <ele>639.9</ele>
        <time>2016-11-06T08:34:04Z</time>
      </trkpt>
      <trkpt lat="43.74777" lon="3.45053">
        <ele>640.8</ele>
        <time>2016-11-06T08:34:11Z</time>
      </trkpt>
      <trkpt lat="43.7478" lon="3.4506">
        <ele>644.8</ele>
        <time>2016-11-06T08:34:32Z</time>
      </trkpt>
      <trkpt lat="43.74781" lon="3.45063">
        <ele>645.8</ele>
        <time>2016-11-06T08:34:39Z</time>
      </trkpt>
      <trkpt lat="43.74781" lon="3.45067">
        <ele>646.6</ele>
        <time>2016-11-06T08:34:52Z</time>
      </trkpt>
      <trkpt lat="43.74788" lon="3.45071">
        <ele>647.1</ele>
        <time>2016-11-06T08:35:22Z</time>
      </trkpt>
      <trkpt lat="43.74796" lon="3.45073">
        <ele>647.6</ele>
        <time>2016-11-06T08:35:27Z</time>
      </trkpt>
      <trkpt lat="43.74804" lon="3.4507">
        <ele>648.2</ele>
        <time>2016-11-06T08:35:32Z</time>
      </trkpt>
      <trkpt lat="43.74812" lon="3.4507">
        <ele>648.9</ele>
        <time>2016-11-06T08:35:37Z</time>
      </trkpt>
      <trkpt lat="43.74819" lon="3.45065">
        <ele>649.5</ele>
        <time>2016-11-06T08:35:43Z</time>
      </trkpt>
      <trkpt lat="43.74827" lon="3.45059">
        <ele>650.3</ele>
        <time>2016-11-06T08:35:47Z</time>
      </trkpt>
      <trkpt lat="43.74835" lon="3.45061">
        <ele>651.3</ele>
        <time>2016-11-06T08:35:52Z</time>
      </trkpt>
      <trkpt lat="43.7484" lon="3.4507">
        <ele>652</ele>
        <time>2016-11-06T08:35:56Z</time>
      </trkpt>
      <trkpt lat="43.74847" lon="3.45077">
        <ele>653.2</ele>
        <time>2016-11-06T08:36:02Z</time>
      </trkpt>
      <trkpt lat="43.7485" lon="3.45088">
        <ele>654.2</ele>
        <time>2016-11-06T08:36:06Z</time>
      </trkpt>
      <trkpt lat="43.74851" lon="3.451">
        <ele>655.5</ele>
        <time>2016-11-06T08:36:13Z</time>
      </trkpt>
      <trkpt lat="43.74848" lon="3.4511">
        <ele>656.1</ele>
        <time>2016-11-06T08:36:18Z</time>
      </trkpt>
      <trkpt lat="43.74844" lon="3.45118">
        <ele>657.7</ele>
        <time>2016-11-06T08:36:25Z</time>
      </trkpt>
      <trkpt lat="43.74836" lon="3.45121">
        <ele>658.8</ele>
        <time>2016-11-06T08:36:31Z</time>
      </trkpt>
      <trkpt lat="43.74828" lon="3.45124">
        <ele>659.9</ele>
        <time>2016-11-06T08:36:36Z</time>
      </trkpt>
      <trkpt lat="43.7482" lon="3.45122">
        <ele>660.8</ele>
        <time>2016-11-06T08:36:40Z</time>
      </trkpt>
      <trkpt lat="43.74812" lon="3.45123">
        <ele>661.7</ele>
        <time>2016-11-06T08:36:44Z</time>
      </trkpt>
      <trkpt lat="43.74806" lon="3.45127">
        <ele>662.6</ele>
        <time>2016-11-06T08:36:49Z</time>
      </trkpt>
      <trkpt lat="43.74799" lon="3.45132">
        <ele>663.3</ele>
        <time>2016-11-06T08:36:54Z</time>
      </trkpt>
      <trkpt lat="43.74793" lon="3.4514">
        <ele>663.6</ele>
        <time>2016-11-06T08:36:58Z</time>
      </trkpt>
      <trkpt lat="43.74789" lon="3.45151">
        <ele>664.2</ele>
        <time>2016-11-06T08:37:02Z</time>
      </trkpt>
      <trkpt lat="43.74786" lon="3.45163">
        <ele>664.9</ele>
        <time>2016-11-06T08:37:06Z</time>
      </trkpt>
      <trkpt lat="43.74786" lon="3.45175">
        <ele>665.1</ele>
        <time>2016-11-06T08:37:10Z</time>
      </trkpt>
      <trkpt lat="43.74787" lon="3.45188">
        <ele>665.2</ele>
        <time>2016-11-06T08:37:14Z</time>
      </trkpt>
      <trkpt lat="43.74785" lon="3.45201">
        <ele>665.4</ele>
        <time>2016-11-06T08:37:18Z</time>
      </trkpt>
      <trkpt lat="43.74786" lon="3.45212">
        <ele>665.7</ele>
        <time>2016-11-06T08:37:21Z</time>
      </trkpt>
      <trkpt lat="43.74786" lon="3.45223">
        <ele>665.9</ele>
        <time>2016-11-06T08:37:24Z</time>
      </trkpt>
      <trkpt lat="43.74786" lon="3.45233">
        <ele>666.1</ele>
        <time>2016-11-06T08:37:27Z</time>
      </trkpt>
      <trkpt lat="43.74787" lon="3.45245">
        <ele>666.2</ele>
        <time>2016-11-06T08:37:31Z</time>
      </trkpt>
      <trkpt lat="43.74788" lon="3.45256">
        <ele>666.1</ele>
        <time>2016-11-06T08:37:35Z</time>
      </trkpt>
      <trkpt lat="43.74788" lon="3.45268">
        <ele>666.2</ele>
        <time>2016-11-06T08:37:39Z</time>
      </trkpt>
      <trkpt lat="43.74788" lon="3.45278">
        <ele>666.3</ele>
        <time>2016-11-06T08:37:43Z</time>
      </trkpt>
      <trkpt lat="43.74791" lon="3.45289">
        <ele>666.5</ele>
        <time>2016-11-06T08:37:47Z</time>
      </trkpt>
      <trkpt lat="43.74792" lon="3.45301">
        <ele>666.8</ele>
        <time>2016-11-06T08:37:52Z</time>
      </trkpt>
      <trkpt lat="43.74792" lon="3.45312">
        <ele>667.4</ele>
        <time>2016-11-06T08:37:57Z</time>
      </trkpt>
      <trkpt lat="43.74792" lon="3.45325">
        <ele>668</ele>
        <time>2016-11-06T08:38:02Z</time>
      </trkpt>
      <trkpt lat="43.74794" lon="3.45337">
        <ele>668.5</ele>
        <time>2016-11-06T08:38:06Z</time>
      </trkpt>
      <trkpt lat="43.74795" lon="3.4535">
        <ele>668.8</ele>
        <time>2016-11-06T08:38:09Z</time>
      </trkpt>
      <trkpt lat="43.74798" lon="3.45362">
        <ele>668.9</ele>
        <time>2016-11-06T08:38:12Z</time>
      </trkpt>
      <trkpt lat="43.74802" lon="3.45373">
        <ele>669.1</ele>
        <time>2016-11-06T08:38:15Z</time>
      </trkpt>
      <trkpt lat="43.74807" lon="3.45387">
        <ele>669.2</ele>
        <time>2016-11-06T08:38:18Z</time>
      </trkpt>
      <trkpt lat="43.74809" lon="3.45397">
        <ele>669.6</ele>
        <time>2016-11-06T08:38:21Z</time>
      </trkpt>
      <trkpt lat="43.74807" lon="3.45408">
        <ele>669.7</ele>
        <time>2016-11-06T08:38:24Z</time>
      </trkpt>
      <trkpt lat="43.74805" lon="3.45422">
        <ele>669.8</ele>
        <time>2016-11-06T08:38:27Z</time>
      </trkpt>
      <trkpt lat="43.74805" lon="3.45433">
        <ele>669.9</ele>
        <time>2016-11-06T08:38:29Z</time>
      </trkpt>
      <trkpt lat="43.74808" lon="3.45443">
        <ele>669.8</ele>
        <time>2016-11-06T08:38:32Z</time>
      </trkpt>
      <trkpt lat="43.7481" lon="3.45453">
        <ele>669.7</ele>
        <time>2016-11-06T08:38:35Z</time>
      </trkpt>
      <trkpt lat="43.7481" lon="3.45463">
        <ele>669.6</ele>
        <time>2016-11-06T08:38:38Z</time>
      </trkpt>
      <trkpt lat="43.74813" lon="3.45474">
        <ele>669.3</ele>
        <time>2016-11-06T08:38:42Z</time>
      </trkpt>
      <trkpt lat="43.74816" lon="3.45484">
        <ele>669.4</ele>
        <time>2016-11-06T08:38:47Z</time>
      </trkpt>
      <trkpt lat="43.74818" lon="3.45494">
        <ele>670.4</ele>
        <time>2016-11-06T08:38:52Z</time>
      </trkpt>
      <trkpt lat="43.74818" lon="3.45504">
        <ele>670.7</ele>
        <time>2016-11-06T08:38:55Z</time>
      </trkpt>
      <trkpt lat="43.74814" lon="3.45515">
        <ele>670.9</ele>
        <time>2016-11-06T08:38:58Z</time>
      </trkpt>
      <trkpt lat="43.74808" lon="3.45525">
        <ele>671.1</ele>
        <time>2016-11-06T08:39:01Z</time>
      </trkpt>
      <trkpt lat="43.74805" lon="3.45536">
        <ele>671.5</ele>
        <time>2016-11-06T08:39:04Z</time>
      </trkpt>
      <trkpt lat="43.74801" lon="3.45544">
        <ele>671.9</ele>
        <time>2016-11-06T08:39:06Z</time>
      </trkpt>
      <trkpt lat="43.74794" lon="3.45552">
        <ele>672.1</ele>
        <time>2016-11-06T08:39:08Z</time>
      </trkpt>
      <trkpt lat="43.74788" lon="3.45559">
        <ele>672.5</ele>
        <time>2016-11-06T08:39:11Z</time>
      </trkpt>
      <trkpt lat="43.74783" lon="3.45567">
        <ele>672.8</ele>
        <time>2016-11-06T08:39:14Z</time>
      </trkpt>
      <trkpt lat="43.74779" lon="3.45579">
        <ele>673</ele>
        <time>2016-11-06T08:39:17Z</time>
      </trkpt>
      <trkpt lat="43.74779" lon="3.45593">
        <ele>673.3</ele>
        <time>2016-11-06T08:39:21Z</time>
      </trkpt>
      <trkpt lat="43.74777" lon="3.45605">
        <ele>673.6</ele>
        <time>2016-11-06T08:39:25Z</time>
      </trkpt>
      <trkpt lat="43.74776" lon="3.45615">
        <ele>674</ele>
        <time>2016-11-06T08:39:28Z</time>
      </trkpt>
      <trkpt lat="43.7477" lon="3.45625">
        <ele>674.3</ele>
        <time>2016-11-06T08:39:31Z</time>
      </trkpt>
      <trkpt lat="43.74762" lon="3.45632">
        <ele>674.7</ele>
        <time>2016-11-06T08:39:35Z</time>
      </trkpt>
      <trkpt lat="43.74756" lon="3.4564">
        <ele>675.1</ele>
        <time>2016-11-06T08:39:40Z</time>
      </trkpt>
      <trkpt lat="43.7475" lon="3.4565">
        <ele>675.3</ele>
        <time>2016-11-06T08:39:44Z</time>
      </trkpt>
      <trkpt lat="43.74746" lon="3.45658">
        <ele>675.5</ele>
        <time>2016-11-06T08:39:48Z</time>
      </trkpt>
      <trkpt lat="43.74741" lon="3.45666">
        <ele>675.9</ele>
        <time>2016-11-06T08:39:52Z</time>
      </trkpt>
      <trkpt lat="43.74733" lon="3.45671">
        <ele>676.4</ele>
        <time>2016-11-06T08:39:56Z</time>
      </trkpt>
      <trkpt lat="43.74725" lon="3.45678">
        <ele>677.2</ele>
        <time>2016-11-06T08:40:00Z</time>
      </trkpt>
      <trkpt lat="43.74721" lon="3.45686">
        <ele>677.9</ele>
        <time>2016-11-06T08:40:04Z</time>
      </trkpt>
      <trkpt lat="43.74714" lon="3.45692">
        <ele>678.4</ele>
        <time>2016-11-06T08:40:08Z</time>
      </trkpt>
      <trkpt lat="43.74705" lon="3.45695">
        <ele>679</ele>
        <time>2016-11-06T08:40:12Z</time>
      </trkpt>
      <trkpt lat="43.74696" lon="3.45699">
        <ele>679.8</ele>
        <time>2016-11-06T08:40:16Z</time>
      </trkpt>
      <trkpt lat="43.74688" lon="3.45702">
        <ele>680.6</ele>
        <time>2016-11-06T08:40:21Z</time>
      </trkpt>
      <trkpt lat="43.7468" lon="3.45702">
        <ele>681.2</ele>
        <time>2016-11-06T08:40:24Z</time>
      </trkpt>
      <trkpt lat="43.74672" lon="3.45708">
        <ele>681.9</ele>
        <time>2016-11-06T08:40:28Z</time>
      </trkpt>
      <trkpt lat="43.74664" lon="3.45712">
        <ele>682.5</ele>
        <time>2016-11-06T08:40:32Z</time>
      </trkpt>
      <trkpt lat="43.74656" lon="3.45717">
        <ele>683.4</ele>
        <time>2016-11-06T08:40:37Z</time>
      </trkpt>
      <trkpt lat="43.74649" lon="3.45719">
        <ele>684.2</ele>
        <time>2016-11-06T08:40:41Z</time>
      </trkpt>
      <trkpt lat="43.74642" lon="3.4572">
        <ele>684.8</ele>
        <time>2016-11-06T08:40:44Z</time>
      </trkpt>
      <trkpt lat="43.74634" lon="3.45721">
        <ele>685.7</ele>
        <time>2016-11-06T08:40:49Z</time>
      </trkpt>
      <trkpt lat="43.74626" lon="3.45722">
        <ele>686.8</ele>
        <time>2016-11-06T08:40:54Z</time>
      </trkpt>
      <trkpt lat="43.74615" lon="3.45723">
        <ele>687.4</ele>
        <time>2016-11-06T08:40:58Z</time>
      </trkpt>
      <trkpt lat="43.74608" lon="3.45729">
        <ele>687.9</ele>
        <time>2016-11-06T08:41:02Z</time>
      </trkpt>
      <trkpt lat="43.746" lon="3.45731">
        <ele>688.1</ele>
        <time>2016-11-06T08:41:07Z</time>
      </trkpt>
      <trkpt lat="43.74593" lon="3.45731">
        <ele>688.4</ele>
        <time>2016-11-06T08:41:10Z</time>
      </trkpt>
      <trkpt lat="43.74584" lon="3.45732">
        <ele>688.8</ele>
        <time>2016-11-06T08:41:14Z</time>
      </trkpt>
      <trkpt lat="43.74575" lon="3.45733">
        <ele>689</ele>
        <time>2016-11-06T08:41:16Z</time>
      </trkpt>
      <trkpt lat="43.74567" lon="3.45733">
        <ele>689.3</ele>
        <time>2016-11-06T08:41:20Z</time>
      </trkpt>
      <trkpt lat="43.7456" lon="3.45734">
        <ele>689.7</ele>
        <time>2016-11-06T08:41:23Z</time>
      </trkpt>
      <trkpt lat="43.74551" lon="3.45734">
        <ele>690</ele>
        <time>2016-11-06T08:41:27Z</time>
      </trkpt>
      <trkpt lat="43.74542" lon="3.45734">
        <ele>690.8</ele>
        <time>2016-11-06T08:41:32Z</time>
      </trkpt>
      <trkpt lat="43.74536" lon="3.45733">
        <ele>691.6</ele>
        <time>2016-11-06T08:41:39Z</time>
      </trkpt>
      <trkpt lat="43.74527" lon="3.45732">
        <ele>692</ele>
        <time>2016-11-06T08:41:43Z</time>
      </trkpt>
      <trkpt lat="43.74518" lon="3.45729">
        <ele>692.3</ele>
        <time>2016-11-06T08:41:48Z</time>
      </trkpt>
      <trkpt lat="43.7451" lon="3.45728">
        <ele>692.4</ele>
        <time>2016-11-06T08:41:54Z</time>
      </trkpt>
      <trkpt lat="43.745" lon="3.45725">
        <ele>692.5</ele>
        <time>2016-11-06T08:41:58Z</time>
      </trkpt>
      <trkpt lat="43.74492" lon="3.45723">
        <ele>692.6</ele>
        <time>2016-11-06T08:42:04Z</time>
      </trkpt>
      <trkpt lat="43.74486" lon="3.45721">
        <ele>692.8</ele>
        <time>2016-11-06T08:42:07Z</time>
      </trkpt>
      <trkpt lat="43.74477" lon="3.45717">
        <ele>693</ele>
        <time>2016-11-06T08:42:10Z</time>
      </trkpt>
      <trkpt lat="43.74469" lon="3.45713">
        <ele>693.1</ele>
        <time>2016-11-06T08:42:13Z</time>
      </trkpt>
      <trkpt lat="43.74462" lon="3.45708">
        <ele>693.3</ele>
        <time>2016-11-06T08:42:15Z</time>
      </trkpt>
      <trkpt lat="43.74454" lon="3.45702">
        <ele>693.4</ele>
        <time>2016-11-06T08:42:18Z</time>
      </trkpt>
      <trkpt lat="43.74445" lon="3.45696">
        <ele>693.4</ele>
        <time>2016-11-06T08:42:21Z</time>
      </trkpt>
      <trkpt lat="43.74438" lon="3.45694">
        <ele>693.9</ele>
        <time>2016-11-06T08:42:26Z</time>
      </trkpt>
      <trkpt lat="43.7443" lon="3.45698">
        <ele>694.8</ele>
        <time>2016-11-06T08:42:31Z</time>
      </trkpt>
      <trkpt lat="43.74424" lon="3.45706">
        <ele>695.6</ele>
        <time>2016-11-06T08:42:35Z</time>
      </trkpt>
      <trkpt lat="43.74418" lon="3.45713">
        <ele>696.3</ele>
        <time>2016-11-06T08:42:39Z</time>
      </trkpt>
      <trkpt lat="43.74412" lon="3.45721">
        <ele>697.3</ele>
        <time>2016-11-06T08:42:44Z</time>
      </trkpt>
      <trkpt lat="43.74405" lon="3.45723">
        <ele>697.7</ele>
        <time>2016-11-06T08:42:49Z</time>
      </trkpt>
      <trkpt lat="43.744" lon="3.45726">
        <ele>698.6</ele>
        <time>2016-11-06T08:42:56Z</time>
      </trkpt>
      <trkpt lat="43.74394" lon="3.45728">
        <ele>700.1</ele>
        <time>2016-11-06T08:43:03Z</time>
      </trkpt>
      <trkpt lat="43.74387" lon="3.45731">
        <ele>701</ele>
        <time>2016-11-06T08:43:07Z</time>
      </trkpt>
      <trkpt lat="43.74378" lon="3.45732">
        <ele>701.3</ele>
        <time>2016-11-06T08:43:09Z</time>
      </trkpt>
      <trkpt lat="43.74371" lon="3.45734">
        <ele>701.8</ele>
        <time>2016-11-06T08:43:12Z</time>
      </trkpt>
      <trkpt lat="43.74363" lon="3.45738">
        <ele>702.8</ele>
        <time>2016-11-06T08:43:18Z</time>
      </trkpt>
      <trkpt lat="43.74357" lon="3.45734">
        <ele>703.8</ele>
        <time>2016-11-06T08:43:25Z</time>
      </trkpt>
      <trkpt lat="43.7435" lon="3.45727">
        <ele>704</ele>
        <time>2016-11-06T08:43:29Z</time>
      </trkpt>
      <trkpt lat="43.74342" lon="3.4572">
        <ele>704.4</ele>
        <time>2016-11-06T08:43:32Z</time>
      </trkpt>
      <trkpt lat="43.74335" lon="3.45714">
        <ele>704.7</ele>
        <time>2016-11-06T08:43:34Z</time>
      </trkpt>
      <trkpt lat="43.74328" lon="3.4571">
        <ele>705</ele>
        <time>2016-11-06T08:43:36Z</time>
      </trkpt>
      <trkpt lat="43.74321" lon="3.45702">
        <ele>705.4</ele>
        <time>2016-11-06T08:43:39Z</time>
      </trkpt>
      <trkpt lat="43.74313" lon="3.45695">
        <ele>705.8</ele>
        <time>2016-11-06T08:43:42Z</time>
      </trkpt>
      <trkpt lat="43.74304" lon="3.45687">
        <ele>706.1</ele>
        <time>2016-11-06T08:43:45Z</time>
      </trkpt>
      <trkpt lat="43.74299" lon="3.4568">
        <ele>706.2</ele>
        <time>2016-11-06T08:43:47Z</time>
      </trkpt>
      <trkpt lat="43.74293" lon="3.45671">
        <ele>706.2</ele>
        <time>2016-11-06T08:43:50Z</time>
      </trkpt>
      <trkpt lat="43.74287" lon="3.45662">
        <ele>706.5</ele>
        <time>2016-11-06T08:43:53Z</time>
      </trkpt>
      <trkpt lat="43.74282" lon="3.45655">
        <ele>706.6</ele>
        <time>2016-11-06T08:43:55Z</time>
      </trkpt>
      <trkpt lat="43.74276" lon="3.45648">
        <ele>706.8</ele>
        <time>2016-11-06T08:43:57Z</time>
      </trkpt>
      <trkpt lat="43.74268" lon="3.4564">
        <ele>707</ele>
        <time>2016-11-06T08:44:00Z</time>
      </trkpt>
      <trkpt lat="43.74261" lon="3.45635">
        <ele>707.3</ele>
        <time>2016-11-06T08:44:03Z</time>
      </trkpt>
      <trkpt lat="43.74254" lon="3.4563">
        <ele>707.7</ele>
        <time>2016-11-06T08:44:07Z</time>
      </trkpt>
      <trkpt lat="43.74245" lon="3.45626">
        <ele>707.9</ele>
        <time>2016-11-06T08:44:12Z</time>
      </trkpt>
      <trkpt lat="43.74238" lon="3.45623">
        <ele>708.1</ele>
        <time>2016-11-06T08:44:16Z</time>
      </trkpt>
      <trkpt lat="43.74232" lon="3.45617">
        <ele>708.3</ele>
        <time>2016-11-06T08:44:19Z</time>
      </trkpt>
      <trkpt lat="43.74221" lon="3.45611">
        <ele>708.7</ele>
        <time>2016-11-06T08:44:22Z</time>
      </trkpt>
      <trkpt lat="43.74211" lon="3.45607">
        <ele>709</ele>
        <time>2016-11-06T08:44:25Z</time>
      </trkpt>
      <trkpt lat="43.74203" lon="3.45606">
        <ele>709.6</ele>
        <time>2016-11-06T08:44:29Z</time>
      </trkpt>
      <trkpt lat="43.74195" lon="3.45605">
        <ele>710</ele>
        <time>2016-11-06T08:44:33Z</time>
      </trkpt>
      <trkpt lat="43.74187" lon="3.45606">
        <ele>710.7</ele>
        <time>2016-11-06T08:44:38Z</time>
      </trkpt>
      <trkpt lat="43.74181" lon="3.45613">
        <ele>711.3</ele>
        <time>2016-11-06T08:44:43Z</time>
      </trkpt>
      <trkpt lat="43.74173" lon="3.45618">
        <ele>711.6</ele>
        <time>2016-11-06T08:44:46Z</time>
      </trkpt>
      <trkpt lat="43.74165" lon="3.4562">
        <ele>711.6</ele>
        <time>2016-11-06T08:44:49Z</time>
      </trkpt>
      <trkpt lat="43.74158" lon="3.45623">
        <ele>711.7</ele>
        <time>2016-11-06T08:44:52Z</time>
      </trkpt>
      <trkpt lat="43.7415" lon="3.45626">
        <ele>712.1</ele>
        <time>2016-11-06T08:44:55Z</time>
      </trkpt>
      <trkpt lat="43.74142" lon="3.45631">
        <ele>712.6</ele>
        <time>2016-11-06T08:44:59Z</time>
      </trkpt>
      <trkpt lat="43.74134" lon="3.45634">
        <ele>713</ele>
        <time>2016-11-06T08:45:02Z</time>
      </trkpt>
      <trkpt lat="43.74126" lon="3.45637">
        <ele>713.4</ele>
        <time>2016-11-06T08:45:05Z</time>
      </trkpt>
      <trkpt lat="43.74117" lon="3.4564">
        <ele>713.7</ele>
        <time>2016-11-06T08:45:09Z</time>
      </trkpt>
      <trkpt lat="43.7411" lon="3.45642">
        <ele>713.9</ele>
        <time>2016-11-06T08:45:13Z</time>
      </trkpt>
      <trkpt lat="43.74102" lon="3.45646">
        <ele>714.3</ele>
        <time>2016-11-06T08:45:18Z</time>
      </trkpt>
      <trkpt lat="43.74105" lon="3.45647">
        <ele>714.9</ele>
        <time>2016-11-06T08:45:25Z</time>
      </trkpt>
      <trkpt lat="43.74113" lon="3.45648">
        <ele>715.5</ele>
        <time>2016-11-06T08:45:29Z</time>
      </trkpt>
      <trkpt lat="43.7412" lon="3.45645">
        <ele>716.1</ele>
        <time>2016-11-06T08:45:33Z</time>
      </trkpt>
      <trkpt lat="43.74128" lon="3.45642">
        <ele>717.9</ele>
        <time>2016-11-06T08:45:39Z</time>
      </trkpt>
      <trkpt lat="43.74135" lon="3.45641">
        <ele>719.2</ele>
        <time>2016-11-06T08:45:43Z</time>
      </trkpt>
      <trkpt lat="43.74143" lon="3.45639">
        <ele>720.7</ele>
        <time>2016-11-06T08:45:47Z</time>
      </trkpt>
      <trkpt lat="43.74152" lon="3.45636">
        <ele>721.9</ele>
        <time>2016-11-06T08:45:51Z</time>
      </trkpt>
      <trkpt lat="43.74159" lon="3.45631">
        <ele>723</ele>
        <time>2016-11-06T08:45:55Z</time>
      </trkpt>
      <trkpt lat="43.74168" lon="3.45629">
        <ele>724.1</ele>
        <time>2016-11-06T08:45:59Z</time>
      </trkpt>
      <trkpt lat="43.74175" lon="3.45628">
        <ele>725.3</ele>
        <time>2016-11-06T08:46:03Z</time>
      </trkpt>
      <trkpt lat="43.74183" lon="3.45628">
        <ele>726.6</ele>
        <time>2016-11-06T08:46:07Z</time>
      </trkpt>
      <trkpt lat="43.74191" lon="3.45634">
        <ele>728.4</ele>
        <time>2016-11-06T08:46:13Z</time>
      </trkpt>
      <trkpt lat="43.74199" lon="3.45641">
        <ele>729</ele>
        <time>2016-11-06T08:46:16Z</time>
      </trkpt>
      <trkpt lat="43.74207" lon="3.45648">
        <ele>729.4</ele>
        <time>2016-11-06T08:46:19Z</time>
      </trkpt>
      <trkpt lat="43.74215" lon="3.45651">
        <ele>729.5</ele>
        <time>2016-11-06T08:46:22Z</time>
      </trkpt>
      <trkpt lat="43.74223" lon="3.45656">
        <ele>729.7</ele>
        <time>2016-11-06T08:46:26Z</time>
      </trkpt>
      <trkpt lat="43.74231" lon="3.4566">
        <ele>729.8</ele>
        <time>2016-11-06T08:46:30Z</time>
      </trkpt>
      <trkpt lat="43.74238" lon="3.45669">
        <ele>729.7</ele>
        <time>2016-11-06T08:46:34Z</time>
      </trkpt>
      <trkpt lat="43.74245" lon="3.45676">
        <ele>729.6</ele>
        <time>2016-11-06T08:46:39Z</time>
      </trkpt>
      <trkpt lat="43.7425" lon="3.45683">
        <ele>729.9</ele>
        <time>2016-11-06T08:46:44Z</time>
      </trkpt>
      <trkpt lat="43.74257" lon="3.45691">
        <ele>730</ele>
        <time>2016-11-06T08:46:48Z</time>
      </trkpt>
      <trkpt lat="43.74264" lon="3.45698">
        <ele>730.6</ele>
        <time>2016-11-06T08:46:53Z</time>
      </trkpt>
      <trkpt lat="43.7427" lon="3.4571">
        <ele>731.1</ele>
        <time>2016-11-06T08:46:57Z</time>
      </trkpt>
      <trkpt lat="43.74275" lon="3.45719">
        <ele>731.3</ele>
        <time>2016-11-06T08:47:01Z</time>
      </trkpt>
      <trkpt lat="43.7428" lon="3.45729">
        <ele>731.4</ele>
        <time>2016-11-06T08:47:05Z</time>
      </trkpt>
      <trkpt lat="43.74286" lon="3.45738">
        <ele>731.2</ele>
        <time>2016-11-06T08:47:09Z</time>
      </trkpt>
      <trkpt lat="43.74292" lon="3.45745">
        <ele>731</ele>
        <time>2016-11-06T08:47:15Z</time>
      </trkpt>
      <trkpt lat="43.74297" lon="3.45755">
        <ele>731.3</ele>
        <time>2016-11-06T08:47:19Z</time>
      </trkpt>
      <trkpt lat="43.74303" lon="3.45763">
        <ele>732.5</ele>
        <time>2016-11-06T08:47:25Z</time>
      </trkpt>
      <trkpt lat="43.74308" lon="3.45771">
        <ele>732.8</ele>
        <time>2016-11-06T08:47:29Z</time>
      </trkpt>
      <trkpt lat="43.74315" lon="3.45776">
        <ele>733.2</ele>
        <time>2016-11-06T08:47:34Z</time>
      </trkpt>
      <trkpt lat="43.74322" lon="3.45779">
        <ele>733.7</ele>
        <time>2016-11-06T08:47:38Z</time>
      </trkpt>
      <trkpt lat="43.74329" lon="3.45785">
        <ele>734.5</ele>
        <time>2016-11-06T08:47:43Z</time>
      </trkpt>
      <trkpt lat="43.74337" lon="3.45788">
        <ele>735.3</ele>
        <time>2016-11-06T08:47:47Z</time>
      </trkpt>
      <trkpt lat="43.74347" lon="3.45795">
        <ele>735.8</ele>
        <time>2016-11-06T08:47:50Z</time>
      </trkpt>
      <trkpt lat="43.74355" lon="3.458">
        <ele>736.2</ele>
        <time>2016-11-06T08:47:53Z</time>
      </trkpt>
      <trkpt lat="43.74363" lon="3.45803">
        <ele>736.8</ele>
        <time>2016-11-06T08:47:57Z</time>
      </trkpt>
      <trkpt lat="43.74373" lon="3.45803">
        <ele>737.6</ele>
        <time>2016-11-06T08:48:01Z</time>
      </trkpt>
      <trkpt lat="43.74381" lon="3.45804">
        <ele>738.4</ele>
        <time>2016-11-06T08:48:05Z</time>
      </trkpt>
      <trkpt lat="43.74391" lon="3.45809">
        <ele>739.3</ele>
        <time>2016-11-06T08:48:09Z</time>
      </trkpt>
      <trkpt lat="43.744" lon="3.45808">
        <ele>740</ele>
        <time>2016-11-06T08:48:13Z</time>
      </trkpt>
      <trkpt lat="43.74408" lon="3.45806">
        <ele>740.8</ele>
        <time>2016-11-06T08:48:17Z</time>
      </trkpt>
      <trkpt lat="43.74416" lon="3.45804">
        <ele>741.5</ele>
        <time>2016-11-06T08:48:21Z</time>
      </trkpt>
      <trkpt lat="43.74425" lon="3.45806">
        <ele>741.7</ele>
        <time>2016-11-06T08:48:25Z</time>
      </trkpt>
      <trkpt lat="43.74432" lon="3.4581">
        <ele>742.2</ele>
        <time>2016-11-06T08:48:29Z</time>
      </trkpt>
      <trkpt lat="43.74441" lon="3.45812">
        <ele>742.7</ele>
        <time>2016-11-06T08:48:32Z</time>
      </trkpt>
      <trkpt lat="43.74448" lon="3.45819">
        <ele>743.3</ele>
        <time>2016-11-06T08:48:35Z</time>
      </trkpt>
      <trkpt lat="43.74456" lon="3.45827">
        <ele>744.1</ele>
        <time>2016-11-06T08:48:38Z</time>
      </trkpt>
      <trkpt lat="43.74461" lon="3.45833">
        <ele>744.5</ele>
        <time>2016-11-06T08:48:41Z</time>
      </trkpt>
      <trkpt lat="43.7447" lon="3.45839">
        <ele>744.8</ele>
        <time>2016-11-06T08:48:45Z</time>
      </trkpt>
      <trkpt lat="43.74477" lon="3.45843">
        <ele>745.2</ele>
        <time>2016-11-06T08:48:48Z</time>
      </trkpt>
      <trkpt lat="43.74483" lon="3.4585">
        <ele>745.6</ele>
        <time>2016-11-06T08:48:51Z</time>
      </trkpt>
      <trkpt lat="43.74487" lon="3.4586">
        <ele>745.9</ele>
        <time>2016-11-06T08:48:55Z</time>
      </trkpt>
      <trkpt lat="43.7449" lon="3.45871">
        <ele>746.2</ele>
        <time>2016-11-06T08:48:59Z</time>
      </trkpt>
      <trkpt lat="43.74492" lon="3.45882">
        <ele>746.3</ele>
        <time>2016-11-06T08:49:03Z</time>
      </trkpt>
      <trkpt lat="43.74496" lon="3.45893">
        <ele>746.5</ele>
        <time>2016-11-06T08:49:07Z</time>
      </trkpt>
      <trkpt lat="43.74498" lon="3.45904">
        <ele>747</ele>
        <time>2016-11-06T08:49:11Z</time>
      </trkpt>
      <trkpt lat="43.74499" lon="3.45918">
        <ele>747.4</ele>
        <time>2016-11-06T08:49:15Z</time>
      </trkpt>
      <trkpt lat="43.74499" lon="3.45928">
        <ele>747.7</ele>
        <time>2016-11-06T08:49:18Z</time>
      </trkpt>
      <trkpt lat="43.745" lon="3.45937">
        <ele>747.9</ele>
        <time>2016-11-06T08:49:22Z</time>
      </trkpt>
      <trkpt lat="43.74502" lon="3.45949">
        <ele>748.1</ele>
        <time>2016-11-06T08:49:26Z</time>
      </trkpt>
      <trkpt lat="43.74502" lon="3.4596">
        <ele>748</ele>
        <time>2016-11-06T08:49:31Z</time>
      </trkpt>
      <trkpt lat="43.74506" lon="3.45971">
        <ele>748.5</ele>
        <time>2016-11-06T08:49:38Z</time>
      </trkpt>
      <trkpt lat="43.74505" lon="3.45979">
        <ele>749</ele>
        <time>2016-11-06T08:49:45Z</time>
      </trkpt>
      <trkpt lat="43.74501" lon="3.45978">
        <ele>749.6</ele>
        <time>2016-11-06T08:49:52Z</time>
      </trkpt>
      <trkpt lat="43.74505" lon="3.45977">
        <ele>749.5</ele>
        <time>2016-11-06T08:49:59Z</time>
      </trkpt>
      <trkpt lat="43.745" lon="3.45969">
        <ele>749.9</ele>
        <time>2016-11-06T08:50:08Z</time>
      </trkpt>
      <trkpt lat="43.74494" lon="3.45964">
        <ele>750.6</ele>
        <time>2016-11-06T08:50:15Z</time>
      </trkpt>
      <trkpt lat="43.74486" lon="3.45965">
        <ele>751</ele>
        <time>2016-11-06T08:50:20Z</time>
      </trkpt>
      <trkpt lat="43.74481" lon="3.45969">
        <ele>751.9</ele>
        <time>2016-11-06T08:50:27Z</time>
      </trkpt>
      <trkpt lat="43.74484" lon="3.45965">
        <ele>755.1</ele>
        <time>2016-11-06T08:50:54Z</time>
      </trkpt>
      <trkpt lat="43.74486" lon="3.45965">
        <ele>755.5</ele>
        <time>2016-11-06T08:51:01Z</time>
      </trkpt>
      <trkpt lat="43.74482" lon="3.45971">
        <ele>756.2</ele>
        <time>2016-11-06T08:51:15Z</time>
      </trkpt>
      <trkpt lat="43.74479" lon="3.45965">
        <ele>756.5</ele>
        <time>2016-11-06T08:51:36Z</time>
      </trkpt>
      <trkpt lat="43.74479" lon="3.45963">
        <ele>755.7</ele>
        <time>2016-11-06T08:51:56Z</time>
      </trkpt>
      <trkpt lat="43.74481" lon="3.45965">
        <ele>757.1</ele>
        <time>2016-11-06T08:52:09Z</time>
      </trkpt>
      <trkpt lat="43.74483" lon="3.45965">
        <ele>758</ele>
        <time>2016-11-06T08:52:19Z</time>
      </trkpt>
      <trkpt lat="43.74483" lon="3.4598">
        <ele>759.5</ele>
        <time>2016-11-06T08:51:53Z</time>
      </trkpt>
      <trkpt lat="43.74485" lon="3.4599">
        <ele>758.8</ele>
        <time>2016-11-06T08:51:55Z</time>
      </trkpt>
      <trkpt lat="43.74488" lon="3.46005">
        <ele>756.9</ele>
        <time>2016-11-06T08:51:57Z</time>
      </trkpt>
      <trkpt lat="43.7449" lon="3.46025">
        <ele>754.4</ele>
        <time>2016-11-06T08:51:59Z</time>
      </trkpt>
      <trkpt lat="43.74494" lon="3.46041">
        <ele>751.3</ele>
        <time>2016-11-06T08:52:01Z</time>
      </trkpt>
      <trkpt lat="43.74495" lon="3.46061">
        <ele>747.9</ele>
        <time>2016-11-06T08:52:03Z</time>
      </trkpt>
      <trkpt lat="43.74496" lon="3.46073">
        <ele>746.7</ele>
        <time>2016-11-06T08:52:04Z</time>
      </trkpt>
      <trkpt lat="43.74497" lon="3.46083">
        <ele>746</ele>
        <time>2016-11-06T08:52:05Z</time>
      </trkpt>
      <trkpt lat="43.74498" lon="3.46093">
        <ele>745.2</ele>
        <time>2016-11-06T08:52:06Z</time>
      </trkpt>
      <trkpt lat="43.745" lon="3.46104">
        <ele>745.2</ele>
        <time>2016-11-06T08:52:07Z</time>
      </trkpt>
      <trkpt lat="43.74503" lon="3.46115">
        <ele>745.8</ele>
        <time>2016-11-06T08:52:08Z</time>
      </trkpt>
      <trkpt lat="43.74505" lon="3.46125">
        <ele>744.8</ele>
        <time>2016-11-06T08:52:09Z</time>
      </trkpt>
      <trkpt lat="43.7451" lon="3.46143">
        <ele>744.6</ele>
        <time>2016-11-06T08:52:11Z</time>
      </trkpt>
      <trkpt lat="43.74515" lon="3.46159">
        <ele>742.9</ele>
        <time>2016-11-06T08:52:13Z</time>
      </trkpt>
      <trkpt lat="43.74521" lon="3.46174">
        <ele>739.6</ele>
        <time>2016-11-06T08:52:15Z</time>
      </trkpt>
      <trkpt lat="43.74524" lon="3.46188">
        <ele>737.5</ele>
        <time>2016-11-06T08:52:17Z</time>
      </trkpt>
      <trkpt lat="43.74526" lon="3.46198">
        <ele>736.6</ele>
        <time>2016-11-06T08:52:18Z</time>
      </trkpt>
      <trkpt lat="43.74526" lon="3.46216">
        <ele>734.1</ele>
        <time>2016-11-06T08:52:20Z</time>
      </trkpt>
      <trkpt lat="43.74528" lon="3.46235">
        <ele>731.5</ele>
        <time>2016-11-06T08:52:22Z</time>
      </trkpt>
      <trkpt lat="43.7453" lon="3.46244">
        <ele>730.2</ele>
        <time>2016-11-06T08:52:23Z</time>
      </trkpt>
      <trkpt lat="43.74534" lon="3.46254">
        <ele>730.1</ele>
        <time>2016-11-06T08:52:24Z</time>
      </trkpt>
      <trkpt lat="43.74537" lon="3.46263">
        <ele>729.9</ele>
        <time>2016-11-06T08:52:25Z</time>
      </trkpt>
      <trkpt lat="43.74542" lon="3.46277">
        <ele>729.8</ele>
        <time>2016-11-06T08:52:27Z</time>
      </trkpt>
      <trkpt lat="43.74537" lon="3.46289">
        <ele>729.9</ele>
        <time>2016-11-06T08:53:36Z</time>
      </trkpt>
      <trkpt lat="43.74535" lon="3.46291">
        <ele>729.3</ele>
        <time>2016-11-06T08:53:43Z</time>
      </trkpt>
      <trkpt lat="43.7453" lon="3.46308">
        <ele>728.8</ele>
        <time>2016-11-06T08:53:47Z</time>
      </trkpt>
      <trkpt lat="43.74526" lon="3.46319">
        <ele>728.7</ele>
        <time>2016-11-06T08:53:50Z</time>
      </trkpt>
      <trkpt lat="43.74524" lon="3.46329">
        <ele>728.7</ele>
        <time>2016-11-06T08:53:54Z</time>
      </trkpt>
      <trkpt lat="43.74519" lon="3.46338">
        <ele>729</ele>
        <time>2016-11-06T08:53:57Z</time>
      </trkpt>
      <trkpt lat="43.74513" lon="3.46347">
        <ele>729.4</ele>
        <time>2016-11-06T08:54:01Z</time>
      </trkpt>
      <trkpt lat="43.74508" lon="3.46354">
        <ele>729.9</ele>
        <time>2016-11-06T08:54:04Z</time>
      </trkpt>
      <trkpt lat="43.74502" lon="3.46363">
        <ele>730.2</ele>
        <time>2016-11-06T08:54:07Z</time>
      </trkpt>
      <trkpt lat="43.74498" lon="3.46374">
        <ele>730.4</ele>
        <time>2016-11-06T08:54:10Z</time>
      </trkpt>
      <trkpt lat="43.74492" lon="3.46381">
        <ele>730.5</ele>
        <time>2016-11-06T08:54:15Z</time>
      </trkpt>
      <trkpt lat="43.74485" lon="3.46385">
        <ele>730.6</ele>
        <time>2016-11-06T08:54:17Z</time>
      </trkpt>
      <trkpt lat="43.74477" lon="3.46386">
        <ele>730.9</ele>
        <time>2016-11-06T08:54:20Z</time>
      </trkpt>
      <trkpt lat="43.7447" lon="3.46384">
        <ele>731.7</ele>
        <time>2016-11-06T08:54:26Z</time>
      </trkpt>
      <trkpt lat="43.74463" lon="3.46378">
        <ele>732.6</ele>
        <time>2016-11-06T08:54:31Z</time>
      </trkpt>
      <trkpt lat="43.74456" lon="3.46374">
        <ele>733.1</ele>
        <time>2016-11-06T08:54:37Z</time>
      </trkpt>
      <trkpt lat="43.74447" lon="3.46373">
        <ele>733.2</ele>
        <time>2016-11-06T08:54:43Z</time>
      </trkpt>
      <trkpt lat="43.74439" lon="3.46373">
        <ele>733.5</ele>
        <time>2016-11-06T08:54:49Z</time>
      </trkpt>
      <trkpt lat="43.74431" lon="3.46375">
        <ele>734</ele>
        <time>2016-11-06T08:54:55Z</time>
      </trkpt>
      <trkpt lat="43.74424" lon="3.46377">
        <ele>735</ele>
        <time>2016-11-06T08:54:59Z</time>
      </trkpt>
      <trkpt lat="43.74417" lon="3.4638">
        <ele>736.1</ele>
        <time>2016-11-06T08:55:06Z</time>
      </trkpt>
      <trkpt lat="43.74411" lon="3.46382">
        <ele>737</ele>
        <time>2016-11-06T08:55:13Z</time>
      </trkpt>
      <trkpt lat="43.744" lon="3.46388">
        <ele>737.7</ele>
        <time>2016-11-06T08:55:17Z</time>
      </trkpt>
      <trkpt lat="43.74393" lon="3.46395">
        <ele>738.3</ele>
        <time>2016-11-06T08:55:22Z</time>
      </trkpt>
      <trkpt lat="43.74385" lon="3.46398">
        <ele>738.8</ele>
        <time>2016-11-06T08:55:27Z</time>
      </trkpt>
      <trkpt lat="43.74378" lon="3.464">
        <ele>740</ele>
        <time>2016-11-06T08:55:34Z</time>
      </trkpt>
      <trkpt lat="43.74371" lon="3.46401">
        <ele>740.7</ele>
        <time>2016-11-06T08:55:38Z</time>
      </trkpt>
      <trkpt lat="43.7436" lon="3.46408">
        <ele>740.9</ele>
        <time>2016-11-06T08:55:41Z</time>
      </trkpt>
      <trkpt lat="43.74352" lon="3.4641">
        <ele>741.1</ele>
        <time>2016-11-06T08:55:43Z</time>
      </trkpt>
      <trkpt lat="43.74342" lon="3.46411">
        <ele>741.4</ele>
        <time>2016-11-06T08:55:45Z</time>
      </trkpt>
      <trkpt lat="43.74333" lon="3.4641">
        <ele>741.3</ele>
        <time>2016-11-06T08:55:47Z</time>
      </trkpt>
      <trkpt lat="43.74324" lon="3.46406">
        <ele>741.2</ele>
        <time>2016-11-06T08:55:49Z</time>
      </trkpt>
      <trkpt lat="43.74314" lon="3.46409">
        <ele>741.2</ele>
        <time>2016-11-06T08:55:52Z</time>
      </trkpt>
      <trkpt lat="43.74307" lon="3.46413">
        <ele>741.3</ele>
        <time>2016-11-06T08:55:56Z</time>
      </trkpt>
      <trkpt lat="43.743" lon="3.46417">
        <ele>741.4</ele>
        <time>2016-11-06T08:56:00Z</time>
      </trkpt>
      <trkpt lat="43.74292" lon="3.46418">
        <ele>741.2</ele>
        <time>2016-11-06T08:56:03Z</time>
      </trkpt>
      <trkpt lat="43.74285" lon="3.46417">
        <ele>740.8</ele>
        <time>2016-11-06T08:56:07Z</time>
      </trkpt>
      <trkpt lat="43.74277" lon="3.46418">
        <ele>740.6</ele>
        <time>2016-11-06T08:56:12Z</time>
      </trkpt>
      <trkpt lat="43.74266" lon="3.46417">
        <ele>740.4</ele>
        <time>2016-11-06T08:56:15Z</time>
      </trkpt>
      <trkpt lat="43.74259" lon="3.46414">
        <ele>740.3</ele>
        <time>2016-11-06T08:56:18Z</time>
      </trkpt>
      <trkpt lat="43.74241" lon="3.46422">
        <ele>741.4</ele>
        <time>2016-11-06T08:56:25Z</time>
      </trkpt>
      <trkpt lat="43.74232" lon="3.46427">
        <ele>741.7</ele>
        <time>2016-11-06T08:56:28Z</time>
      </trkpt>
      <trkpt lat="43.74225" lon="3.4643">
        <ele>741.9</ele>
        <time>2016-11-06T08:56:32Z</time>
      </trkpt>
      <trkpt lat="43.74217" lon="3.46433">
        <ele>742</ele>
        <time>2016-11-06T08:56:35Z</time>
      </trkpt>
      <trkpt lat="43.74211" lon="3.46436">
        <ele>742.3</ele>
        <time>2016-11-06T08:56:42Z</time>
      </trkpt>
      <trkpt lat="43.74196" lon="3.46426">
        <ele>741.8</ele>
        <time>2016-11-06T08:59:22Z</time>
      </trkpt>
      <trkpt lat="43.74188" lon="3.46419">
        <ele>740.1</ele>
        <time>2016-11-06T08:59:24Z</time>
      </trkpt>
      <trkpt lat="43.74179" lon="3.46409">
        <ele>740</ele>
        <time>2016-11-06T08:59:26Z</time>
      </trkpt>
      <trkpt lat="43.74173" lon="3.46402">
        <ele>740</ele>
        <time>2016-11-06T08:59:28Z</time>
      </trkpt>
      <trkpt lat="43.74165" lon="3.46394">
        <ele>739.8</ele>
        <time>2016-11-06T08:59:32Z</time>
      </trkpt>
      <trkpt lat="43.74167" lon="3.464">
        <ele>739.1</ele>
        <time>2016-11-06T08:59:39Z</time>
      </trkpt>
      <trkpt lat="43.74171" lon="3.4641">
        <ele>738.8</ele>
        <time>2016-11-06T08:59:41Z</time>
      </trkpt>
      <trkpt lat="43.74171" lon="3.46424">
        <ele>738.6</ele>
        <time>2016-11-06T08:59:43Z</time>
      </trkpt>
      <trkpt lat="43.74171" lon="3.46436">
        <ele>738.2</ele>
        <time>2016-11-06T08:59:47Z</time>
      </trkpt>
      <trkpt lat="43.74162" lon="3.46436">
        <ele>737.4</ele>
        <time>2016-11-06T08:59:52Z</time>
      </trkpt>
      <trkpt lat="43.74152" lon="3.46432">
        <ele>733.4</ele>
        <time>2016-11-06T08:59:54Z</time>
      </trkpt>
      <trkpt lat="43.74143" lon="3.46428">
        <ele>730.4</ele>
        <time>2016-11-06T08:59:56Z</time>
      </trkpt>
      <trkpt lat="43.74135" lon="3.46432">
        <ele>728.7</ele>
        <time>2016-11-06T08:59:58Z</time>
      </trkpt>
      <trkpt lat="43.74123" lon="3.46429">
        <ele>725.2</ele>
        <time>2016-11-06T09:00:00Z</time>
      </trkpt>
      <trkpt lat="43.74111" lon="3.46425">
        <ele>723</ele>
        <time>2016-11-06T09:00:02Z</time>
      </trkpt>
      <trkpt lat="43.74103" lon="3.46423">
        <ele>722.7</ele>
        <time>2016-11-06T09:00:04Z</time>
      </trkpt>
      <trkpt lat="43.74094" lon="3.46424">
        <ele>721</ele>
        <time>2016-11-06T09:00:06Z</time>
      </trkpt>
      <trkpt lat="43.74085" lon="3.46422">
        <ele>719.1</ele>
        <time>2016-11-06T09:00:08Z</time>
      </trkpt>
      <trkpt lat="43.74074" lon="3.46422">
        <ele>718.2</ele>
        <time>2016-11-06T09:00:10Z</time>
      </trkpt>
      <trkpt lat="43.74076" lon="3.46432">
        <ele>717.7</ele>
        <time>2016-11-06T09:00:16Z</time>
      </trkpt>
      <trkpt lat="43.74084" lon="3.46443">
        <ele>716.1</ele>
        <time>2016-11-06T09:00:18Z</time>
      </trkpt>
      <trkpt lat="43.74092" lon="3.46452">
        <ele>715</ele>
        <time>2016-11-06T09:00:20Z</time>
      </trkpt>
      <trkpt lat="43.74098" lon="3.46462">
        <ele>712.1</ele>
        <time>2016-11-06T09:00:22Z</time>
      </trkpt>
      <trkpt lat="43.74105" lon="3.46474">
        <ele>709.6</ele>
        <time>2016-11-06T09:00:24Z</time>
      </trkpt>
      <trkpt lat="43.74108" lon="3.46486">
        <ele>707.8</ele>
        <time>2016-11-06T09:00:26Z</time>
      </trkpt>
      <trkpt lat="43.74113" lon="3.46499">
        <ele>707.6</ele>
        <time>2016-11-06T09:00:28Z</time>
      </trkpt>
      <trkpt lat="43.74116" lon="3.4651">
        <ele>707.5</ele>
        <time>2016-11-06T09:00:30Z</time>
      </trkpt>
      <trkpt lat="43.7412" lon="3.46523">
        <ele>707.5</ele>
        <time>2016-11-06T09:00:33Z</time>
      </trkpt>
      <trkpt lat="43.7412" lon="3.46535">
        <ele>707.6</ele>
        <time>2016-11-06T09:00:35Z</time>
      </trkpt>
      <trkpt lat="43.74123" lon="3.46554">
        <ele>707.9</ele>
        <time>2016-11-06T09:00:37Z</time>
      </trkpt>
      <trkpt lat="43.74127" lon="3.4657">
        <ele>707.1</ele>
        <time>2016-11-06T09:00:39Z</time>
      </trkpt>
      <trkpt lat="43.74131" lon="3.46583">
        <ele>706.7</ele>
        <time>2016-11-06T09:00:42Z</time>
      </trkpt>
      <trkpt lat="43.74131" lon="3.46593">
        <ele>706.1</ele>
        <time>2016-11-06T09:00:46Z</time>
      </trkpt>
      <trkpt lat="43.74124" lon="3.46586">
        <ele>705.5</ele>
        <time>2016-11-06T09:00:50Z</time>
      </trkpt>
      <trkpt lat="43.74117" lon="3.4658">
        <ele>703.5</ele>
        <time>2016-11-06T09:00:52Z</time>
      </trkpt>
      <trkpt lat="43.74111" lon="3.46574">
        <ele>703.2</ele>
        <time>2016-11-06T09:00:55Z</time>
      </trkpt>
      <trkpt lat="43.74112" lon="3.46586">
        <ele>702.4</ele>
        <time>2016-11-06T09:01:02Z</time>
      </trkpt>
      <trkpt lat="43.74117" lon="3.46598">
        <ele>701.9</ele>
        <time>2016-11-06T09:01:05Z</time>
      </trkpt>
      <trkpt lat="43.74123" lon="3.46611">
        <ele>699.1</ele>
        <time>2016-11-06T09:01:08Z</time>
      </trkpt>
      <trkpt lat="43.74127" lon="3.46621">
        <ele>698.6</ele>
        <time>2016-11-06T09:01:10Z</time>
      </trkpt>
      <trkpt lat="43.74117" lon="3.46619">
        <ele>691.6</ele>
        <time>2016-11-06T09:01:16Z</time>
      </trkpt>
      <trkpt lat="43.74108" lon="3.46611">
        <ele>687.5</ele>
        <time>2016-11-06T09:01:18Z</time>
      </trkpt>
      <trkpt lat="43.741" lon="3.46604">
        <ele>686.7</ele>
        <time>2016-11-06T09:01:20Z</time>
      </trkpt>
      <trkpt lat="43.74092" lon="3.46599">
        <ele>686.3</ele>
        <time>2016-11-06T09:01:23Z</time>
      </trkpt>
      <trkpt lat="43.74085" lon="3.46594">
        <ele>685.9</ele>
        <time>2016-11-06T09:01:26Z</time>
      </trkpt>
      <trkpt lat="43.74076" lon="3.46585">
        <ele>685.7</ele>
        <time>2016-11-06T09:01:29Z</time>
      </trkpt>
      <trkpt lat="43.7407" lon="3.46578">
        <ele>685.5</ele>
        <time>2016-11-06T09:01:32Z</time>
      </trkpt>
      <trkpt lat="43.74068" lon="3.4658">
        <ele>684.8</ele>
        <time>2016-11-06T09:01:39Z</time>
      </trkpt>
      <trkpt lat="43.74073" lon="3.46591">
        <ele>684</ele>
        <time>2016-11-06T09:01:42Z</time>
      </trkpt>
      <trkpt lat="43.74076" lon="3.46602">
        <ele>683.1</ele>
        <time>2016-11-06T09:01:45Z</time>
      </trkpt>
      <trkpt lat="43.74079" lon="3.46618">
        <ele>681.8</ele>
        <time>2016-11-06T09:01:49Z</time>
      </trkpt>
      <trkpt lat="43.74079" lon="3.4663">
        <ele>680.9</ele>
        <time>2016-11-06T09:01:52Z</time>
      </trkpt>
      <trkpt lat="43.7408" lon="3.46642">
        <ele>679.7</ele>
        <time>2016-11-06T09:01:57Z</time>
      </trkpt>
      <trkpt lat="43.74082" lon="3.46652">
        <ele>678.9</ele>
        <time>2016-11-06T09:02:01Z</time>
      </trkpt>
      <trkpt lat="43.7408" lon="3.46663">
        <ele>678.1</ele>
        <time>2016-11-06T09:02:04Z</time>
      </trkpt>
      <trkpt lat="43.74078" lon="3.46673">
        <ele>677.3</ele>
        <time>2016-11-06T09:02:07Z</time>
      </trkpt>
      <trkpt lat="43.74074" lon="3.46684">
        <ele>676.5</ele>
        <time>2016-11-06T09:02:10Z</time>
      </trkpt>
      <trkpt lat="43.74074" lon="3.46698">
        <ele>675.5</ele>
        <time>2016-11-06T09:02:13Z</time>
      </trkpt>
      <trkpt lat="43.74071" lon="3.46707">
        <ele>674.6</ele>
        <time>2016-11-06T09:02:16Z</time>
      </trkpt>
      <trkpt lat="43.74061" lon="3.46718">
        <ele>669.8</ele>
        <time>2016-11-06T09:02:19Z</time>
      </trkpt>
      <trkpt lat="43.74055" lon="3.46723">
        <ele>669.1</ele>
        <time>2016-11-06T09:02:21Z</time>
      </trkpt>
      <trkpt lat="43.74046" lon="3.46731">
        <ele>668.5</ele>
        <time>2016-11-06T09:02:24Z</time>
      </trkpt>
      <trkpt lat="43.74041" lon="3.46738">
        <ele>668</ele>
        <time>2016-11-06T09:02:26Z</time>
      </trkpt>
      <trkpt lat="43.74038" lon="3.46747">
        <ele>667.3</ele>
        <time>2016-11-06T09:02:30Z</time>
      </trkpt>
      <trkpt lat="43.74035" lon="3.46757">
        <ele>666.8</ele>
        <time>2016-11-06T09:02:33Z</time>
      </trkpt>
      <trkpt lat="43.74031" lon="3.46767">
        <ele>666.5</ele>
        <time>2016-11-06T09:02:36Z</time>
      </trkpt>
      <trkpt lat="43.74028" lon="3.46778">
        <ele>666.1</ele>
        <time>2016-11-06T09:02:40Z</time>
      </trkpt>
      <trkpt lat="43.74022" lon="3.46787">
        <ele>665.9</ele>
        <time>2016-11-06T09:02:44Z</time>
      </trkpt>
      <trkpt lat="43.74018" lon="3.46795">
        <ele>665.6</ele>
        <time>2016-11-06T09:02:48Z</time>
      </trkpt>
      <trkpt lat="43.74011" lon="3.46797">
        <ele>665.5</ele>
        <time>2016-11-06T09:02:53Z</time>
      </trkpt>
      <trkpt lat="43.74004" lon="3.46798">
        <ele>665.3</ele>
        <time>2016-11-06T09:03:00Z</time>
      </trkpt>
      <trkpt lat="43.73999" lon="3.46801">
        <ele>666.2</ele>
        <time>2016-11-06T09:03:21Z</time>
      </trkpt>
      <trkpt lat="43.73991" lon="3.46792">
        <ele>665.5</ele>
        <time>2016-11-06T09:03:25Z</time>
      </trkpt>
      <trkpt lat="43.73984" lon="3.46779">
        <ele>665.2</ele>
        <time>2016-11-06T09:03:27Z</time>
      </trkpt>
      <trkpt lat="43.73983" lon="3.46769">
        <ele>665</ele>
        <time>2016-11-06T09:03:29Z</time>
      </trkpt>
      <trkpt lat="43.73982" lon="3.46758">
        <ele>664.6</ele>
        <time>2016-11-06T09:03:31Z</time>
      </trkpt>
      <trkpt lat="43.73983" lon="3.46743">
        <ele>662.3</ele>
        <time>2016-11-06T09:03:33Z</time>
      </trkpt>
      <trkpt lat="43.7398" lon="3.46733">
        <ele>659.5</ele>
        <time>2016-11-06T09:03:35Z</time>
      </trkpt>
      <trkpt lat="43.73976" lon="3.46725">
        <ele>658.3</ele>
        <time>2016-11-06T09:03:37Z</time>
      </trkpt>
      <trkpt lat="43.73969" lon="3.46714">
        <ele>658</ele>
        <time>2016-11-06T09:03:40Z</time>
      </trkpt>
      <trkpt lat="43.73966" lon="3.46705">
        <ele>657.9</ele>
        <time>2016-11-06T09:03:44Z</time>
      </trkpt>
      <trkpt lat="43.73961" lon="3.46697">
        <ele>657.6</ele>
        <time>2016-11-06T09:03:48Z</time>
      </trkpt>
      <trkpt lat="43.73955" lon="3.46688">
        <ele>657.3</ele>
        <time>2016-11-06T09:03:52Z</time>
      </trkpt>
      <trkpt lat="43.7395" lon="3.46679">
        <ele>657.2</ele>
        <time>2016-11-06T09:03:56Z</time>
      </trkpt>
      <trkpt lat="43.73943" lon="3.46673">
        <ele>657.4</ele>
        <time>2016-11-06T09:04:00Z</time>
      </trkpt>
      <trkpt lat="43.73935" lon="3.46668">
        <ele>657.6</ele>
        <time>2016-11-06T09:04:03Z</time>
      </trkpt>
      <trkpt lat="43.73928" lon="3.46661">
        <ele>657.8</ele>
        <time>2016-11-06T09:04:06Z</time>
      </trkpt>
      <trkpt lat="43.73922" lon="3.46656">
        <ele>657.8</ele>
        <time>2016-11-06T09:04:10Z</time>
      </trkpt>
      <trkpt lat="43.73914" lon="3.46648">
        <ele>657.7</ele>
        <time>2016-11-06T09:04:14Z</time>
      </trkpt>
      <trkpt lat="43.73907" lon="3.46643">
        <ele>657.9</ele>
        <time>2016-11-06T09:04:17Z</time>
      </trkpt>
      <trkpt lat="43.73901" lon="3.46636">
        <ele>658.1</ele>
        <time>2016-11-06T09:04:21Z</time>
      </trkpt>
      <trkpt lat="43.73896" lon="3.46627">
        <ele>658.4</ele>
        <time>2016-11-06T09:04:26Z</time>
      </trkpt>
      <trkpt lat="43.7389" lon="3.46618">
        <ele>658.6</ele>
        <time>2016-11-06T09:04:30Z</time>
      </trkpt>
      <trkpt lat="43.73884" lon="3.46611">
        <ele>658.7</ele>
        <time>2016-11-06T09:04:34Z</time>
      </trkpt>
      <trkpt lat="43.73877" lon="3.46606">
        <ele>659</ele>
        <time>2016-11-06T09:04:38Z</time>
      </trkpt>
      <trkpt lat="43.73869" lon="3.46601">
        <ele>659.2</ele>
        <time>2016-11-06T09:04:43Z</time>
      </trkpt>
      <trkpt lat="43.73861" lon="3.46596">
        <ele>659.3</ele>
        <time>2016-11-06T09:04:46Z</time>
      </trkpt>
      <trkpt lat="43.73854" lon="3.46589">
        <ele>659.4</ele>
        <time>2016-11-06T09:04:48Z</time>
      </trkpt>
      <trkpt lat="43.73846" lon="3.46577">
        <ele>659.4</ele>
        <time>2016-11-06T09:04:51Z</time>
      </trkpt>
      <trkpt lat="43.73841" lon="3.46565">
        <ele>659.4</ele>
        <time>2016-11-06T09:04:54Z</time>
      </trkpt>
      <trkpt lat="43.7384" lon="3.46551">
        <ele>659.4</ele>
        <time>2016-11-06T09:04:57Z</time>
      </trkpt>
      <trkpt lat="43.73838" lon="3.4654">
        <ele>659.5</ele>
        <time>2016-11-06T09:05:00Z</time>
      </trkpt>
      <trkpt lat="43.73836" lon="3.4653">
        <ele>659.6</ele>
        <time>2016-11-06T09:05:03Z</time>
      </trkpt>
      <trkpt lat="43.73832" lon="3.46521">
        <ele>659.8</ele>
        <time>2016-11-06T09:05:07Z</time>
      </trkpt>
      <trkpt lat="43.73829" lon="3.46511">
        <ele>660.2</ele>
        <time>2016-11-06T09:05:12Z</time>
      </trkpt>
      <trkpt lat="43.73827" lon="3.465">
        <ele>660.6</ele>
        <time>2016-11-06T09:05:16Z</time>
      </trkpt>
      <trkpt lat="43.73822" lon="3.4649">
        <ele>661.2</ele>
        <time>2016-11-06T09:05:21Z</time>
      </trkpt>
      <trkpt lat="43.73818" lon="3.46481">
        <ele>661.6</ele>
        <time>2016-11-06T09:05:25Z</time>
      </trkpt>
      <trkpt lat="43.73812" lon="3.46471">
        <ele>662.2</ele>
        <time>2016-11-06T09:05:30Z</time>
      </trkpt>
      <trkpt lat="43.73805" lon="3.46465">
        <ele>662.9</ele>
        <time>2016-11-06T09:05:32Z</time>
      </trkpt>
      <trkpt lat="43.73796" lon="3.46456">
        <ele>663</ele>
        <time>2016-11-06T09:05:35Z</time>
      </trkpt>
      <trkpt lat="43.73791" lon="3.46447">
        <ele>663.3</ele>
        <time>2016-11-06T09:05:38Z</time>
      </trkpt>
      <trkpt lat="43.73786" lon="3.46437">
        <ele>663.6</ele>
        <time>2016-11-06T09:05:42Z</time>
      </trkpt>
      <trkpt lat="43.73779" lon="3.46428">
        <ele>663.7</ele>
        <time>2016-11-06T09:05:47Z</time>
      </trkpt>
      <trkpt lat="43.73772" lon="3.46419">
        <ele>664</ele>
        <time>2016-11-06T09:05:52Z</time>
      </trkpt>
      <trkpt lat="43.73765" lon="3.46412">
        <ele>664.2</ele>
        <time>2016-11-06T09:05:55Z</time>
      </trkpt>
      <trkpt lat="43.7376" lon="3.46404">
        <ele>664.4</ele>
        <time>2016-11-06T09:05:59Z</time>
      </trkpt>
      <trkpt lat="43.73753" lon="3.46398">
        <ele>664.6</ele>
        <time>2016-11-06T09:06:04Z</time>
      </trkpt>
      <trkpt lat="43.73745" lon="3.46398">
        <ele>664.6</ele>
        <time>2016-11-06T09:06:08Z</time>
      </trkpt>
      <trkpt lat="43.73736" lon="3.46399">
        <ele>664.8</ele>
        <time>2016-11-06T09:06:11Z</time>
      </trkpt>
      <trkpt lat="43.73727" lon="3.46397">
        <ele>664.9</ele>
        <time>2016-11-06T09:06:14Z</time>
      </trkpt>
      <trkpt lat="43.73719" lon="3.46393">
        <ele>665</ele>
        <time>2016-11-06T09:06:17Z</time>
      </trkpt>
      <trkpt lat="43.73711" lon="3.46389">
        <ele>665.2</ele>
        <time>2016-11-06T09:06:21Z</time>
      </trkpt>
      <trkpt lat="43.73704" lon="3.46385">
        <ele>665.4</ele>
        <time>2016-11-06T09:06:25Z</time>
      </trkpt>
      <trkpt lat="43.73696" lon="3.46383">
        <ele>665.4</ele>
        <time>2016-11-06T09:06:29Z</time>
      </trkpt>
      <trkpt lat="43.73687" lon="3.46384">
        <ele>665.5</ele>
        <time>2016-11-06T09:06:34Z</time>
      </trkpt>
      <trkpt lat="43.7368" lon="3.46382">
        <ele>665.8</ele>
        <time>2016-11-06T09:06:37Z</time>
      </trkpt>
      <trkpt lat="43.73673" lon="3.46379">
        <ele>666.4</ele>
        <time>2016-11-06T09:06:41Z</time>
      </trkpt>
      <trkpt lat="43.73675" lon="3.46378">
        <ele>668.7</ele>
        <time>2016-11-06T09:06:57Z</time>
      </trkpt>
      <trkpt lat="43.73672" lon="3.46377">
        <ele>670.5</ele>
        <time>2016-11-06T09:06:24Z</time>
      </trkpt>
      <trkpt lat="43.73673" lon="3.4639">
        <ele>670.5</ele>
        <time>2016-11-06T09:07:56Z</time>
      </trkpt>
      <trkpt lat="43.7368" lon="3.46395">
        <ele>670.5</ele>
        <time>2016-11-06T09:07:59Z</time>
      </trkpt>
      <trkpt lat="43.73686" lon="3.46404">
        <ele>670.6</ele>
        <time>2016-11-06T09:08:02Z</time>
      </trkpt>
      <trkpt lat="43.73689" lon="3.46418">
        <ele>670.4</ele>
        <time>2016-11-06T09:08:05Z</time>
      </trkpt>
      <trkpt lat="43.73696" lon="3.46425">
        <ele>670.3</ele>
        <time>2016-11-06T09:08:08Z</time>
      </trkpt>
      <trkpt lat="43.73702" lon="3.46432">
        <ele>670</ele>
        <time>2016-11-06T09:08:11Z</time>
      </trkpt>
      <trkpt lat="43.73706" lon="3.4644">
        <ele>669.7</ele>
        <time>2016-11-06T09:08:13Z</time>
      </trkpt>
      <trkpt lat="43.73709" lon="3.46452">
        <ele>669.1</ele>
        <time>2016-11-06T09:08:16Z</time>
      </trkpt>
      <trkpt lat="43.73706" lon="3.46462">
        <ele>668</ele>
        <time>2016-11-06T09:08:21Z</time>
      </trkpt>
      <trkpt lat="43.73699" lon="3.46475">
        <ele>665.6</ele>
        <time>2016-11-06T09:08:35Z</time>
      </trkpt>
      <trkpt lat="43.73693" lon="3.46488">
        <ele>664</ele>
        <time>2016-11-06T09:08:48Z</time>
      </trkpt>
      <trkpt lat="43.73688" lon="3.46501">
        <ele>663.5</ele>
        <time>2016-11-06T09:08:51Z</time>
      </trkpt>
      <trkpt lat="43.73685" lon="3.4651">
        <ele>663</ele>
        <time>2016-11-06T09:08:53Z</time>
      </trkpt>
      <trkpt lat="43.73679" lon="3.46521">
        <ele>662.4</ele>
        <time>2016-11-06T09:08:56Z</time>
      </trkpt>
      <trkpt lat="43.73672" lon="3.4653">
        <ele>662</ele>
        <time>2016-11-06T09:08:59Z</time>
      </trkpt>
      <trkpt lat="43.73667" lon="3.46539">
        <ele>661.5</ele>
        <time>2016-11-06T09:09:04Z</time>
      </trkpt>
      <trkpt lat="43.73662" lon="3.46547">
        <ele>661</ele>
        <time>2016-11-06T09:09:09Z</time>
      </trkpt>
      <trkpt lat="43.73656" lon="3.46554">
        <ele>660.4</ele>
        <time>2016-11-06T09:09:14Z</time>
      </trkpt>
      <trkpt lat="43.7365" lon="3.46563">
        <ele>660.1</ele>
        <time>2016-11-06T09:09:18Z</time>
      </trkpt>
      <trkpt lat="43.73644" lon="3.46572">
        <ele>660.1</ele>
        <time>2016-11-06T09:09:22Z</time>
      </trkpt>
      <trkpt lat="43.73637" lon="3.4658">
        <ele>660</ele>
        <time>2016-11-06T09:09:25Z</time>
      </trkpt>
      <trkpt lat="43.73631" lon="3.46586">
        <ele>659.8</ele>
        <time>2016-11-06T09:09:28Z</time>
      </trkpt>
      <trkpt lat="43.73625" lon="3.46592">
        <ele>659.7</ele>
        <time>2016-11-06T09:09:31Z</time>
      </trkpt>
      <trkpt lat="43.73617" lon="3.46598">
        <ele>659.5</ele>
        <time>2016-11-06T09:09:35Z</time>
      </trkpt>
      <trkpt lat="43.73609" lon="3.46602">
        <ele>659.3</ele>
        <time>2016-11-06T09:09:39Z</time>
      </trkpt>
      <trkpt lat="43.73601" lon="3.46607">
        <ele>659.1</ele>
        <time>2016-11-06T09:09:44Z</time>
      </trkpt>
      <trkpt lat="43.73592" lon="3.4661">
        <ele>659.1</ele>
        <time>2016-11-06T09:09:49Z</time>
      </trkpt>
      <trkpt lat="43.73584" lon="3.4661">
        <ele>659</ele>
        <time>2016-11-06T09:09:56Z</time>
      </trkpt>
      <trkpt lat="43.73577" lon="3.46609">
        <ele>659</ele>
        <time>2016-11-06T09:10:00Z</time>
      </trkpt>
      <trkpt lat="43.73574" lon="3.46607">
        <ele>659.3</ele>
        <time>2016-11-06T09:10:07Z</time>
      </trkpt>
      <trkpt lat="43.73566" lon="3.46601">
        <ele>659.4</ele>
        <time>2016-11-06T09:10:21Z</time>
      </trkpt>
      <trkpt lat="43.7356" lon="3.46607">
        <ele>659.1</ele>
        <time>2016-11-06T09:10:25Z</time>
      </trkpt>
      <trkpt lat="43.73552" lon="3.46608">
        <ele>658.9</ele>
        <time>2016-11-06T09:10:28Z</time>
      </trkpt>
      <trkpt lat="43.73544" lon="3.4661">
        <ele>658.2</ele>
        <time>2016-11-06T09:10:34Z</time>
      </trkpt>
      <trkpt lat="43.73537" lon="3.46613">
        <ele>656.9</ele>
        <time>2016-11-06T09:10:41Z</time>
      </trkpt>
      <trkpt lat="43.7353" lon="3.46619">
        <ele>655.2</ele>
        <time>2016-11-06T09:10:47Z</time>
      </trkpt>
      <trkpt lat="43.73526" lon="3.46627">
        <ele>654.4</ele>
        <time>2016-11-06T09:10:50Z</time>
      </trkpt>
      <trkpt lat="43.7352" lon="3.46634">
        <ele>653.4</ele>
        <time>2016-11-06T09:10:53Z</time>
      </trkpt>
      <trkpt lat="43.73512" lon="3.46641">
        <ele>652.5</ele>
        <time>2016-11-06T09:10:56Z</time>
      </trkpt>
      <trkpt lat="43.73505" lon="3.46648">
        <ele>648.8</ele>
        <time>2016-11-06T09:10:58Z</time>
      </trkpt>
      <trkpt lat="43.73497" lon="3.46654">
        <ele>642.8</ele>
        <time>2016-11-06T09:11:00Z</time>
      </trkpt>
      <trkpt lat="43.73489" lon="3.4666">
        <ele>642.3</ele>
        <time>2016-11-06T09:11:02Z</time>
      </trkpt>
      <trkpt lat="43.73482" lon="3.46663">
        <ele>641.9</ele>
        <time>2016-11-06T09:11:04Z</time>
      </trkpt>
      <trkpt lat="43.73473" lon="3.46667">
        <ele>641.2</ele>
        <time>2016-11-06T09:11:07Z</time>
      </trkpt>
      <trkpt lat="43.73463" lon="3.46669">
        <ele>640.5</ele>
        <time>2016-11-06T09:11:10Z</time>
      </trkpt>
      <trkpt lat="43.73456" lon="3.46673">
        <ele>639.7</ele>
        <time>2016-11-06T09:11:13Z</time>
      </trkpt>
      <trkpt lat="43.73447" lon="3.46678">
        <ele>638.8</ele>
        <time>2016-11-06T09:11:16Z</time>
      </trkpt>
      <trkpt lat="43.7344" lon="3.46683">
        <ele>637.9</ele>
        <time>2016-11-06T09:11:19Z</time>
      </trkpt>
      <trkpt lat="43.73433" lon="3.46684">
        <ele>637.2</ele>
        <time>2016-11-06T09:11:21Z</time>
      </trkpt>
      <trkpt lat="43.73423" lon="3.46687">
        <ele>636.2</ele>
        <time>2016-11-06T09:11:24Z</time>
      </trkpt>
      <trkpt lat="43.73414" lon="3.4669">
        <ele>635.1</ele>
        <time>2016-11-06T09:11:28Z</time>
      </trkpt>
      <trkpt lat="43.73406" lon="3.46692">
        <ele>633.9</ele>
        <time>2016-11-06T09:11:32Z</time>
      </trkpt>
      <trkpt lat="43.73399" lon="3.46692">
        <ele>633.1</ele>
        <time>2016-11-06T09:11:35Z</time>
      </trkpt>
      <trkpt lat="43.7339" lon="3.46694">
        <ele>632.5</ele>
        <time>2016-11-06T09:11:37Z</time>
      </trkpt>
      <trkpt lat="43.73382" lon="3.46696">
        <ele>631.9</ele>
        <time>2016-11-06T09:11:39Z</time>
      </trkpt>
      <trkpt lat="43.73373" lon="3.467">
        <ele>630.7</ele>
        <time>2016-11-06T09:11:43Z</time>
      </trkpt>
      <trkpt lat="43.73366" lon="3.46703">
        <ele>629.6</ele>
        <time>2016-11-06T09:11:46Z</time>
      </trkpt>
      <trkpt lat="43.73355" lon="3.46709">
        <ele>628.6</ele>
        <time>2016-11-06T09:11:49Z</time>
      </trkpt>
      <trkpt lat="43.73347" lon="3.4671">
        <ele>627.8</ele>
        <time>2016-11-06T09:11:51Z</time>
      </trkpt>
      <trkpt lat="43.73334" lon="3.46703">
        <ele>622.9</ele>
        <time>2016-11-06T09:12:04Z</time>
      </trkpt>
      <trkpt lat="43.73339" lon="3.46695">
        <ele>621.6</ele>
        <time>2016-11-06T09:12:08Z</time>
      </trkpt>
      <trkpt lat="43.73336" lon="3.46683">
        <ele>619.7</ele>
        <time>2016-11-06T09:12:13Z</time>
      </trkpt>
      <trkpt lat="43.73344" lon="3.46676">
        <ele>618</ele>
        <time>2016-11-06T09:12:18Z</time>
      </trkpt>
      <trkpt lat="43.7335" lon="3.46669">
        <ele>617.4</ele>
        <time>2016-11-06T09:12:20Z</time>
      </trkpt>
      <trkpt lat="43.73357" lon="3.46662">
        <ele>616.5</ele>
        <time>2016-11-06T09:12:23Z</time>
      </trkpt>
      <trkpt lat="43.73366" lon="3.46657">
        <ele>615.5</ele>
        <time>2016-11-06T09:12:26Z</time>
      </trkpt>
      <trkpt lat="43.73376" lon="3.46651">
        <ele>610.2</ele>
        <time>2016-11-06T09:12:30Z</time>
      </trkpt>
      <trkpt lat="43.73385" lon="3.46645">
        <ele>606.3</ele>
        <time>2016-11-06T09:12:32Z</time>
      </trkpt>
      <trkpt lat="43.73391" lon="3.46639">
        <ele>603.6</ele>
        <time>2016-11-06T09:12:35Z</time>
      </trkpt>
      <trkpt lat="43.73399" lon="3.46637">
        <ele>602.5</ele>
        <time>2016-11-06T09:12:40Z</time>
      </trkpt>
      <trkpt lat="43.73402" lon="3.46634">
        <ele>601.7</ele>
        <time>2016-11-06T09:12:47Z</time>
      </trkpt>
      <trkpt lat="43.73401" lon="3.46622">
        <ele>600.6</ele>
        <time>2016-11-06T09:12:56Z</time>
      </trkpt>
      <trkpt lat="43.73399" lon="3.46611">
        <ele>599.8</ele>
        <time>2016-11-06T09:12:59Z</time>
      </trkpt>
      <trkpt lat="43.73395" lon="3.46599">
        <ele>598.7</ele>
        <time>2016-11-06T09:13:02Z</time>
      </trkpt>
      <trkpt lat="43.73391" lon="3.46591">
        <ele>597.9</ele>
        <time>2016-11-06T09:13:04Z</time>
      </trkpt>
      <trkpt lat="43.73387" lon="3.4658">
        <ele>593.6</ele>
        <time>2016-11-06T09:13:06Z</time>
      </trkpt>
      <trkpt lat="43.7338" lon="3.46568">
        <ele>589.3</ele>
        <time>2016-11-06T09:13:09Z</time>
      </trkpt>
      <trkpt lat="43.73374" lon="3.46559">
        <ele>583.7</ele>
        <time>2016-11-06T09:13:11Z</time>
      </trkpt>
      <trkpt lat="43.73367" lon="3.46552">
        <ele>578.8</ele>
        <time>2016-11-06T09:13:13Z</time>
      </trkpt>
      <trkpt lat="43.73359" lon="3.46541">
        <ele>575.2</ele>
        <time>2016-11-06T09:13:15Z</time>
      </trkpt>
      <trkpt lat="43.73351" lon="3.46529">
        <ele>572.2</ele>
        <time>2016-11-06T09:13:17Z</time>
      </trkpt>
      <trkpt lat="43.73344" lon="3.46518">
        <ele>569.6</ele>
        <time>2016-11-06T09:13:19Z</time>
      </trkpt>
      <trkpt lat="43.73337" lon="3.46506">
        <ele>566</ele>
        <time>2016-11-06T09:13:21Z</time>
      </trkpt>
      <trkpt lat="43.73329" lon="3.46493">
        <ele>563.2</ele>
        <time>2016-11-06T09:13:23Z</time>
      </trkpt>
      <trkpt lat="43.73322" lon="3.46483">
        <ele>561.7</ele>
        <time>2016-11-06T09:13:25Z</time>
      </trkpt>
      <trkpt lat="43.73316" lon="3.46472">
        <ele>561</ele>
        <time>2016-11-06T09:13:27Z</time>
      </trkpt>
      <trkpt lat="43.7331" lon="3.46459">
        <ele>559.3</ele>
        <time>2016-11-06T09:13:29Z</time>
      </trkpt>
      <trkpt lat="43.73306" lon="3.46449">
        <ele>558.1</ele>
        <time>2016-11-06T09:13:31Z</time>
      </trkpt>
      <trkpt lat="43.733" lon="3.46439">
        <ele>556.8</ele>
        <time>2016-11-06T09:13:34Z</time>
      </trkpt>
      <trkpt lat="43.73296" lon="3.46429">
        <ele>555.7</ele>
        <time>2016-11-06T09:13:36Z</time>
      </trkpt>
      <trkpt lat="43.73291" lon="3.4642">
        <ele>554.2</ele>
        <time>2016-11-06T09:13:38Z</time>
      </trkpt>
      <trkpt lat="43.73283" lon="3.46413">
        <ele>552.1</ele>
        <time>2016-11-06T09:13:41Z</time>
      </trkpt>
      <trkpt lat="43.73273" lon="3.4641">
        <ele>550.8</ele>
        <time>2016-11-06T09:13:44Z</time>
      </trkpt>
      <trkpt lat="43.73264" lon="3.46406">
        <ele>548.1</ele>
        <time>2016-11-06T09:13:46Z</time>
      </trkpt>
      <trkpt lat="43.73257" lon="3.46404">
        <ele>547.2</ele>
        <time>2016-11-06T09:13:48Z</time>
      </trkpt>
      <trkpt lat="43.7325" lon="3.46399">
        <ele>546.9</ele>
        <time>2016-11-06T09:13:50Z</time>
      </trkpt>
      <trkpt lat="43.73245" lon="3.46395">
        <ele>544.7</ele>
        <time>2016-11-06T09:14:04Z</time>
      </trkpt>
      <trkpt lat="43.73248" lon="3.46398">
        <ele>542.9</ele>
        <time>2016-11-06T09:15:06Z</time>
      </trkpt>
      <trkpt lat="43.73255" lon="3.46408">
        <ele>541.5</ele>
        <time>2016-11-06T09:15:18Z</time>
      </trkpt>
      <trkpt lat="43.7326" lon="3.46418">
        <ele>538.5</ele>
        <time>2016-11-06T09:15:20Z</time>
      </trkpt>
      <trkpt lat="43.73262" lon="3.46431">
        <ele>536.9</ele>
        <time>2016-11-06T09:15:22Z</time>
      </trkpt>
      <trkpt lat="43.73265" lon="3.46446">
        <ele>535.4</ele>
        <time>2016-11-06T09:15:24Z</time>
      </trkpt>
      <trkpt lat="43.73268" lon="3.4646">
        <ele>533.5</ele>
        <time>2016-11-06T09:15:26Z</time>
      </trkpt>
      <trkpt lat="43.7327" lon="3.46476">
        <ele>531.4</ele>
        <time>2016-11-06T09:15:28Z</time>
      </trkpt>
      <trkpt lat="43.73272" lon="3.46495">
        <ele>530</ele>
        <time>2016-11-06T09:15:30Z</time>
      </trkpt>
      <trkpt lat="43.73271" lon="3.46513">
        <ele>528.9</ele>
        <time>2016-11-06T09:15:32Z</time>
      </trkpt>
      <trkpt lat="43.73268" lon="3.46524">
        <ele>528.1</ele>
        <time>2016-11-06T09:15:34Z</time>
      </trkpt>
      <trkpt lat="43.73261" lon="3.46531">
        <ele>527.7</ele>
        <time>2016-11-06T09:15:38Z</time>
      </trkpt>
      <trkpt lat="43.73254" lon="3.46535">
        <ele>527.3</ele>
        <time>2016-11-06T09:15:42Z</time>
      </trkpt>
      <trkpt lat="43.73246" lon="3.46538">
        <ele>527.1</ele>
        <time>2016-11-06T09:15:44Z</time>
      </trkpt>
      <trkpt lat="43.73236" lon="3.4654">
        <ele>524.8</ele>
        <time>2016-11-06T09:15:46Z</time>
      </trkpt>
      <trkpt lat="43.73225" lon="3.46542">
        <ele>522.8</ele>
        <time>2016-11-06T09:15:48Z</time>
      </trkpt>
      <trkpt lat="43.73213" lon="3.46546">
        <ele>521.1</ele>
        <time>2016-11-06T09:15:50Z</time>
      </trkpt>
      <trkpt lat="43.73204" lon="3.46549">
        <ele>519.7</ele>
        <time>2016-11-06T09:15:52Z</time>
      </trkpt>
      <trkpt lat="43.73198" lon="3.46555">
        <ele>517.9</ele>
        <time>2016-11-06T09:15:54Z</time>
      </trkpt>
      <trkpt lat="43.73191" lon="3.46561">
        <ele>516.7</ele>
        <time>2016-11-06T09:15:56Z</time>
      </trkpt>
      <trkpt lat="43.73181" lon="3.4657">
        <ele>514.6</ele>
        <time>2016-11-06T09:15:59Z</time>
      </trkpt>
      <trkpt lat="43.73173" lon="3.46575">
        <ele>512.8</ele>
        <time>2016-11-06T09:16:01Z</time>
      </trkpt>
      <trkpt lat="43.73163" lon="3.46577">
        <ele>511.9</ele>
        <time>2016-11-06T09:16:03Z</time>
      </trkpt>
      <trkpt lat="43.73155" lon="3.46582">
        <ele>511.2</ele>
        <time>2016-11-06T09:16:05Z</time>
      </trkpt>
      <trkpt lat="43.73146" lon="3.46588">
        <ele>510.3</ele>
        <time>2016-11-06T09:16:07Z</time>
      </trkpt>
      <trkpt lat="43.73136" lon="3.46595">
        <ele>509.2</ele>
        <time>2016-11-06T09:16:09Z</time>
      </trkpt>
      <trkpt lat="43.73128" lon="3.46602">
        <ele>509.2</ele>
        <time>2016-11-06T09:16:11Z</time>
      </trkpt>
      <trkpt lat="43.7312" lon="3.4661">
        <ele>508.4</ele>
        <time>2016-11-06T09:16:13Z</time>
      </trkpt>
      <trkpt lat="43.73115" lon="3.46619">
        <ele>507.5</ele>
        <time>2016-11-06T09:16:15Z</time>
      </trkpt>
      <trkpt lat="43.73109" lon="3.46628">
        <ele>506</ele>
        <time>2016-11-06T09:16:17Z</time>
      </trkpt>
      <trkpt lat="43.73101" lon="3.46634">
        <ele>504</ele>
        <time>2016-11-06T09:16:19Z</time>
      </trkpt>
      <trkpt lat="43.7309" lon="3.46641">
        <ele>502.3</ele>
        <time>2016-11-06T09:16:21Z</time>
      </trkpt>
      <trkpt lat="43.73079" lon="3.46646">
        <ele>501.7</ele>
        <time>2016-11-06T09:16:23Z</time>
      </trkpt>
      <trkpt lat="43.73068" lon="3.46651">
        <ele>500.5</ele>
        <time>2016-11-06T09:16:25Z</time>
      </trkpt>
      <trkpt lat="43.73059" lon="3.46656">
        <ele>499</ele>
        <time>2016-11-06T09:16:27Z</time>
      </trkpt>
      <trkpt lat="43.7305" lon="3.46661">
        <ele>497.9</ele>
        <time>2016-11-06T09:16:29Z</time>
      </trkpt>
      <trkpt lat="43.73041" lon="3.46665">
        <ele>495.8</ele>
        <time>2016-11-06T09:16:31Z</time>
      </trkpt>
      <trkpt lat="43.73029" lon="3.46668">
        <ele>493.5</ele>
        <time>2016-11-06T09:16:33Z</time>
      </trkpt>
      <trkpt lat="43.73016" lon="3.46671">
        <ele>491.8</ele>
        <time>2016-11-06T09:16:35Z</time>
      </trkpt>
      <trkpt lat="43.73005" lon="3.46673">
        <ele>490.9</ele>
        <time>2016-11-06T09:16:37Z</time>
      </trkpt>
      <trkpt lat="43.72999" lon="3.46679">
        <ele>490</ele>
        <time>2016-11-06T09:16:39Z</time>
      </trkpt>
      <trkpt lat="43.72996" lon="3.4669">
        <ele>490</ele>
        <time>2016-11-06T09:16:41Z</time>
      </trkpt>
      <trkpt lat="43.72999" lon="3.467">
        <ele>489.6</ele>
        <time>2016-11-06T09:16:43Z</time>
      </trkpt>
      <trkpt lat="43.73005" lon="3.4671">
        <ele>487.4</ele>
        <time>2016-11-06T09:16:45Z</time>
      </trkpt>
      <trkpt lat="43.73013" lon="3.46724">
        <ele>484.9</ele>
        <time>2016-11-06T09:16:47Z</time>
      </trkpt>
      <trkpt lat="43.73022" lon="3.46736">
        <ele>483.3</ele>
        <time>2016-11-06T09:16:49Z</time>
      </trkpt>
      <trkpt lat="43.7303" lon="3.46748">
        <ele>481.6</ele>
        <time>2016-11-06T09:16:51Z</time>
      </trkpt>
      <trkpt lat="43.73037" lon="3.46759">
        <ele>480.9</ele>
        <time>2016-11-06T09:16:53Z</time>
      </trkpt>
      <trkpt lat="43.73044" lon="3.46772">
        <ele>479.8</ele>
        <time>2016-11-06T09:16:55Z</time>
      </trkpt>
      <trkpt lat="43.73045" lon="3.46782">
        <ele>479.8</ele>
        <time>2016-11-06T09:16:57Z</time>
      </trkpt>
      <trkpt lat="43.73039" lon="3.46791">
        <ele>479.4</ele>
        <time>2016-11-06T09:17:01Z</time>
      </trkpt>
      <trkpt lat="43.73031" lon="3.46792">
        <ele>479.1</ele>
        <time>2016-11-06T09:17:04Z</time>
      </trkpt>
      <trkpt lat="43.73021" lon="3.46792">
        <ele>478.4</ele>
        <time>2016-11-06T09:17:08Z</time>
      </trkpt>
      <trkpt lat="43.73013" lon="3.4679">
        <ele>478</ele>
        <time>2016-11-06T09:17:11Z</time>
      </trkpt>
      <trkpt lat="43.73005" lon="3.46789">
        <ele>477.7</ele>
        <time>2016-11-06T09:17:13Z</time>
      </trkpt>
      <trkpt lat="43.72995" lon="3.46789">
        <ele>477.3</ele>
        <time>2016-11-06T09:17:16Z</time>
      </trkpt>
      <trkpt lat="43.72987" lon="3.46788">
        <ele>476.7</ele>
        <time>2016-11-06T09:17:19Z</time>
      </trkpt>
      <trkpt lat="43.72983" lon="3.46788">
        <ele>476.4</ele>
        <time>2016-11-06T09:17:26Z</time>
      </trkpt>
      <trkpt lat="43.72975" lon="3.46789">
        <ele>476.3</ele>
        <time>2016-11-06T09:17:44Z</time>
      </trkpt>
      <trkpt lat="43.72967" lon="3.4679">
        <ele>473.3</ele>
        <time>2016-11-06T09:17:46Z</time>
      </trkpt>
      <trkpt lat="43.72957" lon="3.46791">
        <ele>471</ele>
        <time>2016-11-06T09:17:48Z</time>
      </trkpt>
      <trkpt lat="43.72945" lon="3.46788">
        <ele>468.1</ele>
        <time>2016-11-06T09:17:50Z</time>
      </trkpt>
      <trkpt lat="43.72931" lon="3.46789">
        <ele>466.6</ele>
        <time>2016-11-06T09:17:52Z</time>
      </trkpt>
      <trkpt lat="43.7292" lon="3.4679">
        <ele>464.3</ele>
        <time>2016-11-06T09:17:54Z</time>
      </trkpt>
      <trkpt lat="43.72907" lon="3.46789">
        <ele>462.5</ele>
        <time>2016-11-06T09:17:56Z</time>
      </trkpt>
      <trkpt lat="43.72896" lon="3.46784">
        <ele>462.2</ele>
        <time>2016-11-06T09:17:58Z</time>
      </trkpt>
      <trkpt lat="43.72886" lon="3.46781">
        <ele>461.2</ele>
        <time>2016-11-06T09:18:01Z</time>
      </trkpt>
      <trkpt lat="43.72878" lon="3.46781">
        <ele>460.5</ele>
        <time>2016-11-06T09:18:03Z</time>
      </trkpt>
      <trkpt lat="43.72868" lon="3.4678">
        <ele>458.7</ele>
        <time>2016-11-06T09:18:06Z</time>
      </trkpt>
      <trkpt lat="43.72858" lon="3.46781">
        <ele>458.7</ele>
        <time>2016-11-06T09:18:09Z</time>
      </trkpt>
      <trkpt lat="43.7285" lon="3.46781">
        <ele>456.8</ele>
        <time>2016-11-06T09:18:11Z</time>
      </trkpt>
      <trkpt lat="43.7284" lon="3.46779">
        <ele>455.2</ele>
        <time>2016-11-06T09:18:13Z</time>
      </trkpt>
      <trkpt lat="43.7283" lon="3.46781">
        <ele>454.4</ele>
        <time>2016-11-06T09:18:15Z</time>
      </trkpt>
      <trkpt lat="43.72823" lon="3.46781">
        <ele>452.5</ele>
        <time>2016-11-06T09:18:17Z</time>
      </trkpt>
      <trkpt lat="43.72814" lon="3.46779">
        <ele>452.3</ele>
        <time>2016-11-06T09:18:20Z</time>
      </trkpt>
      <trkpt lat="43.72813" lon="3.46775">
        <ele>452.2</ele>
        <time>2016-11-06T09:18:27Z</time>
      </trkpt>
      <trkpt lat="43.7281" lon="3.46765">
        <ele>451.3</ele>
        <time>2016-11-06T09:20:19Z</time>
      </trkpt>
      <trkpt lat="43.72802" lon="3.46759">
        <ele>451.2</ele>
        <time>2016-11-06T09:20:22Z</time>
      </trkpt>
      <trkpt lat="43.72796" lon="3.46754">
        <ele>450.8</ele>
        <time>2016-11-06T09:20:24Z</time>
      </trkpt>
      <trkpt lat="43.72789" lon="3.46751">
        <ele>450.7</ele>
        <time>2016-11-06T09:20:26Z</time>
      </trkpt>
      <trkpt lat="43.72782" lon="3.46746">
        <ele>450</ele>
        <time>2016-11-06T09:20:28Z</time>
      </trkpt>
      <trkpt lat="43.72775" lon="3.46741">
        <ele>449.4</ele>
        <time>2016-11-06T09:20:30Z</time>
      </trkpt>
      <trkpt lat="43.72768" lon="3.46735">
        <ele>449.3</ele>
        <time>2016-11-06T09:20:32Z</time>
      </trkpt>
      <trkpt lat="43.72759" lon="3.46727">
        <ele>449.5</ele>
        <time>2016-11-06T09:20:35Z</time>
      </trkpt>
      <trkpt lat="43.72752" lon="3.46723">
        <ele>450.3</ele>
        <time>2016-11-06T09:20:37Z</time>
      </trkpt>
      <trkpt lat="43.72745" lon="3.46718">
        <ele>450.8</ele>
        <time>2016-11-06T09:20:39Z</time>
      </trkpt>
      <trkpt lat="43.72738" lon="3.46711">
        <ele>450.9</ele>
        <time>2016-11-06T09:20:42Z</time>
      </trkpt>
      <trkpt lat="43.72728" lon="3.46702">
        <ele>450.9</ele>
        <time>2016-11-06T09:20:45Z</time>
      </trkpt>
      <trkpt lat="43.7272" lon="3.46694">
        <ele>451.1</ele>
        <time>2016-11-06T09:20:48Z</time>
      </trkpt>
      <trkpt lat="43.72711" lon="3.46695">
        <ele>451</ele>
        <time>2016-11-06T09:20:52Z</time>
      </trkpt>
      <trkpt lat="43.72706" lon="3.46703">
        <ele>451.1</ele>
        <time>2016-11-06T09:20:57Z</time>
      </trkpt>
      <trkpt lat="43.72701" lon="3.46713">
        <ele>450.9</ele>
        <time>2016-11-06T09:21:01Z</time>
      </trkpt>
      <trkpt lat="43.72697" lon="3.46725">
        <ele>450.8</ele>
        <time>2016-11-06T09:21:05Z</time>
      </trkpt>
      <trkpt lat="43.72693" lon="3.46738">
        <ele>451.7</ele>
        <time>2016-11-06T09:21:08Z</time>
      </trkpt>
      <trkpt lat="43.72691" lon="3.46749">
        <ele>452.5</ele>
        <time>2016-11-06T09:21:10Z</time>
      </trkpt>
      <trkpt lat="43.72688" lon="3.46759">
        <ele>452.8</ele>
        <time>2016-11-06T09:21:12Z</time>
      </trkpt>
      <trkpt lat="43.72687" lon="3.4677">
        <ele>452.5</ele>
        <time>2016-11-06T09:21:14Z</time>
      </trkpt>
      <trkpt lat="43.72688" lon="3.46779">
        <ele>452.5</ele>
        <time>2016-11-06T09:21:16Z</time>
      </trkpt>
      <trkpt lat="43.7269" lon="3.46791">
        <ele>451.7</ele>
        <time>2016-11-06T09:21:18Z</time>
      </trkpt>
      <trkpt lat="43.72692" lon="3.46804">
        <ele>451.3</ele>
        <time>2016-11-06T09:21:20Z</time>
      </trkpt>
      <trkpt lat="43.72691" lon="3.46816">
        <ele>451</ele>
        <time>2016-11-06T09:21:22Z</time>
      </trkpt>
      <trkpt lat="43.72687" lon="3.46829">
        <ele>451.1</ele>
        <time>2016-11-06T09:21:24Z</time>
      </trkpt>
      <trkpt lat="43.72684" lon="3.4684">
        <ele>451</ele>
        <time>2016-11-06T09:21:26Z</time>
      </trkpt>
      <trkpt lat="43.72678" lon="3.46853">
        <ele>450.9</ele>
        <time>2016-11-06T09:21:29Z</time>
      </trkpt>
      <trkpt lat="43.72672" lon="3.46859">
        <ele>451</ele>
        <time>2016-11-06T09:21:31Z</time>
      </trkpt>
      <trkpt lat="43.72663" lon="3.46867">
        <ele>451.1</ele>
        <time>2016-11-06T09:21:35Z</time>
      </trkpt>
      <trkpt lat="43.72657" lon="3.46877">
        <ele>451.1</ele>
        <time>2016-11-06T09:21:38Z</time>
      </trkpt>
      <trkpt lat="43.72652" lon="3.46885">
        <ele>451.3</ele>
        <time>2016-11-06T09:21:41Z</time>
      </trkpt>
      <trkpt lat="43.72645" lon="3.46892">
        <ele>451.4</ele>
        <time>2016-11-06T09:21:43Z</time>
      </trkpt>
      <trkpt lat="43.72637" lon="3.469">
        <ele>451.6</ele>
        <time>2016-11-06T09:21:46Z</time>
      </trkpt>
      <trkpt lat="43.72632" lon="3.46908">
        <ele>451.5</ele>
        <time>2016-11-06T09:21:49Z</time>
      </trkpt>
      <trkpt lat="43.72627" lon="3.46917">
        <ele>451.5</ele>
        <time>2016-11-06T09:21:52Z</time>
      </trkpt>
      <trkpt lat="43.72623" lon="3.46928">
        <ele>451.9</ele>
        <time>2016-11-06T09:21:56Z</time>
      </trkpt>
      <trkpt lat="43.72619" lon="3.46938">
        <ele>452.1</ele>
        <time>2016-11-06T09:21:59Z</time>
      </trkpt>
      <trkpt lat="43.72614" lon="3.46951">
        <ele>452.3</ele>
        <time>2016-11-06T09:22:02Z</time>
      </trkpt>
      <trkpt lat="43.72607" lon="3.46964">
        <ele>452.4</ele>
        <time>2016-11-06T09:22:05Z</time>
      </trkpt>
      <trkpt lat="43.72602" lon="3.4697">
        <ele>452.5</ele>
        <time>2016-11-06T09:22:08Z</time>
      </trkpt>
      <trkpt lat="43.72593" lon="3.46976">
        <ele>452.9</ele>
        <time>2016-11-06T09:22:12Z</time>
      </trkpt>
      <trkpt lat="43.72584" lon="3.46983">
        <ele>453.1</ele>
        <time>2016-11-06T09:22:15Z</time>
      </trkpt>
      <trkpt lat="43.72579" lon="3.4699">
        <ele>453.4</ele>
        <time>2016-11-06T09:22:18Z</time>
      </trkpt>
      <trkpt lat="43.72573" lon="3.46997">
        <ele>453.7</ele>
        <time>2016-11-06T09:22:21Z</time>
      </trkpt>
      <trkpt lat="43.72567" lon="3.47003">
        <ele>453.8</ele>
        <time>2016-11-06T09:22:24Z</time>
      </trkpt>
      <trkpt lat="43.72558" lon="3.47007">
        <ele>454</ele>
        <time>2016-11-06T09:22:27Z</time>
      </trkpt>
      <trkpt lat="43.7255" lon="3.47008">
        <ele>454.3</ele>
        <time>2016-11-06T09:22:30Z</time>
      </trkpt>
      <trkpt lat="43.72543" lon="3.47014">
        <ele>454.4</ele>
        <time>2016-11-06T09:22:33Z</time>
      </trkpt>
      <trkpt lat="43.72536" lon="3.47017">
        <ele>454.7</ele>
        <time>2016-11-06T09:22:36Z</time>
      </trkpt>
      <trkpt lat="43.72528" lon="3.47024">
        <ele>455.1</ele>
        <time>2016-11-06T09:22:41Z</time>
      </trkpt>
      <trkpt lat="43.72521" lon="3.4703">
        <ele>455.3</ele>
        <time>2016-11-06T09:22:44Z</time>
      </trkpt>
      <trkpt lat="43.72512" lon="3.47034">
        <ele>455.6</ele>
        <time>2016-11-06T09:22:47Z</time>
      </trkpt>
      <trkpt lat="43.72504" lon="3.4704">
        <ele>455.9</ele>
        <time>2016-11-06T09:22:51Z</time>
      </trkpt>
      <trkpt lat="43.72497" lon="3.47046">
        <ele>456.4</ele>
        <time>2016-11-06T09:22:56Z</time>
      </trkpt>
      <trkpt lat="43.72491" lon="3.47054">
        <ele>456.8</ele>
        <time>2016-11-06T09:23:00Z</time>
      </trkpt>
      <trkpt lat="43.72485" lon="3.4706">
        <ele>456.9</ele>
        <time>2016-11-06T09:23:03Z</time>
      </trkpt>
      <trkpt lat="43.72478" lon="3.47066">
        <ele>456.9</ele>
        <time>2016-11-06T09:23:06Z</time>
      </trkpt>
      <trkpt lat="43.72472" lon="3.47072">
        <ele>457</ele>
        <time>2016-11-06T09:23:09Z</time>
      </trkpt>
      <trkpt lat="43.7247" lon="3.47074">
        <ele>457.4</ele>
        <time>2016-11-06T09:23:16Z</time>
      </trkpt>
      <trkpt lat="43.72469" lon="3.4707">
        <ele>457.3</ele>
        <time>2016-11-06T09:23:23Z</time>
      </trkpt>
      <trkpt lat="43.72467" lon="3.4707">
        <ele>458.7</ele>
        <time>2016-11-06T09:24:19Z</time>
      </trkpt>
      <trkpt lat="43.72469" lon="3.47068">
        <ele>458.8</ele>
        <time>2016-11-06T09:31:48Z</time>
      </trkpt>
      <trkpt lat="43.72474" lon="3.47065">
        <ele>458.7</ele>
        <time>2016-11-06T09:31:55Z</time>
      </trkpt>
      <trkpt lat="43.72481" lon="3.47059">
        <ele>458.7</ele>
        <time>2016-11-06T09:31:58Z</time>
      </trkpt>
      <trkpt lat="43.72488" lon="3.47055">
        <ele>458.5</ele>
        <time>2016-11-06T09:32:01Z</time>
      </trkpt>
      <trkpt lat="43.72495" lon="3.47048">
        <ele>458.2</ele>
        <time>2016-11-06T09:32:04Z</time>
      </trkpt>
      <trkpt lat="43.725" lon="3.47041">
        <ele>458</ele>
        <time>2016-11-06T09:32:08Z</time>
      </trkpt>
      <trkpt lat="43.72507" lon="3.47034">
        <ele>458</ele>
        <time>2016-11-06T09:32:12Z</time>
      </trkpt>
      <trkpt lat="43.72516" lon="3.47027">
        <ele>458</ele>
        <time>2016-11-06T09:32:15Z</time>
      </trkpt>
      <trkpt lat="43.72523" lon="3.47022">
        <ele>458.1</ele>
        <time>2016-11-06T09:32:18Z</time>
      </trkpt>
      <trkpt lat="43.72529" lon="3.47014">
        <ele>458.2</ele>
        <time>2016-11-06T09:32:22Z</time>
      </trkpt>
      <trkpt lat="43.72533" lon="3.47012">
        <ele>458.2</ele>
        <time>2016-11-06T09:32:29Z</time>
      </trkpt>
      <trkpt lat="43.72535" lon="3.47012">
        <ele>456.9</ele>
        <time>2016-11-06T09:32:54Z</time>
      </trkpt>
      <trkpt lat="43.72531" lon="3.47017">
        <ele>457</ele>
        <time>2016-11-06T09:34:01Z</time>
      </trkpt>
      <trkpt lat="43.72531" lon="3.47019">
        <ele>459.1</ele>
        <time>2016-11-06T09:37:09Z</time>
      </trkpt>
      <trkpt lat="43.72526" lon="3.47024">
        <ele>459.4</ele>
        <time>2016-11-06T09:37:16Z</time>
      </trkpt>
      <trkpt lat="43.72519" lon="3.47029">
        <ele>459.7</ele>
        <time>2016-11-06T09:37:21Z</time>
      </trkpt>
      <trkpt lat="43.72512" lon="3.47035">
        <ele>459.7</ele>
        <time>2016-11-06T09:37:24Z</time>
      </trkpt>
      <trkpt lat="43.72505" lon="3.47041">
        <ele>459.9</ele>
        <time>2016-11-06T09:37:28Z</time>
      </trkpt>
      <trkpt lat="43.72498" lon="3.47046">
        <ele>460</ele>
        <time>2016-11-06T09:37:32Z</time>
      </trkpt>
      <trkpt lat="43.72491" lon="3.47054">
        <ele>460.1</ele>
        <time>2016-11-06T09:37:35Z</time>
      </trkpt>
      <trkpt lat="43.72486" lon="3.47059">
        <ele>460.2</ele>
        <time>2016-11-06T09:37:37Z</time>
      </trkpt>
      <trkpt lat="43.72479" lon="3.47066">
        <ele>460.3</ele>
        <time>2016-11-06T09:37:40Z</time>
      </trkpt>
      <trkpt lat="43.72471" lon="3.47075">
        <ele>460.3</ele>
        <time>2016-11-06T09:37:43Z</time>
      </trkpt>
      <trkpt lat="43.72464" lon="3.47082">
        <ele>460.2</ele>
        <time>2016-11-06T09:37:45Z</time>
      </trkpt>
      <trkpt lat="43.72457" lon="3.47089">
        <ele>460.1</ele>
        <time>2016-11-06T09:37:47Z</time>
      </trkpt>
      <trkpt lat="43.72446" lon="3.47096">
        <ele>460</ele>
        <time>2016-11-06T09:37:50Z</time>
      </trkpt>
      <trkpt lat="43.72436" lon="3.47097">
        <ele>459.6</ele>
        <time>2016-11-06T09:37:52Z</time>
      </trkpt>
      <trkpt lat="43.72427" lon="3.47102">
        <ele>458.9</ele>
        <time>2016-11-06T09:37:54Z</time>
      </trkpt>
      <trkpt lat="43.72418" lon="3.47106">
        <ele>458.8</ele>
        <time>2016-11-06T09:37:56Z</time>
      </trkpt>
      <trkpt lat="43.72411" lon="3.4711">
        <ele>458.8</ele>
        <time>2016-11-06T09:37:58Z</time>
      </trkpt>
      <trkpt lat="43.724" lon="3.47112">
        <ele>458.7</ele>
        <time>2016-11-06T09:38:01Z</time>
      </trkpt>
      <trkpt lat="43.72392" lon="3.47113">
        <ele>458.6</ele>
        <time>2016-11-06T09:38:04Z</time>
      </trkpt>
      <trkpt lat="43.72383" lon="3.4712">
        <ele>458.6</ele>
        <time>2016-11-06T09:38:07Z</time>
      </trkpt>
      <trkpt lat="43.72376" lon="3.47125">
        <ele>458.7</ele>
        <time>2016-11-06T09:38:11Z</time>
      </trkpt>
      <trkpt lat="43.72366" lon="3.47128">
        <ele>458.6</ele>
        <time>2016-11-06T09:38:14Z</time>
      </trkpt>
      <trkpt lat="43.72357" lon="3.47134">
        <ele>458.3</ele>
        <time>2016-11-06T09:38:17Z</time>
      </trkpt>
      <trkpt lat="43.72351" lon="3.47138">
        <ele>458.3</ele>
        <time>2016-11-06T09:38:19Z</time>
      </trkpt>
      <trkpt lat="43.72342" lon="3.47144">
        <ele>458.4</ele>
        <time>2016-11-06T09:38:21Z</time>
      </trkpt>
      <trkpt lat="43.72332" lon="3.47152">
        <ele>458.4</ele>
        <time>2016-11-06T09:38:23Z</time>
      </trkpt>
      <trkpt lat="43.72325" lon="3.47159">
        <ele>458.3</ele>
        <time>2016-11-06T09:38:25Z</time>
      </trkpt>
      <trkpt lat="43.72319" lon="3.47166">
        <ele>458.1</ele>
        <time>2016-11-06T09:38:27Z</time>
      </trkpt>
      <trkpt lat="43.72312" lon="3.47175">
        <ele>457.9</ele>
        <time>2016-11-06T09:38:29Z</time>
      </trkpt>
      <trkpt lat="43.72306" lon="3.47183">
        <ele>457.6</ele>
        <time>2016-11-06T09:38:31Z</time>
      </trkpt>
      <trkpt lat="43.723" lon="3.4719">
        <ele>457.4</ele>
        <time>2016-11-06T09:38:33Z</time>
      </trkpt>
      <trkpt lat="43.72294" lon="3.47196">
        <ele>457.3</ele>
        <time>2016-11-06T09:38:35Z</time>
      </trkpt>
      <trkpt lat="43.72287" lon="3.47203">
        <ele>457.1</ele>
        <time>2016-11-06T09:38:37Z</time>
      </trkpt>
      <trkpt lat="43.72281" lon="3.4721">
        <ele>457</ele>
        <time>2016-11-06T09:38:39Z</time>
      </trkpt>
      <trkpt lat="43.72275" lon="3.47217">
        <ele>456.7</ele>
        <time>2016-11-06T09:38:42Z</time>
      </trkpt>
      <trkpt lat="43.72269" lon="3.47226">
        <ele>456.5</ele>
        <time>2016-11-06T09:38:44Z</time>
      </trkpt>
      <trkpt lat="43.72262" lon="3.47233">
        <ele>456.4</ele>
        <time>2016-11-06T09:38:46Z</time>
      </trkpt>
      <trkpt lat="43.72256" lon="3.47244">
        <ele>456.1</ele>
        <time>2016-11-06T09:38:48Z</time>
      </trkpt>
      <trkpt lat="43.72249" lon="3.47256">
        <ele>453.7</ele>
        <time>2016-11-06T09:38:50Z</time>
      </trkpt>
      <trkpt lat="43.72249" lon="3.47271">
        <ele>452.1</ele>
        <time>2016-11-06T09:38:52Z</time>
      </trkpt>
      <trkpt lat="43.72247" lon="3.47286">
        <ele>452</ele>
        <time>2016-11-06T09:38:54Z</time>
      </trkpt>
      <trkpt lat="43.72247" lon="3.47298">
        <ele>452</ele>
        <time>2016-11-06T09:38:57Z</time>
      </trkpt>
      <trkpt lat="43.72247" lon="3.47308">
        <ele>452</ele>
        <time>2016-11-06T09:38:59Z</time>
      </trkpt>
      <trkpt lat="43.72248" lon="3.47321">
        <ele>452.1</ele>
        <time>2016-11-06T09:39:01Z</time>
      </trkpt>
      <trkpt lat="43.72248" lon="3.47334">
        <ele>452.4</ele>
        <time>2016-11-06T09:39:03Z</time>
      </trkpt>
      <trkpt lat="43.72252" lon="3.47345">
        <ele>452.3</ele>
        <time>2016-11-06T09:39:05Z</time>
      </trkpt>
      <trkpt lat="43.72259" lon="3.47357">
        <ele>451.8</ele>
        <time>2016-11-06T09:39:08Z</time>
      </trkpt>
      <trkpt lat="43.72267" lon="3.47367">
        <ele>450.8</ele>
        <time>2016-11-06T09:39:10Z</time>
      </trkpt>
      <trkpt lat="43.72271" lon="3.47381">
        <ele>450</ele>
        <time>2016-11-06T09:39:12Z</time>
      </trkpt>
      <trkpt lat="43.72271" lon="3.47394">
        <ele>449.9</ele>
        <time>2016-11-06T09:39:14Z</time>
      </trkpt>
      <trkpt lat="43.7227" lon="3.47409">
        <ele>449.5</ele>
        <time>2016-11-06T09:39:16Z</time>
      </trkpt>
      <trkpt lat="43.72269" lon="3.47422">
        <ele>448.9</ele>
        <time>2016-11-06T09:39:18Z</time>
      </trkpt>
      <trkpt lat="43.72265" lon="3.47437">
        <ele>448.8</ele>
        <time>2016-11-06T09:39:20Z</time>
      </trkpt>
      <trkpt lat="43.72261" lon="3.47454">
        <ele>447.4</ele>
        <time>2016-11-06T09:39:22Z</time>
      </trkpt>
      <trkpt lat="43.72256" lon="3.4747">
        <ele>445.4</ele>
        <time>2016-11-06T09:39:24Z</time>
      </trkpt>
      <trkpt lat="43.72251" lon="3.47483">
        <ele>444</ele>
        <time>2016-11-06T09:39:26Z</time>
      </trkpt>
      <trkpt lat="43.72248" lon="3.47491">
        <ele>443.9</ele>
        <time>2016-11-06T09:39:28Z</time>
      </trkpt>
      <trkpt lat="43.72243" lon="3.47503">
        <ele>443.8</ele>
        <time>2016-11-06T09:39:30Z</time>
      </trkpt>
      <trkpt lat="43.7224" lon="3.47513">
        <ele>443.6</ele>
        <time>2016-11-06T09:39:32Z</time>
      </trkpt>
      <trkpt lat="43.72237" lon="3.47525">
        <ele>443.4</ele>
        <time>2016-11-06T09:39:34Z</time>
      </trkpt>
      <trkpt lat="43.72234" lon="3.47537">
        <ele>443.2</ele>
        <time>2016-11-06T09:39:36Z</time>
      </trkpt>
      <trkpt lat="43.72233" lon="3.47551">
        <ele>441.8</ele>
        <time>2016-11-06T09:39:38Z</time>
      </trkpt>
      <trkpt lat="43.72229" lon="3.47564">
        <ele>440.9</ele>
        <time>2016-11-06T09:39:40Z</time>
      </trkpt>
      <trkpt lat="43.72226" lon="3.47576">
        <ele>440.7</ele>
        <time>2016-11-06T09:39:42Z</time>
      </trkpt>
      <trkpt lat="43.72221" lon="3.47591">
        <ele>439.5</ele>
        <time>2016-11-06T09:39:44Z</time>
      </trkpt>
      <trkpt lat="43.72218" lon="3.47601">
        <ele>438.5</ele>
        <time>2016-11-06T09:39:45Z</time>
      </trkpt>
      <trkpt lat="43.72216" lon="3.47617">
        <ele>436.1</ele>
        <time>2016-11-06T09:39:47Z</time>
      </trkpt>
      <trkpt lat="43.72213" lon="3.47626">
        <ele>434.6</ele>
        <time>2016-11-06T09:39:49Z</time>
      </trkpt>
      <trkpt lat="43.72211" lon="3.47638">
        <ele>433.6</ele>
        <time>2016-11-06T09:39:51Z</time>
      </trkpt>
      <trkpt lat="43.72214" lon="3.47647">
        <ele>432.5</ele>
        <time>2016-11-06T09:39:53Z</time>
      </trkpt>
      <trkpt lat="43.72215" lon="3.47659">
        <ele>432.4</ele>
        <time>2016-11-06T09:39:55Z</time>
      </trkpt>
      <trkpt lat="43.72213" lon="3.47674">
        <ele>432.3</ele>
        <time>2016-11-06T09:39:58Z</time>
      </trkpt>
      <trkpt lat="43.72208" lon="3.47685">
        <ele>432.1</ele>
        <time>2016-11-06T09:40:01Z</time>
      </trkpt>
      <trkpt lat="43.72205" lon="3.47694">
        <ele>431.4</ele>
        <time>2016-11-06T09:40:07Z</time>
      </trkpt>
      <trkpt lat="43.72202" lon="3.47705">
        <ele>431</ele>
        <time>2016-11-06T09:40:10Z</time>
      </trkpt>
      <trkpt lat="43.72199" lon="3.47715">
        <ele>429</ele>
        <time>2016-11-06T09:40:12Z</time>
      </trkpt>
      <trkpt lat="43.72193" lon="3.47727">
        <ele>427.4</ele>
        <time>2016-11-06T09:40:14Z</time>
      </trkpt>
      <trkpt lat="43.72189" lon="3.47741">
        <ele>426.1</ele>
        <time>2016-11-06T09:40:16Z</time>
      </trkpt>
      <trkpt lat="43.72185" lon="3.47754">
        <ele>424.4</ele>
        <time>2016-11-06T09:40:18Z</time>
      </trkpt>
      <trkpt lat="43.72179" lon="3.47769">
        <ele>423.7</ele>
        <time>2016-11-06T09:40:20Z</time>
      </trkpt>
      <trkpt lat="43.72173" lon="3.47784">
        <ele>422.3</ele>
        <time>2016-11-06T09:40:22Z</time>
      </trkpt>
      <trkpt lat="43.72168" lon="3.47798">
        <ele>421.1</ele>
        <time>2016-11-06T09:40:24Z</time>
      </trkpt>
      <trkpt lat="43.72161" lon="3.4781">
        <ele>420.3</ele>
        <time>2016-11-06T09:40:26Z</time>
      </trkpt>
      <trkpt lat="43.72155" lon="3.47822">
        <ele>419</ele>
        <time>2016-11-06T09:40:28Z</time>
      </trkpt>
      <trkpt lat="43.72147" lon="3.47835">
        <ele>418.3</ele>
        <time>2016-11-06T09:40:30Z</time>
      </trkpt>
      <trkpt lat="43.7214" lon="3.47846">
        <ele>417.8</ele>
        <time>2016-11-06T09:40:32Z</time>
      </trkpt>
      <trkpt lat="43.72133" lon="3.47857">
        <ele>416.3</ele>
        <time>2016-11-06T09:40:34Z</time>
      </trkpt>
      <trkpt lat="43.72128" lon="3.47866">
        <ele>416</ele>
        <time>2016-11-06T09:40:36Z</time>
      </trkpt>
      <trkpt lat="43.72123" lon="3.47875">
        <ele>415.9</ele>
        <time>2016-11-06T09:40:38Z</time>
      </trkpt>
      <trkpt lat="43.72114" lon="3.47883">
        <ele>415.7</ele>
        <time>2016-11-06T09:40:41Z</time>
      </trkpt>
      <trkpt lat="43.72108" lon="3.4789">
        <ele>415.6</ele>
        <time>2016-11-06T09:40:43Z</time>
      </trkpt>
      <trkpt lat="43.72102" lon="3.47895">
        <ele>415.6</ele>
        <time>2016-11-06T09:40:45Z</time>
      </trkpt>
      <trkpt lat="43.72093" lon="3.47898">
        <ele>413.4</ele>
        <time>2016-11-06T09:40:47Z</time>
      </trkpt>
      <trkpt lat="43.72082" lon="3.47897">
        <ele>411.6</ele>
        <time>2016-11-06T09:40:49Z</time>
      </trkpt>
      <trkpt lat="43.72071" lon="3.47894">
        <ele>409.6</ele>
        <time>2016-11-06T09:40:51Z</time>
      </trkpt>
      <trkpt lat="43.72059" lon="3.47893">
        <ele>408.1</ele>
        <time>2016-11-06T09:40:53Z</time>
      </trkpt>
      <trkpt lat="43.72049" lon="3.47891">
        <ele>407.9</ele>
        <time>2016-11-06T09:40:55Z</time>
      </trkpt>
      <trkpt lat="43.72038" lon="3.47893">
        <ele>407.3</ele>
        <time>2016-11-06T09:40:57Z</time>
      </trkpt>
      <trkpt lat="43.72026" lon="3.47895">
        <ele>405.9</ele>
        <time>2016-11-06T09:40:59Z</time>
      </trkpt>
      <trkpt lat="43.72013" lon="3.47896">
        <ele>405</ele>
        <time>2016-11-06T09:41:01Z</time>
      </trkpt>
      <trkpt lat="43.71999" lon="3.47894">
        <ele>404</ele>
        <time>2016-11-06T09:41:03Z</time>
      </trkpt>
      <trkpt lat="43.71985" lon="3.47893">
        <ele>402.5</ele>
        <time>2016-11-06T09:41:05Z</time>
      </trkpt>
      <trkpt lat="43.71976" lon="3.47899">
        <ele>401.5</ele>
        <time>2016-11-06T09:41:07Z</time>
      </trkpt>
      <trkpt lat="43.71961" lon="3.47903">
        <ele>400.9</ele>
        <time>2016-11-06T09:41:09Z</time>
      </trkpt>
      <trkpt lat="43.71949" lon="3.47904">
        <ele>400.3</ele>
        <time>2016-11-06T09:41:11Z</time>
      </trkpt>
      <trkpt lat="43.71936" lon="3.47901">
        <ele>400</ele>
        <time>2016-11-06T09:41:13Z</time>
      </trkpt>
      <trkpt lat="43.71924" lon="3.47899">
        <ele>398.2</ele>
        <time>2016-11-06T09:41:15Z</time>
      </trkpt>
      <trkpt lat="43.71912" lon="3.47898">
        <ele>395.6</ele>
        <time>2016-11-06T09:41:17Z</time>
      </trkpt>
      <trkpt lat="43.71898" lon="3.47895">
        <ele>393.4</ele>
        <time>2016-11-06T09:41:19Z</time>
      </trkpt>
      <trkpt lat="43.71885" lon="3.47891">
        <ele>392.2</ele>
        <time>2016-11-06T09:41:21Z</time>
      </trkpt>
      <trkpt lat="43.71873" lon="3.47887">
        <ele>391.5</ele>
        <time>2016-11-06T09:41:23Z</time>
      </trkpt>
      <trkpt lat="43.71861" lon="3.47879">
        <ele>390.7</ele>
        <time>2016-11-06T09:41:25Z</time>
      </trkpt>
      <trkpt lat="43.71852" lon="3.47872">
        <ele>389.5</ele>
        <time>2016-11-06T09:41:27Z</time>
      </trkpt>
      <trkpt lat="43.71842" lon="3.47866">
        <ele>390.3</ele>
        <time>2016-11-06T09:41:30Z</time>
      </trkpt>
      <trkpt lat="43.71831" lon="3.47865">
        <ele>390.7</ele>
        <time>2016-11-06T09:41:32Z</time>
      </trkpt>
      <trkpt lat="43.71823" lon="3.47858">
        <ele>391.1</ele>
        <time>2016-11-06T09:41:34Z</time>
      </trkpt>
      <trkpt lat="43.71815" lon="3.47855">
        <ele>391.1</ele>
        <time>2016-11-06T09:41:36Z</time>
      </trkpt>
      <trkpt lat="43.71807" lon="3.4785">
        <ele>391.3</ele>
        <time>2016-11-06T09:41:38Z</time>
      </trkpt>
      <trkpt lat="43.71796" lon="3.47843">
        <ele>391.8</ele>
        <time>2016-11-06T09:41:40Z</time>
      </trkpt>
      <trkpt lat="43.71786" lon="3.47835">
        <ele>392</ele>
        <time>2016-11-06T09:41:42Z</time>
      </trkpt>
      <trkpt lat="43.71778" lon="3.47829">
        <ele>391.2</ele>
        <time>2016-11-06T09:41:44Z</time>
      </trkpt>
      <trkpt lat="43.7177" lon="3.47824">
        <ele>391.2</ele>
        <time>2016-11-06T09:41:46Z</time>
      </trkpt>
      <trkpt lat="43.7176" lon="3.47817">
        <ele>391.2</ele>
        <time>2016-11-06T09:41:48Z</time>
      </trkpt>
      <trkpt lat="43.71754" lon="3.47809">
        <ele>391</ele>
        <time>2016-11-06T09:41:50Z</time>
      </trkpt>
      <trkpt lat="43.71752" lon="3.47805">
        <ele>390.7</ele>
        <time>2016-11-06T09:41:57Z</time>
      </trkpt>
      <trkpt lat="43.71762" lon="3.4781">
        <ele>391.1</ele>
        <time>2016-11-06T09:43:18Z</time>
      </trkpt>
      <trkpt lat="43.71769" lon="3.47815">
        <ele>391</ele>
        <time>2016-11-06T09:43:21Z</time>
      </trkpt>
      <trkpt lat="43.71776" lon="3.47821">
        <ele>391</ele>
        <time>2016-11-06T09:43:24Z</time>
      </trkpt>
      <trkpt lat="43.71784" lon="3.47826">
        <ele>390.9</ele>
        <time>2016-11-06T09:43:26Z</time>
      </trkpt>
      <trkpt lat="43.71793" lon="3.47831">
        <ele>390.9</ele>
        <time>2016-11-06T09:43:28Z</time>
      </trkpt>
      <trkpt lat="43.71801" lon="3.47839">
        <ele>390.8</ele>
        <time>2016-11-06T09:43:30Z</time>
      </trkpt>
      <trkpt lat="43.71808" lon="3.47844">
        <ele>390.6</ele>
        <time>2016-11-06T09:43:32Z</time>
      </trkpt>
      <trkpt lat="43.71816" lon="3.47849">
        <ele>390.5</ele>
        <time>2016-11-06T09:43:34Z</time>
      </trkpt>
      <trkpt lat="43.71823" lon="3.47855">
        <ele>390.2</ele>
        <time>2016-11-06T09:43:36Z</time>
      </trkpt>
      <trkpt lat="43.71833" lon="3.4786">
        <ele>388</ele>
        <time>2016-11-06T09:43:38Z</time>
      </trkpt>
      <trkpt lat="43.7184" lon="3.47858">
        <ele>387.7</ele>
        <time>2016-11-06T09:43:40Z</time>
      </trkpt>
      <trkpt lat="43.7185" lon="3.47864">
        <ele>387.5</ele>
        <time>2016-11-06T09:43:43Z</time>
      </trkpt>
      <trkpt lat="43.71857" lon="3.47868">
        <ele>387.3</ele>
        <time>2016-11-06T09:43:45Z</time>
      </trkpt>
      <trkpt lat="43.71864" lon="3.47874">
        <ele>387.1</ele>
        <time>2016-11-06T09:43:47Z</time>
      </trkpt>
      <trkpt lat="43.71873" lon="3.4788">
        <ele>386.5</ele>
        <time>2016-11-06T09:43:49Z</time>
      </trkpt>
      <trkpt lat="43.7188" lon="3.47884">
        <ele>386.6</ele>
        <time>2016-11-06T09:43:51Z</time>
      </trkpt>
      <trkpt lat="43.71888" lon="3.4789">
        <ele>386.5</ele>
        <time>2016-11-06T09:43:53Z</time>
      </trkpt>
      <trkpt lat="43.71896" lon="3.47891">
        <ele>386.6</ele>
        <time>2016-11-06T09:43:57Z</time>
      </trkpt>
      <trkpt lat="43.71903" lon="3.47892">
        <ele>386.8</ele>
        <time>2016-11-06T09:44:01Z</time>
      </trkpt>
      <trkpt lat="43.71911" lon="3.47893">
        <ele>386.8</ele>
        <time>2016-11-06T09:44:06Z</time>
      </trkpt>
      <trkpt lat="43.71918" lon="3.47895">
        <ele>387</ele>
        <time>2016-11-06T09:44:10Z</time>
      </trkpt>
      <trkpt lat="43.71925" lon="3.47896">
        <ele>387.5</ele>
        <time>2016-11-06T09:44:16Z</time>
      </trkpt>
      <trkpt lat="43.71931" lon="3.47897">
        <ele>388.6</ele>
        <time>2016-11-06T09:44:23Z</time>
      </trkpt>
      <trkpt lat="43.71939" lon="3.479">
        <ele>389.6</ele>
        <time>2016-11-06T09:44:29Z</time>
      </trkpt>
      <trkpt lat="43.71944" lon="3.47901">
        <ele>390.3</ele>
        <time>2016-11-06T09:44:36Z</time>
      </trkpt>
      <trkpt lat="43.71947" lon="3.47903">
        <ele>393.9</ele>
        <time>2016-11-06T09:46:48Z</time>
      </trkpt>
      <trkpt lat="43.71945" lon="3.47903">
        <ele>394.4</ele>
        <time>2016-11-06T09:47:13Z</time>
      </trkpt>
      <trkpt lat="43.71947" lon="3.479">
        <ele>394.6</ele>
        <time>2016-11-06T09:48:06Z</time>
      </trkpt>
      <trkpt lat="43.71947" lon="3.47902">
        <ele>394.9</ele>
        <time>2016-11-06T09:48:13Z</time>
      </trkpt>
      <trkpt lat="43.71935" lon="3.47899">
        <ele>394.5</ele>
        <time>2016-11-06T09:48:32Z</time>
      </trkpt>
      <trkpt lat="43.71922" lon="3.47898">
        <ele>394.2</ele>
        <time>2016-11-06T09:48:35Z</time>
      </trkpt>
      <trkpt lat="43.71914" lon="3.47896">
        <ele>394.2</ele>
        <time>2016-11-06T09:48:36Z</time>
      </trkpt>
      <trkpt lat="43.719" lon="3.47896">
        <ele>393.4</ele>
        <time>2016-11-06T09:48:38Z</time>
      </trkpt>
      <trkpt lat="43.71893" lon="3.47893">
        <ele>392.5</ele>
        <time>2016-11-06T09:48:39Z</time>
      </trkpt>
      <trkpt lat="43.71886" lon="3.47892">
        <ele>391.6</ele>
        <time>2016-11-06T09:48:40Z</time>
      </trkpt>
      <trkpt lat="43.71873" lon="3.47887">
        <ele>390.1</ele>
        <time>2016-11-06T09:48:42Z</time>
      </trkpt>
      <trkpt lat="43.71862" lon="3.47876">
        <ele>389.3</ele>
        <time>2016-11-06T09:48:44Z</time>
      </trkpt>
      <trkpt lat="43.71853" lon="3.47869">
        <ele>389.3</ele>
        <time>2016-11-06T09:48:46Z</time>
      </trkpt>
      <trkpt lat="43.71844" lon="3.47865">
        <ele>389.2</ele>
        <time>2016-11-06T09:48:48Z</time>
      </trkpt>
      <trkpt lat="43.71836" lon="3.47864">
        <ele>389.2</ele>
        <time>2016-11-06T09:48:50Z</time>
      </trkpt>
      <trkpt lat="43.71829" lon="3.47863">
        <ele>389</ele>
        <time>2016-11-06T09:48:52Z</time>
      </trkpt>
      <trkpt lat="43.71821" lon="3.47857">
        <ele>388.9</ele>
        <time>2016-11-06T09:48:54Z</time>
      </trkpt>
      <trkpt lat="43.71811" lon="3.47853">
        <ele>389.1</ele>
        <time>2016-11-06T09:48:57Z</time>
      </trkpt>
      <trkpt lat="43.71803" lon="3.47848">
        <ele>389.1</ele>
        <time>2016-11-06T09:48:59Z</time>
      </trkpt>
      <trkpt lat="43.71795" lon="3.47842">
        <ele>389.4</ele>
        <time>2016-11-06T09:49:01Z</time>
      </trkpt>
      <trkpt lat="43.71786" lon="3.47835">
        <ele>389.4</ele>
        <time>2016-11-06T09:49:03Z</time>
      </trkpt>
      <trkpt lat="43.71776" lon="3.47829">
        <ele>389.4</ele>
        <time>2016-11-06T09:49:06Z</time>
      </trkpt>
      <trkpt lat="43.71768" lon="3.47822">
        <ele>389.4</ele>
        <time>2016-11-06T09:49:08Z</time>
      </trkpt>
      <trkpt lat="43.71761" lon="3.47818">
        <ele>389.5</ele>
        <time>2016-11-06T09:49:10Z</time>
      </trkpt>
      <trkpt lat="43.71756" lon="3.47808">
        <ele>389.6</ele>
        <time>2016-11-06T09:49:12Z</time>
      </trkpt>
      <trkpt lat="43.71755" lon="3.47807">
        <ele>389.7</ele>
        <time>2016-11-06T09:49:19Z</time>
      </trkpt>
      <trkpt lat="43.71747" lon="3.47804">
        <ele>390</ele>
        <time>2016-11-06T09:49:27Z</time>
      </trkpt>
      <trkpt lat="43.71739" lon="3.47802">
        <ele>389.4</ele>
        <time>2016-11-06T09:49:29Z</time>
      </trkpt>
      <trkpt lat="43.71729" lon="3.478">
        <ele>389</ele>
        <time>2016-11-06T09:49:31Z</time>
      </trkpt>
      <trkpt lat="43.71715" lon="3.47796">
        <ele>387.5</ele>
        <time>2016-11-06T09:49:33Z</time>
      </trkpt>
      <trkpt lat="43.71706" lon="3.47793">
        <ele>386.8</ele>
        <time>2016-11-06T09:49:34Z</time>
      </trkpt>
      <trkpt lat="43.71699" lon="3.47789">
        <ele>385.6</ele>
        <time>2016-11-06T09:49:35Z</time>
      </trkpt>
      <trkpt lat="43.71692" lon="3.47786">
        <ele>384.9</ele>
        <time>2016-11-06T09:49:36Z</time>
      </trkpt>
      <trkpt lat="43.71684" lon="3.47782">
        <ele>384.2</ele>
        <time>2016-11-06T09:49:37Z</time>
      </trkpt>
      <trkpt lat="43.71675" lon="3.47777">
        <ele>383.4</ele>
        <time>2016-11-06T09:49:38Z</time>
      </trkpt>
      <trkpt lat="43.71667" lon="3.47773">
        <ele>382.4</ele>
        <time>2016-11-06T09:49:39Z</time>
      </trkpt>
      <trkpt lat="43.71656" lon="3.47768">
        <ele>380.6</ele>
        <time>2016-11-06T09:49:41Z</time>
      </trkpt>
      <trkpt lat="43.71643" lon="3.47762">
        <ele>379.2</ele>
        <time>2016-11-06T09:49:43Z</time>
      </trkpt>
      <trkpt lat="43.71632" lon="3.47759">
        <ele>379.2</ele>
        <time>2016-11-06T09:49:45Z</time>
      </trkpt>
      <trkpt lat="43.71622" lon="3.47753">
        <ele>378.1</ele>
        <time>2016-11-06T09:49:47Z</time>
      </trkpt>
      <trkpt lat="43.71612" lon="3.4775">
        <ele>376.3</ele>
        <time>2016-11-06T09:49:49Z</time>
      </trkpt>
      <trkpt lat="43.71605" lon="3.47749">
        <ele>375.8</ele>
        <time>2016-11-06T09:49:51Z</time>
      </trkpt>
      <trkpt lat="43.71593" lon="3.47748">
        <ele>375.3</ele>
        <time>2016-11-06T09:49:53Z</time>
      </trkpt>
      <trkpt lat="43.71585" lon="3.47745">
        <ele>375.3</ele>
        <time>2016-11-06T09:49:55Z</time>
      </trkpt>
      <trkpt lat="43.71575" lon="3.47741">
        <ele>375.1</ele>
        <time>2016-11-06T09:49:58Z</time>
      </trkpt>
      <trkpt lat="43.71563" lon="3.47738">
        <ele>375.1</ele>
        <time>2016-11-06T09:50:00Z</time>
      </trkpt>
      <trkpt lat="43.71551" lon="3.47737">
        <ele>375</ele>
        <time>2016-11-06T09:50:02Z</time>
      </trkpt>
      <trkpt lat="43.71539" lon="3.47734">
        <ele>373.8</ele>
        <time>2016-11-06T09:50:04Z</time>
      </trkpt>
      <trkpt lat="43.71529" lon="3.47729">
        <ele>373.4</ele>
        <time>2016-11-06T09:50:06Z</time>
      </trkpt>
      <trkpt lat="43.7152" lon="3.47728">
        <ele>374.2</ele>
        <time>2016-11-06T09:50:08Z</time>
      </trkpt>
      <trkpt lat="43.71508" lon="3.47728">
        <ele>374.8</ele>
        <time>2016-11-06T09:50:10Z</time>
      </trkpt>
      <trkpt lat="43.71496" lon="3.47727">
        <ele>375.3</ele>
        <time>2016-11-06T09:50:12Z</time>
      </trkpt>
      <trkpt lat="43.71484" lon="3.47729">
        <ele>373.8</ele>
        <time>2016-11-06T09:50:14Z</time>
      </trkpt>
      <trkpt lat="43.71474" lon="3.47733">
        <ele>373</ele>
        <time>2016-11-06T09:50:16Z</time>
      </trkpt>
      <trkpt lat="43.71465" lon="3.47737">
        <ele>372.6</ele>
        <time>2016-11-06T09:50:18Z</time>
      </trkpt>
      <trkpt lat="43.71468" lon="3.47748">
        <ele>372.4</ele>
        <time>2016-11-06T09:50:23Z</time>
      </trkpt>
      <trkpt lat="43.71478" lon="3.47752">
        <ele>372.3</ele>
        <time>2016-11-06T09:50:27Z</time>
      </trkpt>
      <trkpt lat="43.71489" lon="3.47755">
        <ele>372.2</ele>
        <time>2016-11-06T09:50:30Z</time>
      </trkpt>
      <trkpt lat="43.71496" lon="3.47756">
        <ele>372</ele>
        <time>2016-11-06T09:50:32Z</time>
      </trkpt>
      <trkpt lat="43.71506" lon="3.47757">
        <ele>369.8</ele>
        <time>2016-11-06T09:50:35Z</time>
      </trkpt>
      <trkpt lat="43.71518" lon="3.47757">
        <ele>366.6</ele>
        <time>2016-11-06T09:50:38Z</time>
      </trkpt>
      <trkpt lat="43.71525" lon="3.47764">
        <ele>365.2</ele>
        <time>2016-11-06T09:50:40Z</time>
      </trkpt>
      <trkpt lat="43.71525" lon="3.47776">
        <ele>364.9</ele>
        <time>2016-11-06T09:50:42Z</time>
      </trkpt>
      <trkpt lat="43.71523" lon="3.4779">
        <ele>365.1</ele>
        <time>2016-11-06T09:50:44Z</time>
      </trkpt>
      <trkpt lat="43.7152" lon="3.47806">
        <ele>366.4</ele>
        <time>2016-11-06T09:50:46Z</time>
      </trkpt>
      <trkpt lat="43.71517" lon="3.4782">
        <ele>368</ele>
        <time>2016-11-06T09:50:48Z</time>
      </trkpt>
      <trkpt lat="43.71518" lon="3.47835">
        <ele>368.8</ele>
        <time>2016-11-06T09:50:50Z</time>
      </trkpt>
      <trkpt lat="43.71524" lon="3.47844">
        <ele>368.7</ele>
        <time>2016-11-06T09:50:52Z</time>
      </trkpt>
      <trkpt lat="43.71533" lon="3.47849">
        <ele>368</ele>
        <time>2016-11-06T09:50:54Z</time>
      </trkpt>
      <trkpt lat="43.71542" lon="3.47852">
        <ele>368.2</ele>
        <time>2016-11-06T09:50:56Z</time>
      </trkpt>
      <trkpt lat="43.7155" lon="3.47858">
        <ele>367.7</ele>
        <time>2016-11-06T09:50:58Z</time>
      </trkpt>
      <trkpt lat="43.71558" lon="3.47868">
        <ele>367.4</ele>
        <time>2016-11-06T09:51:00Z</time>
      </trkpt>
      <trkpt lat="43.71562" lon="3.47881">
        <ele>367.4</ele>
        <time>2016-11-06T09:51:02Z</time>
      </trkpt>
      <trkpt lat="43.71559" lon="3.47897">
        <ele>367</ele>
        <time>2016-11-06T09:51:04Z</time>
      </trkpt>
      <trkpt lat="43.71552" lon="3.47909">
        <ele>365.8</ele>
        <time>2016-11-06T09:51:06Z</time>
      </trkpt>
      <trkpt lat="43.71542" lon="3.47917">
        <ele>365</ele>
        <time>2016-11-06T09:51:08Z</time>
      </trkpt>
      <trkpt lat="43.71531" lon="3.47925">
        <ele>363.9</ele>
        <time>2016-11-06T09:51:10Z</time>
      </trkpt>
      <trkpt lat="43.71519" lon="3.47934">
        <ele>362.8</ele>
        <time>2016-11-06T09:51:12Z</time>
      </trkpt>
      <trkpt lat="43.71508" lon="3.47945">
        <ele>362.1</ele>
        <time>2016-11-06T09:51:14Z</time>
      </trkpt>
      <trkpt lat="43.71497" lon="3.47955">
        <ele>361.7</ele>
        <time>2016-11-06T09:51:16Z</time>
      </trkpt>
      <trkpt lat="43.71489" lon="3.47965">
        <ele>361.2</ele>
        <time>2016-11-06T09:51:18Z</time>
      </trkpt>
      <trkpt lat="43.71481" lon="3.47978">
        <ele>361.1</ele>
        <time>2016-11-06T09:51:20Z</time>
      </trkpt>
      <trkpt lat="43.71473" lon="3.47983">
        <ele>360.6</ele>
        <time>2016-11-06T09:51:22Z</time>
      </trkpt>
      <trkpt lat="43.71465" lon="3.47988">
        <ele>360.5</ele>
        <time>2016-11-06T09:51:25Z</time>
      </trkpt>
      <trkpt lat="43.71456" lon="3.47995">
        <ele>360.6</ele>
        <time>2016-11-06T09:51:29Z</time>
      </trkpt>
      <trkpt lat="43.71451" lon="3.48001">
        <ele>360.8</ele>
        <time>2016-11-06T09:51:32Z</time>
      </trkpt>
      <trkpt lat="43.71445" lon="3.48009">
        <ele>360.8</ele>
        <time>2016-11-06T09:51:35Z</time>
      </trkpt>
      <trkpt lat="43.71439" lon="3.48017">
        <ele>361</ele>
        <time>2016-11-06T09:51:38Z</time>
      </trkpt>
      <trkpt lat="43.71433" lon="3.48024">
        <ele>361.1</ele>
        <time>2016-11-06T09:51:40Z</time>
      </trkpt>
      <trkpt lat="43.71429" lon="3.48032">
        <ele>361.1</ele>
        <time>2016-11-06T09:51:42Z</time>
      </trkpt>
      <trkpt lat="43.71421" lon="3.48044">
        <ele>361.3</ele>
        <time>2016-11-06T09:51:45Z</time>
      </trkpt>
      <trkpt lat="43.71414" lon="3.48052">
        <ele>362.7</ele>
        <time>2016-11-06T09:51:47Z</time>
      </trkpt>
      <trkpt lat="43.71407" lon="3.48059">
        <ele>364.2</ele>
        <time>2016-11-06T09:51:49Z</time>
      </trkpt>
      <trkpt lat="43.71401" lon="3.48067">
        <ele>365</ele>
        <time>2016-11-06T09:51:51Z</time>
      </trkpt>
      <trkpt lat="43.71394" lon="3.48077">
        <ele>365.7</ele>
        <time>2016-11-06T09:51:53Z</time>
      </trkpt>
      <trkpt lat="43.71387" lon="3.48084">
        <ele>366.5</ele>
        <time>2016-11-06T09:51:55Z</time>
      </trkpt>
      <trkpt lat="43.71378" lon="3.4809">
        <ele>366.7</ele>
        <time>2016-11-06T09:51:57Z</time>
      </trkpt>
      <trkpt lat="43.7137" lon="3.48096">
        <ele>366.1</ele>
        <time>2016-11-06T09:51:59Z</time>
      </trkpt>
      <trkpt lat="43.71363" lon="3.48101">
        <ele>365.3</ele>
        <time>2016-11-06T09:52:01Z</time>
      </trkpt>
      <trkpt lat="43.71354" lon="3.48109">
        <ele>365.3</ele>
        <time>2016-11-06T09:52:03Z</time>
      </trkpt>
      <trkpt lat="43.71347" lon="3.48115">
        <ele>366.6</ele>
        <time>2016-11-06T09:52:05Z</time>
      </trkpt>
      <trkpt lat="43.71338" lon="3.48122">
        <ele>366.6</ele>
        <time>2016-11-06T09:52:07Z</time>
      </trkpt>
      <trkpt lat="43.71331" lon="3.4813">
        <ele>366.7</ele>
        <time>2016-11-06T09:52:09Z</time>
      </trkpt>
      <trkpt lat="43.71322" lon="3.48139">
        <ele>366.7</ele>
        <time>2016-11-06T09:52:11Z</time>
      </trkpt>
      <trkpt lat="43.71314" lon="3.48147">
        <ele>365.5</ele>
        <time>2016-11-06T09:52:13Z</time>
      </trkpt>
      <trkpt lat="43.71307" lon="3.48159">
        <ele>364.4</ele>
        <time>2016-11-06T09:52:15Z</time>
      </trkpt>
      <trkpt lat="43.71299" lon="3.48173">
        <ele>362.8</ele>
        <time>2016-11-06T09:52:17Z</time>
      </trkpt>
      <trkpt lat="43.71289" lon="3.48188">
        <ele>361</ele>
        <time>2016-11-06T09:52:19Z</time>
      </trkpt>
      <trkpt lat="43.71282" lon="3.48202">
        <ele>360.5</ele>
        <time>2016-11-06T09:52:21Z</time>
      </trkpt>
      <trkpt lat="43.71273" lon="3.48218">
        <ele>359.6</ele>
        <time>2016-11-06T09:52:23Z</time>
      </trkpt>
      <trkpt lat="43.71269" lon="3.48226">
        <ele>359.1</ele>
        <time>2016-11-06T09:52:24Z</time>
      </trkpt>
      <trkpt lat="43.71264" lon="3.48235">
        <ele>358.9</ele>
        <time>2016-11-06T09:52:25Z</time>
      </trkpt>
      <trkpt lat="43.7126" lon="3.48243">
        <ele>358.4</ele>
        <time>2016-11-06T09:52:26Z</time>
      </trkpt>
      <trkpt lat="43.71255" lon="3.48252">
        <ele>357.9</ele>
        <time>2016-11-06T09:52:27Z</time>
      </trkpt>
      <trkpt lat="43.71249" lon="3.48262">
        <ele>357.8</ele>
        <time>2016-11-06T09:52:28Z</time>
      </trkpt>
      <trkpt lat="43.71245" lon="3.48272">
        <ele>357.6</ele>
        <time>2016-11-06T09:52:29Z</time>
      </trkpt>
      <trkpt lat="43.71241" lon="3.48281">
        <ele>357.4</ele>
        <time>2016-11-06T09:52:30Z</time>
      </trkpt>
      <trkpt lat="43.71237" lon="3.48291">
        <ele>357</ele>
        <time>2016-11-06T09:52:31Z</time>
      </trkpt>
      <trkpt lat="43.71233" lon="3.48301">
        <ele>356.9</ele>
        <time>2016-11-06T09:52:32Z</time>
      </trkpt>
      <trkpt lat="43.71229" lon="3.4831">
        <ele>356.2</ele>
        <time>2016-11-06T09:52:33Z</time>
      </trkpt>
      <trkpt lat="43.71225" lon="3.4832">
        <ele>355.7</ele>
        <time>2016-11-06T09:52:34Z</time>
      </trkpt>
      <trkpt lat="43.71221" lon="3.48329">
        <ele>355.1</ele>
        <time>2016-11-06T09:52:35Z</time>
      </trkpt>
      <trkpt lat="43.71217" lon="3.48338">
        <ele>354.1</ele>
        <time>2016-11-06T09:52:36Z</time>
      </trkpt>
      <trkpt lat="43.71211" lon="3.48354">
        <ele>351.9</ele>
        <time>2016-11-06T09:52:38Z</time>
      </trkpt>
      <trkpt lat="43.71208" lon="3.48365">
        <ele>350.7</ele>
        <time>2016-11-06T09:52:40Z</time>
      </trkpt>
      <trkpt lat="43.71204" lon="3.48377">
        <ele>350.4</ele>
        <time>2016-11-06T09:52:43Z</time>
      </trkpt>
      <trkpt lat="43.71201" lon="3.48389">
        <ele>350</ele>
        <time>2016-11-06T09:52:46Z</time>
      </trkpt>
      <trkpt lat="43.71197" lon="3.484">
        <ele>349.5</ele>
        <time>2016-11-06T09:52:50Z</time>
      </trkpt>
      <trkpt lat="43.71194" lon="3.4841">
        <ele>349.1</ele>
        <time>2016-11-06T09:52:53Z</time>
      </trkpt>
      <trkpt lat="43.71191" lon="3.48422">
        <ele>348.7</ele>
        <time>2016-11-06T09:52:56Z</time>
      </trkpt>
      <trkpt lat="43.71188" lon="3.48433">
        <ele>348.2</ele>
        <time>2016-11-06T09:52:59Z</time>
      </trkpt>
      <trkpt lat="43.71185" lon="3.48449">
        <ele>342.9</ele>
        <time>2016-11-06T09:53:02Z</time>
      </trkpt>
      <trkpt lat="43.71182" lon="3.48462">
        <ele>339.5</ele>
        <time>2016-11-06T09:53:04Z</time>
      </trkpt>
      <trkpt lat="43.71179" lon="3.48473">
        <ele>337.3</ele>
        <time>2016-11-06T09:53:06Z</time>
      </trkpt>
      <trkpt lat="43.71176" lon="3.48487">
        <ele>335.1</ele>
        <time>2016-11-06T09:53:08Z</time>
      </trkpt>
      <trkpt lat="43.7117" lon="3.48497">
        <ele>334.9</ele>
        <time>2016-11-06T09:53:10Z</time>
      </trkpt>
      <trkpt lat="43.71166" lon="3.48504">
        <ele>334.9</ele>
        <time>2016-11-06T09:53:12Z</time>
      </trkpt>
      <trkpt lat="43.71159" lon="3.48516">
        <ele>334.7</ele>
        <time>2016-11-06T09:53:15Z</time>
      </trkpt>
      <trkpt lat="43.71156" lon="3.48526">
        <ele>334.3</ele>
        <time>2016-11-06T09:53:18Z</time>
      </trkpt>
      <trkpt lat="43.71153" lon="3.48536">
        <ele>332.4</ele>
        <time>2016-11-06T09:53:20Z</time>
      </trkpt>
      <trkpt lat="43.7115" lon="3.48549">
        <ele>330</ele>
        <time>2016-11-06T09:53:22Z</time>
      </trkpt>
      <trkpt lat="43.71148" lon="3.4856">
        <ele>328.5</ele>
        <time>2016-11-06T09:53:24Z</time>
      </trkpt>
      <trkpt lat="43.71146" lon="3.48574">
        <ele>326.6</ele>
        <time>2016-11-06T09:53:27Z</time>
      </trkpt>
      <trkpt lat="43.71146" lon="3.48586">
        <ele>326.3</ele>
        <time>2016-11-06T09:53:29Z</time>
      </trkpt>
      <trkpt lat="43.71148" lon="3.48599">
        <ele>325.9</ele>
        <time>2016-11-06T09:53:32Z</time>
      </trkpt>
      <trkpt lat="43.7115" lon="3.48609">
        <ele>325.5</ele>
        <time>2016-11-06T09:53:35Z</time>
      </trkpt>
      <trkpt lat="43.71145" lon="3.48616">
        <ele>325.1</ele>
        <time>2016-11-06T09:53:39Z</time>
      </trkpt>
      <trkpt lat="43.71136" lon="3.48636">
        <ele>323.8</ele>
        <time>2016-11-06T09:53:53Z</time>
      </trkpt>
      <trkpt lat="43.71134" lon="3.4865">
        <ele>320</ele>
        <time>2016-11-06T09:53:57Z</time>
      </trkpt>
      <trkpt lat="43.71131" lon="3.48662">
        <ele>315.5</ele>
        <time>2016-11-06T09:53:59Z</time>
      </trkpt>
      <trkpt lat="43.71123" lon="3.48664">
        <ele>314.8</ele>
        <time>2016-11-06T09:54:02Z</time>
      </trkpt>
      <trkpt lat="43.71117" lon="3.4867">
        <ele>313.4</ele>
        <time>2016-11-06T09:54:07Z</time>
      </trkpt>
      <trkpt lat="43.71109" lon="3.48669">
        <ele>312.5</ele>
        <time>2016-11-06T09:54:11Z</time>
      </trkpt>
      <trkpt lat="43.71107" lon="3.48656">
        <ele>311.7</ele>
        <time>2016-11-06T09:54:14Z</time>
      </trkpt>
      <trkpt lat="43.71104" lon="3.48643">
        <ele>307.7</ele>
        <time>2016-11-06T09:54:21Z</time>
      </trkpt>
      <trkpt lat="43.71104" lon="3.48633">
        <ele>307.3</ele>
        <time>2016-11-06T09:54:23Z</time>
      </trkpt>
      <trkpt lat="43.71103" lon="3.48626">
        <ele>305.8</ele>
        <time>2016-11-06T09:54:30Z</time>
      </trkpt>
      <trkpt lat="43.71091" lon="3.48611">
        <ele>299.7</ele>
        <time>2016-11-06T09:54:34Z</time>
      </trkpt>
      <trkpt lat="43.7109" lon="3.48597">
        <ele>297.4</ele>
        <time>2016-11-06T09:54:36Z</time>
      </trkpt>
      <trkpt lat="43.7109" lon="3.48583">
        <ele>294.6</ele>
        <time>2016-11-06T09:54:38Z</time>
      </trkpt>
      <trkpt lat="43.7109" lon="3.48567">
        <ele>292.5</ele>
        <time>2016-11-06T09:54:40Z</time>
      </trkpt>
      <trkpt lat="43.71089" lon="3.48554">
        <ele>290.3</ele>
        <time>2016-11-06T09:54:42Z</time>
      </trkpt>
      <trkpt lat="43.71088" lon="3.48543">
        <ele>290</ele>
        <time>2016-11-06T09:54:45Z</time>
      </trkpt>
      <trkpt lat="43.71088" lon="3.48533">
        <ele>289.8</ele>
        <time>2016-11-06T09:54:49Z</time>
      </trkpt>
      <trkpt lat="43.71089" lon="3.48522">
        <ele>289.7</ele>
        <time>2016-11-06T09:54:53Z</time>
      </trkpt>
      <trkpt lat="43.71091" lon="3.48508">
        <ele>289.7</ele>
        <time>2016-11-06T09:54:56Z</time>
      </trkpt>
      <trkpt lat="43.71092" lon="3.48498">
        <ele>289.8</ele>
        <time>2016-11-06T09:54:59Z</time>
      </trkpt>
      <trkpt lat="43.71092" lon="3.48491">
        <ele>289.9</ele>
        <time>2016-11-06T09:55:06Z</time>
      </trkpt>
      <trkpt lat="43.71081" lon="3.4849">
        <ele>290.5</ele>
        <time>2016-11-06T09:55:29Z</time>
      </trkpt>
      <trkpt lat="43.71074" lon="3.48486">
        <ele>290.8</ele>
        <time>2016-11-06T09:55:31Z</time>
      </trkpt>
      <trkpt lat="43.71063" lon="3.48482">
        <ele>289.8</ele>
        <time>2016-11-06T09:55:34Z</time>
      </trkpt>
      <trkpt lat="43.71055" lon="3.48481">
        <ele>288</ele>
        <time>2016-11-06T09:55:36Z</time>
      </trkpt>
      <trkpt lat="43.71042" lon="3.48478">
        <ele>287.2</ele>
        <time>2016-11-06T09:55:38Z</time>
      </trkpt>
      <trkpt lat="43.71033" lon="3.4847">
        <ele>287.5</ele>
        <time>2016-11-06T09:55:40Z</time>
      </trkpt>
      <trkpt lat="43.71032" lon="3.48458">
        <ele>286.9</ele>
        <time>2016-11-06T09:55:42Z</time>
      </trkpt>
      <trkpt lat="43.71027" lon="3.48447">
        <ele>285.4</ele>
        <time>2016-11-06T09:55:44Z</time>
      </trkpt>
      <trkpt lat="43.71018" lon="3.48446">
        <ele>281.3</ele>
        <time>2016-11-06T09:55:47Z</time>
      </trkpt>
      <trkpt lat="43.71005" lon="3.48449">
        <ele>279.1</ele>
        <time>2016-11-06T09:55:49Z</time>
      </trkpt>
      <trkpt lat="43.70998" lon="3.48459">
        <ele>277.7</ele>
        <time>2016-11-06T09:55:51Z</time>
      </trkpt>
      <trkpt lat="43.70994" lon="3.48473">
        <ele>276.6</ele>
        <time>2016-11-06T09:55:53Z</time>
      </trkpt>
      <trkpt lat="43.7098" lon="3.48478">
        <ele>274.9</ele>
        <time>2016-11-06T09:55:55Z</time>
      </trkpt>
      <trkpt lat="43.70971" lon="3.48476">
        <ele>273.7</ele>
        <time>2016-11-06T09:55:56Z</time>
      </trkpt>
      <trkpt lat="43.70961" lon="3.48472">
        <ele>271.9</ele>
        <time>2016-11-06T09:55:57Z</time>
      </trkpt>
      <trkpt lat="43.70951" lon="3.48467">
        <ele>269.7</ele>
        <time>2016-11-06T09:55:58Z</time>
      </trkpt>
      <trkpt lat="43.70941" lon="3.48465">
        <ele>267.1</ele>
        <time>2016-11-06T09:55:59Z</time>
      </trkpt>
      <trkpt lat="43.70929" lon="3.48462">
        <ele>264.4</ele>
        <time>2016-11-06T09:56:00Z</time>
      </trkpt>
      <trkpt lat="43.70916" lon="3.48459">
        <ele>262</ele>
        <time>2016-11-06T09:56:01Z</time>
      </trkpt>
      <trkpt lat="43.70904" lon="3.48456">
        <ele>259.5</ele>
        <time>2016-11-06T09:56:02Z</time>
      </trkpt>
      <trkpt lat="43.70892" lon="3.48452">
        <ele>257.5</ele>
        <time>2016-11-06T09:56:03Z</time>
      </trkpt>
      <trkpt lat="43.7088" lon="3.48447">
        <ele>255.7</ele>
        <time>2016-11-06T09:56:04Z</time>
      </trkpt>
      <trkpt lat="43.70869" lon="3.48442">
        <ele>253.8</ele>
        <time>2016-11-06T09:56:05Z</time>
      </trkpt>
      <trkpt lat="43.70857" lon="3.48439">
        <ele>252.2</ele>
        <time>2016-11-06T09:56:06Z</time>
      </trkpt>
      <trkpt lat="43.70845" lon="3.48436">
        <ele>250.7</ele>
        <time>2016-11-06T09:56:07Z</time>
      </trkpt>
      <trkpt lat="43.70832" lon="3.48434">
        <ele>249.1</ele>
        <time>2016-11-06T09:56:08Z</time>
      </trkpt>
      <trkpt lat="43.7082" lon="3.48432">
        <ele>247.9</ele>
        <time>2016-11-06T09:56:09Z</time>
      </trkpt>
      <trkpt lat="43.70808" lon="3.48432">
        <ele>246.8</ele>
        <time>2016-11-06T09:56:10Z</time>
      </trkpt>
      <trkpt lat="43.70794" lon="3.48432">
        <ele>245</ele>
        <time>2016-11-06T09:56:11Z</time>
      </trkpt>
      <trkpt lat="43.70783" lon="3.48432">
        <ele>243.5</ele>
        <time>2016-11-06T09:56:12Z</time>
      </trkpt>
      <trkpt lat="43.70771" lon="3.48432">
        <ele>242</ele>
        <time>2016-11-06T09:56:13Z</time>
      </trkpt>
      <trkpt lat="43.7076" lon="3.48432">
        <ele>240.5</ele>
        <time>2016-11-06T09:56:14Z</time>
      </trkpt>
      <trkpt lat="43.70748" lon="3.48432">
        <ele>239.5</ele>
        <time>2016-11-06T09:56:15Z</time>
      </trkpt>
      <trkpt lat="43.70738" lon="3.48431">
        <ele>238.5</ele>
        <time>2016-11-06T09:56:16Z</time>
      </trkpt>
      <trkpt lat="43.70727" lon="3.48429">
        <ele>237.5</ele>
        <time>2016-11-06T09:56:17Z</time>
      </trkpt>
      <trkpt lat="43.70717" lon="3.48424">
        <ele>236.7</ele>
        <time>2016-11-06T09:56:18Z</time>
      </trkpt>
      <trkpt lat="43.70708" lon="3.48418">
        <ele>236.3</ele>
        <time>2016-11-06T09:56:19Z</time>
      </trkpt>
      <trkpt lat="43.70699" lon="3.48413">
        <ele>235.8</ele>
        <time>2016-11-06T09:56:20Z</time>
      </trkpt>
      <trkpt lat="43.70686" lon="3.48417">
        <ele>235.2</ele>
        <time>2016-11-06T09:56:22Z</time>
      </trkpt>
      <trkpt lat="43.70677" lon="3.48422">
        <ele>235.5</ele>
        <time>2016-11-06T09:56:24Z</time>
      </trkpt>
      <trkpt lat="43.7067" lon="3.48418">
        <ele>235.9</ele>
        <time>2016-11-06T09:56:26Z</time>
      </trkpt>
      <trkpt lat="43.70665" lon="3.4841">
        <ele>236.2</ele>
        <time>2016-11-06T09:56:28Z</time>
      </trkpt>
      <trkpt lat="43.70656" lon="3.48398">
        <ele>235.5</ele>
        <time>2016-11-06T09:56:30Z</time>
      </trkpt>
      <trkpt lat="43.70651" lon="3.48391">
        <ele>234.9</ele>
        <time>2016-11-06T09:56:31Z</time>
      </trkpt>
      <trkpt lat="43.70642" lon="3.48378">
        <ele>234</ele>
        <time>2016-11-06T09:56:33Z</time>
      </trkpt>
      <trkpt lat="43.70633" lon="3.48366">
        <ele>233.6</ele>
        <time>2016-11-06T09:56:35Z</time>
      </trkpt>
      <trkpt lat="43.70621" lon="3.48355">
        <ele>233.1</ele>
        <time>2016-11-06T09:56:37Z</time>
      </trkpt>
      <trkpt lat="43.70615" lon="3.48349">
        <ele>232.8</ele>
        <time>2016-11-06T09:56:38Z</time>
      </trkpt>
      <trkpt lat="43.70609" lon="3.48343">
        <ele>232.5</ele>
        <time>2016-11-06T09:56:39Z</time>
      </trkpt>
      <trkpt lat="43.70597" lon="3.48333">
        <ele>231.8</ele>
        <time>2016-11-06T09:56:41Z</time>
      </trkpt>
      <trkpt lat="43.70588" lon="3.48323">
        <ele>230.9</ele>
        <time>2016-11-06T09:56:43Z</time>
      </trkpt>
      <trkpt lat="43.70582" lon="3.4831">
        <ele>229.9</ele>
        <time>2016-11-06T09:56:45Z</time>
      </trkpt>
      <trkpt lat="43.70578" lon="3.48297">
        <ele>228.9</ele>
        <time>2016-11-06T09:56:47Z</time>
      </trkpt>
      <trkpt lat="43.70567" lon="3.48288">
        <ele>227.9</ele>
        <time>2016-11-06T09:56:49Z</time>
      </trkpt>
      <trkpt lat="43.70557" lon="3.48278">
        <ele>226.7</ele>
        <time>2016-11-06T09:56:51Z</time>
      </trkpt>
      <trkpt lat="43.70547" lon="3.4827">
        <ele>224.9</ele>
        <time>2016-11-06T09:56:53Z</time>
      </trkpt>
      <trkpt lat="43.70539" lon="3.48262">
        <ele>222.7</ele>
        <time>2016-11-06T09:56:55Z</time>
      </trkpt>
      <trkpt lat="43.7053" lon="3.48254">
        <ele>221.7</ele>
        <time>2016-11-06T09:56:57Z</time>
      </trkpt>
      <trkpt lat="43.70521" lon="3.48243">
        <ele>219.8</ele>
        <time>2016-11-06T09:56:59Z</time>
      </trkpt>
      <trkpt lat="43.70516" lon="3.48235">
        <ele>219.6</ele>
        <time>2016-11-06T09:57:01Z</time>
      </trkpt>
      <trkpt lat="43.70513" lon="3.48224">
        <ele>219.3</ele>
        <time>2016-11-06T09:57:04Z</time>
      </trkpt>
      <trkpt lat="43.70505" lon="3.48219">
        <ele>219</ele>
        <time>2016-11-06T09:57:07Z</time>
      </trkpt>
      <trkpt lat="43.70498" lon="3.48213">
        <ele>218.3</ele>
        <time>2016-11-06T09:57:11Z</time>
      </trkpt>
      <trkpt lat="43.70493" lon="3.48204">
        <ele>218.1</ele>
        <time>2016-11-06T09:57:13Z</time>
      </trkpt>
      <trkpt lat="43.70489" lon="3.48193">
        <ele>217.9</ele>
        <time>2016-11-06T09:57:16Z</time>
      </trkpt>
      <trkpt lat="43.70485" lon="3.48184">
        <ele>217.4</ele>
        <time>2016-11-06T09:57:21Z</time>
      </trkpt>
      <trkpt lat="43.70482" lon="3.48174">
        <ele>216.9</ele>
        <time>2016-11-06T09:57:24Z</time>
      </trkpt>
      <trkpt lat="43.70485" lon="3.48166">
        <ele>216.4</ele>
        <time>2016-11-06T09:57:27Z</time>
      </trkpt>
      <trkpt lat="43.70481" lon="3.48152">
        <ele>212.7</ele>
        <time>2016-11-06T09:57:29Z</time>
      </trkpt>
      <trkpt lat="43.70476" lon="3.48139">
        <ele>210.4</ele>
        <time>2016-11-06T09:57:31Z</time>
      </trkpt>
      <trkpt lat="43.70472" lon="3.48126">
        <ele>207.9</ele>
        <time>2016-11-06T09:57:33Z</time>
      </trkpt>
      <trkpt lat="43.70467" lon="3.48115">
        <ele>205.6</ele>
        <time>2016-11-06T09:57:35Z</time>
      </trkpt>
      <trkpt lat="43.70462" lon="3.48103">
        <ele>204.4</ele>
        <time>2016-11-06T09:57:37Z</time>
      </trkpt>
      <trkpt lat="43.70458" lon="3.48093">
        <ele>204.1</ele>
        <time>2016-11-06T09:57:39Z</time>
      </trkpt>
      <trkpt lat="43.70454" lon="3.48085">
        <ele>204.5</ele>
        <time>2016-11-06T09:57:41Z</time>
      </trkpt>
      <trkpt lat="43.70447" lon="3.48073">
        <ele>204.5</ele>
        <time>2016-11-06T09:57:44Z</time>
      </trkpt>
      <trkpt lat="43.70441" lon="3.48065">
        <ele>204.7</ele>
        <time>2016-11-06T09:57:47Z</time>
      </trkpt>
      <trkpt lat="43.70434" lon="3.4806">
        <ele>205</ele>
        <time>2016-11-06T09:57:51Z</time>
      </trkpt>
      <trkpt lat="43.70428" lon="3.48054">
        <ele>205.3</ele>
        <time>2016-11-06T09:57:54Z</time>
      </trkpt>
      <trkpt lat="43.70422" lon="3.48048">
        <ele>205.7</ele>
        <time>2016-11-06T09:57:57Z</time>
      </trkpt>
      <trkpt lat="43.70414" lon="3.48042">
        <ele>206.2</ele>
        <time>2016-11-06T09:58:01Z</time>
      </trkpt>
      <trkpt lat="43.70407" lon="3.48037">
        <ele>206.5</ele>
        <time>2016-11-06T09:58:04Z</time>
      </trkpt>
      <trkpt lat="43.704" lon="3.48032">
        <ele>207</ele>
        <time>2016-11-06T09:58:08Z</time>
      </trkpt>
      <trkpt lat="43.70396" lon="3.48022">
        <ele>207.5</ele>
        <time>2016-11-06T09:58:12Z</time>
      </trkpt>
      <trkpt lat="43.70391" lon="3.48013">
        <ele>208.3</ele>
        <time>2016-11-06T09:58:16Z</time>
      </trkpt>
      <trkpt lat="43.70385" lon="3.48006">
        <ele>208.7</ele>
        <time>2016-11-06T09:58:20Z</time>
      </trkpt>
      <trkpt lat="43.70378" lon="3.47999">
        <ele>209.1</ele>
        <time>2016-11-06T09:58:24Z</time>
      </trkpt>
      <trkpt lat="43.70372" lon="3.47992">
        <ele>209.9</ele>
        <time>2016-11-06T09:58:29Z</time>
      </trkpt>
      <trkpt lat="43.70366" lon="3.47985">
        <ele>210.4</ele>
        <time>2016-11-06T09:58:33Z</time>
      </trkpt>
      <trkpt lat="43.70359" lon="3.47979">
        <ele>211</ele>
        <time>2016-11-06T09:58:37Z</time>
      </trkpt>
      <trkpt lat="43.70353" lon="3.47973">
        <ele>211.4</ele>
        <time>2016-11-06T09:58:41Z</time>
      </trkpt>
      <trkpt lat="43.70349" lon="3.47964">
        <ele>212</ele>
        <time>2016-11-06T09:58:45Z</time>
      </trkpt>
      <trkpt lat="43.70353" lon="3.47955">
        <ele>212.6</ele>
        <time>2016-11-06T09:58:50Z</time>
      </trkpt>
      <trkpt lat="43.70361" lon="3.4795">
        <ele>213.2</ele>
        <time>2016-11-06T09:58:54Z</time>
      </trkpt>
      <trkpt lat="43.70368" lon="3.47947">
        <ele>213.5</ele>
        <time>2016-11-06T09:58:58Z</time>
      </trkpt>
      <trkpt lat="43.70377" lon="3.47946">
        <ele>213.9</ele>
        <time>2016-11-06T09:59:02Z</time>
      </trkpt>
      <trkpt lat="43.70384" lon="3.47944">
        <ele>214.3</ele>
        <time>2016-11-06T09:59:05Z</time>
      </trkpt>
      <trkpt lat="43.70394" lon="3.47941">
        <ele>215</ele>
        <time>2016-11-06T09:59:09Z</time>
      </trkpt>
      <trkpt lat="43.70401" lon="3.47941">
        <ele>215.4</ele>
        <time>2016-11-06T09:59:14Z</time>
      </trkpt>
      <trkpt lat="43.70409" lon="3.47939">
        <ele>215.9</ele>
        <time>2016-11-06T09:59:18Z</time>
      </trkpt>
      <trkpt lat="43.70416" lon="3.4794">
        <ele>216.4</ele>
        <time>2016-11-06T09:59:22Z</time>
      </trkpt>
      <trkpt lat="43.70424" lon="3.47939">
        <ele>216.8</ele>
        <time>2016-11-06T09:59:26Z</time>
      </trkpt>
      <trkpt lat="43.70432" lon="3.47939">
        <ele>217.6</ele>
        <time>2016-11-06T09:59:30Z</time>
      </trkpt>
      <trkpt lat="43.7044" lon="3.47938">
        <ele>218.2</ele>
        <time>2016-11-06T09:59:34Z</time>
      </trkpt>
      <trkpt lat="43.70448" lon="3.47934">
        <ele>218.7</ele>
        <time>2016-11-06T09:59:38Z</time>
      </trkpt>
      <trkpt lat="43.70454" lon="3.47928">
        <ele>219.5</ele>
        <time>2016-11-06T09:59:42Z</time>
      </trkpt>
      <trkpt lat="43.7046" lon="3.4792">
        <ele>220.1</ele>
        <time>2016-11-06T09:59:46Z</time>
      </trkpt>
      <trkpt lat="43.70464" lon="3.47912">
        <ele>220.6</ele>
        <time>2016-11-06T09:59:51Z</time>
      </trkpt>
      <trkpt lat="43.70465" lon="3.47901">
        <ele>221.4</ele>
        <time>2016-11-06T09:59:56Z</time>
      </trkpt>
      <trkpt lat="43.70465" lon="3.47891">
        <ele>222.2</ele>
        <time>2016-11-06T10:00:01Z</time>
      </trkpt>
      <trkpt lat="43.70463" lon="3.47881">
        <ele>222.6</ele>
        <time>2016-11-06T10:00:06Z</time>
      </trkpt>
      <trkpt lat="43.70461" lon="3.47869">
        <ele>223.5</ele>
        <time>2016-11-06T10:00:11Z</time>
      </trkpt>
      <trkpt lat="43.70461" lon="3.47857">
        <ele>224.1</ele>
        <time>2016-11-06T10:00:16Z</time>
      </trkpt>
      <trkpt lat="43.70463" lon="3.47848">
        <ele>225</ele>
        <time>2016-11-06T10:00:22Z</time>
      </trkpt>
      <trkpt lat="43.70463" lon="3.47837">
        <ele>225.8</ele>
        <time>2016-11-06T10:00:27Z</time>
      </trkpt>
      <trkpt lat="43.70463" lon="3.47825">
        <ele>226.6</ele>
        <time>2016-11-06T10:00:32Z</time>
      </trkpt>
      <trkpt lat="43.70467" lon="3.47815">
        <ele>227.3</ele>
        <time>2016-11-06T10:00:36Z</time>
      </trkpt>
      <trkpt lat="43.70472" lon="3.47808">
        <ele>227.9</ele>
        <time>2016-11-06T10:00:40Z</time>
      </trkpt>
      <trkpt lat="43.70478" lon="3.47801">
        <ele>228.2</ele>
        <time>2016-11-06T10:00:43Z</time>
      </trkpt>
      <trkpt lat="43.70483" lon="3.47792">
        <ele>228.5</ele>
        <time>2016-11-06T10:00:47Z</time>
      </trkpt>
      <trkpt lat="43.70489" lon="3.47784">
        <ele>228.9</ele>
        <time>2016-11-06T10:00:51Z</time>
      </trkpt>
      <trkpt lat="43.70498" lon="3.47776">
        <ele>229.3</ele>
        <time>2016-11-06T10:00:55Z</time>
      </trkpt>
      <trkpt lat="43.70506" lon="3.47769">
        <ele>229.8</ele>
        <time>2016-11-06T10:00:59Z</time>
      </trkpt>
      <trkpt lat="43.70513" lon="3.47767">
        <ele>229.9</ele>
        <time>2016-11-06T10:01:01Z</time>
      </trkpt>
      <trkpt lat="43.70521" lon="3.47764">
        <ele>231.1</ele>
        <time>2016-11-06T10:01:03Z</time>
      </trkpt>
      <trkpt lat="43.7053" lon="3.47757">
        <ele>231.3</ele>
        <time>2016-11-06T10:01:06Z</time>
      </trkpt>
      <trkpt lat="43.70536" lon="3.4775">
        <ele>231.5</ele>
        <time>2016-11-06T10:01:08Z</time>
      </trkpt>
      <trkpt lat="43.70542" lon="3.47741">
        <ele>231.7</ele>
        <time>2016-11-06T10:01:11Z</time>
      </trkpt>
      <trkpt lat="43.70543" lon="3.47731">
        <ele>232.2</ele>
        <time>2016-11-06T10:01:15Z</time>
      </trkpt>
      <trkpt lat="43.70543" lon="3.4772">
        <ele>232.6</ele>
        <time>2016-11-06T10:01:18Z</time>
      </trkpt>
      <trkpt lat="43.70546" lon="3.4771">
        <ele>233.1</ele>
        <time>2016-11-06T10:01:22Z</time>
      </trkpt>
      <trkpt lat="43.70555" lon="3.47704">
        <ele>233.6</ele>
        <time>2016-11-06T10:01:26Z</time>
      </trkpt>
      <trkpt lat="43.70564" lon="3.47699">
        <ele>234.1</ele>
        <time>2016-11-06T10:01:30Z</time>
      </trkpt>
      <trkpt lat="43.70572" lon="3.47692">
        <ele>234.5</ele>
        <time>2016-11-06T10:01:34Z</time>
      </trkpt>
      <trkpt lat="43.7058" lon="3.4769">
        <ele>234.8</ele>
        <time>2016-11-06T10:01:37Z</time>
      </trkpt>
      <trkpt lat="43.70588" lon="3.47687">
        <ele>235.3</ele>
        <time>2016-11-06T10:01:41Z</time>
      </trkpt>
      <trkpt lat="43.70596" lon="3.47685">
        <ele>235.8</ele>
        <time>2016-11-06T10:01:45Z</time>
      </trkpt>
      <trkpt lat="43.70604" lon="3.47684">
        <ele>236.5</ele>
        <time>2016-11-06T10:01:49Z</time>
      </trkpt>
      <trkpt lat="43.70612" lon="3.47684">
        <ele>237</ele>
        <time>2016-11-06T10:01:53Z</time>
      </trkpt>
      <trkpt lat="43.70619" lon="3.47684">
        <ele>237.3</ele>
        <time>2016-11-06T10:01:57Z</time>
      </trkpt>
      <trkpt lat="43.70629" lon="3.47686">
        <ele>237.4</ele>
        <time>2016-11-06T10:02:01Z</time>
      </trkpt>
      <trkpt lat="43.70638" lon="3.47687">
        <ele>237.4</ele>
        <time>2016-11-06T10:02:05Z</time>
      </trkpt>
      <trkpt lat="43.70647" lon="3.47687">
        <ele>237.4</ele>
        <time>2016-11-06T10:02:09Z</time>
      </trkpt>
      <trkpt lat="43.70655" lon="3.47686">
        <ele>237.5</ele>
        <time>2016-11-06T10:02:13Z</time>
      </trkpt>
      <trkpt lat="43.70663" lon="3.47683">
        <ele>237.8</ele>
        <time>2016-11-06T10:02:17Z</time>
      </trkpt>
      <trkpt lat="43.7067" lon="3.4768">
        <ele>238</ele>
        <time>2016-11-06T10:02:20Z</time>
      </trkpt>
      <trkpt lat="43.70679" lon="3.4768">
        <ele>238.2</ele>
        <time>2016-11-06T10:02:24Z</time>
      </trkpt>
      <trkpt lat="43.70686" lon="3.4768">
        <ele>238.2</ele>
        <time>2016-11-06T10:02:27Z</time>
      </trkpt>
      <trkpt lat="43.70695" lon="3.47679">
        <ele>238.2</ele>
        <time>2016-11-06T10:02:31Z</time>
      </trkpt>
      <trkpt lat="43.70702" lon="3.47677">
        <ele>238.2</ele>
        <time>2016-11-06T10:02:34Z</time>
      </trkpt>
      <trkpt lat="43.70711" lon="3.47674">
        <ele>238.4</ele>
        <time>2016-11-06T10:02:38Z</time>
      </trkpt>
      <trkpt lat="43.70718" lon="3.47672">
        <ele>238.6</ele>
        <time>2016-11-06T10:02:41Z</time>
      </trkpt>
      <trkpt lat="43.70727" lon="3.47669">
        <ele>239.2</ele>
        <time>2016-11-06T10:02:45Z</time>
      </trkpt>
      <trkpt lat="43.70734" lon="3.47668">
        <ele>239.6</ele>
        <time>2016-11-06T10:02:48Z</time>
      </trkpt>
      <trkpt lat="43.70741" lon="3.47667">
        <ele>239.9</ele>
        <time>2016-11-06T10:02:51Z</time>
      </trkpt>
      <trkpt lat="43.7075" lon="3.47666">
        <ele>240.1</ele>
        <time>2016-11-06T10:02:54Z</time>
      </trkpt>
      <trkpt lat="43.70757" lon="3.47665">
        <ele>240.4</ele>
        <time>2016-11-06T10:02:57Z</time>
      </trkpt>
      <trkpt lat="43.70767" lon="3.47665">
        <ele>240.6</ele>
        <time>2016-11-06T10:03:01Z</time>
      </trkpt>
      <trkpt lat="43.70776" lon="3.47666">
        <ele>240.9</ele>
        <time>2016-11-06T10:03:04Z</time>
      </trkpt>
      <trkpt lat="43.70783" lon="3.47669">
        <ele>241.1</ele>
        <time>2016-11-06T10:03:07Z</time>
      </trkpt>
      <trkpt lat="43.70791" lon="3.47672">
        <ele>241.2</ele>
        <time>2016-11-06T10:03:10Z</time>
      </trkpt>
      <trkpt lat="43.70799" lon="3.47675">
        <ele>241.5</ele>
        <time>2016-11-06T10:03:14Z</time>
      </trkpt>
      <trkpt lat="43.70807" lon="3.47675">
        <ele>241.7</ele>
        <time>2016-11-06T10:03:17Z</time>
      </trkpt>
      <trkpt lat="43.70814" lon="3.47675">
        <ele>242.1</ele>
        <time>2016-11-06T10:03:20Z</time>
      </trkpt>
      <trkpt lat="43.70822" lon="3.47675">
        <ele>242.4</ele>
        <time>2016-11-06T10:03:23Z</time>
      </trkpt>
      <trkpt lat="43.7083" lon="3.47676">
        <ele>242.8</ele>
        <time>2016-11-06T10:03:26Z</time>
      </trkpt>
      <trkpt lat="43.70838" lon="3.47677">
        <ele>243.1</ele>
        <time>2016-11-06T10:03:29Z</time>
      </trkpt>
      <trkpt lat="43.70846" lon="3.47677">
        <ele>243.4</ele>
        <time>2016-11-06T10:03:32Z</time>
      </trkpt>
      <trkpt lat="43.70854" lon="3.47677">
        <ele>243.6</ele>
        <time>2016-11-06T10:03:35Z</time>
      </trkpt>
      <trkpt lat="43.70862" lon="3.47677">
        <ele>243.8</ele>
        <time>2016-11-06T10:03:38Z</time>
      </trkpt>
      <trkpt lat="43.7087" lon="3.47676">
        <ele>243.9</ele>
        <time>2016-11-06T10:03:41Z</time>
      </trkpt>
      <trkpt lat="43.70879" lon="3.47677">
        <ele>244</ele>
        <time>2016-11-06T10:03:44Z</time>
      </trkpt>
      <trkpt lat="43.70886" lon="3.4768">
        <ele>244.3</ele>
        <time>2016-11-06T10:03:47Z</time>
      </trkpt>
      <trkpt lat="43.70895" lon="3.47685">
        <ele>244.5</ele>
        <time>2016-11-06T10:03:50Z</time>
      </trkpt>
      <trkpt lat="43.70903" lon="3.47687">
        <ele>244.9</ele>
        <time>2016-11-06T10:03:54Z</time>
      </trkpt>
      <trkpt lat="43.70911" lon="3.47683">
        <ele>245.1</ele>
        <time>2016-11-06T10:03:58Z</time>
      </trkpt>
      <trkpt lat="43.70918" lon="3.47677">
        <ele>245.3</ele>
        <time>2016-11-06T10:04:01Z</time>
      </trkpt>
      <trkpt lat="43.70924" lon="3.47672">
        <ele>245.4</ele>
        <time>2016-11-06T10:04:03Z</time>
      </trkpt>
      <trkpt lat="43.70933" lon="3.47667">
        <ele>245.3</ele>
        <time>2016-11-06T10:04:06Z</time>
      </trkpt>
      <trkpt lat="43.70941" lon="3.47662">
        <ele>245.6</ele>
        <time>2016-11-06T10:04:10Z</time>
      </trkpt>
      <trkpt lat="43.70948" lon="3.47657">
        <ele>245.9</ele>
        <time>2016-11-06T10:04:13Z</time>
      </trkpt>
      <trkpt lat="43.70953" lon="3.4765">
        <ele>246.5</ele>
        <time>2016-11-06T10:04:17Z</time>
      </trkpt>
      <trkpt lat="43.70959" lon="3.4764">
        <ele>246.9</ele>
        <time>2016-11-06T10:04:20Z</time>
      </trkpt>
      <trkpt lat="43.70965" lon="3.47633">
        <ele>247.2</ele>
        <time>2016-11-06T10:04:23Z</time>
      </trkpt>
      <trkpt lat="43.70975" lon="3.4763">
        <ele>247.6</ele>
        <time>2016-11-06T10:04:27Z</time>
      </trkpt>
      <trkpt lat="43.70983" lon="3.47628">
        <ele>248</ele>
        <time>2016-11-06T10:04:31Z</time>
      </trkpt>
      <trkpt lat="43.70992" lon="3.47626">
        <ele>248.3</ele>
        <time>2016-11-06T10:04:34Z</time>
      </trkpt>
      <trkpt lat="43.71" lon="3.47625">
        <ele>248.7</ele>
        <time>2016-11-06T10:04:37Z</time>
      </trkpt>
      <trkpt lat="43.71007" lon="3.47621">
        <ele>249.4</ele>
        <time>2016-11-06T10:04:42Z</time>
      </trkpt>
      <trkpt lat="43.71014" lon="3.47613">
        <ele>250.1</ele>
        <time>2016-11-06T10:04:47Z</time>
      </trkpt>
      <trkpt lat="43.71021" lon="3.47606">
        <ele>250.6</ele>
        <time>2016-11-06T10:04:50Z</time>
      </trkpt>
      <trkpt lat="43.71029" lon="3.47601">
        <ele>251.4</ele>
        <time>2016-11-06T10:04:54Z</time>
      </trkpt>
      <trkpt lat="43.71036" lon="3.47596">
        <ele>252.2</ele>
        <time>2016-11-06T10:04:58Z</time>
      </trkpt>
      <trkpt lat="43.71043" lon="3.47591">
        <ele>252.6</ele>
        <time>2016-11-06T10:05:01Z</time>
      </trkpt>
      <trkpt lat="43.71051" lon="3.47585">
        <ele>253.1</ele>
        <time>2016-11-06T10:05:05Z</time>
      </trkpt>
      <trkpt lat="43.71057" lon="3.4758">
        <ele>253.3</ele>
        <time>2016-11-06T10:05:08Z</time>
      </trkpt>
      <trkpt lat="43.71063" lon="3.47575">
        <ele>253.6</ele>
        <time>2016-11-06T10:05:11Z</time>
      </trkpt>
      <trkpt lat="43.7107" lon="3.4757">
        <ele>254</ele>
        <time>2016-11-06T10:05:14Z</time>
      </trkpt>
      <trkpt lat="43.71076" lon="3.47563">
        <ele>254.5</ele>
        <time>2016-11-06T10:05:18Z</time>
      </trkpt>
      <trkpt lat="43.71083" lon="3.47558">
        <ele>254.8</ele>
        <time>2016-11-06T10:05:21Z</time>
      </trkpt>
      <trkpt lat="43.7109" lon="3.47551">
        <ele>255.1</ele>
        <time>2016-11-06T10:05:25Z</time>
      </trkpt>
      <trkpt lat="43.71096" lon="3.47542">
        <ele>255</ele>
        <time>2016-11-06T10:05:28Z</time>
      </trkpt>
      <trkpt lat="43.71102" lon="3.47533">
        <ele>255</ele>
        <time>2016-11-06T10:05:32Z</time>
      </trkpt>
      <trkpt lat="43.71108" lon="3.47525">
        <ele>255</ele>
        <time>2016-11-06T10:05:36Z</time>
      </trkpt>
      <trkpt lat="43.71115" lon="3.47517">
        <ele>255.1</ele>
        <time>2016-11-06T10:05:40Z</time>
      </trkpt>
      <trkpt lat="43.71121" lon="3.4751">
        <ele>255.3</ele>
        <time>2016-11-06T10:05:43Z</time>
      </trkpt>
      <trkpt lat="43.71126" lon="3.47502">
        <ele>255.6</ele>
        <time>2016-11-06T10:05:47Z</time>
      </trkpt>
      <trkpt lat="43.71132" lon="3.47495">
        <ele>256.1</ele>
        <time>2016-11-06T10:05:51Z</time>
      </trkpt>
      <trkpt lat="43.71137" lon="3.47487">
        <ele>256.5</ele>
        <time>2016-11-06T10:05:55Z</time>
      </trkpt>
      <trkpt lat="43.71142" lon="3.47479">
        <ele>257</ele>
        <time>2016-11-06T10:05:59Z</time>
      </trkpt>
      <trkpt lat="43.71147" lon="3.47469">
        <ele>257.3</ele>
        <time>2016-11-06T10:06:02Z</time>
      </trkpt>
      <trkpt lat="43.71152" lon="3.47461">
        <ele>257.6</ele>
        <time>2016-11-06T10:06:05Z</time>
      </trkpt>
      <trkpt lat="43.71157" lon="3.47453">
        <ele>257.8</ele>
        <time>2016-11-06T10:06:08Z</time>
      </trkpt>
      <trkpt lat="43.71163" lon="3.47442">
        <ele>258.2</ele>
        <time>2016-11-06T10:06:12Z</time>
      </trkpt>
      <trkpt lat="43.71169" lon="3.47435">
        <ele>258.8</ele>
        <time>2016-11-06T10:06:16Z</time>
      </trkpt>
      <trkpt lat="43.71178" lon="3.4743">
        <ele>259.2</ele>
        <time>2016-11-06T10:06:21Z</time>
      </trkpt>
      <trkpt lat="43.71187" lon="3.47427">
        <ele>259.7</ele>
        <time>2016-11-06T10:06:25Z</time>
      </trkpt>
      <trkpt lat="43.71195" lon="3.47422">
        <ele>260.1</ele>
        <time>2016-11-06T10:06:28Z</time>
      </trkpt>
      <trkpt lat="43.71202" lon="3.47417">
        <ele>260.5</ele>
        <time>2016-11-06T10:06:31Z</time>
      </trkpt>
      <trkpt lat="43.71195" lon="3.47413">
        <ele>261.4</ele>
        <time>2016-11-06T10:06:38Z</time>
      </trkpt>
      <trkpt lat="43.71187" lon="3.47415">
        <ele>261.8</ele>
        <time>2016-11-06T10:06:42Z</time>
      </trkpt>
      <trkpt lat="43.71178" lon="3.47416">
        <ele>262.4</ele>
        <time>2016-11-06T10:06:47Z</time>
      </trkpt>
      <trkpt lat="43.71171" lon="3.47415">
        <ele>263</ele>
        <time>2016-11-06T10:06:52Z</time>
      </trkpt>
      <trkpt lat="43.71162" lon="3.47414">
        <ele>263.9</ele>
        <time>2016-11-06T10:06:57Z</time>
      </trkpt>
      <trkpt lat="43.71154" lon="3.47415">
        <ele>264.4</ele>
        <time>2016-11-06T10:07:00Z</time>
      </trkpt>
      <trkpt lat="43.71146" lon="3.4742">
        <ele>265.2</ele>
        <time>2016-11-06T10:07:05Z</time>
      </trkpt>
      <trkpt lat="43.7114" lon="3.47427">
        <ele>265.7</ele>
        <time>2016-11-06T10:07:10Z</time>
      </trkpt>
      <trkpt lat="43.71136" lon="3.47436">
        <ele>266.5</ele>
        <time>2016-11-06T10:07:15Z</time>
      </trkpt>
      <trkpt lat="43.7113" lon="3.47441">
        <ele>267.4</ele>
        <time>2016-11-06T10:07:20Z</time>
      </trkpt>
      <trkpt lat="43.71123" lon="3.47434">
        <ele>268.2</ele>
        <time>2016-11-06T10:07:25Z</time>
      </trkpt>
      <trkpt lat="43.71124" lon="3.47424">
        <ele>268.9</ele>
        <time>2016-11-06T10:07:31Z</time>
      </trkpt>
      <trkpt lat="43.71126" lon="3.47413">
        <ele>269.3</ele>
        <time>2016-11-06T10:07:37Z</time>
      </trkpt>
      <trkpt lat="43.7113" lon="3.47402">
        <ele>270</ele>
        <time>2016-11-06T10:07:42Z</time>
      </trkpt>
      <trkpt lat="43.71131" lon="3.47393">
        <ele>270.8</ele>
        <time>2016-11-06T10:07:48Z</time>
      </trkpt>
      <trkpt lat="43.71135" lon="3.47383">
        <ele>271.1</ele>
        <time>2016-11-06T10:07:53Z</time>
      </trkpt>
      <trkpt lat="43.7114" lon="3.47374">
        <ele>271.5</ele>
        <time>2016-11-06T10:07:58Z</time>
      </trkpt>
      <trkpt lat="43.71145" lon="3.47369">
        <ele>272</ele>
        <time>2016-11-06T10:08:03Z</time>
      </trkpt>
      <trkpt lat="43.71152" lon="3.47362">
        <ele>272.8</ele>
        <time>2016-11-06T10:08:08Z</time>
      </trkpt>
      <trkpt lat="43.71159" lon="3.47357">
        <ele>273.2</ele>
        <time>2016-11-06T10:08:13Z</time>
      </trkpt>
      <trkpt lat="43.71165" lon="3.47352">
        <ele>273.6</ele>
        <time>2016-11-06T10:08:18Z</time>
      </trkpt>
      <trkpt lat="43.71172" lon="3.47348">
        <ele>274.7</ele>
        <time>2016-11-06T10:08:24Z</time>
      </trkpt>
      <trkpt lat="43.71179" lon="3.47345">
        <ele>275.5</ele>
        <time>2016-11-06T10:08:28Z</time>
      </trkpt>
      <trkpt lat="43.71186" lon="3.47343">
        <ele>276.2</ele>
        <time>2016-11-06T10:08:32Z</time>
      </trkpt>
      <trkpt lat="43.71193" lon="3.47339">
        <ele>276.9</ele>
        <time>2016-11-06T10:08:36Z</time>
      </trkpt>
      <trkpt lat="43.712" lon="3.47335">
        <ele>277.2</ele>
        <time>2016-11-06T10:08:40Z</time>
      </trkpt>
      <trkpt lat="43.71207" lon="3.47331">
        <ele>277.9</ele>
        <time>2016-11-06T10:08:46Z</time>
      </trkpt>
      <trkpt lat="43.71214" lon="3.47327">
        <ele>278.6</ele>
        <time>2016-11-06T10:08:52Z</time>
      </trkpt>
      <trkpt lat="43.71221" lon="3.47321">
        <ele>278.9</ele>
        <time>2016-11-06T10:08:57Z</time>
      </trkpt>
      <trkpt lat="43.71226" lon="3.47315">
        <ele>279.4</ele>
        <time>2016-11-06T10:09:04Z</time>
      </trkpt>
      <trkpt lat="43.71234" lon="3.47312">
        <ele>279.9</ele>
        <time>2016-11-06T10:09:08Z</time>
      </trkpt>
      <trkpt lat="43.71242" lon="3.4731">
        <ele>280.7</ele>
        <time>2016-11-06T10:09:13Z</time>
      </trkpt>
      <trkpt lat="43.71249" lon="3.47308">
        <ele>281.3</ele>
        <time>2016-11-06T10:09:18Z</time>
      </trkpt>
      <trkpt lat="43.71258" lon="3.47305">
        <ele>282.1</ele>
        <time>2016-11-06T10:09:24Z</time>
      </trkpt>
      <trkpt lat="43.71265" lon="3.47302">
        <ele>282.7</ele>
        <time>2016-11-06T10:09:29Z</time>
      </trkpt>
      <trkpt lat="43.71272" lon="3.47296">
        <ele>283.3</ele>
        <time>2016-11-06T10:09:35Z</time>
      </trkpt>
      <trkpt lat="43.71279" lon="3.47289">
        <ele>283.9</ele>
        <time>2016-11-06T10:09:40Z</time>
      </trkpt>
      <trkpt lat="43.71285" lon="3.47282">
        <ele>284.4</ele>
        <time>2016-11-06T10:09:43Z</time>
      </trkpt>
      <trkpt lat="43.71291" lon="3.47275">
        <ele>284.8</ele>
        <time>2016-11-06T10:09:47Z</time>
      </trkpt>
      <trkpt lat="43.71297" lon="3.47269">
        <ele>285.2</ele>
        <time>2016-11-06T10:09:51Z</time>
      </trkpt>
      <trkpt lat="43.71304" lon="3.47266">
        <ele>286</ele>
        <time>2016-11-06T10:09:56Z</time>
      </trkpt>
      <trkpt lat="43.71313" lon="3.47262">
        <ele>286.7</ele>
        <time>2016-11-06T10:10:01Z</time>
      </trkpt>
      <trkpt lat="43.7132" lon="3.47257">
        <ele>287.4</ele>
        <time>2016-11-06T10:10:05Z</time>
      </trkpt>
      <trkpt lat="43.71327" lon="3.4725">
        <ele>288.3</ele>
        <time>2016-11-06T10:10:10Z</time>
      </trkpt>
      <trkpt lat="43.71332" lon="3.4724">
        <ele>288.9</ele>
        <time>2016-11-06T10:10:14Z</time>
      </trkpt>
      <trkpt lat="43.71338" lon="3.47232">
        <ele>289.3</ele>
        <time>2016-11-06T10:10:18Z</time>
      </trkpt>
      <trkpt lat="43.71343" lon="3.47226">
        <ele>289.6</ele>
        <time>2016-11-06T10:10:22Z</time>
      </trkpt>
      <trkpt lat="43.71348" lon="3.47217">
        <ele>290.1</ele>
        <time>2016-11-06T10:10:28Z</time>
      </trkpt>
      <trkpt lat="43.71353" lon="3.4721">
        <ele>290.5</ele>
        <time>2016-11-06T10:10:33Z</time>
      </trkpt>
      <trkpt lat="43.71357" lon="3.47201">
        <ele>291</ele>
        <time>2016-11-06T10:10:38Z</time>
      </trkpt>
      <trkpt lat="43.71363" lon="3.47193">
        <ele>291.6</ele>
        <time>2016-11-06T10:10:43Z</time>
      </trkpt>
      <trkpt lat="43.71368" lon="3.47185">
        <ele>292</ele>
        <time>2016-11-06T10:10:48Z</time>
      </trkpt>
      <trkpt lat="43.71374" lon="3.47175">
        <ele>292.6</ele>
        <time>2016-11-06T10:10:54Z</time>
      </trkpt>
      <trkpt lat="43.71378" lon="3.47166">
        <ele>293.2</ele>
        <time>2016-11-06T10:10:58Z</time>
      </trkpt>
      <trkpt lat="43.71382" lon="3.47157">
        <ele>293.5</ele>
        <time>2016-11-06T10:11:01Z</time>
      </trkpt>
      <trkpt lat="43.71387" lon="3.47148">
        <ele>293.9</ele>
        <time>2016-11-06T10:11:05Z</time>
      </trkpt>
      <trkpt lat="43.71391" lon="3.47138">
        <ele>294.4</ele>
        <time>2016-11-06T10:11:10Z</time>
      </trkpt>
      <trkpt lat="43.71397" lon="3.47129">
        <ele>294.8</ele>
        <time>2016-11-06T10:11:15Z</time>
      </trkpt>
      <trkpt lat="43.71401" lon="3.47122">
        <ele>295.1</ele>
        <time>2016-11-06T10:11:20Z</time>
      </trkpt>
      <trkpt lat="43.71407" lon="3.47113">
        <ele>296</ele>
        <time>2016-11-06T10:11:26Z</time>
      </trkpt>
      <trkpt lat="43.71412" lon="3.47107">
        <ele>296.8</ele>
        <time>2016-11-06T10:11:30Z</time>
      </trkpt>
      <trkpt lat="43.71418" lon="3.47098">
        <ele>297.9</ele>
        <time>2016-11-06T10:11:35Z</time>
      </trkpt>
      <trkpt lat="43.71423" lon="3.47088">
        <ele>298.8</ele>
        <time>2016-11-06T10:11:41Z</time>
      </trkpt>
      <trkpt lat="43.71425" lon="3.47077">
        <ele>299.6</ele>
        <time>2016-11-06T10:11:46Z</time>
      </trkpt>
      <trkpt lat="43.71425" lon="3.47066">
        <ele>300.4</ele>
        <time>2016-11-06T10:11:51Z</time>
      </trkpt>
      <trkpt lat="43.71425" lon="3.47056">
        <ele>301.3</ele>
        <time>2016-11-06T10:11:56Z</time>
      </trkpt>
      <trkpt lat="43.71424" lon="3.47044">
        <ele>302</ele>
        <time>2016-11-06T10:12:01Z</time>
      </trkpt>
      <trkpt lat="43.71426" lon="3.47032">
        <ele>302.6</ele>
        <time>2016-11-06T10:12:06Z</time>
      </trkpt>
      <trkpt lat="43.7143" lon="3.47023">
        <ele>303.2</ele>
        <time>2016-11-06T10:12:10Z</time>
      </trkpt>
      <trkpt lat="43.71434" lon="3.47014">
        <ele>304.1</ele>
        <time>2016-11-06T10:12:15Z</time>
      </trkpt>
      <trkpt lat="43.71439" lon="3.47005">
        <ele>304.8</ele>
        <time>2016-11-06T10:12:20Z</time>
      </trkpt>
      <trkpt lat="43.71442" lon="3.46996">
        <ele>305.6</ele>
        <time>2016-11-06T10:12:26Z</time>
      </trkpt>
      <trkpt lat="43.71443" lon="3.46985">
        <ele>306.5</ele>
        <time>2016-11-06T10:12:32Z</time>
      </trkpt>
      <trkpt lat="43.71445" lon="3.46973">
        <ele>307.4</ele>
        <time>2016-11-06T10:12:38Z</time>
      </trkpt>
      <trkpt lat="43.71448" lon="3.4696">
        <ele>308.3</ele>
        <time>2016-11-06T10:12:44Z</time>
      </trkpt>
      <trkpt lat="43.71449" lon="3.4695">
        <ele>309.1</ele>
        <time>2016-11-06T10:12:50Z</time>
      </trkpt>
      <trkpt lat="43.71443" lon="3.46954">
        <ele>310</ele>
        <time>2016-11-06T10:12:57Z</time>
      </trkpt>
      <trkpt lat="43.7144" lon="3.46965">
        <ele>310.9</ele>
        <time>2016-11-06T10:13:02Z</time>
      </trkpt>
      <trkpt lat="43.71438" lon="3.46974">
        <ele>311.6</ele>
        <time>2016-11-06T10:13:06Z</time>
      </trkpt>
      <trkpt lat="43.71434" lon="3.46983">
        <ele>312.3</ele>
        <time>2016-11-06T10:13:10Z</time>
      </trkpt>
      <trkpt lat="43.71429" lon="3.46992">
        <ele>312.9</ele>
        <time>2016-11-06T10:13:14Z</time>
      </trkpt>
      <trkpt lat="43.71423" lon="3.46998">
        <ele>313.2</ele>
        <time>2016-11-06T10:13:18Z</time>
      </trkpt>
      <trkpt lat="43.71416" lon="3.47003">
        <ele>313.5</ele>
        <time>2016-11-06T10:13:23Z</time>
      </trkpt>
      <trkpt lat="43.7141" lon="3.47009">
        <ele>313.9</ele>
        <time>2016-11-06T10:13:28Z</time>
      </trkpt>
      <trkpt lat="43.71404" lon="3.47017">
        <ele>314.7</ele>
        <time>2016-11-06T10:13:33Z</time>
      </trkpt>
      <trkpt lat="43.714" lon="3.47028">
        <ele>315.9</ele>
        <time>2016-11-06T10:13:39Z</time>
      </trkpt>
      <trkpt lat="43.71397" lon="3.4704">
        <ele>316.8</ele>
        <time>2016-11-06T10:13:44Z</time>
      </trkpt>
      <trkpt lat="43.71394" lon="3.4705">
        <ele>317.7</ele>
        <time>2016-11-06T10:13:48Z</time>
      </trkpt>
      <trkpt lat="43.71391" lon="3.47059">
        <ele>318.2</ele>
        <time>2016-11-06T10:13:52Z</time>
      </trkpt>
      <trkpt lat="43.71387" lon="3.47069">
        <ele>318.7</ele>
        <time>2016-11-06T10:13:56Z</time>
      </trkpt>
      <trkpt lat="43.71382" lon="3.47079">
        <ele>319.3</ele>
        <time>2016-11-06T10:14:00Z</time>
      </trkpt>
      <trkpt lat="43.71376" lon="3.47088">
        <ele>319.9</ele>
        <time>2016-11-06T10:14:04Z</time>
      </trkpt>
      <trkpt lat="43.7137" lon="3.47096">
        <ele>320.4</ele>
        <time>2016-11-06T10:14:08Z</time>
      </trkpt>
      <trkpt lat="43.71365" lon="3.47104">
        <ele>320.8</ele>
        <time>2016-11-06T10:14:12Z</time>
      </trkpt>
      <trkpt lat="43.71359" lon="3.47112">
        <ele>321.1</ele>
        <time>2016-11-06T10:14:16Z</time>
      </trkpt>
      <trkpt lat="43.71353" lon="3.4712">
        <ele>321.4</ele>
        <time>2016-11-06T10:14:20Z</time>
      </trkpt>
      <trkpt lat="43.71346" lon="3.47129">
        <ele>321.5</ele>
        <time>2016-11-06T10:14:23Z</time>
      </trkpt>
      <trkpt lat="43.71339" lon="3.47136">
        <ele>321.8</ele>
        <time>2016-11-06T10:14:28Z</time>
      </trkpt>
      <trkpt lat="43.71334" lon="3.47144">
        <ele>322.2</ele>
        <time>2016-11-06T10:14:33Z</time>
      </trkpt>
      <trkpt lat="43.71328" lon="3.47152">
        <ele>322.7</ele>
        <time>2016-11-06T10:14:38Z</time>
      </trkpt>
      <trkpt lat="43.71321" lon="3.47159">
        <ele>323.1</ele>
        <time>2016-11-06T10:14:42Z</time>
      </trkpt>
      <trkpt lat="43.71315" lon="3.47169">
        <ele>323.7</ele>
        <time>2016-11-06T10:14:47Z</time>
      </trkpt>
      <trkpt lat="43.71308" lon="3.47178">
        <ele>324.3</ele>
        <time>2016-11-06T10:14:51Z</time>
      </trkpt>
      <trkpt lat="43.713" lon="3.47185">
        <ele>324.8</ele>
        <time>2016-11-06T10:14:55Z</time>
      </trkpt>
      <trkpt lat="43.71292" lon="3.4719">
        <ele>325.3</ele>
        <time>2016-11-06T10:14:59Z</time>
      </trkpt>
      <trkpt lat="43.71284" lon="3.47193">
        <ele>325.7</ele>
        <time>2016-11-06T10:15:02Z</time>
      </trkpt>
      <trkpt lat="43.71277" lon="3.47197">
        <ele>325.9</ele>
        <time>2016-11-06T10:15:05Z</time>
      </trkpt>
      <trkpt lat="43.71269" lon="3.47202">
        <ele>326.3</ele>
        <time>2016-11-06T10:15:09Z</time>
      </trkpt>
      <trkpt lat="43.7126" lon="3.47205">
        <ele>326.9</ele>
        <time>2016-11-06T10:15:14Z</time>
      </trkpt>
      <trkpt lat="43.71253" lon="3.47206">
        <ele>327.6</ele>
        <time>2016-11-06T10:15:18Z</time>
      </trkpt>
      <trkpt lat="43.71244" lon="3.47208">
        <ele>328.4</ele>
        <time>2016-11-06T10:15:22Z</time>
      </trkpt>
      <trkpt lat="43.71237" lon="3.47208">
        <ele>328.7</ele>
        <time>2016-11-06T10:15:25Z</time>
      </trkpt>
      <trkpt lat="43.7123" lon="3.47206">
        <ele>328.8</ele>
        <time>2016-11-06T10:15:29Z</time>
      </trkpt>
      <trkpt lat="43.71221" lon="3.47204">
        <ele>328.9</ele>
        <time>2016-11-06T10:15:33Z</time>
      </trkpt>
      <trkpt lat="43.71214" lon="3.47205">
        <ele>329.2</ele>
        <time>2016-11-06T10:15:37Z</time>
      </trkpt>
      <trkpt lat="43.71205" lon="3.47208">
        <ele>329.7</ele>
        <time>2016-11-06T10:15:41Z</time>
      </trkpt>
      <trkpt lat="43.71197" lon="3.47212">
        <ele>330.5</ele>
        <time>2016-11-06T10:15:45Z</time>
      </trkpt>
      <trkpt lat="43.71188" lon="3.47216">
        <ele>331.1</ele>
        <time>2016-11-06T10:15:49Z</time>
      </trkpt>
      <trkpt lat="43.7118" lon="3.47219">
        <ele>331.5</ele>
        <time>2016-11-06T10:15:53Z</time>
      </trkpt>
      <trkpt lat="43.71171" lon="3.4722">
        <ele>331.9</ele>
        <time>2016-11-06T10:15:57Z</time>
      </trkpt>
      <trkpt lat="43.71164" lon="3.47223">
        <ele>332.6</ele>
        <time>2016-11-06T10:16:01Z</time>
      </trkpt>
      <trkpt lat="43.71156" lon="3.47223">
        <ele>333.4</ele>
        <time>2016-11-06T10:16:05Z</time>
      </trkpt>
      <trkpt lat="43.71147" lon="3.47224">
        <ele>333.8</ele>
        <time>2016-11-06T10:16:09Z</time>
      </trkpt>
      <trkpt lat="43.71137" lon="3.47225">
        <ele>334.1</ele>
        <time>2016-11-06T10:16:13Z</time>
      </trkpt>
      <trkpt lat="43.71128" lon="3.47229">
        <ele>334.4</ele>
        <time>2016-11-06T10:16:16Z</time>
      </trkpt>
      <trkpt lat="43.71118" lon="3.47234">
        <ele>334.6</ele>
        <time>2016-11-06T10:16:19Z</time>
      </trkpt>
      <trkpt lat="43.71111" lon="3.47237">
        <ele>335</ele>
        <time>2016-11-06T10:16:22Z</time>
      </trkpt>
      <trkpt lat="43.71104" lon="3.47239">
        <ele>335.3</ele>
        <time>2016-11-06T10:16:25Z</time>
      </trkpt>
      <trkpt lat="43.71097" lon="3.47242">
        <ele>335.5</ele>
        <time>2016-11-06T10:16:28Z</time>
      </trkpt>
      <trkpt lat="43.7109" lon="3.47244">
        <ele>335.9</ele>
        <time>2016-11-06T10:16:31Z</time>
      </trkpt>
      <trkpt lat="43.71082" lon="3.47247">
        <ele>336.1</ele>
        <time>2016-11-06T10:16:35Z</time>
      </trkpt>
      <trkpt lat="43.71074" lon="3.47248">
        <ele>336</ele>
        <time>2016-11-06T10:16:39Z</time>
      </trkpt>
      <trkpt lat="43.71065" lon="3.47252">
        <ele>336</ele>
        <time>2016-11-06T10:16:43Z</time>
      </trkpt>
      <trkpt lat="43.71057" lon="3.47253">
        <ele>336.1</ele>
        <time>2016-11-06T10:16:47Z</time>
      </trkpt>
      <trkpt lat="43.71049" lon="3.47256">
        <ele>336.3</ele>
        <time>2016-11-06T10:16:51Z</time>
      </trkpt>
      <trkpt lat="43.71042" lon="3.47259">
        <ele>336.4</ele>
        <time>2016-11-06T10:16:55Z</time>
      </trkpt>
      <trkpt lat="43.71034" lon="3.47264">
        <ele>336.7</ele>
        <time>2016-11-06T10:17:00Z</time>
      </trkpt>
      <trkpt lat="43.71026" lon="3.47266">
        <ele>337</ele>
        <time>2016-11-06T10:17:04Z</time>
      </trkpt>
      <trkpt lat="43.71019" lon="3.47271">
        <ele>337.4</ele>
        <time>2016-11-06T10:17:08Z</time>
      </trkpt>
      <trkpt lat="43.71012" lon="3.47273">
        <ele>337.7</ele>
        <time>2016-11-06T10:17:11Z</time>
      </trkpt>
      <trkpt lat="43.71003" lon="3.47275">
        <ele>338.3</ele>
        <time>2016-11-06T10:17:16Z</time>
      </trkpt>
      <trkpt lat="43.70994" lon="3.47279">
        <ele>338.9</ele>
        <time>2016-11-06T10:17:21Z</time>
      </trkpt>
      <trkpt lat="43.70987" lon="3.47282">
        <ele>339.3</ele>
        <time>2016-11-06T10:17:24Z</time>
      </trkpt>
      <trkpt lat="43.70979" lon="3.47285">
        <ele>339.5</ele>
        <time>2016-11-06T10:17:28Z</time>
      </trkpt>
      <trkpt lat="43.70972" lon="3.47287">
        <ele>340.1</ele>
        <time>2016-11-06T10:17:33Z</time>
      </trkpt>
      <trkpt lat="43.70965" lon="3.47288">
        <ele>340.4</ele>
        <time>2016-11-06T10:17:38Z</time>
      </trkpt>
      <trkpt lat="43.70957" lon="3.47288">
        <ele>340.7</ele>
        <time>2016-11-06T10:17:44Z</time>
      </trkpt>
      <trkpt lat="43.70957" lon="3.47286">
        <ele>341.7</ele>
        <time>2016-11-06T10:18:28Z</time>
      </trkpt>
      <trkpt lat="43.70957" lon="3.47281">
        <ele>341.8</ele>
        <time>2016-11-06T10:18:47Z</time>
      </trkpt>
      <trkpt lat="43.70955" lon="3.47271">
        <ele>342</ele>
        <time>2016-11-06T10:18:51Z</time>
      </trkpt>
      <trkpt lat="43.70957" lon="3.47259">
        <ele>342.6</ele>
        <time>2016-11-06T10:18:53Z</time>
      </trkpt>
      <trkpt lat="43.7096" lon="3.47247">
        <ele>342.8</ele>
        <time>2016-11-06T10:18:55Z</time>
      </trkpt>
      <trkpt lat="43.70964" lon="3.47233">
        <ele>342.8</ele>
        <time>2016-11-06T10:18:57Z</time>
      </trkpt>
      <trkpt lat="43.70966" lon="3.47223">
        <ele>342.7</ele>
        <time>2016-11-06T10:18:59Z</time>
      </trkpt>
      <trkpt lat="43.70964" lon="3.47211">
        <ele>342.8</ele>
        <time>2016-11-06T10:19:02Z</time>
      </trkpt>
      <trkpt lat="43.70953" lon="3.4721">
        <ele>342.7</ele>
        <time>2016-11-06T10:19:05Z</time>
      </trkpt>
      <trkpt lat="43.70943" lon="3.47216">
        <ele>341.8</ele>
        <time>2016-11-06T10:19:08Z</time>
      </trkpt>
      <trkpt lat="43.70936" lon="3.47221">
        <ele>341.3</ele>
        <time>2016-11-06T10:19:10Z</time>
      </trkpt>
      <trkpt lat="43.70926" lon="3.47225">
        <ele>341.2</ele>
        <time>2016-11-06T10:19:12Z</time>
      </trkpt>
      <trkpt lat="43.70915" lon="3.47227">
        <ele>340.7</ele>
        <time>2016-11-06T10:19:14Z</time>
      </trkpt>
      <trkpt lat="43.70903" lon="3.47229">
        <ele>339.6</ele>
        <time>2016-11-06T10:19:16Z</time>
      </trkpt>
      <trkpt lat="43.7089" lon="3.47228">
        <ele>338.2</ele>
        <time>2016-11-06T10:19:18Z</time>
      </trkpt>
      <trkpt lat="43.70879" lon="3.47226">
        <ele>337.7</ele>
        <time>2016-11-06T10:19:20Z</time>
      </trkpt>
      <trkpt lat="43.70867" lon="3.47225">
        <ele>337</ele>
        <time>2016-11-06T10:19:22Z</time>
      </trkpt>
      <trkpt lat="43.70855" lon="3.47223">
        <ele>336</ele>
        <time>2016-11-06T10:19:24Z</time>
      </trkpt>
      <trkpt lat="43.70845" lon="3.47221">
        <ele>336.3</ele>
        <time>2016-11-06T10:19:26Z</time>
      </trkpt>
      <trkpt lat="43.70836" lon="3.47221">
        <ele>336.6</ele>
        <time>2016-11-06T10:19:28Z</time>
      </trkpt>
      <trkpt lat="43.70827" lon="3.47221">
        <ele>336.5</ele>
        <time>2016-11-06T10:19:30Z</time>
      </trkpt>
      <trkpt lat="43.7082" lon="3.47221">
        <ele>336.4</ele>
        <time>2016-11-06T10:19:32Z</time>
      </trkpt>
      <trkpt lat="43.70809" lon="3.4722">
        <ele>336.4</ele>
        <time>2016-11-06T10:19:34Z</time>
      </trkpt>
      <trkpt lat="43.70799" lon="3.47216">
        <ele>336.4</ele>
        <time>2016-11-06T10:19:36Z</time>
      </trkpt>
      <trkpt lat="43.70789" lon="3.47211">
        <ele>337.2</ele>
        <time>2016-11-06T10:19:38Z</time>
      </trkpt>
      <trkpt lat="43.70778" lon="3.47205">
        <ele>337.4</ele>
        <time>2016-11-06T10:19:40Z</time>
      </trkpt>
      <trkpt lat="43.70767" lon="3.47199">
        <ele>338</ele>
        <time>2016-11-06T10:19:42Z</time>
      </trkpt>
      <trkpt lat="43.70756" lon="3.47194">
        <ele>338.5</ele>
        <time>2016-11-06T10:19:44Z</time>
      </trkpt>
      <trkpt lat="43.70746" lon="3.47188">
        <ele>338.4</ele>
        <time>2016-11-06T10:19:46Z</time>
      </trkpt>
      <trkpt lat="43.70736" lon="3.47182">
        <ele>339</ele>
        <time>2016-11-06T10:19:48Z</time>
      </trkpt>
      <trkpt lat="43.70727" lon="3.47177">
        <ele>338.5</ele>
        <time>2016-11-06T10:19:50Z</time>
      </trkpt>
      <trkpt lat="43.70716" lon="3.47171">
        <ele>339.1</ele>
        <time>2016-11-06T10:19:52Z</time>
      </trkpt>
      <trkpt lat="43.70706" lon="3.47166">
        <ele>339.5</ele>
        <time>2016-11-06T10:19:54Z</time>
      </trkpt>
      <trkpt lat="43.70696" lon="3.47159">
        <ele>340.6</ele>
        <time>2016-11-06T10:19:56Z</time>
      </trkpt>
      <trkpt lat="43.70687" lon="3.47154">
        <ele>341</ele>
        <time>2016-11-06T10:19:58Z</time>
      </trkpt>
      <trkpt lat="43.70677" lon="3.47149">
        <ele>340.6</ele>
        <time>2016-11-06T10:20:00Z</time>
      </trkpt>
      <trkpt lat="43.70668" lon="3.47145">
        <ele>339</ele>
        <time>2016-11-06T10:20:02Z</time>
      </trkpt>
      <trkpt lat="43.70657" lon="3.47142">
        <ele>338.2</ele>
        <time>2016-11-06T10:20:04Z</time>
      </trkpt>
      <trkpt lat="43.70648" lon="3.47138">
        <ele>337.7</ele>
        <time>2016-11-06T10:20:06Z</time>
      </trkpt>
      <trkpt lat="43.70641" lon="3.47132">
        <ele>337.1</ele>
        <time>2016-11-06T10:20:08Z</time>
      </trkpt>
      <trkpt lat="43.70638" lon="3.47121">
        <ele>336.8</ele>
        <time>2016-11-06T10:20:10Z</time>
      </trkpt>
      <trkpt lat="43.7064" lon="3.47109">
        <ele>336.2</ele>
        <time>2016-11-06T10:20:12Z</time>
      </trkpt>
      <trkpt lat="43.70646" lon="3.47097">
        <ele>335.2</ele>
        <time>2016-11-06T10:20:14Z</time>
      </trkpt>
      <trkpt lat="43.70651" lon="3.47084">
        <ele>334.4</ele>
        <time>2016-11-06T10:20:16Z</time>
      </trkpt>
      <trkpt lat="43.70656" lon="3.47068">
        <ele>333.8</ele>
        <time>2016-11-06T10:20:18Z</time>
      </trkpt>
      <trkpt lat="43.70657" lon="3.47053">
        <ele>332.3</ele>
        <time>2016-11-06T10:20:20Z</time>
      </trkpt>
      <trkpt lat="43.70657" lon="3.47037">
        <ele>331.6</ele>
        <time>2016-11-06T10:20:22Z</time>
      </trkpt>
      <trkpt lat="43.70656" lon="3.47023">
        <ele>331.4</ele>
        <time>2016-11-06T10:20:24Z</time>
      </trkpt>
      <trkpt lat="43.70655" lon="3.47007">
        <ele>331.3</ele>
        <time>2016-11-06T10:20:26Z</time>
      </trkpt>
      <trkpt lat="43.70654" lon="3.46992">
        <ele>330.7</ele>
        <time>2016-11-06T10:20:28Z</time>
      </trkpt>
      <trkpt lat="43.70655" lon="3.46977">
        <ele>330.2</ele>
        <time>2016-11-06T10:20:30Z</time>
      </trkpt>
      <trkpt lat="43.70658" lon="3.46962">
        <ele>330</ele>
        <time>2016-11-06T10:20:32Z</time>
      </trkpt>
      <trkpt lat="43.70663" lon="3.46949">
        <ele>330.5</ele>
        <time>2016-11-06T10:20:34Z</time>
      </trkpt>
      <trkpt lat="43.70668" lon="3.46936">
        <ele>331.5</ele>
        <time>2016-11-06T10:20:36Z</time>
      </trkpt>
      <trkpt lat="43.70673" lon="3.46923">
        <ele>332</ele>
        <time>2016-11-06T10:20:38Z</time>
      </trkpt>
      <trkpt lat="43.70679" lon="3.4691">
        <ele>332.5</ele>
        <time>2016-11-06T10:20:40Z</time>
      </trkpt>
      <trkpt lat="43.70684" lon="3.46897">
        <ele>332.7</ele>
        <time>2016-11-06T10:20:42Z</time>
      </trkpt>
      <trkpt lat="43.70689" lon="3.46886">
        <ele>332.4</ele>
        <time>2016-11-06T10:20:44Z</time>
      </trkpt>
      <trkpt lat="43.70694" lon="3.46875">
        <ele>331.8</ele>
        <time>2016-11-06T10:20:46Z</time>
      </trkpt>
      <trkpt lat="43.707" lon="3.46862">
        <ele>331.3</ele>
        <time>2016-11-06T10:20:48Z</time>
      </trkpt>
      <trkpt lat="43.70707" lon="3.46852">
        <ele>331.6</ele>
        <time>2016-11-06T10:20:50Z</time>
      </trkpt>
      <trkpt lat="43.70715" lon="3.46843">
        <ele>331.7</ele>
        <time>2016-11-06T10:20:52Z</time>
      </trkpt>
      <trkpt lat="43.70724" lon="3.46835">
        <ele>331.6</ele>
        <time>2016-11-06T10:20:54Z</time>
      </trkpt>
      <trkpt lat="43.70732" lon="3.46827">
        <ele>331.5</ele>
        <time>2016-11-06T10:20:56Z</time>
      </trkpt>
      <trkpt lat="43.70741" lon="3.46822">
        <ele>331.4</ele>
        <time>2016-11-06T10:20:58Z</time>
      </trkpt>
      <trkpt lat="43.7075" lon="3.46818">
        <ele>331.1</ele>
        <time>2016-11-06T10:21:00Z</time>
      </trkpt>
      <trkpt lat="43.70758" lon="3.46815">
        <ele>331</ele>
        <time>2016-11-06T10:21:03Z</time>
      </trkpt>
      <trkpt lat="43.70765" lon="3.46808">
        <ele>331.1</ele>
        <time>2016-11-06T10:21:07Z</time>
      </trkpt>
      <trkpt lat="43.7076" lon="3.46798">
        <ele>331.2</ele>
        <time>2016-11-06T10:21:10Z</time>
      </trkpt>
      <trkpt lat="43.7075" lon="3.46792">
        <ele>331.4</ele>
        <time>2016-11-06T10:21:13Z</time>
      </trkpt>
      <trkpt lat="43.70741" lon="3.46789">
        <ele>332</ele>
        <time>2016-11-06T10:21:15Z</time>
      </trkpt>
      <trkpt lat="43.70732" lon="3.46785">
        <ele>332</ele>
        <time>2016-11-06T10:21:17Z</time>
      </trkpt>
      <trkpt lat="43.70724" lon="3.46782">
        <ele>332.2</ele>
        <time>2016-11-06T10:21:19Z</time>
      </trkpt>
      <trkpt lat="43.70716" lon="3.46778">
        <ele>331.3</ele>
        <time>2016-11-06T10:21:21Z</time>
      </trkpt>
      <trkpt lat="43.70709" lon="3.46773">
        <ele>330.8</ele>
        <time>2016-11-06T10:21:23Z</time>
      </trkpt>
      <trkpt lat="43.70701" lon="3.4677">
        <ele>331.7</ele>
        <time>2016-11-06T10:21:25Z</time>
      </trkpt>
      <trkpt lat="43.70694" lon="3.46765">
        <ele>331.7</ele>
        <time>2016-11-06T10:21:27Z</time>
      </trkpt>
      <trkpt lat="43.70688" lon="3.46761">
        <ele>331.8</ele>
        <time>2016-11-06T10:21:29Z</time>
      </trkpt>
      <trkpt lat="43.7068" lon="3.46749">
        <ele>332</ele>
        <time>2016-11-06T10:21:32Z</time>
      </trkpt>
      <trkpt lat="43.70679" lon="3.46737">
        <ele>332.3</ele>
        <time>2016-11-06T10:21:34Z</time>
      </trkpt>
      <trkpt lat="43.70678" lon="3.46727">
        <ele>333</ele>
        <time>2016-11-06T10:21:36Z</time>
      </trkpt>
      <trkpt lat="43.70676" lon="3.46716">
        <ele>334</ele>
        <time>2016-11-06T10:21:38Z</time>
      </trkpt>
      <trkpt lat="43.70671" lon="3.46703">
        <ele>334.6</ele>
        <time>2016-11-06T10:21:40Z</time>
      </trkpt>
      <trkpt lat="43.70661" lon="3.46692">
        <ele>333.9</ele>
        <time>2016-11-06T10:21:42Z</time>
      </trkpt>
      <trkpt lat="43.70649" lon="3.46685">
        <ele>332.3</ele>
        <time>2016-11-06T10:21:44Z</time>
      </trkpt>
      <trkpt lat="43.70636" lon="3.46681">
        <ele>332.3</ele>
        <time>2016-11-06T10:21:46Z</time>
      </trkpt>
      <trkpt lat="43.70629" lon="3.46678">
        <ele>332.2</ele>
        <time>2016-11-06T10:21:47Z</time>
      </trkpt>
      <trkpt lat="43.70621" lon="3.46675">
        <ele>332</ele>
        <time>2016-11-06T10:21:48Z</time>
      </trkpt>
      <trkpt lat="43.70613" lon="3.46672">
        <ele>331.2</ele>
        <time>2016-11-06T10:21:49Z</time>
      </trkpt>
      <trkpt lat="43.70606" lon="3.46669">
        <ele>330.8</ele>
        <time>2016-11-06T10:21:50Z</time>
      </trkpt>
      <trkpt lat="43.70599" lon="3.46667">
        <ele>330.3</ele>
        <time>2016-11-06T10:21:51Z</time>
      </trkpt>
      <trkpt lat="43.70591" lon="3.46664">
        <ele>330.2</ele>
        <time>2016-11-06T10:21:52Z</time>
      </trkpt>
      <trkpt lat="43.70583" lon="3.46663">
        <ele>329.6</ele>
        <time>2016-11-06T10:21:53Z</time>
      </trkpt>
      <trkpt lat="43.70575" lon="3.46662">
        <ele>328.6</ele>
        <time>2016-11-06T10:21:54Z</time>
      </trkpt>
      <trkpt lat="43.70561" lon="3.46662">
        <ele>326.5</ele>
        <time>2016-11-06T10:21:56Z</time>
      </trkpt>
      <trkpt lat="43.70554" lon="3.46661">
        <ele>325.5</ele>
        <time>2016-11-06T10:21:57Z</time>
      </trkpt>
      <trkpt lat="43.70541" lon="3.46657">
        <ele>325.4</ele>
        <time>2016-11-06T10:21:59Z</time>
      </trkpt>
      <trkpt lat="43.70529" lon="3.46656">
        <ele>325.8</ele>
        <time>2016-11-06T10:22:01Z</time>
      </trkpt>
      <trkpt lat="43.70518" lon="3.46655">
        <ele>325.8</ele>
        <time>2016-11-06T10:22:03Z</time>
      </trkpt>
      <trkpt lat="43.7051" lon="3.46653">
        <ele>325.7</ele>
        <time>2016-11-06T10:22:06Z</time>
      </trkpt>
      <trkpt lat="43.70506" lon="3.46644">
        <ele>325.7</ele>
        <time>2016-11-06T10:22:10Z</time>
      </trkpt>
      <trkpt lat="43.70503" lon="3.46633">
        <ele>325.8</ele>
        <time>2016-11-06T10:22:14Z</time>
      </trkpt>
      <trkpt lat="43.70497" lon="3.46624">
        <ele>326.2</ele>
        <time>2016-11-06T10:22:18Z</time>
      </trkpt>
      <trkpt lat="43.70492" lon="3.46616">
        <ele>326.6</ele>
        <time>2016-11-06T10:22:21Z</time>
      </trkpt>
      <trkpt lat="43.70485" lon="3.46609">
        <ele>327</ele>
        <time>2016-11-06T10:22:25Z</time>
      </trkpt>
      <trkpt lat="43.70479" lon="3.46602">
        <ele>327.4</ele>
        <time>2016-11-06T10:22:28Z</time>
      </trkpt>
      <trkpt lat="43.70471" lon="3.46594">
        <ele>328</ele>
        <time>2016-11-06T10:22:32Z</time>
      </trkpt>
      <trkpt lat="43.70466" lon="3.46587">
        <ele>328.5</ele>
        <time>2016-11-06T10:22:35Z</time>
      </trkpt>
      <trkpt lat="43.70463" lon="3.46578">
        <ele>328.9</ele>
        <time>2016-11-06T10:22:38Z</time>
      </trkpt>
      <trkpt lat="43.70458" lon="3.46566">
        <ele>329.4</ele>
        <time>2016-11-06T10:22:41Z</time>
      </trkpt>
      <trkpt lat="43.70454" lon="3.46557">
        <ele>329.7</ele>
        <time>2016-11-06T10:22:43Z</time>
      </trkpt>
      <trkpt lat="43.7045" lon="3.46549">
        <ele>330</ele>
        <time>2016-11-06T10:22:45Z</time>
      </trkpt>
      <trkpt lat="43.70444" lon="3.46541">
        <ele>331.9</ele>
        <time>2016-11-06T10:22:47Z</time>
      </trkpt>
      <trkpt lat="43.70435" lon="3.4653">
        <ele>334.4</ele>
        <time>2016-11-06T10:22:49Z</time>
      </trkpt>
      <trkpt lat="43.70427" lon="3.46524">
        <ele>335.8</ele>
        <time>2016-11-06T10:22:51Z</time>
      </trkpt>
      <trkpt lat="43.70418" lon="3.46518">
        <ele>335.7</ele>
        <time>2016-11-06T10:22:53Z</time>
      </trkpt>
      <trkpt lat="43.70409" lon="3.46516">
        <ele>334.6</ele>
        <time>2016-11-06T10:22:55Z</time>
      </trkpt>
      <trkpt lat="43.70398" lon="3.46513">
        <ele>334</ele>
        <time>2016-11-06T10:22:57Z</time>
      </trkpt>
      <trkpt lat="43.70386" lon="3.46512">
        <ele>333.9</ele>
        <time>2016-11-06T10:22:59Z</time>
      </trkpt>
      <trkpt lat="43.70375" lon="3.46509">
        <ele>333.6</ele>
        <time>2016-11-06T10:23:01Z</time>
      </trkpt>
      <trkpt lat="43.70362" lon="3.46506">
        <ele>332.4</ele>
        <time>2016-11-06T10:23:03Z</time>
      </trkpt>
      <trkpt lat="43.70352" lon="3.46502">
        <ele>331</ele>
        <time>2016-11-06T10:23:05Z</time>
      </trkpt>
      <trkpt lat="43.7034" lon="3.46499">
        <ele>330.1</ele>
        <time>2016-11-06T10:23:07Z</time>
      </trkpt>
      <trkpt lat="43.70328" lon="3.46494">
        <ele>328.8</ele>
        <time>2016-11-06T10:23:09Z</time>
      </trkpt>
      <trkpt lat="43.70317" lon="3.46493">
        <ele>328.9</ele>
        <time>2016-11-06T10:23:11Z</time>
      </trkpt>
      <trkpt lat="43.70306" lon="3.46492">
        <ele>329.2</ele>
        <time>2016-11-06T10:23:13Z</time>
      </trkpt>
      <trkpt lat="43.70297" lon="3.46492">
        <ele>328.9</ele>
        <time>2016-11-06T10:23:15Z</time>
      </trkpt>
      <trkpt lat="43.70287" lon="3.46492">
        <ele>328.5</ele>
        <time>2016-11-06T10:23:17Z</time>
      </trkpt>
      <trkpt lat="43.70278" lon="3.46494">
        <ele>327.6</ele>
        <time>2016-11-06T10:23:19Z</time>
      </trkpt>
      <trkpt lat="43.70268" lon="3.46496">
        <ele>326.9</ele>
        <time>2016-11-06T10:23:21Z</time>
      </trkpt>
      <trkpt lat="43.70257" lon="3.46499">
        <ele>326.1</ele>
        <time>2016-11-06T10:23:23Z</time>
      </trkpt>
      <trkpt lat="43.70248" lon="3.465">
        <ele>326.4</ele>
        <time>2016-11-06T10:23:25Z</time>
      </trkpt>
      <trkpt lat="43.70239" lon="3.465">
        <ele>327.2</ele>
        <time>2016-11-06T10:23:27Z</time>
      </trkpt>
      <trkpt lat="43.70229" lon="3.46499">
        <ele>328.2</ele>
        <time>2016-11-06T10:23:29Z</time>
      </trkpt>
      <trkpt lat="43.70217" lon="3.46498">
        <ele>328.5</ele>
        <time>2016-11-06T10:23:31Z</time>
      </trkpt>
      <trkpt lat="43.70206" lon="3.46498">
        <ele>329.1</ele>
        <time>2016-11-06T10:23:33Z</time>
      </trkpt>
      <trkpt lat="43.70195" lon="3.46497">
        <ele>329.4</ele>
        <time>2016-11-06T10:23:35Z</time>
      </trkpt>
      <trkpt lat="43.70186" lon="3.46497">
        <ele>329.4</ele>
        <time>2016-11-06T10:23:37Z</time>
      </trkpt>
      <trkpt lat="43.70177" lon="3.46497">
        <ele>329.3</ele>
        <time>2016-11-06T10:23:39Z</time>
      </trkpt>
      <trkpt lat="43.70167" lon="3.46496">
        <ele>330.4</ele>
        <time>2016-11-06T10:23:41Z</time>
      </trkpt>
      <trkpt lat="43.70159" lon="3.46495">
        <ele>331.3</ele>
        <time>2016-11-06T10:23:43Z</time>
      </trkpt>
      <trkpt lat="43.70149" lon="3.46494">
        <ele>332.2</ele>
        <time>2016-11-06T10:23:45Z</time>
      </trkpt>
      <trkpt lat="43.7014" lon="3.46494">
        <ele>332.5</ele>
        <time>2016-11-06T10:23:47Z</time>
      </trkpt>
      <trkpt lat="43.70133" lon="3.46492">
        <ele>333.9</ele>
        <time>2016-11-06T10:23:49Z</time>
      </trkpt>
      <trkpt lat="43.70124" lon="3.46489">
        <ele>334</ele>
        <time>2016-11-06T10:23:51Z</time>
      </trkpt>
      <trkpt lat="43.70117" lon="3.46485">
        <ele>334</ele>
        <time>2016-11-06T10:23:53Z</time>
      </trkpt>
      <trkpt lat="43.70109" lon="3.46479">
        <ele>333.9</ele>
        <time>2016-11-06T10:23:55Z</time>
      </trkpt>
      <trkpt lat="43.70099" lon="3.46472">
        <ele>333.7</ele>
        <time>2016-11-06T10:23:58Z</time>
      </trkpt>
      <trkpt lat="43.70092" lon="3.46467">
        <ele>333.9</ele>
        <time>2016-11-06T10:24:00Z</time>
      </trkpt>
      <trkpt lat="43.70084" lon="3.46459">
        <ele>334.1</ele>
        <time>2016-11-06T10:24:03Z</time>
      </trkpt>
      <trkpt lat="43.70078" lon="3.46451">
        <ele>334.2</ele>
        <time>2016-11-06T10:24:06Z</time>
      </trkpt>
      <trkpt lat="43.70074" lon="3.46442">
        <ele>334.4</ele>
        <time>2016-11-06T10:24:08Z</time>
      </trkpt>
      <trkpt lat="43.70072" lon="3.46427">
        <ele>335</ele>
        <time>2016-11-06T10:24:11Z</time>
      </trkpt>
      <trkpt lat="43.70073" lon="3.46416">
        <ele>335.2</ele>
        <time>2016-11-06T10:24:13Z</time>
      </trkpt>
      <trkpt lat="43.70074" lon="3.46403">
        <ele>334.8</ele>
        <time>2016-11-06T10:24:15Z</time>
      </trkpt>
      <trkpt lat="43.70076" lon="3.46389">
        <ele>334.2</ele>
        <time>2016-11-06T10:24:17Z</time>
      </trkpt>
      <trkpt lat="43.70077" lon="3.46375">
        <ele>333.5</ele>
        <time>2016-11-06T10:24:19Z</time>
      </trkpt>
      <trkpt lat="43.70077" lon="3.46359">
        <ele>332.8</ele>
        <time>2016-11-06T10:24:21Z</time>
      </trkpt>
      <trkpt lat="43.70074" lon="3.46345">
        <ele>332.3</ele>
        <time>2016-11-06T10:24:23Z</time>
      </trkpt>
      <trkpt lat="43.70068" lon="3.46331">
        <ele>331.8</ele>
        <time>2016-11-06T10:24:25Z</time>
      </trkpt>
      <trkpt lat="43.7006" lon="3.46316">
        <ele>331.5</ele>
        <time>2016-11-06T10:24:27Z</time>
      </trkpt>
      <trkpt lat="43.70053" lon="3.463">
        <ele>330.7</ele>
        <time>2016-11-06T10:24:29Z</time>
      </trkpt>
      <trkpt lat="43.70047" lon="3.46285">
        <ele>330.2</ele>
        <time>2016-11-06T10:24:31Z</time>
      </trkpt>
      <trkpt lat="43.70039" lon="3.4627">
        <ele>330.2</ele>
        <time>2016-11-06T10:24:33Z</time>
      </trkpt>
      <trkpt lat="43.70028" lon="3.46263">
        <ele>330.3</ele>
        <time>2016-11-06T10:24:35Z</time>
      </trkpt>
      <trkpt lat="43.70016" lon="3.46263">
        <ele>329.9</ele>
        <time>2016-11-06T10:24:37Z</time>
      </trkpt>
      <trkpt lat="43.70004" lon="3.46265">
        <ele>329.1</ele>
        <time>2016-11-06T10:24:39Z</time>
      </trkpt>
      <trkpt lat="43.6999" lon="3.46268">
        <ele>328.2</ele>
        <time>2016-11-06T10:24:41Z</time>
      </trkpt>
      <trkpt lat="43.69977" lon="3.46269">
        <ele>327.9</ele>
        <time>2016-11-06T10:24:43Z</time>
      </trkpt>
      <trkpt lat="43.69963" lon="3.46268">
        <ele>327.5</ele>
        <time>2016-11-06T10:24:45Z</time>
      </trkpt>
      <trkpt lat="43.69951" lon="3.46263">
        <ele>327.8</ele>
        <time>2016-11-06T10:24:47Z</time>
      </trkpt>
      <trkpt lat="43.69938" lon="3.46257">
        <ele>327.6</ele>
        <time>2016-11-06T10:24:49Z</time>
      </trkpt>
      <trkpt lat="43.6993" lon="3.46254">
        <ele>327.8</ele>
        <time>2016-11-06T10:24:50Z</time>
      </trkpt>
      <trkpt lat="43.69924" lon="3.46249">
        <ele>327.7</ele>
        <time>2016-11-06T10:24:51Z</time>
      </trkpt>
      <trkpt lat="43.69917" lon="3.46245">
        <ele>327.4</ele>
        <time>2016-11-06T10:24:52Z</time>
      </trkpt>
      <trkpt lat="43.6991" lon="3.4624">
        <ele>327.5</ele>
        <time>2016-11-06T10:24:53Z</time>
      </trkpt>
      <trkpt lat="43.69898" lon="3.4623">
        <ele>327.4</ele>
        <time>2016-11-06T10:24:55Z</time>
      </trkpt>
      <trkpt lat="43.69888" lon="3.46217">
        <ele>326.8</ele>
        <time>2016-11-06T10:24:57Z</time>
      </trkpt>
      <trkpt lat="43.69882" lon="3.46209">
        <ele>326.6</ele>
        <time>2016-11-06T10:24:58Z</time>
      </trkpt>
      <trkpt lat="43.69878" lon="3.462">
        <ele>326.3</ele>
        <time>2016-11-06T10:24:59Z</time>
      </trkpt>
      <trkpt lat="43.69874" lon="3.4619">
        <ele>326.2</ele>
        <time>2016-11-06T10:25:00Z</time>
      </trkpt>
      <trkpt lat="43.6987" lon="3.46181">
        <ele>326</ele>
        <time>2016-11-06T10:25:01Z</time>
      </trkpt>
      <trkpt lat="43.69867" lon="3.46169">
        <ele>325.4</ele>
        <time>2016-11-06T10:25:02Z</time>
      </trkpt>
      <trkpt lat="43.69863" lon="3.46158">
        <ele>324.8</ele>
        <time>2016-11-06T10:25:03Z</time>
      </trkpt>
      <trkpt lat="43.6986" lon="3.46147">
        <ele>324.1</ele>
        <time>2016-11-06T10:25:04Z</time>
      </trkpt>
      <trkpt lat="43.69856" lon="3.46136">
        <ele>322.8</ele>
        <time>2016-11-06T10:25:05Z</time>
      </trkpt>
      <trkpt lat="43.69853" lon="3.46123">
        <ele>321.7</ele>
        <time>2016-11-06T10:25:06Z</time>
      </trkpt>
      <trkpt lat="43.69849" lon="3.46109">
        <ele>320.9</ele>
        <time>2016-11-06T10:25:07Z</time>
      </trkpt>
      <trkpt lat="43.69844" lon="3.46099">
        <ele>319.8</ele>
        <time>2016-11-06T10:25:08Z</time>
      </trkpt>
      <trkpt lat="43.69838" lon="3.46089">
        <ele>319</ele>
        <time>2016-11-06T10:25:09Z</time>
      </trkpt>
      <trkpt lat="43.69832" lon="3.46081">
        <ele>318.1</ele>
        <time>2016-11-06T10:25:10Z</time>
      </trkpt>
      <trkpt lat="43.69824" lon="3.46074">
        <ele>317.2</ele>
        <time>2016-11-06T10:25:11Z</time>
      </trkpt>
      <trkpt lat="43.69816" lon="3.46068">
        <ele>316.3</ele>
        <time>2016-11-06T10:25:12Z</time>
      </trkpt>
      <trkpt lat="43.69805" lon="3.46058">
        <ele>314.7</ele>
        <time>2016-11-06T10:25:14Z</time>
      </trkpt>
      <trkpt lat="43.69797" lon="3.46048">
        <ele>313.4</ele>
        <time>2016-11-06T10:25:16Z</time>
      </trkpt>
      <trkpt lat="43.69791" lon="3.4604">
        <ele>313.2</ele>
        <time>2016-11-06T10:25:19Z</time>
      </trkpt>
      <trkpt lat="43.69787" lon="3.46033">
        <ele>313.1</ele>
        <time>2016-11-06T10:25:26Z</time>
      </trkpt>
      <trkpt lat="43.69791" lon="3.46021">
        <ele>313.7</ele>
        <time>2016-11-06T10:25:42Z</time>
      </trkpt>
      <trkpt lat="43.69792" lon="3.46011">
        <ele>313.3</ele>
        <time>2016-11-06T10:25:47Z</time>
      </trkpt>
      <trkpt lat="43.69792" lon="3.46008">
        <ele>312.8</ele>
        <time>2016-11-06T10:25:54Z</time>
      </trkpt>
      <trkpt lat="43.69798" lon="3.45983">
        <ele>309.5</ele>
        <time>2016-11-06T10:25:24Z</time>
      </trkpt>
      <trkpt lat="43.698" lon="3.45972">
        <ele>309.1</ele>
        <time>2016-11-06T10:25:26Z</time>
      </trkpt>
      <trkpt lat="43.69806" lon="3.45965">
        <ele>308.4</ele>
        <time>2016-11-06T10:26:36Z</time>
      </trkpt>
      <trkpt lat="43.69811" lon="3.45957">
        <ele>307.8</ele>
        <time>2016-11-06T10:26:39Z</time>
      </trkpt>
      <trkpt lat="43.69815" lon="3.45947">
        <ele>307</ele>
        <time>2016-11-06T10:26:42Z</time>
      </trkpt>
      <trkpt lat="43.69818" lon="3.45937">
        <ele>305.8</ele>
        <time>2016-11-06T10:26:46Z</time>
      </trkpt>
      <trkpt lat="43.69822" lon="3.45928">
        <ele>304.4</ele>
        <time>2016-11-06T10:26:50Z</time>
      </trkpt>
      <trkpt lat="43.69825" lon="3.45918">
        <ele>302.4</ele>
        <time>2016-11-06T10:26:56Z</time>
      </trkpt>
      <trkpt lat="43.69831" lon="3.45913">
        <ele>300.7</ele>
        <time>2016-11-06T10:27:00Z</time>
      </trkpt>
      <trkpt lat="43.69838" lon="3.4591">
        <ele>298.4</ele>
        <time>2016-11-06T10:27:05Z</time>
      </trkpt>
      <trkpt lat="43.69844" lon="3.45899">
        <ele>296.4</ele>
        <time>2016-11-06T10:27:09Z</time>
      </trkpt>
      <trkpt lat="43.6985" lon="3.4589">
        <ele>294.2</ele>
        <time>2016-11-06T10:27:13Z</time>
      </trkpt>
      <trkpt lat="43.69854" lon="3.45879">
        <ele>292.5</ele>
        <time>2016-11-06T10:27:16Z</time>
      </trkpt>
      <trkpt lat="43.69861" lon="3.4587">
        <ele>285.4</ele>
        <time>2016-11-06T10:27:20Z</time>
      </trkpt>
      <trkpt lat="43.69868" lon="3.45875">
        <ele>282.7</ele>
        <time>2016-11-06T10:27:26Z</time>
      </trkpt>
      <trkpt lat="43.69872" lon="3.45878">
        <ele>279.8</ele>
        <time>2016-11-06T10:27:33Z</time>
      </trkpt>
      <trkpt lat="43.69892" lon="3.45886">
        <ele>272.8</ele>
        <time>2016-11-06T10:28:11Z</time>
      </trkpt>
      <trkpt lat="43.69899" lon="3.45881">
        <ele>267.8</ele>
        <time>2016-11-06T10:28:14Z</time>
      </trkpt>
      <trkpt lat="43.69908" lon="3.45871">
        <ele>262.1</ele>
        <time>2016-11-06T10:28:16Z</time>
      </trkpt>
      <trkpt lat="43.69914" lon="3.45864">
        <ele>261.6</ele>
        <time>2016-11-06T10:28:20Z</time>
      </trkpt>
      <trkpt lat="43.69924" lon="3.45868">
        <ele>261.4</ele>
        <time>2016-11-06T10:28:27Z</time>
      </trkpt>
      <trkpt lat="43.6993" lon="3.45875">
        <ele>260.7</ele>
        <time>2016-11-06T10:28:29Z</time>
      </trkpt>
      <trkpt lat="43.69937" lon="3.45882">
        <ele>260.1</ele>
        <time>2016-11-06T10:28:32Z</time>
      </trkpt>
      <trkpt lat="43.69945" lon="3.45882">
        <ele>259.2</ele>
        <time>2016-11-06T10:28:35Z</time>
      </trkpt>
      <trkpt lat="43.69953" lon="3.4588">
        <ele>258.4</ele>
        <time>2016-11-06T10:28:38Z</time>
      </trkpt>
      <trkpt lat="43.6996" lon="3.45875">
        <ele>256.9</ele>
        <time>2016-11-06T10:28:42Z</time>
      </trkpt>
      <trkpt lat="43.69967" lon="3.45866">
        <ele>255.8</ele>
        <time>2016-11-06T10:28:46Z</time>
      </trkpt>
      <trkpt lat="43.69969" lon="3.45855">
        <ele>254.8</ele>
        <time>2016-11-06T10:28:49Z</time>
      </trkpt>
      <trkpt lat="43.69972" lon="3.45844">
        <ele>253.5</ele>
        <time>2016-11-06T10:28:53Z</time>
      </trkpt>
      <trkpt lat="43.69977" lon="3.4583">
        <ele>252.2</ele>
        <time>2016-11-06T10:28:57Z</time>
      </trkpt>
      <trkpt lat="43.6998" lon="3.4582">
        <ele>251.2</ele>
        <time>2016-11-06T10:29:01Z</time>
      </trkpt>
      <trkpt lat="43.69983" lon="3.4581">
        <ele>250.3</ele>
        <time>2016-11-06T10:29:04Z</time>
      </trkpt>
      <trkpt lat="43.69986" lon="3.45801">
        <ele>249.4</ele>
        <time>2016-11-06T10:29:07Z</time>
      </trkpt>
      <trkpt lat="43.69991" lon="3.45792">
        <ele>241.6</ele>
        <time>2016-11-06T10:29:11Z</time>
      </trkpt>
      <trkpt lat="43.69992" lon="3.45787">
        <ele>241.1</ele>
        <time>2016-11-06T10:29:18Z</time>
      </trkpt>
      <trkpt lat="43.69998" lon="3.45781">
        <ele>238.6</ele>
        <time>2016-11-06T10:29:33Z</time>
      </trkpt>
      <trkpt lat="43.69997" lon="3.4577">
        <ele>237.4</ele>
        <time>2016-11-06T10:29:38Z</time>
      </trkpt>
      <trkpt lat="43.69997" lon="3.45758">
        <ele>236.7</ele>
        <time>2016-11-06T10:29:40Z</time>
      </trkpt>
      <trkpt lat="43.69988" lon="3.45759">
        <ele>236.3</ele>
        <time>2016-11-06T10:29:45Z</time>
      </trkpt>
      <trkpt lat="43.69987" lon="3.45761">
        <ele>236</ele>
        <time>2016-11-06T10:29:52Z</time>
      </trkpt>
      <trkpt lat="43.69983" lon="3.45753">
        <ele>236.8</ele>
        <time>2016-11-06T10:30:10Z</time>
      </trkpt>
      <trkpt lat="43.69984" lon="3.45742">
        <ele>236.4</ele>
        <time>2016-11-06T10:30:16Z</time>
      </trkpt>
      <trkpt lat="43.69987" lon="3.45741">
        <ele>236</ele>
        <time>2016-11-06T10:30:23Z</time>
      </trkpt>
      <trkpt lat="43.69986" lon="3.45743">
        <ele>235.3</ele>
        <time>2016-11-06T10:30:37Z</time>
      </trkpt>
      <trkpt lat="43.6999" lon="3.45739">
        <ele>235.2</ele>
        <time>2016-11-06T10:30:51Z</time>
      </trkpt>
      <trkpt lat="43.69987" lon="3.45737">
        <ele>233.2</ele>
        <time>2016-11-06T10:31:12Z</time>
      </trkpt>
      <trkpt lat="43.69987" lon="3.45739">
        <ele>232.9</ele>
        <time>2016-11-06T10:31:19Z</time>
      </trkpt>
      <trkpt lat="43.6999" lon="3.45728">
        <ele>230.5</ele>
        <time>2016-11-06T10:31:24Z</time>
      </trkpt>
      <trkpt lat="43.69994" lon="3.45718">
        <ele>230.3</ele>
        <time>2016-11-06T10:31:28Z</time>
      </trkpt>
      <trkpt lat="43.69998" lon="3.45709">
        <ele>230</ele>
        <time>2016-11-06T10:31:32Z</time>
      </trkpt>
      <trkpt lat="43.69998" lon="3.45708">
        <ele>229.2</ele>
        <time>2016-11-06T10:31:39Z</time>
      </trkpt>
      <trkpt lat="43.70006" lon="3.45707">
        <ele>227.9</ele>
        <time>2016-11-06T10:31:45Z</time>
      </trkpt>
      <trkpt lat="43.7001" lon="3.45698">
        <ele>226.3</ele>
        <time>2016-11-06T10:31:47Z</time>
      </trkpt>
      <trkpt lat="43.70008" lon="3.45687">
        <ele>225.9</ele>
        <time>2016-11-06T10:31:50Z</time>
      </trkpt>
      <trkpt lat="43.70006" lon="3.45675">
        <ele>225.4</ele>
        <time>2016-11-06T10:31:55Z</time>
      </trkpt>
      <trkpt lat="43.70003" lon="3.45666">
        <ele>224.9</ele>
        <time>2016-11-06T10:32:00Z</time>
      </trkpt>
      <trkpt lat="43.70001" lon="3.45655">
        <ele>224.8</ele>
        <time>2016-11-06T10:32:04Z</time>
      </trkpt>
      <trkpt lat="43.69997" lon="3.45646">
        <ele>224.5</ele>
        <time>2016-11-06T10:32:10Z</time>
      </trkpt>
      <trkpt lat="43.69997" lon="3.45642">
        <ele>223.9</ele>
        <time>2016-11-06T10:32:29Z</time>
      </trkpt>
      <trkpt lat="43.69991" lon="3.45635">
        <ele>225</ele>
        <time>2016-11-06T10:32:36Z</time>
      </trkpt>
      <trkpt lat="43.69991" lon="3.45626">
        <ele>225.1</ele>
        <time>2016-11-06T10:32:43Z</time>
      </trkpt>
      <trkpt lat="43.69993" lon="3.45628">
        <ele>225</ele>
        <time>2016-11-06T10:32:59Z</time>
      </trkpt>
      <trkpt lat="43.69993" lon="3.45631">
        <ele>224.1</ele>
        <time>2016-11-06T10:33:13Z</time>
      </trkpt>
      <trkpt lat="43.69998" lon="3.4563">
        <ele>223.8</ele>
        <time>2016-11-06T10:33:20Z</time>
      </trkpt>
      <trkpt lat="43.7" lon="3.45629">
        <ele>223.6</ele>
        <time>2016-11-06T10:33:27Z</time>
      </trkpt>
      <trkpt lat="43.70002" lon="3.45627">
        <ele>223</ele>
        <time>2016-11-06T10:33:43Z</time>
      </trkpt>
      <trkpt lat="43.7" lon="3.45627">
        <ele>222.3</ele>
        <time>2016-11-06T10:33:50Z</time>
      </trkpt>
      <trkpt lat="43.70002" lon="3.45627">
        <ele>221.7</ele>
        <time>2016-11-06T10:33:57Z</time>
      </trkpt>
      <trkpt lat="43.69998" lon="3.45631">
        <ele>221.9</ele>
        <time>2016-11-06T10:34:04Z</time>
      </trkpt>
      <trkpt lat="43.70003" lon="3.45632">
        <ele>222.9</ele>
        <time>2016-11-06T10:34:18Z</time>
      </trkpt>
      <trkpt lat="43.7" lon="3.45631">
        <ele>224.4</ele>
        <time>2016-11-06T10:34:32Z</time>
      </trkpt>
      <trkpt lat="43.70001" lon="3.45631">
        <ele>224.9</ele>
        <time>2016-11-06T10:34:44Z</time>
      </trkpt>
      <trkpt lat="43.7" lon="3.45629">
        <ele>225.4</ele>
        <time>2016-11-06T10:34:59Z</time>
      </trkpt>
      <trkpt lat="43.7" lon="3.45629">
        <ele>225.4</ele>
        <time>2016-11-06T10:35:06Z</time>
      </trkpt>
      <trkpt lat="43.69997" lon="3.45631">
        <ele>225.7</ele>
        <time>2016-11-06T10:35:14Z</time>
      </trkpt>
      <trkpt lat="43.69998" lon="3.45633">
        <ele>226.3</ele>
        <time>2016-11-06T10:35:21Z</time>
      </trkpt>
      <trkpt lat="43.7" lon="3.45637">
        <ele>225.9</ele>
        <time>2016-11-06T10:35:28Z</time>
      </trkpt>
      <trkpt lat="43.7" lon="3.45637">
        <ele>225.9</ele>
        <time>2016-11-06T10:35:42Z</time>
      </trkpt>
      <trkpt lat="43.70003" lon="3.4564">
        <ele>226</ele>
        <time>2016-11-06T10:35:49Z</time>
      </trkpt>
      <trkpt lat="43.70005" lon="3.45642">
        <ele>226.1</ele>
        <time>2016-11-06T10:35:56Z</time>
      </trkpt>
      <trkpt lat="43.70006" lon="3.45645">
        <ele>226.3</ele>
        <time>2016-11-06T10:36:03Z</time>
      </trkpt>
      <trkpt lat="43.70003" lon="3.45651">
        <ele>226.7</ele>
        <time>2016-11-06T10:36:10Z</time>
      </trkpt>
      <trkpt lat="43.70002" lon="3.45654">
        <ele>226.8</ele>
        <time>2016-11-06T10:36:17Z</time>
      </trkpt>
      <trkpt lat="43.69998" lon="3.45651">
        <ele>227</ele>
        <time>2016-11-06T10:36:24Z</time>
      </trkpt>
      <trkpt lat="43.69999" lon="3.45651">
        <ele>226.1</ele>
        <time>2016-11-06T10:36:38Z</time>
      </trkpt>
      <trkpt lat="43.70003" lon="3.45656">
        <ele>225.7</ele>
        <time>2016-11-06T10:36:45Z</time>
      </trkpt>
      <trkpt lat="43.69999" lon="3.45652">
        <ele>225.7</ele>
        <time>2016-11-06T10:36:59Z</time>
      </trkpt>
      <trkpt lat="43.7" lon="3.45651">
        <ele>225.9</ele>
        <time>2016-11-06T10:37:14Z</time>
      </trkpt>
      <trkpt lat="43.7" lon="3.45651">
        <ele>225.9</ele>
        <time>2016-11-06T10:37:21Z</time>
      </trkpt>
      <trkpt lat="43.69998" lon="3.45647">
        <ele>225.6</ele>
        <time>2016-11-06T10:37:31Z</time>
      </trkpt>
      <trkpt lat="43.69995" lon="3.45647">
        <ele>225.8</ele>
        <time>2016-11-06T10:37:52Z</time>
      </trkpt>
      <trkpt lat="43.69998" lon="3.45646">
        <ele>225.8</ele>
        <time>2016-11-06T10:37:59Z</time>
      </trkpt>
      <trkpt lat="43.69999" lon="3.45646">
        <ele>225.6</ele>
        <time>2016-11-06T10:38:06Z</time>
      </trkpt>
      <trkpt lat="43.70006" lon="3.45639">
        <ele>225.5</ele>
        <time>2016-11-06T10:38:12Z</time>
      </trkpt>
      <trkpt lat="43.70014" lon="3.45631">
        <ele>222.5</ele>
        <time>2016-11-06T10:38:14Z</time>
      </trkpt>
      <trkpt lat="43.70021" lon="3.45624">
        <ele>222.2</ele>
        <time>2016-11-06T10:38:16Z</time>
      </trkpt>
      <trkpt lat="43.70028" lon="3.45618">
        <ele>220.3</ele>
        <time>2016-11-06T10:38:18Z</time>
      </trkpt>
      <trkpt lat="43.70036" lon="3.45618">
        <ele>220</ele>
        <time>2016-11-06T10:38:21Z</time>
      </trkpt>
      <trkpt lat="43.7004" lon="3.4563">
        <ele>219.5</ele>
        <time>2016-11-06T10:38:25Z</time>
      </trkpt>
      <trkpt lat="43.70047" lon="3.45637">
        <ele>217.8</ele>
        <time>2016-11-06T10:38:28Z</time>
      </trkpt>
      <trkpt lat="43.70057" lon="3.45642">
        <ele>216.6</ele>
        <time>2016-11-06T10:38:31Z</time>
      </trkpt>
      <trkpt lat="43.70063" lon="3.4565">
        <ele>216.1</ele>
        <time>2016-11-06T10:38:35Z</time>
      </trkpt>
      <trkpt lat="43.70071" lon="3.45651">
        <ele>215.6</ele>
        <time>2016-11-06T10:38:42Z</time>
      </trkpt>
      <trkpt lat="43.70074" lon="3.4565">
        <ele>215.2</ele>
        <time>2016-11-06T10:38:49Z</time>
      </trkpt>
      <trkpt lat="43.70071" lon="3.4564">
        <ele>215.1</ele>
        <time>2016-11-06T10:38:55Z</time>
      </trkpt>
      <trkpt lat="43.70066" lon="3.4563">
        <ele>215</ele>
        <time>2016-11-06T10:39:02Z</time>
      </trkpt>
      <trkpt lat="43.70064" lon="3.4562">
        <ele>215.3</ele>
        <time>2016-11-06T10:39:07Z</time>
      </trkpt>
      <trkpt lat="43.70065" lon="3.45609">
        <ele>215.3</ele>
        <time>2016-11-06T10:39:14Z</time>
      </trkpt>
      <trkpt lat="43.70071" lon="3.45606">
        <ele>215.5</ele>
        <time>2016-11-06T10:39:21Z</time>
      </trkpt>
      <trkpt lat="43.70073" lon="3.45593">
        <ele>215.6</ele>
        <time>2016-11-06T10:39:35Z</time>
      </trkpt>
      <trkpt lat="43.70071" lon="3.45582">
        <ele>216.4</ele>
        <time>2016-11-06T10:39:42Z</time>
      </trkpt>
      <trkpt lat="43.7007" lon="3.45579">
        <ele>216.6</ele>
        <time>2016-11-06T10:39:49Z</time>
      </trkpt>
      <trkpt lat="43.70075" lon="3.45579">
        <ele>216.9</ele>
        <time>2016-11-06T10:40:00Z</time>
      </trkpt>
      <trkpt lat="43.70076" lon="3.45579">
        <ele>216.9</ele>
        <time>2016-11-06T10:40:14Z</time>
      </trkpt>
      <trkpt lat="43.70074" lon="3.45584">
        <ele>216.8</ele>
        <time>2016-11-06T10:40:21Z</time>
      </trkpt>
      <trkpt lat="43.70071" lon="3.45587">
        <ele>216.8</ele>
        <time>2016-11-06T10:40:28Z</time>
      </trkpt>
      <trkpt lat="43.70071" lon="3.45581">
        <ele>216.7</ele>
        <time>2016-11-06T10:40:35Z</time>
      </trkpt>
      <trkpt lat="43.70074" lon="3.45581">
        <ele>216.9</ele>
        <time>2016-11-06T10:40:42Z</time>
      </trkpt>
      <trkpt lat="43.70074" lon="3.45584">
        <ele>217.6</ele>
        <time>2016-11-06T10:40:49Z</time>
      </trkpt>
      <trkpt lat="43.70073" lon="3.45583">
        <ele>218.5</ele>
        <time>2016-11-06T10:41:09Z</time>
      </trkpt>
      <trkpt lat="43.70073" lon="3.45583">
        <ele>218.9</ele>
        <time>2016-11-06T10:41:16Z</time>
      </trkpt>
      <trkpt lat="43.70073" lon="3.45582">
        <ele>218.1</ele>
        <time>2016-11-06T10:41:32Z</time>
      </trkpt>
      <trkpt lat="43.70078" lon="3.45582">
        <ele>217.5</ele>
        <time>2016-11-06T10:41:41Z</time>
      </trkpt>
      <trkpt lat="43.70074" lon="3.45584">
        <ele>217.3</ele>
        <time>2016-11-06T10:41:55Z</time>
      </trkpt>
      <trkpt lat="43.70071" lon="3.45584">
        <ele>218.1</ele>
        <time>2016-11-06T10:42:07Z</time>
      </trkpt>
      <trkpt lat="43.70071" lon="3.45589">
        <ele>220.4</ele>
        <time>2016-11-06T10:42:14Z</time>
      </trkpt>
      <trkpt lat="43.70072" lon="3.45588">
        <ele>221.2</ele>
        <time>2016-11-06T10:42:21Z</time>
      </trkpt>
      <trkpt lat="43.70073" lon="3.45579">
        <ele>221.2</ele>
        <time>2016-11-06T10:42:41Z</time>
      </trkpt>
      <trkpt lat="43.70074" lon="3.45573">
        <ele>220.8</ele>
        <time>2016-11-06T10:42:55Z</time>
      </trkpt>
      <trkpt lat="43.70071" lon="3.45576">
        <ele>220.3</ele>
        <time>2016-11-06T10:43:09Z</time>
      </trkpt>
      <trkpt lat="43.70072" lon="3.45579">
        <ele>220.5</ele>
        <time>2016-11-06T10:43:22Z</time>
      </trkpt>
      <trkpt lat="43.70072" lon="3.45581">
        <ele>220.1</ele>
        <time>2016-11-06T10:43:29Z</time>
      </trkpt>
      <trkpt lat="43.70074" lon="3.45583">
        <ele>219.8</ele>
        <time>2016-11-06T10:43:39Z</time>
      </trkpt>
      <trkpt lat="43.70075" lon="3.45583">
        <ele>219.7</ele>
        <time>2016-11-06T10:43:46Z</time>
      </trkpt>
      <trkpt lat="43.70071" lon="3.45584">
        <ele>220.3</ele>
        <time>2016-11-06T10:44:03Z</time>
      </trkpt>
      <trkpt lat="43.70071" lon="3.45581">
        <ele>220.2</ele>
        <time>2016-11-06T10:44:10Z</time>
      </trkpt>
      <trkpt lat="43.70072" lon="3.45578">
        <ele>219</ele>
        <time>2016-11-06T10:44:17Z</time>
      </trkpt>
      <trkpt lat="43.70072" lon="3.45578">
        <ele>218.9</ele>
        <time>2016-11-06T10:44:31Z</time>
      </trkpt>
      <trkpt lat="43.70067" lon="3.45572">
        <ele>218.5</ele>
        <time>2016-11-06T10:44:38Z</time>
      </trkpt>
      <trkpt lat="43.7007" lon="3.45582">
        <ele>218.8</ele>
        <time>2016-11-06T10:44:45Z</time>
      </trkpt>
      <trkpt lat="43.70073" lon="3.45582">
        <ele>218.9</ele>
        <time>2016-11-06T10:44:52Z</time>
      </trkpt>
      <trkpt lat="43.70072" lon="3.45582">
        <ele>217.3</ele>
        <time>2016-11-06T10:45:31Z</time>
      </trkpt>
      <trkpt lat="43.70069" lon="3.45581">
        <ele>217.4</ele>
        <time>2016-11-06T10:45:38Z</time>
      </trkpt>
      <trkpt lat="43.70071" lon="3.45583">
        <ele>217.5</ele>
        <time>2016-11-06T10:45:48Z</time>
      </trkpt>
      <trkpt lat="43.70076" lon="3.45577">
        <ele>217.4</ele>
        <time>2016-11-06T10:46:12Z</time>
      </trkpt>
      <trkpt lat="43.70072" lon="3.45579">
        <ele>216.9</ele>
        <time>2016-11-06T10:46:27Z</time>
      </trkpt>
      <trkpt lat="43.70072" lon="3.4558">
        <ele>216.9</ele>
        <time>2016-11-06T10:46:49Z</time>
      </trkpt>
      <trkpt lat="43.70066" lon="3.4558">
        <ele>217.6</ele>
        <time>2016-11-06T10:47:00Z</time>
      </trkpt>
      <trkpt lat="43.70067" lon="3.45578">
        <ele>218</ele>
        <time>2016-11-06T10:47:07Z</time>
      </trkpt>
      <trkpt lat="43.70069" lon="3.4558">
        <ele>218.4</ele>
        <time>2016-11-06T10:47:14Z</time>
      </trkpt>
      <trkpt lat="43.70074" lon="3.45578">
        <ele>218.9</ele>
        <time>2016-11-06T10:47:21Z</time>
      </trkpt>
      <trkpt lat="43.70074" lon="3.45579">
        <ele>218.9</ele>
        <time>2016-11-06T10:47:28Z</time>
      </trkpt>
      <trkpt lat="43.70071" lon="3.45582">
        <ele>218.9</ele>
        <time>2016-11-06T10:47:35Z</time>
      </trkpt>
      <trkpt lat="43.70072" lon="3.45583">
        <ele>218.9</ele>
        <time>2016-11-06T10:47:56Z</time>
      </trkpt>
      <trkpt lat="43.70073" lon="3.45585">
        <ele>218.4</ele>
        <time>2016-11-06T10:48:12Z</time>
      </trkpt>
      <trkpt lat="43.70071" lon="3.45579">
        <ele>219.8</ele>
        <time>2016-11-06T10:49:04Z</time>
      </trkpt>
      <trkpt lat="43.70074" lon="3.45579">
        <ele>219</ele>
        <time>2016-11-06T10:49:25Z</time>
      </trkpt>
      <trkpt lat="43.70074" lon="3.45581">
        <ele>219.2</ele>
        <time>2016-11-06T10:49:32Z</time>
      </trkpt>
      <trkpt lat="43.70071" lon="3.45582">
        <ele>220</ele>
        <time>2016-11-06T10:49:46Z</time>
      </trkpt>
      <trkpt lat="43.70073" lon="3.45579">
        <ele>220</ele>
        <time>2016-11-06T10:49:53Z</time>
      </trkpt>
      <trkpt lat="43.7007" lon="3.45578">
        <ele>220.5</ele>
        <time>2016-11-06T10:50:00Z</time>
      </trkpt>
      <trkpt lat="43.70074" lon="3.45579">
        <ele>220.6</ele>
        <time>2016-11-06T10:50:07Z</time>
      </trkpt>
      <trkpt lat="43.70074" lon="3.45582">
        <ele>220.6</ele>
        <time>2016-11-06T10:50:14Z</time>
      </trkpt>
      <trkpt lat="43.70073" lon="3.45579">
        <ele>220.6</ele>
        <time>2016-11-06T10:50:21Z</time>
      </trkpt>
      <trkpt lat="43.70072" lon="3.45575">
        <ele>220.4</ele>
        <time>2016-11-06T10:50:32Z</time>
      </trkpt>
      <trkpt lat="43.70072" lon="3.45579">
        <ele>220.6</ele>
        <time>2016-11-06T10:50:39Z</time>
      </trkpt>
      <trkpt lat="43.70072" lon="3.45582">
        <ele>220.6</ele>
        <time>2016-11-06T10:50:48Z</time>
      </trkpt>
      <trkpt lat="43.70066" lon="3.45579">
        <ele>218.9</ele>
        <time>2016-11-06T10:50:55Z</time>
      </trkpt>
      <trkpt lat="43.70065" lon="3.45585">
        <ele>217.2</ele>
        <time>2016-11-06T10:51:02Z</time>
      </trkpt>
      <trkpt lat="43.70071" lon="3.45589">
        <ele>218.8</ele>
        <time>2016-11-06T10:51:21Z</time>
      </trkpt>
      <trkpt lat="43.70075" lon="3.45584">
        <ele>220.6</ele>
        <time>2016-11-06T10:51:28Z</time>
      </trkpt>
      <trkpt lat="43.70072" lon="3.45578">
        <ele>221.6</ele>
        <time>2016-11-06T10:51:35Z</time>
      </trkpt>
      <trkpt lat="43.70074" lon="3.45561">
        <ele>221.6</ele>
        <time>2016-11-06T10:51:37Z</time>
      </trkpt>
      <trkpt lat="43.70076" lon="3.45551">
        <ele>220.8</ele>
        <time>2016-11-06T10:51:38Z</time>
      </trkpt>
      <trkpt lat="43.70074" lon="3.45537">
        <ele>219.1</ele>
        <time>2016-11-06T10:51:40Z</time>
      </trkpt>
      <trkpt lat="43.7007" lon="3.45521">
        <ele>217.5</ele>
        <time>2016-11-06T10:51:42Z</time>
      </trkpt>
      <trkpt lat="43.70064" lon="3.4551">
        <ele>217</ele>
        <time>2016-11-06T10:51:45Z</time>
      </trkpt>
      <trkpt lat="43.70059" lon="3.45503">
        <ele>216.8</ele>
        <time>2016-11-06T10:51:48Z</time>
      </trkpt>
      <trkpt lat="43.70054" lon="3.45494">
        <ele>216.9</ele>
        <time>2016-11-06T10:51:52Z</time>
      </trkpt>
      <trkpt lat="43.70052" lon="3.45484">
        <ele>217.3</ele>
        <time>2016-11-06T10:51:55Z</time>
      </trkpt>
      <trkpt lat="43.70055" lon="3.45474">
        <ele>218.1</ele>
        <time>2016-11-06T10:51:59Z</time>
      </trkpt>
      <trkpt lat="43.70059" lon="3.45464">
        <ele>218.5</ele>
        <time>2016-11-06T10:52:04Z</time>
      </trkpt>
      <trkpt lat="43.70059" lon="3.45454">
        <ele>219.1</ele>
        <time>2016-11-06T10:52:09Z</time>
      </trkpt>
      <trkpt lat="43.70061" lon="3.45441">
        <ele>219.3</ele>
        <time>2016-11-06T10:52:14Z</time>
      </trkpt>
      <trkpt lat="43.7006" lon="3.4543">
        <ele>219.4</ele>
        <time>2016-11-06T10:52:18Z</time>
      </trkpt>
      <trkpt lat="43.70057" lon="3.45429">
        <ele>220</ele>
        <time>2016-11-06T10:52:25Z</time>
      </trkpt>
      <trkpt lat="43.70059" lon="3.45426">
        <ele>219.6</ele>
        <time>2016-11-06T10:52:42Z</time>
      </trkpt>
      <trkpt lat="43.70059" lon="3.45418">
        <ele>219.3</ele>
        <time>2016-11-06T10:53:07Z</time>
      </trkpt>
      <trkpt lat="43.70058" lon="3.45408">
        <ele>219.1</ele>
        <time>2016-11-06T10:53:11Z</time>
      </trkpt>
      <trkpt lat="43.70058" lon="3.45402">
        <ele>218.8</ele>
        <time>2016-11-06T10:53:18Z</time>
      </trkpt>
      <trkpt lat="43.7006" lon="3.45401">
        <ele>218.9</ele>
        <time>2016-11-06T10:53:25Z</time>
      </trkpt>
      <trkpt lat="43.7006" lon="3.45413">
        <ele>218.8</ele>
        <time>2016-11-06T10:53:29Z</time>
      </trkpt>
      <trkpt lat="43.70062" lon="3.45423">
        <ele>219.3</ele>
        <time>2016-11-06T10:53:36Z</time>
      </trkpt>
      <trkpt lat="43.70053" lon="3.4543">
        <ele>219.2</ele>
        <time>2016-11-06T10:54:14Z</time>
      </trkpt>
      <trkpt lat="43.70046" lon="3.45432">
        <ele>216.5</ele>
        <time>2016-11-06T10:54:16Z</time>
      </trkpt>
      <trkpt lat="43.70034" lon="3.45433">
        <ele>213.3</ele>
        <time>2016-11-06T10:54:18Z</time>
      </trkpt>
      <trkpt lat="43.70022" lon="3.45437">
        <ele>210.4</ele>
        <time>2016-11-06T10:54:21Z</time>
      </trkpt>
      <trkpt lat="43.70015" lon="3.45436">
        <ele>210.3</ele>
        <time>2016-11-06T10:54:23Z</time>
      </trkpt>
      <trkpt lat="43.70005" lon="3.4543">
        <ele>209.3</ele>
        <time>2016-11-06T10:54:26Z</time>
      </trkpt>
      <trkpt lat="43.69998" lon="3.45423">
        <ele>207.9</ele>
        <time>2016-11-06T10:54:28Z</time>
      </trkpt>
      <trkpt lat="43.69992" lon="3.45412">
        <ele>206.5</ele>
        <time>2016-11-06T10:54:30Z</time>
      </trkpt>
      <trkpt lat="43.69984" lon="3.45403">
        <ele>205.9</ele>
        <time>2016-11-06T10:54:32Z</time>
      </trkpt>
      <trkpt lat="43.69974" lon="3.45395">
        <ele>204.6</ele>
        <time>2016-11-06T10:54:34Z</time>
      </trkpt>
      <trkpt lat="43.69968" lon="3.45395">
        <ele>203.6</ele>
        <time>2016-11-06T10:54:41Z</time>
      </trkpt>
      <trkpt lat="43.69975" lon="3.45402">
        <ele>202.6</ele>
        <time>2016-11-06T10:54:46Z</time>
      </trkpt>
      <trkpt lat="43.69975" lon="3.45391">
        <ele>201.6</ele>
        <time>2016-11-06T10:54:53Z</time>
      </trkpt>
      <trkpt lat="43.69975" lon="3.45388">
        <ele>202</ele>
        <time>2016-11-06T10:55:00Z</time>
      </trkpt>
      <trkpt lat="43.69971" lon="3.45379">
        <ele>198.5</ele>
        <time>2016-11-06T10:55:05Z</time>
      </trkpt>
      <trkpt lat="43.69971" lon="3.45366">
        <ele>196.5</ele>
        <time>2016-11-06T10:55:07Z</time>
      </trkpt>
      <trkpt lat="43.69973" lon="3.45355">
        <ele>195.3</ele>
        <time>2016-11-06T10:55:09Z</time>
      </trkpt>
      <trkpt lat="43.69974" lon="3.45335">
        <ele>192.5</ele>
        <time>2016-11-06T10:55:11Z</time>
      </trkpt>
      <trkpt lat="43.6997" lon="3.45317">
        <ele>191.6</ele>
        <time>2016-11-06T10:55:13Z</time>
      </trkpt>
      <trkpt lat="43.69962" lon="3.45309">
        <ele>192.2</ele>
        <time>2016-11-06T10:55:15Z</time>
      </trkpt>
      <trkpt lat="43.69956" lon="3.45304">
        <ele>192.6</ele>
        <time>2016-11-06T10:55:19Z</time>
      </trkpt>
      <trkpt lat="43.69948" lon="3.45299">
        <ele>193.3</ele>
        <time>2016-11-06T10:55:23Z</time>
      </trkpt>
      <trkpt lat="43.6994" lon="3.45291">
        <ele>193.5</ele>
        <time>2016-11-06T10:55:25Z</time>
      </trkpt>
      <trkpt lat="43.69932" lon="3.45282">
        <ele>193.3</ele>
        <time>2016-11-06T10:55:27Z</time>
      </trkpt>
      <trkpt lat="43.69922" lon="3.45278">
        <ele>193.2</ele>
        <time>2016-11-06T10:55:30Z</time>
      </trkpt>
      <trkpt lat="43.69925" lon="3.45267">
        <ele>193.2</ele>
        <time>2016-11-06T10:55:35Z</time>
      </trkpt>
      <trkpt lat="43.69922" lon="3.45256">
        <ele>193.2</ele>
        <time>2016-11-06T10:55:38Z</time>
      </trkpt>
      <trkpt lat="43.69915" lon="3.45245">
        <ele>193.3</ele>
        <time>2016-11-06T10:55:41Z</time>
      </trkpt>
      <trkpt lat="43.69907" lon="3.45237">
        <ele>193.5</ele>
        <time>2016-11-06T10:55:44Z</time>
      </trkpt>
      <trkpt lat="43.69898" lon="3.45232">
        <ele>193.2</ele>
        <time>2016-11-06T10:55:46Z</time>
      </trkpt>
      <trkpt lat="43.69891" lon="3.45224">
        <ele>193.4</ele>
        <time>2016-11-06T10:55:48Z</time>
      </trkpt>
      <trkpt lat="43.69883" lon="3.45213">
        <ele>193.8</ele>
        <time>2016-11-06T10:55:50Z</time>
      </trkpt>
      <trkpt lat="43.69875" lon="3.45205">
        <ele>193.9</ele>
        <time>2016-11-06T10:55:52Z</time>
      </trkpt>
      <trkpt lat="43.69868" lon="3.45196">
        <ele>193.5</ele>
        <time>2016-11-06T10:55:55Z</time>
      </trkpt>
      <trkpt lat="43.69863" lon="3.45183">
        <ele>195</ele>
        <time>2016-11-06T10:55:59Z</time>
      </trkpt>
      <trkpt lat="43.69858" lon="3.45171">
        <ele>196.3</ele>
        <time>2016-11-06T10:56:02Z</time>
      </trkpt>
      <trkpt lat="43.69857" lon="3.4516">
        <ele>196.5</ele>
        <time>2016-11-06T10:56:05Z</time>
      </trkpt>
      <trkpt lat="43.69863" lon="3.45152">
        <ele>196.3</ele>
        <time>2016-11-06T10:56:08Z</time>
      </trkpt>
      <trkpt lat="43.69872" lon="3.45147">
        <ele>195.9</ele>
        <time>2016-11-06T10:56:12Z</time>
      </trkpt>
      <trkpt lat="43.69879" lon="3.4514">
        <ele>194.5</ele>
        <time>2016-11-06T10:56:19Z</time>
      </trkpt>
      <trkpt lat="43.69879" lon="3.45146">
        <ele>193.2</ele>
        <time>2016-11-06T10:56:26Z</time>
      </trkpt>
      <trkpt lat="43.69874" lon="3.45151">
        <ele>192.8</ele>
        <time>2016-11-06T10:56:29Z</time>
      </trkpt>
      <trkpt lat="43.69875" lon="3.45153">
        <ele>192.8</ele>
        <time>2016-11-06T10:56:36Z</time>
      </trkpt>
      <trkpt lat="43.69875" lon="3.45151">
        <ele>192.8</ele>
        <time>2016-11-06T10:56:43Z</time>
      </trkpt>
      <trkpt lat="43.69879" lon="3.45142">
        <ele>193.1</ele>
        <time>2016-11-06T10:56:50Z</time>
      </trkpt>
      <trkpt lat="43.69887" lon="3.4513">
        <ele>193.1</ele>
        <time>2016-11-06T10:56:53Z</time>
      </trkpt>
      <trkpt lat="43.69892" lon="3.45123">
        <ele>192.9</ele>
        <time>2016-11-06T10:56:55Z</time>
      </trkpt>
      <trkpt lat="43.69895" lon="3.45109">
        <ele>191.6</ele>
        <time>2016-11-06T10:56:57Z</time>
      </trkpt>
      <trkpt lat="43.69895" lon="3.45092">
        <ele>190.1</ele>
        <time>2016-11-06T10:56:59Z</time>
      </trkpt>
      <trkpt lat="43.69894" lon="3.45073">
        <ele>188.1</ele>
        <time>2016-11-06T10:57:01Z</time>
      </trkpt>
      <trkpt lat="43.69894" lon="3.45055">
        <ele>185.2</ele>
        <time>2016-11-06T10:57:03Z</time>
      </trkpt>
      <trkpt lat="43.69894" lon="3.4504">
        <ele>183.1</ele>
        <time>2016-11-06T10:57:05Z</time>
      </trkpt>
      <trkpt lat="43.69894" lon="3.4503">
        <ele>183</ele>
        <time>2016-11-06T10:57:07Z</time>
      </trkpt>
      <trkpt lat="43.69896" lon="3.4502">
        <ele>182.4</ele>
        <time>2016-11-06T10:57:09Z</time>
      </trkpt>
      <trkpt lat="43.69903" lon="3.45006">
        <ele>182.6</ele>
        <time>2016-11-06T10:57:27Z</time>
      </trkpt>
      <trkpt lat="43.69901" lon="3.44996">
        <ele>182.9</ele>
        <time>2016-11-06T10:57:31Z</time>
      </trkpt>
      <trkpt lat="43.69892" lon="3.44991">
        <ele>183.9</ele>
        <time>2016-11-06T10:57:33Z</time>
      </trkpt>
      <trkpt lat="43.6988" lon="3.44993">
        <ele>183.8</ele>
        <time>2016-11-06T10:57:36Z</time>
      </trkpt>
      <trkpt lat="43.69866" lon="3.44998">
        <ele>183.2</ele>
        <time>2016-11-06T10:57:38Z</time>
      </trkpt>
      <trkpt lat="43.69856" lon="3.44993">
        <ele>181.7</ele>
        <time>2016-11-06T10:57:40Z</time>
      </trkpt>
      <trkpt lat="43.69853" lon="3.44982">
        <ele>180.8</ele>
        <time>2016-11-06T10:57:42Z</time>
      </trkpt>
      <trkpt lat="43.69851" lon="3.44969">
        <ele>180.1</ele>
        <time>2016-11-06T10:57:44Z</time>
      </trkpt>
      <trkpt lat="43.69849" lon="3.44955">
        <ele>180</ele>
        <time>2016-11-06T10:57:46Z</time>
      </trkpt>
      <trkpt lat="43.69847" lon="3.44945">
        <ele>180.3</ele>
        <time>2016-11-06T10:57:51Z</time>
      </trkpt>
      <trkpt lat="43.69847" lon="3.44941">
        <ele>181</ele>
        <time>2016-11-06T10:57:58Z</time>
      </trkpt>
      <trkpt lat="43.69852" lon="3.44918">
        <ele>180.9</ele>
        <time>2016-11-06T10:58:00Z</time>
      </trkpt>
      <trkpt lat="43.69854" lon="3.44905">
        <ele>180.2</ele>
        <time>2016-11-06T10:58:01Z</time>
      </trkpt>
      <trkpt lat="43.69851" lon="3.44892">
        <ele>179.6</ele>
        <time>2016-11-06T10:58:03Z</time>
      </trkpt>
      <trkpt lat="43.69847" lon="3.44881">
        <ele>176.8</ele>
        <time>2016-11-06T10:58:05Z</time>
      </trkpt>
      <trkpt lat="43.69844" lon="3.44871">
        <ele>174.6</ele>
        <time>2016-11-06T10:58:07Z</time>
      </trkpt>
      <trkpt lat="43.69844" lon="3.44861">
        <ele>174.3</ele>
        <time>2016-11-06T10:58:10Z</time>
      </trkpt>
      <trkpt lat="43.69847" lon="3.4485">
        <ele>173.3</ele>
        <time>2016-11-06T10:58:15Z</time>
      </trkpt>
      <trkpt lat="43.6985" lon="3.4484">
        <ele>172.7</ele>
        <time>2016-11-06T10:58:18Z</time>
      </trkpt>
      <trkpt lat="43.69856" lon="3.44831">
        <ele>171.9</ele>
        <time>2016-11-06T10:58:24Z</time>
      </trkpt>
      <trkpt lat="43.69858" lon="3.44821">
        <ele>171.6</ele>
        <time>2016-11-06T10:58:29Z</time>
      </trkpt>
      <trkpt lat="43.69862" lon="3.4481">
        <ele>171.4</ele>
        <time>2016-11-06T10:58:35Z</time>
      </trkpt>
      <trkpt lat="43.69866" lon="3.448">
        <ele>171.3</ele>
        <time>2016-11-06T10:58:40Z</time>
      </trkpt>
      <trkpt lat="43.69872" lon="3.44795">
        <ele>171.2</ele>
        <time>2016-11-06T10:58:47Z</time>
      </trkpt>
      <trkpt lat="43.69879" lon="3.44789">
        <ele>171.6</ele>
        <time>2016-11-06T10:58:53Z</time>
      </trkpt>
      <trkpt lat="43.69886" lon="3.44786">
        <ele>172</ele>
        <time>2016-11-06T10:58:58Z</time>
      </trkpt>
      <trkpt lat="43.6989" lon="3.44776">
        <ele>172.6</ele>
        <time>2016-11-06T10:59:03Z</time>
      </trkpt>
      <trkpt lat="43.69892" lon="3.44765">
        <ele>173.1</ele>
        <time>2016-11-06T10:59:07Z</time>
      </trkpt>
      <trkpt lat="43.69898" lon="3.44757">
        <ele>173.8</ele>
        <time>2016-11-06T10:59:13Z</time>
      </trkpt>
      <trkpt lat="43.699" lon="3.44746">
        <ele>174.6</ele>
        <time>2016-11-06T10:59:18Z</time>
      </trkpt>
      <trkpt lat="43.69903" lon="3.44735">
        <ele>175.6</ele>
        <time>2016-11-06T10:59:25Z</time>
      </trkpt>
      <trkpt lat="43.69908" lon="3.44725">
        <ele>176.3</ele>
        <time>2016-11-06T10:59:31Z</time>
      </trkpt>
      <trkpt lat="43.69914" lon="3.44718">
        <ele>177</ele>
        <time>2016-11-06T10:59:37Z</time>
      </trkpt>
      <trkpt lat="43.69922" lon="3.44712">
        <ele>177.1</ele>
        <time>2016-11-06T10:59:42Z</time>
      </trkpt>
      <trkpt lat="43.6993" lon="3.44707">
        <ele>177</ele>
        <time>2016-11-06T10:59:47Z</time>
      </trkpt>
      <trkpt lat="43.69938" lon="3.44703">
        <ele>177.1</ele>
        <time>2016-11-06T10:59:51Z</time>
      </trkpt>
      <trkpt lat="43.69946" lon="3.447">
        <ele>177.2</ele>
        <time>2016-11-06T10:59:55Z</time>
      </trkpt>
      <trkpt lat="43.69953" lon="3.44697">
        <ele>177.2</ele>
        <time>2016-11-06T10:59:58Z</time>
      </trkpt>
      <trkpt lat="43.69962" lon="3.44695">
        <ele>177.4</ele>
        <time>2016-11-06T11:00:02Z</time>
      </trkpt>
      <trkpt lat="43.6997" lon="3.44692">
        <ele>177.7</ele>
        <time>2016-11-06T11:00:06Z</time>
      </trkpt>
      <trkpt lat="43.69978" lon="3.44688">
        <ele>178.3</ele>
        <time>2016-11-06T11:00:10Z</time>
      </trkpt>
      <trkpt lat="43.69984" lon="3.44679">
        <ele>178.9</ele>
        <time>2016-11-06T11:00:14Z</time>
      </trkpt>
      <trkpt lat="43.69989" lon="3.44669">
        <ele>179.3</ele>
        <time>2016-11-06T11:00:17Z</time>
      </trkpt>
      <trkpt lat="43.69991" lon="3.44656">
        <ele>179.8</ele>
        <time>2016-11-06T11:00:21Z</time>
      </trkpt>
      <trkpt lat="43.69994" lon="3.44645">
        <ele>180.3</ele>
        <time>2016-11-06T11:00:25Z</time>
      </trkpt>
      <trkpt lat="43.69998" lon="3.44635">
        <ele>180.8</ele>
        <time>2016-11-06T11:00:29Z</time>
      </trkpt>
      <trkpt lat="43.70002" lon="3.44625">
        <ele>181.3</ele>
        <time>2016-11-06T11:00:33Z</time>
      </trkpt>
      <trkpt lat="43.70008" lon="3.44619">
        <ele>181.6</ele>
        <time>2016-11-06T11:00:36Z</time>
      </trkpt>
      <trkpt lat="43.70013" lon="3.4461">
        <ele>181.9</ele>
        <time>2016-11-06T11:00:40Z</time>
      </trkpt>
      <trkpt lat="43.70019" lon="3.44603">
        <ele>182.3</ele>
        <time>2016-11-06T11:00:43Z</time>
      </trkpt>
      <trkpt lat="43.70025" lon="3.44596">
        <ele>182.7</ele>
        <time>2016-11-06T11:00:46Z</time>
      </trkpt>
      <trkpt lat="43.70033" lon="3.4459">
        <ele>183.2</ele>
        <time>2016-11-06T11:00:50Z</time>
      </trkpt>
      <trkpt lat="43.70039" lon="3.44583">
        <ele>183.8</ele>
        <time>2016-11-06T11:00:54Z</time>
      </trkpt>
      <trkpt lat="43.70046" lon="3.44575">
        <ele>184.4</ele>
        <time>2016-11-06T11:00:58Z</time>
      </trkpt>
      <trkpt lat="43.70051" lon="3.44568">
        <ele>184.7</ele>
        <time>2016-11-06T11:01:01Z</time>
      </trkpt>
      <trkpt lat="43.70057" lon="3.4456">
        <ele>185.2</ele>
        <time>2016-11-06T11:01:05Z</time>
      </trkpt>
      <trkpt lat="43.70062" lon="3.44551">
        <ele>185.7</ele>
        <time>2016-11-06T11:01:09Z</time>
      </trkpt>
      <trkpt lat="43.70067" lon="3.44542">
        <ele>186.3</ele>
        <time>2016-11-06T11:01:13Z</time>
      </trkpt>
      <trkpt lat="43.70073" lon="3.44532">
        <ele>187.3</ele>
        <time>2016-11-06T11:01:18Z</time>
      </trkpt>
      <trkpt lat="43.70078" lon="3.44521">
        <ele>188</ele>
        <time>2016-11-06T11:01:22Z</time>
      </trkpt>
      <trkpt lat="43.70084" lon="3.44514">
        <ele>188.6</ele>
        <time>2016-11-06T11:01:26Z</time>
      </trkpt>
      <trkpt lat="43.70091" lon="3.44507">
        <ele>189</ele>
        <time>2016-11-06T11:01:30Z</time>
      </trkpt>
      <trkpt lat="43.70098" lon="3.445">
        <ele>189.7</ele>
        <time>2016-11-06T11:01:34Z</time>
      </trkpt>
      <trkpt lat="43.70104" lon="3.44494">
        <ele>190.4</ele>
        <time>2016-11-06T11:01:38Z</time>
      </trkpt>
      <trkpt lat="43.70109" lon="3.44484">
        <ele>191.2</ele>
        <time>2016-11-06T11:01:42Z</time>
      </trkpt>
      <trkpt lat="43.70115" lon="3.44476">
        <ele>191.8</ele>
        <time>2016-11-06T11:01:46Z</time>
      </trkpt>
      <trkpt lat="43.7012" lon="3.44467">
        <ele>192.4</ele>
        <time>2016-11-06T11:01:50Z</time>
      </trkpt>
      <trkpt lat="43.70125" lon="3.44457">
        <ele>193</ele>
        <time>2016-11-06T11:01:54Z</time>
      </trkpt>
      <trkpt lat="43.70132" lon="3.44449">
        <ele>193.7</ele>
        <time>2016-11-06T11:01:58Z</time>
      </trkpt>
      <trkpt lat="43.7014" lon="3.44443">
        <ele>194.3</ele>
        <time>2016-11-06T11:02:02Z</time>
      </trkpt>
      <trkpt lat="43.70146" lon="3.44439">
        <ele>194.8</ele>
        <time>2016-11-06T11:02:05Z</time>
      </trkpt>
      <trkpt lat="43.70155" lon="3.44434">
        <ele>195.1</ele>
        <time>2016-11-06T11:02:08Z</time>
      </trkpt>
      <trkpt lat="43.70164" lon="3.4443">
        <ele>196.7</ele>
        <time>2016-11-06T11:02:11Z</time>
      </trkpt>
      <trkpt lat="43.70173" lon="3.44424">
        <ele>196.9</ele>
        <time>2016-11-06T11:02:14Z</time>
      </trkpt>
      <trkpt lat="43.7018" lon="3.44417">
        <ele>197.1</ele>
        <time>2016-11-06T11:02:17Z</time>
      </trkpt>
      <trkpt lat="43.70185" lon="3.44411">
        <ele>197.4</ele>
        <time>2016-11-06T11:02:21Z</time>
      </trkpt>
      <trkpt lat="43.70191" lon="3.44402">
        <ele>197.6</ele>
        <time>2016-11-06T11:02:25Z</time>
      </trkpt>
      <trkpt lat="43.70195" lon="3.44392">
        <ele>198.3</ele>
        <time>2016-11-06T11:02:31Z</time>
      </trkpt>
      <trkpt lat="43.70202" lon="3.44385">
        <ele>198.5</ele>
        <time>2016-11-06T11:02:35Z</time>
      </trkpt>
      <trkpt lat="43.7021" lon="3.44378">
        <ele>198.8</ele>
        <time>2016-11-06T11:02:39Z</time>
      </trkpt>
      <trkpt lat="43.70219" lon="3.44374">
        <ele>199</ele>
        <time>2016-11-06T11:02:43Z</time>
      </trkpt>
      <trkpt lat="43.70227" lon="3.44368">
        <ele>199.1</ele>
        <time>2016-11-06T11:02:47Z</time>
      </trkpt>
      <trkpt lat="43.70235" lon="3.4436">
        <ele>199.3</ele>
        <time>2016-11-06T11:02:51Z</time>
      </trkpt>
      <trkpt lat="43.70241" lon="3.44351">
        <ele>199.4</ele>
        <time>2016-11-06T11:02:54Z</time>
      </trkpt>
      <trkpt lat="43.70246" lon="3.44343">
        <ele>199.5</ele>
        <time>2016-11-06T11:02:58Z</time>
      </trkpt>
      <trkpt lat="43.70252" lon="3.44336">
        <ele>199.8</ele>
        <time>2016-11-06T11:03:02Z</time>
      </trkpt>
      <trkpt lat="43.70257" lon="3.4433">
        <ele>200.1</ele>
        <time>2016-11-06T11:03:05Z</time>
      </trkpt>
      <trkpt lat="43.70265" lon="3.44322">
        <ele>200.8</ele>
        <time>2016-11-06T11:03:09Z</time>
      </trkpt>
      <trkpt lat="43.70272" lon="3.44314">
        <ele>201.4</ele>
        <time>2016-11-06T11:03:13Z</time>
      </trkpt>
      <trkpt lat="43.70278" lon="3.44305">
        <ele>201.8</ele>
        <time>2016-11-06T11:03:16Z</time>
      </trkpt>
      <trkpt lat="43.70283" lon="3.44298">
        <ele>202.1</ele>
        <time>2016-11-06T11:03:19Z</time>
      </trkpt>
      <trkpt lat="43.70286" lon="3.4429">
        <ele>202.4</ele>
        <time>2016-11-06T11:03:23Z</time>
      </trkpt>
      <trkpt lat="43.7029" lon="3.44279">
        <ele>202.7</ele>
        <time>2016-11-06T11:03:27Z</time>
      </trkpt>
      <trkpt lat="43.70292" lon="3.4427">
        <ele>203.3</ele>
        <time>2016-11-06T11:03:32Z</time>
      </trkpt>
      <trkpt lat="43.70295" lon="3.44261">
        <ele>204.3</ele>
        <time>2016-11-06T11:03:38Z</time>
      </trkpt>
      <trkpt lat="43.70299" lon="3.44249">
        <ele>205.3</ele>
        <time>2016-11-06T11:03:43Z</time>
      </trkpt>
      <trkpt lat="43.70302" lon="3.44238">
        <ele>206.5</ele>
        <time>2016-11-06T11:03:48Z</time>
      </trkpt>
      <trkpt lat="43.70307" lon="3.4423">
        <ele>207.8</ele>
        <time>2016-11-06T11:03:53Z</time>
      </trkpt>
      <trkpt lat="43.70311" lon="3.44221">
        <ele>208.7</ele>
        <time>2016-11-06T11:03:57Z</time>
      </trkpt>
      <trkpt lat="43.70316" lon="3.44212">
        <ele>209.6</ele>
        <time>2016-11-06T11:04:02Z</time>
      </trkpt>
      <trkpt lat="43.70323" lon="3.44207">
        <ele>210.6</ele>
        <time>2016-11-06T11:04:08Z</time>
      </trkpt>
      <trkpt lat="43.70331" lon="3.44209">
        <ele>211</ele>
        <time>2016-11-06T11:04:13Z</time>
      </trkpt>
      <trkpt lat="43.70338" lon="3.44209">
        <ele>211.2</ele>
        <time>2016-11-06T11:04:17Z</time>
      </trkpt>
      <trkpt lat="43.70347" lon="3.44209">
        <ele>211.4</ele>
        <time>2016-11-06T11:04:21Z</time>
      </trkpt>
      <trkpt lat="43.70356" lon="3.44209">
        <ele>211.5</ele>
        <time>2016-11-06T11:04:25Z</time>
      </trkpt>
      <trkpt lat="43.70364" lon="3.44209">
        <ele>211.6</ele>
        <time>2016-11-06T11:04:29Z</time>
      </trkpt>
      <trkpt lat="43.70371" lon="3.44208">
        <ele>211.8</ele>
        <time>2016-11-06T11:04:33Z</time>
      </trkpt>
      <trkpt lat="43.7038" lon="3.44207">
        <ele>212</ele>
        <time>2016-11-06T11:04:37Z</time>
      </trkpt>
      <trkpt lat="43.70388" lon="3.44207">
        <ele>212.3</ele>
        <time>2016-11-06T11:04:41Z</time>
      </trkpt>
      <trkpt lat="43.70396" lon="3.44207">
        <ele>212.6</ele>
        <time>2016-11-06T11:04:45Z</time>
      </trkpt>
      <trkpt lat="43.70405" lon="3.44207">
        <ele>212.9</ele>
        <time>2016-11-06T11:04:49Z</time>
      </trkpt>
      <trkpt lat="43.70415" lon="3.44206">
        <ele>213.3</ele>
        <time>2016-11-06T11:04:53Z</time>
      </trkpt>
      <trkpt lat="43.70422" lon="3.44205">
        <ele>213.6</ele>
        <time>2016-11-06T11:04:56Z</time>
      </trkpt>
      <trkpt lat="43.7043" lon="3.44204">
        <ele>213.9</ele>
        <time>2016-11-06T11:04:59Z</time>
      </trkpt>
      <trkpt lat="43.70439" lon="3.44203">
        <ele>214.3</ele>
        <time>2016-11-06T11:05:03Z</time>
      </trkpt>
      <trkpt lat="43.70447" lon="3.44201">
        <ele>214.6</ele>
        <time>2016-11-06T11:05:06Z</time>
      </trkpt>
      <trkpt lat="43.70455" lon="3.44197">
        <ele>214.9</ele>
        <time>2016-11-06T11:05:09Z</time>
      </trkpt>
      <trkpt lat="43.70463" lon="3.44194">
        <ele>215.2</ele>
        <time>2016-11-06T11:05:12Z</time>
      </trkpt>
      <trkpt lat="43.70472" lon="3.44187">
        <ele>215.5</ele>
        <time>2016-11-06T11:05:15Z</time>
      </trkpt>
      <trkpt lat="43.70479" lon="3.44181">
        <ele>216.5</ele>
        <time>2016-11-06T11:05:17Z</time>
      </trkpt>
      <trkpt lat="43.70483" lon="3.44174">
        <ele>216.7</ele>
        <time>2016-11-06T11:05:19Z</time>
      </trkpt>
      <trkpt lat="43.70489" lon="3.44167">
        <ele>216.9</ele>
        <time>2016-11-06T11:05:21Z</time>
      </trkpt>
      <trkpt lat="43.70494" lon="3.44158">
        <ele>218.7</ele>
        <time>2016-11-06T11:05:23Z</time>
      </trkpt>
      <trkpt lat="43.70499" lon="3.44149">
        <ele>220.1</ele>
        <time>2016-11-06T11:05:25Z</time>
      </trkpt>
      <trkpt lat="43.70505" lon="3.44139">
        <ele>221.6</ele>
        <time>2016-11-06T11:05:27Z</time>
      </trkpt>
      <trkpt lat="43.7051" lon="3.4413">
        <ele>221.8</ele>
        <time>2016-11-06T11:05:29Z</time>
      </trkpt>
      <trkpt lat="43.70513" lon="3.44122">
        <ele>221.1</ele>
        <time>2016-11-06T11:05:31Z</time>
      </trkpt>
      <trkpt lat="43.70519" lon="3.44111">
        <ele>221</ele>
        <time>2016-11-06T11:05:33Z</time>
      </trkpt>
      <trkpt lat="43.70523" lon="3.44101">
        <ele>220.4</ele>
        <time>2016-11-06T11:05:35Z</time>
      </trkpt>
      <trkpt lat="43.70528" lon="3.44089">
        <ele>220.4</ele>
        <time>2016-11-06T11:05:38Z</time>
      </trkpt>
      <trkpt lat="43.70532" lon="3.4408">
        <ele>220.5</ele>
        <time>2016-11-06T11:05:40Z</time>
      </trkpt>
      <trkpt lat="43.70537" lon="3.44068">
        <ele>220.5</ele>
        <time>2016-11-06T11:05:43Z</time>
      </trkpt>
      <trkpt lat="43.70542" lon="3.44058">
        <ele>220.7</ele>
        <time>2016-11-06T11:05:47Z</time>
      </trkpt>
      <trkpt lat="43.70549" lon="3.44047">
        <ele>220.8</ele>
        <time>2016-11-06T11:05:50Z</time>
      </trkpt>
      <trkpt lat="43.70556" lon="3.44038">
        <ele>220.9</ele>
        <time>2016-11-06T11:05:53Z</time>
      </trkpt>
      <trkpt lat="43.70562" lon="3.44028">
        <ele>221.2</ele>
        <time>2016-11-06T11:05:57Z</time>
      </trkpt>
      <trkpt lat="43.70568" lon="3.44023">
        <ele>221.6</ele>
        <time>2016-11-06T11:06:00Z</time>
      </trkpt>
      <trkpt lat="43.70577" lon="3.44017">
        <ele>222</ele>
        <time>2016-11-06T11:06:03Z</time>
      </trkpt>
      <trkpt lat="43.70585" lon="3.44014">
        <ele>222.2</ele>
        <time>2016-11-06T11:06:06Z</time>
      </trkpt>
      <trkpt lat="43.70593" lon="3.4401">
        <ele>222.5</ele>
        <time>2016-11-06T11:06:09Z</time>
      </trkpt>
      <trkpt lat="43.706" lon="3.44007">
        <ele>222.9</ele>
        <time>2016-11-06T11:06:12Z</time>
      </trkpt>
      <trkpt lat="43.70608" lon="3.44004">
        <ele>223.1</ele>
        <time>2016-11-06T11:06:15Z</time>
      </trkpt>
      <trkpt lat="43.70617" lon="3.44">
        <ele>223.2</ele>
        <time>2016-11-06T11:06:18Z</time>
      </trkpt>
      <trkpt lat="43.70625" lon="3.43995">
        <ele>223.3</ele>
        <time>2016-11-06T11:06:21Z</time>
      </trkpt>
      <trkpt lat="43.70632" lon="3.43991">
        <ele>223.4</ele>
        <time>2016-11-06T11:06:24Z</time>
      </trkpt>
      <trkpt lat="43.70638" lon="3.43985">
        <ele>223.6</ele>
        <time>2016-11-06T11:06:27Z</time>
      </trkpt>
      <trkpt lat="43.70645" lon="3.43979">
        <ele>224</ele>
        <time>2016-11-06T11:06:30Z</time>
      </trkpt>
      <trkpt lat="43.70651" lon="3.43973">
        <ele>224.3</ele>
        <time>2016-11-06T11:06:33Z</time>
      </trkpt>
      <trkpt lat="43.70658" lon="3.43965">
        <ele>224.9</ele>
        <time>2016-11-06T11:06:36Z</time>
      </trkpt>
      <trkpt lat="43.70665" lon="3.43957">
        <ele>225.4</ele>
        <time>2016-11-06T11:06:39Z</time>
      </trkpt>
      <trkpt lat="43.70671" lon="3.43948">
        <ele>225.8</ele>
        <time>2016-11-06T11:06:42Z</time>
      </trkpt>
      <trkpt lat="43.70679" lon="3.43938">
        <ele>226.3</ele>
        <time>2016-11-06T11:06:45Z</time>
      </trkpt>
      <trkpt lat="43.70685" lon="3.4393">
        <ele>226.9</ele>
        <time>2016-11-06T11:06:48Z</time>
      </trkpt>
      <trkpt lat="43.70691" lon="3.43923">
        <ele>227.3</ele>
        <time>2016-11-06T11:06:50Z</time>
      </trkpt>
      <trkpt lat="43.70696" lon="3.43916">
        <ele>227.8</ele>
        <time>2016-11-06T11:06:52Z</time>
      </trkpt>
      <trkpt lat="43.70702" lon="3.43909">
        <ele>228.2</ele>
        <time>2016-11-06T11:06:54Z</time>
      </trkpt>
      <trkpt lat="43.7071" lon="3.439">
        <ele>228.8</ele>
        <time>2016-11-06T11:06:57Z</time>
      </trkpt>
      <trkpt lat="43.70718" lon="3.43891">
        <ele>229.4</ele>
        <time>2016-11-06T11:07:00Z</time>
      </trkpt>
      <trkpt lat="43.70724" lon="3.43884">
        <ele>229.8</ele>
        <time>2016-11-06T11:07:03Z</time>
      </trkpt>
      <trkpt lat="43.70732" lon="3.43874">
        <ele>230.2</ele>
        <time>2016-11-06T11:07:06Z</time>
      </trkpt>
      <trkpt lat="43.7074" lon="3.43865">
        <ele>230.7</ele>
        <time>2016-11-06T11:07:09Z</time>
      </trkpt>
      <trkpt lat="43.70747" lon="3.43857">
        <ele>231.2</ele>
        <time>2016-11-06T11:07:12Z</time>
      </trkpt>
      <trkpt lat="43.70754" lon="3.43849">
        <ele>231.6</ele>
        <time>2016-11-06T11:07:15Z</time>
      </trkpt>
      <trkpt lat="43.70761" lon="3.43841">
        <ele>231.9</ele>
        <time>2016-11-06T11:07:18Z</time>
      </trkpt>
      <trkpt lat="43.70767" lon="3.43834">
        <ele>232.1</ele>
        <time>2016-11-06T11:07:21Z</time>
      </trkpt>
      <trkpt lat="43.70775" lon="3.43827">
        <ele>232.2</ele>
        <time>2016-11-06T11:07:24Z</time>
      </trkpt>
      <trkpt lat="43.70782" lon="3.4382">
        <ele>232.3</ele>
        <time>2016-11-06T11:07:27Z</time>
      </trkpt>
      <trkpt lat="43.70789" lon="3.43816">
        <ele>232.3</ele>
        <time>2016-11-06T11:07:30Z</time>
      </trkpt>
      <trkpt lat="43.70798" lon="3.43812">
        <ele>232.3</ele>
        <time>2016-11-06T11:07:33Z</time>
      </trkpt>
      <trkpt lat="43.70807" lon="3.43809">
        <ele>232.3</ele>
        <time>2016-11-06T11:07:36Z</time>
      </trkpt>
      <trkpt lat="43.70816" lon="3.43807">
        <ele>232.3</ele>
        <time>2016-11-06T11:07:39Z</time>
      </trkpt>
      <trkpt lat="43.70825" lon="3.43806">
        <ele>232.2</ele>
        <time>2016-11-06T11:07:42Z</time>
      </trkpt>
      <trkpt lat="43.70832" lon="3.43804">
        <ele>232.2</ele>
        <time>2016-11-06T11:07:44Z</time>
      </trkpt>
      <trkpt lat="43.70843" lon="3.43803">
        <ele>231.6</ele>
        <time>2016-11-06T11:07:47Z</time>
      </trkpt>
      <trkpt lat="43.70852" lon="3.43803">
        <ele>230.4</ele>
        <time>2016-11-06T11:07:49Z</time>
      </trkpt>
      <trkpt lat="43.70862" lon="3.43803">
        <ele>229.7</ele>
        <time>2016-11-06T11:07:51Z</time>
      </trkpt>
      <trkpt lat="43.70872" lon="3.43803">
        <ele>229.6</ele>
        <time>2016-11-06T11:07:53Z</time>
      </trkpt>
      <trkpt lat="43.70883" lon="3.43804">
        <ele>229.2</ele>
        <time>2016-11-06T11:07:55Z</time>
      </trkpt>
      <trkpt lat="43.70894" lon="3.43807">
        <ele>228.8</ele>
        <time>2016-11-06T11:07:57Z</time>
      </trkpt>
      <trkpt lat="43.70906" lon="3.43811">
        <ele>228.2</ele>
        <time>2016-11-06T11:07:59Z</time>
      </trkpt>
      <trkpt lat="43.70917" lon="3.43818">
        <ele>227.3</ele>
        <time>2016-11-06T11:08:01Z</time>
      </trkpt>
      <trkpt lat="43.70929" lon="3.43827">
        <ele>226.4</ele>
        <time>2016-11-06T11:08:03Z</time>
      </trkpt>
      <trkpt lat="43.7094" lon="3.43836">
        <ele>225.4</ele>
        <time>2016-11-06T11:08:05Z</time>
      </trkpt>
      <trkpt lat="43.70951" lon="3.43843">
        <ele>224.6</ele>
        <time>2016-11-06T11:08:07Z</time>
      </trkpt>
      <trkpt lat="43.70964" lon="3.43848">
        <ele>224.3</ele>
        <time>2016-11-06T11:08:09Z</time>
      </trkpt>
      <trkpt lat="43.70976" lon="3.43853">
        <ele>224.3</ele>
        <time>2016-11-06T11:08:11Z</time>
      </trkpt>
      <trkpt lat="43.70987" lon="3.4386">
        <ele>224.5</ele>
        <time>2016-11-06T11:08:13Z</time>
      </trkpt>
      <trkpt lat="43.70998" lon="3.43866">
        <ele>224.6</ele>
        <time>2016-11-06T11:08:15Z</time>
      </trkpt>
      <trkpt lat="43.71008" lon="3.43869">
        <ele>224.5</ele>
        <time>2016-11-06T11:08:17Z</time>
      </trkpt>
      <trkpt lat="43.7102" lon="3.43867">
        <ele>224.4</ele>
        <time>2016-11-06T11:08:19Z</time>
      </trkpt>
      <trkpt lat="43.71029" lon="3.43864">
        <ele>224.7</ele>
        <time>2016-11-06T11:08:21Z</time>
      </trkpt>
      <trkpt lat="43.71038" lon="3.43858">
        <ele>225.1</ele>
        <time>2016-11-06T11:08:23Z</time>
      </trkpt>
      <trkpt lat="43.71044" lon="3.43853">
        <ele>225.8</ele>
        <time>2016-11-06T11:08:25Z</time>
      </trkpt>
      <trkpt lat="43.71051" lon="3.43847">
        <ele>226.7</ele>
        <time>2016-11-06T11:08:27Z</time>
      </trkpt>
      <trkpt lat="43.71061" lon="3.43841">
        <ele>227</ele>
        <time>2016-11-06T11:08:31Z</time>
      </trkpt>
      <trkpt lat="43.7107" lon="3.43835">
        <ele>227.3</ele>
        <time>2016-11-06T11:08:34Z</time>
      </trkpt>
      <trkpt lat="43.71076" lon="3.4383">
        <ele>227.6</ele>
        <time>2016-11-06T11:08:37Z</time>
      </trkpt>
      <trkpt lat="43.71085" lon="3.43825">
        <ele>227.9</ele>
        <time>2016-11-06T11:08:40Z</time>
      </trkpt>
      <trkpt lat="43.71093" lon="3.43822">
        <ele>228</ele>
        <time>2016-11-06T11:08:43Z</time>
      </trkpt>
      <trkpt lat="43.71101" lon="3.43816">
        <ele>228.1</ele>
        <time>2016-11-06T11:08:47Z</time>
      </trkpt>
      <trkpt lat="43.71108" lon="3.43811">
        <ele>228.2</ele>
        <time>2016-11-06T11:08:50Z</time>
      </trkpt>
      <trkpt lat="43.71114" lon="3.43807">
        <ele>228.4</ele>
        <time>2016-11-06T11:08:53Z</time>
      </trkpt>
      <trkpt lat="43.71121" lon="3.43801">
        <ele>228.5</ele>
        <time>2016-11-06T11:08:56Z</time>
      </trkpt>
      <trkpt lat="43.7113" lon="3.43795">
        <ele>228.8</ele>
        <time>2016-11-06T11:09:00Z</time>
      </trkpt>
      <trkpt lat="43.71135" lon="3.43788">
        <ele>229</ele>
        <time>2016-11-06T11:09:03Z</time>
      </trkpt>
      <trkpt lat="43.71142" lon="3.43781">
        <ele>229.3</ele>
        <time>2016-11-06T11:09:06Z</time>
      </trkpt>
      <trkpt lat="43.71147" lon="3.43773">
        <ele>229.7</ele>
        <time>2016-11-06T11:09:09Z</time>
      </trkpt>
      <trkpt lat="43.71152" lon="3.43763">
        <ele>230.2</ele>
        <time>2016-11-06T11:09:12Z</time>
      </trkpt>
      <trkpt lat="43.71156" lon="3.43755">
        <ele>230.6</ele>
        <time>2016-11-06T11:09:15Z</time>
      </trkpt>
      <trkpt lat="43.7116" lon="3.43745">
        <ele>230.9</ele>
        <time>2016-11-06T11:09:18Z</time>
      </trkpt>
      <trkpt lat="43.71164" lon="3.43734">
        <ele>231.2</ele>
        <time>2016-11-06T11:09:21Z</time>
      </trkpt>
      <trkpt lat="43.71169" lon="3.43722">
        <ele>231.4</ele>
        <time>2016-11-06T11:09:24Z</time>
      </trkpt>
      <trkpt lat="43.71173" lon="3.43712">
        <ele>231.6</ele>
        <time>2016-11-06T11:09:27Z</time>
      </trkpt>
      <trkpt lat="43.71177" lon="3.43702">
        <ele>231.7</ele>
        <time>2016-11-06T11:09:29Z</time>
      </trkpt>
      <trkpt lat="43.71181" lon="3.43689">
        <ele>231.7</ele>
        <time>2016-11-06T11:09:32Z</time>
      </trkpt>
      <trkpt lat="43.71186" lon="3.43677">
        <ele>231.7</ele>
        <time>2016-11-06T11:09:35Z</time>
      </trkpt>
      <trkpt lat="43.71191" lon="3.43667">
        <ele>231.7</ele>
        <time>2016-11-06T11:09:38Z</time>
      </trkpt>
      <trkpt lat="43.71195" lon="3.43658">
        <ele>231.7</ele>
        <time>2016-11-06T11:09:40Z</time>
      </trkpt>
      <trkpt lat="43.71201" lon="3.43648">
        <ele>231.9</ele>
        <time>2016-11-06T11:09:43Z</time>
      </trkpt>
      <trkpt lat="43.71206" lon="3.43638">
        <ele>232.2</ele>
        <time>2016-11-06T11:09:46Z</time>
      </trkpt>
      <trkpt lat="43.71214" lon="3.43628">
        <ele>232.5</ele>
        <time>2016-11-06T11:09:49Z</time>
      </trkpt>
      <trkpt lat="43.71219" lon="3.43621">
        <ele>232.8</ele>
        <time>2016-11-06T11:09:52Z</time>
      </trkpt>
      <trkpt lat="43.71226" lon="3.43613">
        <ele>233.2</ele>
        <time>2016-11-06T11:09:55Z</time>
      </trkpt>
      <trkpt lat="43.71233" lon="3.43604">
        <ele>233.8</ele>
        <time>2016-11-06T11:09:58Z</time>
      </trkpt>
      <trkpt lat="43.7124" lon="3.43596">
        <ele>234.4</ele>
        <time>2016-11-06T11:10:01Z</time>
      </trkpt>
      <trkpt lat="43.71246" lon="3.43588">
        <ele>234.8</ele>
        <time>2016-11-06T11:10:04Z</time>
      </trkpt>
      <trkpt lat="43.71255" lon="3.43579">
        <ele>235.2</ele>
        <time>2016-11-06T11:10:07Z</time>
      </trkpt>
      <trkpt lat="43.7126" lon="3.43572">
        <ele>235.6</ele>
        <time>2016-11-06T11:10:09Z</time>
      </trkpt>
      <trkpt lat="43.71266" lon="3.43566">
        <ele>239.2</ele>
        <time>2016-11-06T11:10:11Z</time>
      </trkpt>
      <trkpt lat="43.71271" lon="3.43558">
        <ele>241.7</ele>
        <time>2016-11-06T11:10:13Z</time>
      </trkpt>
      <trkpt lat="43.71279" lon="3.43549">
        <ele>242.8</ele>
        <time>2016-11-06T11:10:15Z</time>
      </trkpt>
      <trkpt lat="43.71287" lon="3.43539">
        <ele>243.6</ele>
        <time>2016-11-06T11:10:17Z</time>
      </trkpt>
      <trkpt lat="43.71294" lon="3.4353">
        <ele>244</ele>
        <time>2016-11-06T11:10:19Z</time>
      </trkpt>
      <trkpt lat="43.71302" lon="3.4352">
        <ele>243.3</ele>
        <time>2016-11-06T11:10:21Z</time>
      </trkpt>
      <trkpt lat="43.71309" lon="3.43508">
        <ele>241.5</ele>
        <time>2016-11-06T11:10:23Z</time>
      </trkpt>
      <trkpt lat="43.71316" lon="3.43494">
        <ele>239.4</ele>
        <time>2016-11-06T11:10:25Z</time>
      </trkpt>
      <trkpt lat="43.71323" lon="3.43477">
        <ele>238</ele>
        <time>2016-11-06T11:10:27Z</time>
      </trkpt>
      <trkpt lat="43.71327" lon="3.43468">
        <ele>237.5</ele>
        <time>2016-11-06T11:10:28Z</time>
      </trkpt>
      <trkpt lat="43.7133" lon="3.43459">
        <ele>237.1</ele>
        <time>2016-11-06T11:10:29Z</time>
      </trkpt>
      <trkpt lat="43.71334" lon="3.4345">
        <ele>236.7</ele>
        <time>2016-11-06T11:10:30Z</time>
      </trkpt>
      <trkpt lat="43.71337" lon="3.43441">
        <ele>236.3</ele>
        <time>2016-11-06T11:10:31Z</time>
      </trkpt>
      <trkpt lat="43.7134" lon="3.43431">
        <ele>235.8</ele>
        <time>2016-11-06T11:10:32Z</time>
      </trkpt>
      <trkpt lat="43.71344" lon="3.43422">
        <ele>235.4</ele>
        <time>2016-11-06T11:10:33Z</time>
      </trkpt>
      <trkpt lat="43.71347" lon="3.43413">
        <ele>234.9</ele>
        <time>2016-11-06T11:10:34Z</time>
      </trkpt>
      <trkpt lat="43.71351" lon="3.43402">
        <ele>234.3</ele>
        <time>2016-11-06T11:10:35Z</time>
      </trkpt>
      <trkpt lat="43.71355" lon="3.43393">
        <ele>233.4</ele>
        <time>2016-11-06T11:10:36Z</time>
      </trkpt>
      <trkpt lat="43.71359" lon="3.43383">
        <ele>232.4</ele>
        <time>2016-11-06T11:10:37Z</time>
      </trkpt>
      <trkpt lat="43.71363" lon="3.43372">
        <ele>231.2</ele>
        <time>2016-11-06T11:10:38Z</time>
      </trkpt>
      <trkpt lat="43.71367" lon="3.43362">
        <ele>230.4</ele>
        <time>2016-11-06T11:10:39Z</time>
      </trkpt>
      <trkpt lat="43.7137" lon="3.43353">
        <ele>229.5</ele>
        <time>2016-11-06T11:10:40Z</time>
      </trkpt>
      <trkpt lat="43.71374" lon="3.43344">
        <ele>228.7</ele>
        <time>2016-11-06T11:10:41Z</time>
      </trkpt>
      <trkpt lat="43.71377" lon="3.43335">
        <ele>228</ele>
        <time>2016-11-06T11:10:42Z</time>
      </trkpt>
      <trkpt lat="43.71384" lon="3.43318">
        <ele>226.8</ele>
        <time>2016-11-06T11:10:44Z</time>
      </trkpt>
      <trkpt lat="43.71391" lon="3.43301">
        <ele>225.6</ele>
        <time>2016-11-06T11:10:46Z</time>
      </trkpt>
      <trkpt lat="43.71396" lon="3.43283">
        <ele>225.2</ele>
        <time>2016-11-06T11:10:48Z</time>
      </trkpt>
      <trkpt lat="43.71398" lon="3.43265">
        <ele>225.2</ele>
        <time>2016-11-06T11:10:50Z</time>
      </trkpt>
      <trkpt lat="43.71398" lon="3.43246">
        <ele>224.6</ele>
        <time>2016-11-06T11:10:52Z</time>
      </trkpt>
      <trkpt lat="43.71398" lon="3.43235">
        <ele>224.2</ele>
        <time>2016-11-06T11:10:53Z</time>
      </trkpt>
      <trkpt lat="43.71398" lon="3.43225">
        <ele>223.7</ele>
        <time>2016-11-06T11:10:54Z</time>
      </trkpt>
      <trkpt lat="43.71397" lon="3.43205">
        <ele>224.1</ele>
        <time>2016-11-06T11:10:56Z</time>
      </trkpt>
      <trkpt lat="43.71398" lon="3.43193">
        <ele>224.3</ele>
        <time>2016-11-06T11:10:57Z</time>
      </trkpt>
      <trkpt lat="43.714" lon="3.43174">
        <ele>224.1</ele>
        <time>2016-11-06T11:10:59Z</time>
      </trkpt>
      <trkpt lat="43.71403" lon="3.43156">
        <ele>223.9</ele>
        <time>2016-11-06T11:11:01Z</time>
      </trkpt>
      <trkpt lat="43.71407" lon="3.43137">
        <ele>223.8</ele>
        <time>2016-11-06T11:11:03Z</time>
      </trkpt>
      <trkpt lat="43.71408" lon="3.43127">
        <ele>223.9</ele>
        <time>2016-11-06T11:11:04Z</time>
      </trkpt>
      <trkpt lat="43.71413" lon="3.4311">
        <ele>223.3</ele>
        <time>2016-11-06T11:11:06Z</time>
      </trkpt>
      <trkpt lat="43.71417" lon="3.43094">
        <ele>223</ele>
        <time>2016-11-06T11:11:08Z</time>
      </trkpt>
      <trkpt lat="43.71421" lon="3.43077">
        <ele>222.9</ele>
        <time>2016-11-06T11:11:10Z</time>
      </trkpt>
      <trkpt lat="43.71423" lon="3.43061">
        <ele>223.2</ele>
        <time>2016-11-06T11:11:12Z</time>
      </trkpt>
      <trkpt lat="43.71426" lon="3.43044">
        <ele>223.6</ele>
        <time>2016-11-06T11:11:14Z</time>
      </trkpt>
      <trkpt lat="43.71427" lon="3.43029">
        <ele>222.8</ele>
        <time>2016-11-06T11:11:16Z</time>
      </trkpt>
      <trkpt lat="43.71427" lon="3.43014">
        <ele>221.5</ele>
        <time>2016-11-06T11:11:18Z</time>
      </trkpt>
      <trkpt lat="43.71425" lon="3.42997">
        <ele>220.4</ele>
        <time>2016-11-06T11:11:20Z</time>
      </trkpt>
      <trkpt lat="43.71423" lon="3.42982">
        <ele>219.2</ele>
        <time>2016-11-06T11:11:22Z</time>
      </trkpt>
      <trkpt lat="43.7142" lon="3.42966">
        <ele>218.4</ele>
        <time>2016-11-06T11:11:24Z</time>
      </trkpt>
      <trkpt lat="43.71415" lon="3.4295">
        <ele>218</ele>
        <time>2016-11-06T11:11:26Z</time>
      </trkpt>
      <trkpt lat="43.71411" lon="3.42934">
        <ele>218.1</ele>
        <time>2016-11-06T11:11:28Z</time>
      </trkpt>
      <trkpt lat="43.71405" lon="3.4292">
        <ele>217.7</ele>
        <time>2016-11-06T11:11:30Z</time>
      </trkpt>
      <trkpt lat="43.71399" lon="3.42904">
        <ele>217.3</ele>
        <time>2016-11-06T11:11:32Z</time>
      </trkpt>
      <trkpt lat="43.71392" lon="3.42889">
        <ele>217.4</ele>
        <time>2016-11-06T11:11:34Z</time>
      </trkpt>
      <trkpt lat="43.71387" lon="3.42876">
        <ele>217</ele>
        <time>2016-11-06T11:11:36Z</time>
      </trkpt>
      <trkpt lat="43.71381" lon="3.4286">
        <ele>217.2</ele>
        <time>2016-11-06T11:11:38Z</time>
      </trkpt>
      <trkpt lat="43.71377" lon="3.42845">
        <ele>217.2</ele>
        <time>2016-11-06T11:11:40Z</time>
      </trkpt>
      <trkpt lat="43.7138" lon="3.42829">
        <ele>216.7</ele>
        <time>2016-11-06T11:11:42Z</time>
      </trkpt>
      <trkpt lat="43.71385" lon="3.42811">
        <ele>215.8</ele>
        <time>2016-11-06T11:11:44Z</time>
      </trkpt>
      <trkpt lat="43.71387" lon="3.428">
        <ele>215.3</ele>
        <time>2016-11-06T11:11:45Z</time>
      </trkpt>
      <trkpt lat="43.7139" lon="3.42791">
        <ele>214.5</ele>
        <time>2016-11-06T11:11:46Z</time>
      </trkpt>
      <trkpt lat="43.71392" lon="3.42781">
        <ele>213.6</ele>
        <time>2016-11-06T11:11:47Z</time>
      </trkpt>
      <trkpt lat="43.71394" lon="3.4277">
        <ele>212.7</ele>
        <time>2016-11-06T11:11:48Z</time>
      </trkpt>
      <trkpt lat="43.71396" lon="3.42759">
        <ele>212.2</ele>
        <time>2016-11-06T11:11:49Z</time>
      </trkpt>
      <trkpt lat="43.71398" lon="3.42748">
        <ele>211.5</ele>
        <time>2016-11-06T11:11:50Z</time>
      </trkpt>
      <trkpt lat="43.714" lon="3.42737">
        <ele>211</ele>
        <time>2016-11-06T11:11:51Z</time>
      </trkpt>
      <trkpt lat="43.71401" lon="3.42726">
        <ele>210.5</ele>
        <time>2016-11-06T11:11:52Z</time>
      </trkpt>
      <trkpt lat="43.71404" lon="3.42716">
        <ele>209.8</ele>
        <time>2016-11-06T11:11:53Z</time>
      </trkpt>
      <trkpt lat="43.71405" lon="3.42705">
        <ele>209.3</ele>
        <time>2016-11-06T11:11:54Z</time>
      </trkpt>
      <trkpt lat="43.71407" lon="3.42694">
        <ele>208.7</ele>
        <time>2016-11-06T11:11:55Z</time>
      </trkpt>
      <trkpt lat="43.7141" lon="3.42677">
        <ele>208.1</ele>
        <time>2016-11-06T11:11:57Z</time>
      </trkpt>
      <trkpt lat="43.71414" lon="3.42662">
        <ele>207.9</ele>
        <time>2016-11-06T11:11:59Z</time>
      </trkpt>
      <trkpt lat="43.71418" lon="3.42649">
        <ele>208.1</ele>
        <time>2016-11-06T11:12:01Z</time>
      </trkpt>
      <trkpt lat="43.71421" lon="3.4264">
        <ele>208.4</ele>
        <time>2016-11-06T11:12:03Z</time>
      </trkpt>
      <trkpt lat="43.71427" lon="3.4263">
        <ele>208.8</ele>
        <time>2016-11-06T11:12:05Z</time>
      </trkpt>
      <trkpt lat="43.71435" lon="3.42617">
        <ele>208.9</ele>
        <time>2016-11-06T11:12:07Z</time>
      </trkpt>
      <trkpt lat="43.71444" lon="3.42608">
        <ele>208.3</ele>
        <time>2016-11-06T11:12:09Z</time>
      </trkpt>
      <trkpt lat="43.71454" lon="3.42599">
        <ele>206.7</ele>
        <time>2016-11-06T11:12:11Z</time>
      </trkpt>
      <trkpt lat="43.71464" lon="3.42592">
        <ele>206.1</ele>
        <time>2016-11-06T11:12:13Z</time>
      </trkpt>
      <trkpt lat="43.71468" lon="3.42583">
        <ele>205.9</ele>
        <time>2016-11-06T11:12:15Z</time>
      </trkpt>
      <trkpt lat="43.71472" lon="3.4257">
        <ele>206.4</ele>
        <time>2016-11-06T11:12:17Z</time>
      </trkpt>
      <trkpt lat="43.71474" lon="3.42557">
        <ele>206.8</ele>
        <time>2016-11-06T11:12:19Z</time>
      </trkpt>
      <trkpt lat="43.71475" lon="3.42544">
        <ele>206.9</ele>
        <time>2016-11-06T11:12:21Z</time>
      </trkpt>
      <trkpt lat="43.71476" lon="3.4253">
        <ele>207.1</ele>
        <time>2016-11-06T11:12:23Z</time>
      </trkpt>
      <trkpt lat="43.71477" lon="3.42518">
        <ele>206.5</ele>
        <time>2016-11-06T11:12:25Z</time>
      </trkpt>
      <trkpt lat="43.71477" lon="3.42502">
        <ele>205.5</ele>
        <time>2016-11-06T11:12:27Z</time>
      </trkpt>
      <trkpt lat="43.71477" lon="3.4249">
        <ele>205.1</ele>
        <time>2016-11-06T11:12:29Z</time>
      </trkpt>
      <trkpt lat="43.71477" lon="3.42479">
        <ele>204.6</ele>
        <time>2016-11-06T11:12:31Z</time>
      </trkpt>
      <trkpt lat="43.71476" lon="3.42467">
        <ele>204.6</ele>
        <time>2016-11-06T11:12:33Z</time>
      </trkpt>
      <trkpt lat="43.71476" lon="3.42456">
        <ele>204.6</ele>
        <time>2016-11-06T11:12:36Z</time>
      </trkpt>
      <trkpt lat="43.71475" lon="3.42443">
        <ele>204.6</ele>
        <time>2016-11-06T11:12:39Z</time>
      </trkpt>
      <trkpt lat="43.71475" lon="3.4243">
        <ele>204.8</ele>
        <time>2016-11-06T11:12:42Z</time>
      </trkpt>
      <trkpt lat="43.71475" lon="3.42417">
        <ele>205.2</ele>
        <time>2016-11-06T11:12:45Z</time>
      </trkpt>
      <trkpt lat="43.71476" lon="3.42406">
        <ele>205.7</ele>
        <time>2016-11-06T11:12:49Z</time>
      </trkpt>
      <trkpt lat="43.71475" lon="3.42393">
        <ele>206.3</ele>
        <time>2016-11-06T11:12:52Z</time>
      </trkpt>
      <trkpt lat="43.71475" lon="3.42382">
        <ele>206.8</ele>
        <time>2016-11-06T11:12:55Z</time>
      </trkpt>
      <trkpt lat="43.71474" lon="3.4237">
        <ele>207.3</ele>
        <time>2016-11-06T11:12:58Z</time>
      </trkpt>
      <trkpt lat="43.71476" lon="3.42357">
        <ele>207.8</ele>
        <time>2016-11-06T11:13:01Z</time>
      </trkpt>
      <trkpt lat="43.71475" lon="3.42347">
        <ele>208.3</ele>
        <time>2016-11-06T11:13:04Z</time>
      </trkpt>
      <trkpt lat="43.71476" lon="3.42336">
        <ele>208.9</ele>
        <time>2016-11-06T11:13:07Z</time>
      </trkpt>
      <trkpt lat="43.71475" lon="3.42327">
        <ele>209.5</ele>
        <time>2016-11-06T11:13:10Z</time>
      </trkpt>
      <trkpt lat="43.71473" lon="3.42315">
        <ele>209.9</ele>
        <time>2016-11-06T11:13:13Z</time>
      </trkpt>
      <trkpt lat="43.7147" lon="3.42305">
        <ele>211.3</ele>
        <time>2016-11-06T11:13:18Z</time>
      </trkpt>
      <trkpt lat="43.71468" lon="3.42296">
        <ele>212.9</ele>
        <time>2016-11-06T11:13:23Z</time>
      </trkpt>
      <trkpt lat="43.71466" lon="3.42294">
        <ele>214</ele>
        <time>2016-11-06T11:13:30Z</time>
      </trkpt>
      <trkpt lat="43.71454" lon="3.42291">
        <ele>214.1</ele>
        <time>2016-11-06T11:13:32Z</time>
      </trkpt>
      <trkpt lat="43.71446" lon="3.42289">
        <ele>214.3</ele>
        <time>2016-11-06T11:13:38Z</time>
      </trkpt>
      <trkpt lat="43.71446" lon="3.42289">
        <ele>214.5</ele>
        <time>2016-11-06T11:13:45Z</time>
      </trkpt>
    </trkseg>
  </trk>
</gpx>